<?xml version="1.0" encoding="UTF-8" standalone="no" ?>
<gpx xmlns="http://www.topografix.com/GPX/1/1" xmlns:xsi="http://www.w3.org/2001/XMLSchema-instance" xsi:schemaLocation="http://www.topografix.com/GPX/1/1 http://www.topografix.com/GPX/1/1/gpx.xsd" version="1.1" creator="VisuGPX - https://www.visugpx.com">
  <metadata>
    <name>La Lèchoise VTT</name>
    <desc><![CDATA[Circuit de 40 km de la Lèchoise VTT]]></desc>
  </metadata>
  <trk>
    <name><![CDATA[13/03/12 13:36]]></name>
    <desc><![CDATA[]]></desc>
    <trkseg>
      <trkpt lat="44.98549" lon="0.39413">
        <ele>117</ele>
        <time>2012-03-13T12:36:21.000Z</time>
      </trkpt>
      <trkpt lat="44.98552" lon="0.39426">
        <ele>133</ele>
        <time>2012-03-13T12:36:22.000Z</time>
      </trkpt>
      <trkpt lat="44.98563" lon="0.39414">
        <ele>134</ele>
        <time>2012-03-13T12:36:26.000Z</time>
      </trkpt>
      <trkpt lat="44.98562" lon="0.39408">
        <ele>133</ele>
        <time>2012-03-13T12:36:29.000Z</time>
      </trkpt>
      <trkpt lat="44.98568" lon="0.3941">
        <ele>149</ele>
        <time>2012-03-13T12:36:44.000Z</time>
      </trkpt>
      <trkpt lat="44.98574" lon="0.39409">
        <ele>149</ele>
        <time>2012-03-13T12:36:46.000Z</time>
      </trkpt>
      <trkpt lat="44.98582" lon="0.39408">
        <ele>149</ele>
        <time>2012-03-13T12:36:48.000Z</time>
      </trkpt>
      <trkpt lat="44.98591" lon="0.39405">
        <ele>149</ele>
        <time>2012-03-13T12:36:50.000Z</time>
      </trkpt>
      <trkpt lat="44.98596" lon="0.39404">
        <ele>149</ele>
        <time>2012-03-13T12:36:51.000Z</time>
      </trkpt>
      <trkpt lat="44.986" lon="0.39403">
        <ele>149</ele>
        <time>2012-03-13T12:36:52.000Z</time>
      </trkpt>
      <trkpt lat="44.98605" lon="0.39402">
        <ele>148</ele>
        <time>2012-03-13T12:36:53.000Z</time>
      </trkpt>
      <trkpt lat="44.98611" lon="0.394">
        <ele>148</ele>
        <time>2012-03-13T12:36:54.000Z</time>
      </trkpt>
      <trkpt lat="44.98616" lon="0.39398">
        <ele>147</ele>
        <time>2012-03-13T12:36:55.000Z</time>
      </trkpt>
      <trkpt lat="44.98621" lon="0.39396">
        <ele>146</ele>
        <time>2012-03-13T12:36:56.000Z</time>
      </trkpt>
      <trkpt lat="44.98626" lon="0.39393">
        <ele>146</ele>
        <time>2012-03-13T12:36:57.000Z</time>
      </trkpt>
      <trkpt lat="44.98632" lon="0.3939">
        <ele>147</ele>
        <time>2012-03-13T12:36:58.000Z</time>
      </trkpt>
      <trkpt lat="44.98637" lon="0.39387">
        <ele>146</ele>
        <time>2012-03-13T12:36:59.000Z</time>
      </trkpt>
      <trkpt lat="44.98643" lon="0.39383">
        <ele>146</ele>
        <time>2012-03-13T12:37:00.000Z</time>
      </trkpt>
      <trkpt lat="44.98648" lon="0.3938">
        <ele>146</ele>
        <time>2012-03-13T12:37:01.000Z</time>
      </trkpt>
      <trkpt lat="44.98654" lon="0.39376">
        <ele>147</ele>
        <time>2012-03-13T12:37:02.000Z</time>
      </trkpt>
      <trkpt lat="44.98658" lon="0.39372">
        <ele>146</ele>
        <time>2012-03-13T12:37:03.000Z</time>
      </trkpt>
      <trkpt lat="44.98663" lon="0.39368">
        <ele>146</ele>
        <time>2012-03-13T12:37:04.000Z</time>
      </trkpt>
      <trkpt lat="44.98667" lon="0.39364">
        <ele>145</ele>
        <time>2012-03-13T12:37:05.000Z</time>
      </trkpt>
      <trkpt lat="44.98672" lon="0.3936">
        <ele>145</ele>
        <time>2012-03-13T12:37:06.000Z</time>
      </trkpt>
      <trkpt lat="44.98679" lon="0.39354">
        <ele>144</ele>
        <time>2012-03-13T12:37:08.000Z</time>
      </trkpt>
      <trkpt lat="44.98683" lon="0.39359">
        <ele>140</ele>
        <time>2012-03-13T12:37:33.000Z</time>
      </trkpt>
      <trkpt lat="44.98688" lon="0.3936">
        <ele>141</ele>
        <time>2012-03-13T12:37:35.000Z</time>
      </trkpt>
      <trkpt lat="44.9869" lon="0.39367">
        <ele>141</ele>
        <time>2012-03-13T12:37:37.000Z</time>
      </trkpt>
      <trkpt lat="44.98692" lon="0.39375">
        <ele>142</ele>
        <time>2012-03-13T12:37:39.000Z</time>
      </trkpt>
      <trkpt lat="44.98693" lon="0.39381">
        <ele>143</ele>
        <time>2012-03-13T12:37:41.000Z</time>
      </trkpt>
      <trkpt lat="44.98698" lon="0.39386">
        <ele>143</ele>
        <time>2012-03-13T12:37:45.000Z</time>
      </trkpt>
      <trkpt lat="44.98701" lon="0.39392">
        <ele>144</ele>
        <time>2012-03-13T12:37:55.000Z</time>
      </trkpt>
      <trkpt lat="44.98704" lon="0.39398">
        <ele>144</ele>
        <time>2012-03-13T12:37:57.000Z</time>
      </trkpt>
      <trkpt lat="44.98707" lon="0.39405">
        <ele>145</ele>
        <time>2012-03-13T12:38:00.000Z</time>
      </trkpt>
      <trkpt lat="44.98704" lon="0.39411">
        <ele>145</ele>
        <time>2012-03-13T12:38:06.000Z</time>
      </trkpt>
      <trkpt lat="44.98702" lon="0.39418">
        <ele>144</ele>
        <time>2012-03-13T12:38:09.000Z</time>
      </trkpt>
      <trkpt lat="44.98698" lon="0.39425">
        <ele>144</ele>
        <time>2012-03-13T12:38:12.000Z</time>
      </trkpt>
      <trkpt lat="44.98694" lon="0.39429">
        <ele>144</ele>
        <time>2012-03-13T12:38:14.000Z</time>
      </trkpt>
      <trkpt lat="44.9869" lon="0.39433">
        <ele>145</ele>
        <time>2012-03-13T12:38:16.000Z</time>
      </trkpt>
      <trkpt lat="44.98684" lon="0.39435">
        <ele>145</ele>
        <time>2012-03-13T12:38:18.000Z</time>
      </trkpt>
      <trkpt lat="44.98676" lon="0.39438">
        <ele>145</ele>
        <time>2012-03-13T12:38:20.000Z</time>
      </trkpt>
      <trkpt lat="44.9867" lon="0.39442">
        <ele>145</ele>
        <time>2012-03-13T12:38:22.000Z</time>
      </trkpt>
      <trkpt lat="44.98663" lon="0.39447">
        <ele>145</ele>
        <time>2012-03-13T12:38:24.000Z</time>
      </trkpt>
      <trkpt lat="44.98658" lon="0.39449">
        <ele>146</ele>
        <time>2012-03-13T12:38:25.000Z</time>
      </trkpt>
      <trkpt lat="44.98652" lon="0.39456">
        <ele>146</ele>
        <time>2012-03-13T12:38:27.000Z</time>
      </trkpt>
      <trkpt lat="44.98648" lon="0.39465">
        <ele>146</ele>
        <time>2012-03-13T12:38:29.000Z</time>
      </trkpt>
      <trkpt lat="44.98643" lon="0.39474">
        <ele>147</ele>
        <time>2012-03-13T12:38:31.000Z</time>
      </trkpt>
      <trkpt lat="44.9864" lon="0.39482">
        <ele>148</ele>
        <time>2012-03-13T12:38:33.000Z</time>
      </trkpt>
      <trkpt lat="44.98636" lon="0.3949">
        <ele>149</ele>
        <time>2012-03-13T12:38:35.000Z</time>
      </trkpt>
      <trkpt lat="44.98632" lon="0.39498">
        <ele>149</ele>
        <time>2012-03-13T12:38:37.000Z</time>
      </trkpt>
      <trkpt lat="44.98628" lon="0.39506">
        <ele>150</ele>
        <time>2012-03-13T12:38:39.000Z</time>
      </trkpt>
      <trkpt lat="44.98624" lon="0.39515">
        <ele>150</ele>
        <time>2012-03-13T12:38:41.000Z</time>
      </trkpt>
      <trkpt lat="44.9862" lon="0.39524">
        <ele>150</ele>
        <time>2012-03-13T12:38:43.000Z</time>
      </trkpt>
      <trkpt lat="44.98616" lon="0.39534">
        <ele>150</ele>
        <time>2012-03-13T12:38:45.000Z</time>
      </trkpt>
      <trkpt lat="44.98612" lon="0.39543">
        <ele>150</ele>
        <time>2012-03-13T12:38:47.000Z</time>
      </trkpt>
      <trkpt lat="44.98607" lon="0.39553">
        <ele>149</ele>
        <time>2012-03-13T12:38:49.000Z</time>
      </trkpt>
      <trkpt lat="44.98602" lon="0.39562">
        <ele>148</ele>
        <time>2012-03-13T12:38:51.000Z</time>
      </trkpt>
      <trkpt lat="44.98599" lon="0.3957">
        <ele>148</ele>
        <time>2012-03-13T12:38:53.000Z</time>
      </trkpt>
      <trkpt lat="44.98596" lon="0.39578">
        <ele>148</ele>
        <time>2012-03-13T12:38:55.000Z</time>
      </trkpt>
      <trkpt lat="44.98591" lon="0.39588">
        <ele>148</ele>
        <time>2012-03-13T12:38:57.000Z</time>
      </trkpt>
      <trkpt lat="44.98587" lon="0.39598">
        <ele>146</ele>
        <time>2012-03-13T12:38:58.000Z</time>
      </trkpt>
      <trkpt lat="44.98585" lon="0.39606">
        <ele>145</ele>
        <time>2012-03-13T12:38:59.000Z</time>
      </trkpt>
      <trkpt lat="44.98582" lon="0.39612">
        <ele>145</ele>
        <time>2012-03-13T12:39:00.000Z</time>
      </trkpt>
      <trkpt lat="44.98578" lon="0.39618">
        <ele>145</ele>
        <time>2012-03-13T12:39:01.000Z</time>
      </trkpt>
      <trkpt lat="44.98574" lon="0.39622">
        <ele>145</ele>
        <time>2012-03-13T12:39:02.000Z</time>
      </trkpt>
      <trkpt lat="44.98569" lon="0.39626">
        <ele>145</ele>
        <time>2012-03-13T12:39:03.000Z</time>
      </trkpt>
      <trkpt lat="44.98564" lon="0.39631">
        <ele>145</ele>
        <time>2012-03-13T12:39:04.000Z</time>
      </trkpt>
      <trkpt lat="44.98558" lon="0.39636">
        <ele>145</ele>
        <time>2012-03-13T12:39:05.000Z</time>
      </trkpt>
      <trkpt lat="44.98553" lon="0.39639">
        <ele>145</ele>
        <time>2012-03-13T12:39:06.000Z</time>
      </trkpt>
      <trkpt lat="44.98546" lon="0.39641">
        <ele>146</ele>
        <time>2012-03-13T12:39:07.000Z</time>
      </trkpt>
      <trkpt lat="44.98538" lon="0.39645">
        <ele>146</ele>
        <time>2012-03-13T12:39:08.000Z</time>
      </trkpt>
      <trkpt lat="44.98532" lon="0.39649">
        <ele>147</ele>
        <time>2012-03-13T12:39:09.000Z</time>
      </trkpt>
      <trkpt lat="44.98525" lon="0.39655">
        <ele>147</ele>
        <time>2012-03-13T12:39:10.000Z</time>
      </trkpt>
      <trkpt lat="44.98518" lon="0.39662">
        <ele>146</ele>
        <time>2012-03-13T12:39:11.000Z</time>
      </trkpt>
      <trkpt lat="44.98511" lon="0.39668">
        <ele>146</ele>
        <time>2012-03-13T12:39:12.000Z</time>
      </trkpt>
      <trkpt lat="44.98504" lon="0.39676">
        <ele>146</ele>
        <time>2012-03-13T12:39:13.000Z</time>
      </trkpt>
      <trkpt lat="44.985" lon="0.39687">
        <ele>146</ele>
        <time>2012-03-13T12:39:14.000Z</time>
      </trkpt>
      <trkpt lat="44.98495" lon="0.39698">
        <ele>144</ele>
        <time>2012-03-13T12:39:15.000Z</time>
      </trkpt>
      <trkpt lat="44.9849" lon="0.3971">
        <ele>144</ele>
        <time>2012-03-13T12:39:16.000Z</time>
      </trkpt>
      <trkpt lat="44.98486" lon="0.39722">
        <ele>145</ele>
        <time>2012-03-13T12:39:17.000Z</time>
      </trkpt>
      <trkpt lat="44.98483" lon="0.39734">
        <ele>144</ele>
        <time>2012-03-13T12:39:18.000Z</time>
      </trkpt>
      <trkpt lat="44.9848" lon="0.39746">
        <ele>145</ele>
        <time>2012-03-13T12:39:19.000Z</time>
      </trkpt>
      <trkpt lat="44.98476" lon="0.39756">
        <ele>145</ele>
        <time>2012-03-13T12:39:20.000Z</time>
      </trkpt>
      <trkpt lat="44.98472" lon="0.39768">
        <ele>146</ele>
        <time>2012-03-13T12:39:21.000Z</time>
      </trkpt>
      <trkpt lat="44.98471" lon="0.39779">
        <ele>146</ele>
        <time>2012-03-13T12:39:22.000Z</time>
      </trkpt>
      <trkpt lat="44.9847" lon="0.3979">
        <ele>146</ele>
        <time>2012-03-13T12:39:23.000Z</time>
      </trkpt>
      <trkpt lat="44.9847" lon="0.39802">
        <ele>146</ele>
        <time>2012-03-13T12:39:24.000Z</time>
      </trkpt>
      <trkpt lat="44.98468" lon="0.39811">
        <ele>145</ele>
        <time>2012-03-13T12:39:25.000Z</time>
      </trkpt>
      <trkpt lat="44.98467" lon="0.39818">
        <ele>145</ele>
        <time>2012-03-13T12:39:26.000Z</time>
      </trkpt>
      <trkpt lat="44.98465" lon="0.39828">
        <ele>145</ele>
        <time>2012-03-13T12:39:27.000Z</time>
      </trkpt>
      <trkpt lat="44.98462" lon="0.39834">
        <ele>145</ele>
        <time>2012-03-13T12:39:28.000Z</time>
      </trkpt>
      <trkpt lat="44.9846" lon="0.39843">
        <ele>146</ele>
        <time>2012-03-13T12:39:30.000Z</time>
      </trkpt>
      <trkpt lat="44.98458" lon="0.39851">
        <ele>147</ele>
        <time>2012-03-13T12:39:32.000Z</time>
      </trkpt>
      <trkpt lat="44.98455" lon="0.3986">
        <ele>147</ele>
        <time>2012-03-13T12:39:34.000Z</time>
      </trkpt>
      <trkpt lat="44.98452" lon="0.39869">
        <ele>149</ele>
        <time>2012-03-13T12:39:36.000Z</time>
      </trkpt>
      <trkpt lat="44.98449" lon="0.39878">
        <ele>150</ele>
        <time>2012-03-13T12:39:38.000Z</time>
      </trkpt>
      <trkpt lat="44.98444" lon="0.39881">
        <ele>151</ele>
        <time>2012-03-13T12:39:39.000Z</time>
      </trkpt>
      <trkpt lat="44.9844" lon="0.39889">
        <ele>151</ele>
        <time>2012-03-13T12:39:41.000Z</time>
      </trkpt>
      <trkpt lat="44.98435" lon="0.39898">
        <ele>152</ele>
        <time>2012-03-13T12:39:43.000Z</time>
      </trkpt>
      <trkpt lat="44.98434" lon="0.39905">
        <ele>152</ele>
        <time>2012-03-13T12:39:44.000Z</time>
      </trkpt>
      <trkpt lat="44.98434" lon="0.39913">
        <ele>151</ele>
        <time>2012-03-13T12:39:45.000Z</time>
      </trkpt>
      <trkpt lat="44.98431" lon="0.39924">
        <ele>151</ele>
        <time>2012-03-13T12:39:47.000Z</time>
      </trkpt>
      <trkpt lat="44.9843" lon="0.39932">
        <ele>150</ele>
        <time>2012-03-13T12:39:48.000Z</time>
      </trkpt>
      <trkpt lat="44.9843" lon="0.39939">
        <ele>150</ele>
        <time>2012-03-13T12:39:49.000Z</time>
      </trkpt>
      <trkpt lat="44.98426" lon="0.3995">
        <ele>151</ele>
        <time>2012-03-13T12:39:51.000Z</time>
      </trkpt>
      <trkpt lat="44.98423" lon="0.39955">
        <ele>152</ele>
        <time>2012-03-13T12:39:52.000Z</time>
      </trkpt>
      <trkpt lat="44.98423" lon="0.39968">
        <ele>152</ele>
        <time>2012-03-13T12:39:54.000Z</time>
      </trkpt>
      <trkpt lat="44.98421" lon="0.39973">
        <ele>152</ele>
        <time>2012-03-13T12:39:55.000Z</time>
      </trkpt>
      <trkpt lat="44.98419" lon="0.39982">
        <ele>152</ele>
        <time>2012-03-13T12:39:56.000Z</time>
      </trkpt>
      <trkpt lat="44.9842" lon="0.39992">
        <ele>152</ele>
        <time>2012-03-13T12:39:57.000Z</time>
      </trkpt>
      <trkpt lat="44.98421" lon="0.40001">
        <ele>151</ele>
        <time>2012-03-13T12:39:58.000Z</time>
      </trkpt>
      <trkpt lat="44.98422" lon="0.4001">
        <ele>151</ele>
        <time>2012-03-13T12:39:59.000Z</time>
      </trkpt>
      <trkpt lat="44.98425" lon="0.40018">
        <ele>151</ele>
        <time>2012-03-13T12:40:00.000Z</time>
      </trkpt>
      <trkpt lat="44.98427" lon="0.40024">
        <ele>152</ele>
        <time>2012-03-13T12:40:01.000Z</time>
      </trkpt>
      <trkpt lat="44.9843" lon="0.4003">
        <ele>152</ele>
        <time>2012-03-13T12:40:02.000Z</time>
      </trkpt>
      <trkpt lat="44.98442" lon="0.40052">
        <ele>155</ele>
        <time>2012-03-13T12:40:06.000Z</time>
      </trkpt>
      <trkpt lat="44.98447" lon="0.4006">
        <ele>156</ele>
        <time>2012-03-13T12:40:08.000Z</time>
      </trkpt>
      <trkpt lat="44.9845" lon="0.40068">
        <ele>157</ele>
        <time>2012-03-13T12:40:10.000Z</time>
      </trkpt>
      <trkpt lat="44.98451" lon="0.40079">
        <ele>158</ele>
        <time>2012-03-13T12:40:12.000Z</time>
      </trkpt>
      <trkpt lat="44.98452" lon="0.40086">
        <ele>158</ele>
        <time>2012-03-13T12:40:13.000Z</time>
      </trkpt>
      <trkpt lat="44.98453" lon="0.40094">
        <ele>157</ele>
        <time>2012-03-13T12:40:14.000Z</time>
      </trkpt>
      <trkpt lat="44.98455" lon="0.40105">
        <ele>159</ele>
        <time>2012-03-13T12:40:16.000Z</time>
      </trkpt>
      <trkpt lat="44.98457" lon="0.40111">
        <ele>159</ele>
        <time>2012-03-13T12:40:17.000Z</time>
      </trkpt>
      <trkpt lat="44.98458" lon="0.40123">
        <ele>163</ele>
        <time>2012-03-13T12:40:19.000Z</time>
      </trkpt>
      <trkpt lat="44.98458" lon="0.4013">
        <ele>164</ele>
        <time>2012-03-13T12:40:20.000Z</time>
      </trkpt>
      <trkpt lat="44.98456" lon="0.40136">
        <ele>164</ele>
        <time>2012-03-13T12:40:21.000Z</time>
      </trkpt>
      <trkpt lat="44.98451" lon="0.40144">
        <ele>164</ele>
        <time>2012-03-13T12:40:22.000Z</time>
      </trkpt>
      <trkpt lat="44.98448" lon="0.40152">
        <ele>164</ele>
        <time>2012-03-13T12:40:23.000Z</time>
      </trkpt>
      <trkpt lat="44.98445" lon="0.4016">
        <ele>164</ele>
        <time>2012-03-13T12:40:24.000Z</time>
      </trkpt>
      <trkpt lat="44.98443" lon="0.40169">
        <ele>164</ele>
        <time>2012-03-13T12:40:25.000Z</time>
      </trkpt>
      <trkpt lat="44.98442" lon="0.40179">
        <ele>163</ele>
        <time>2012-03-13T12:40:26.000Z</time>
      </trkpt>
      <trkpt lat="44.9844" lon="0.40189">
        <ele>163</ele>
        <time>2012-03-13T12:40:27.000Z</time>
      </trkpt>
      <trkpt lat="44.98445" lon="0.40218">
        <ele>158</ele>
        <time>2012-03-13T12:40:30.000Z</time>
      </trkpt>
      <trkpt lat="44.9845" lon="0.40224">
        <ele>158</ele>
        <time>2012-03-13T12:40:31.000Z</time>
      </trkpt>
      <trkpt lat="44.98455" lon="0.4023">
        <ele>158</ele>
        <time>2012-03-13T12:40:32.000Z</time>
      </trkpt>
      <trkpt lat="44.98461" lon="0.40236">
        <ele>158</ele>
        <time>2012-03-13T12:40:33.000Z</time>
      </trkpt>
      <trkpt lat="44.98465" lon="0.40242">
        <ele>158</ele>
        <time>2012-03-13T12:40:34.000Z</time>
      </trkpt>
      <trkpt lat="44.9847" lon="0.40246">
        <ele>158</ele>
        <time>2012-03-13T12:40:35.000Z</time>
      </trkpt>
      <trkpt lat="44.98476" lon="0.40251">
        <ele>158</ele>
        <time>2012-03-13T12:40:36.000Z</time>
      </trkpt>
      <trkpt lat="44.98481" lon="0.40257">
        <ele>158</ele>
        <time>2012-03-13T12:40:37.000Z</time>
      </trkpt>
      <trkpt lat="44.98487" lon="0.40262">
        <ele>158</ele>
        <time>2012-03-13T12:40:38.000Z</time>
      </trkpt>
      <trkpt lat="44.98492" lon="0.40267">
        <ele>159</ele>
        <time>2012-03-13T12:40:39.000Z</time>
      </trkpt>
      <trkpt lat="44.98497" lon="0.40274">
        <ele>159</ele>
        <time>2012-03-13T12:40:40.000Z</time>
      </trkpt>
      <trkpt lat="44.98502" lon="0.40278">
        <ele>160</ele>
        <time>2012-03-13T12:40:41.000Z</time>
      </trkpt>
      <trkpt lat="44.98508" lon="0.40283">
        <ele>161</ele>
        <time>2012-03-13T12:40:42.000Z</time>
      </trkpt>
      <trkpt lat="44.98512" lon="0.40288">
        <ele>161</ele>
        <time>2012-03-13T12:40:43.000Z</time>
      </trkpt>
      <trkpt lat="44.98516" lon="0.40293">
        <ele>161</ele>
        <time>2012-03-13T12:40:44.000Z</time>
      </trkpt>
      <trkpt lat="44.9852" lon="0.40298">
        <ele>161</ele>
        <time>2012-03-13T12:40:45.000Z</time>
      </trkpt>
      <trkpt lat="44.98524" lon="0.40303">
        <ele>162</ele>
        <time>2012-03-13T12:40:46.000Z</time>
      </trkpt>
      <trkpt lat="44.98527" lon="0.40308">
        <ele>162</ele>
        <time>2012-03-13T12:40:47.000Z</time>
      </trkpt>
      <trkpt lat="44.98532" lon="0.40312">
        <ele>162</ele>
        <time>2012-03-13T12:40:48.000Z</time>
      </trkpt>
      <trkpt lat="44.98537" lon="0.4032">
        <ele>164</ele>
        <time>2012-03-13T12:40:50.000Z</time>
      </trkpt>
      <trkpt lat="44.98544" lon="0.40327">
        <ele>163</ele>
        <time>2012-03-13T12:40:52.000Z</time>
      </trkpt>
      <trkpt lat="44.9855" lon="0.40333">
        <ele>163</ele>
        <time>2012-03-13T12:40:54.000Z</time>
      </trkpt>
      <trkpt lat="44.98557" lon="0.4034">
        <ele>164</ele>
        <time>2012-03-13T12:40:56.000Z</time>
      </trkpt>
      <trkpt lat="44.9856" lon="0.40344">
        <ele>164</ele>
        <time>2012-03-13T12:40:57.000Z</time>
      </trkpt>
      <trkpt lat="44.98564" lon="0.40348">
        <ele>165</ele>
        <time>2012-03-13T12:40:58.000Z</time>
      </trkpt>
      <trkpt lat="44.98567" lon="0.40354">
        <ele>165</ele>
        <time>2012-03-13T12:40:59.000Z</time>
      </trkpt>
      <trkpt lat="44.98571" lon="0.40357">
        <ele>164</ele>
        <time>2012-03-13T12:41:00.000Z</time>
      </trkpt>
      <trkpt lat="44.98574" lon="0.40362">
        <ele>165</ele>
        <time>2012-03-13T12:41:01.000Z</time>
      </trkpt>
      <trkpt lat="44.98579" lon="0.40362">
        <ele>164</ele>
        <time>2012-03-13T12:41:02.000Z</time>
      </trkpt>
      <trkpt lat="44.98584" lon="0.40363">
        <ele>164</ele>
        <time>2012-03-13T12:41:03.000Z</time>
      </trkpt>
      <trkpt lat="44.98593" lon="0.40362">
        <ele>164</ele>
        <time>2012-03-13T12:41:05.000Z</time>
      </trkpt>
      <trkpt lat="44.98598" lon="0.40361">
        <ele>164</ele>
        <time>2012-03-13T12:41:06.000Z</time>
      </trkpt>
      <trkpt lat="44.98607" lon="0.40361">
        <ele>163</ele>
        <time>2012-03-13T12:41:08.000Z</time>
      </trkpt>
      <trkpt lat="44.98616" lon="0.40362">
        <ele>163</ele>
        <time>2012-03-13T12:41:10.000Z</time>
      </trkpt>
      <trkpt lat="44.98621" lon="0.40367">
        <ele>162</ele>
        <time>2012-03-13T12:41:11.000Z</time>
      </trkpt>
      <trkpt lat="44.98625" lon="0.40373">
        <ele>162</ele>
        <time>2012-03-13T12:41:12.000Z</time>
      </trkpt>
      <trkpt lat="44.98629" lon="0.4038">
        <ele>162</ele>
        <time>2012-03-13T12:41:13.000Z</time>
      </trkpt>
      <trkpt lat="44.98633" lon="0.40389">
        <ele>160</ele>
        <time>2012-03-13T12:41:14.000Z</time>
      </trkpt>
      <trkpt lat="44.98637" lon="0.404">
        <ele>159</ele>
        <time>2012-03-13T12:41:15.000Z</time>
      </trkpt>
      <trkpt lat="44.98641" lon="0.4041">
        <ele>159</ele>
        <time>2012-03-13T12:41:16.000Z</time>
      </trkpt>
      <trkpt lat="44.98644" lon="0.40421">
        <ele>158</ele>
        <time>2012-03-13T12:41:17.000Z</time>
      </trkpt>
      <trkpt lat="44.98651" lon="0.40439">
        <ele>158</ele>
        <time>2012-03-13T12:41:19.000Z</time>
      </trkpt>
      <trkpt lat="44.98658" lon="0.40442">
        <ele>158</ele>
        <time>2012-03-13T12:41:21.000Z</time>
      </trkpt>
      <trkpt lat="44.98666" lon="0.4044">
        <ele>158</ele>
        <time>2012-03-13T12:41:23.000Z</time>
      </trkpt>
      <trkpt lat="44.98673" lon="0.4044">
        <ele>159</ele>
        <time>2012-03-13T12:41:25.000Z</time>
      </trkpt>
      <trkpt lat="44.9868" lon="0.40442">
        <ele>160</ele>
        <time>2012-03-13T12:41:27.000Z</time>
      </trkpt>
      <trkpt lat="44.98686" lon="0.4044">
        <ele>159</ele>
        <time>2012-03-13T12:41:29.000Z</time>
      </trkpt>
      <trkpt lat="44.98692" lon="0.40444">
        <ele>160</ele>
        <time>2012-03-13T12:41:31.000Z</time>
      </trkpt>
      <trkpt lat="44.98699" lon="0.40448">
        <ele>162</ele>
        <time>2012-03-13T12:41:33.000Z</time>
      </trkpt>
      <trkpt lat="44.98706" lon="0.40449">
        <ele>162</ele>
        <time>2012-03-13T12:41:35.000Z</time>
      </trkpt>
      <trkpt lat="44.98712" lon="0.40449">
        <ele>162</ele>
        <time>2012-03-13T12:41:37.000Z</time>
      </trkpt>
      <trkpt lat="44.9872" lon="0.4045">
        <ele>161</ele>
        <time>2012-03-13T12:41:40.000Z</time>
      </trkpt>
      <trkpt lat="44.98726" lon="0.4045">
        <ele>162</ele>
        <time>2012-03-13T12:41:43.000Z</time>
      </trkpt>
      <trkpt lat="44.98732" lon="0.40449">
        <ele>165</ele>
        <time>2012-03-13T12:41:46.000Z</time>
      </trkpt>
      <trkpt lat="44.98737" lon="0.40451">
        <ele>166</ele>
        <time>2012-03-13T12:41:48.000Z</time>
      </trkpt>
      <trkpt lat="44.98742" lon="0.40452">
        <ele>167</ele>
        <time>2012-03-13T12:41:50.000Z</time>
      </trkpt>
      <trkpt lat="44.9875" lon="0.40454">
        <ele>168</ele>
        <time>2012-03-13T12:41:53.000Z</time>
      </trkpt>
      <trkpt lat="44.98756" lon="0.40455">
        <ele>170</ele>
        <time>2012-03-13T12:41:56.000Z</time>
      </trkpt>
      <trkpt lat="44.98762" lon="0.40457">
        <ele>171</ele>
        <time>2012-03-13T12:41:59.000Z</time>
      </trkpt>
      <trkpt lat="44.98767" lon="0.40462">
        <ele>178</ele>
        <time>2012-03-13T12:42:02.000Z</time>
      </trkpt>
      <trkpt lat="44.98772" lon="0.40466">
        <ele>180</ele>
        <time>2012-03-13T12:42:05.000Z</time>
      </trkpt>
      <trkpt lat="44.98775" lon="0.40473">
        <ele>179</ele>
        <time>2012-03-13T12:42:08.000Z</time>
      </trkpt>
      <trkpt lat="44.98782" lon="0.40474">
        <ele>180</ele>
        <time>2012-03-13T12:42:10.000Z</time>
      </trkpt>
      <trkpt lat="44.98786" lon="0.40478">
        <ele>180</ele>
        <time>2012-03-13T12:42:12.000Z</time>
      </trkpt>
      <trkpt lat="44.98791" lon="0.40481">
        <ele>181</ele>
        <time>2012-03-13T12:42:14.000Z</time>
      </trkpt>
      <trkpt lat="44.98797" lon="0.40484">
        <ele>182</ele>
        <time>2012-03-13T12:42:17.000Z</time>
      </trkpt>
      <trkpt lat="44.98802" lon="0.40485">
        <ele>183</ele>
        <time>2012-03-13T12:42:20.000Z</time>
      </trkpt>
      <trkpt lat="44.98811" lon="0.40483">
        <ele>183</ele>
        <time>2012-03-13T12:42:23.000Z</time>
      </trkpt>
      <trkpt lat="44.98818" lon="0.40483">
        <ele>183</ele>
        <time>2012-03-13T12:42:26.000Z</time>
      </trkpt>
      <trkpt lat="44.98825" lon="0.40485">
        <ele>185</ele>
        <time>2012-03-13T12:42:29.000Z</time>
      </trkpt>
      <trkpt lat="44.98829" lon="0.40485">
        <ele>186</ele>
        <time>2012-03-13T12:42:31.000Z</time>
      </trkpt>
      <trkpt lat="44.98835" lon="0.40486">
        <ele>185</ele>
        <time>2012-03-13T12:42:34.000Z</time>
      </trkpt>
      <trkpt lat="44.9884" lon="0.40487">
        <ele>186</ele>
        <time>2012-03-13T12:42:36.000Z</time>
      </trkpt>
      <trkpt lat="44.98846" lon="0.40488">
        <ele>186</ele>
        <time>2012-03-13T12:42:39.000Z</time>
      </trkpt>
      <trkpt lat="44.98851" lon="0.4049">
        <ele>187</ele>
        <time>2012-03-13T12:42:41.000Z</time>
      </trkpt>
      <trkpt lat="44.98858" lon="0.40491">
        <ele>189</ele>
        <time>2012-03-13T12:42:44.000Z</time>
      </trkpt>
      <trkpt lat="44.98864" lon="0.40492">
        <ele>190</ele>
        <time>2012-03-13T12:42:46.000Z</time>
      </trkpt>
      <trkpt lat="44.98869" lon="0.40494">
        <ele>191</ele>
        <time>2012-03-13T12:42:49.000Z</time>
      </trkpt>
      <trkpt lat="44.98873" lon="0.40498">
        <ele>193</ele>
        <time>2012-03-13T12:42:51.000Z</time>
      </trkpt>
      <trkpt lat="44.98881" lon="0.40499">
        <ele>195</ele>
        <time>2012-03-13T12:42:54.000Z</time>
      </trkpt>
      <trkpt lat="44.98888" lon="0.40497">
        <ele>196</ele>
        <time>2012-03-13T12:42:56.000Z</time>
      </trkpt>
      <trkpt lat="44.98893" lon="0.40495">
        <ele>195</ele>
        <time>2012-03-13T12:42:57.000Z</time>
      </trkpt>
      <trkpt lat="44.98899" lon="0.40498">
        <ele>195</ele>
        <time>2012-03-13T12:42:59.000Z</time>
      </trkpt>
      <trkpt lat="44.98904" lon="0.405">
        <ele>193</ele>
        <time>2012-03-13T12:43:01.000Z</time>
      </trkpt>
      <trkpt lat="44.9891" lon="0.40502">
        <ele>193</ele>
        <time>2012-03-13T12:43:03.000Z</time>
      </trkpt>
      <trkpt lat="44.98916" lon="0.40504">
        <ele>193</ele>
        <time>2012-03-13T12:43:05.000Z</time>
      </trkpt>
      <trkpt lat="44.98922" lon="0.40506">
        <ele>193</ele>
        <time>2012-03-13T12:43:07.000Z</time>
      </trkpt>
      <trkpt lat="44.98929" lon="0.40507">
        <ele>193</ele>
        <time>2012-03-13T12:43:09.000Z</time>
      </trkpt>
      <trkpt lat="44.98934" lon="0.40509">
        <ele>193</ele>
        <time>2012-03-13T12:43:11.000Z</time>
      </trkpt>
      <trkpt lat="44.9894" lon="0.40509">
        <ele>194</ele>
        <time>2012-03-13T12:43:13.000Z</time>
      </trkpt>
      <trkpt lat="44.98949" lon="0.40506">
        <ele>193</ele>
        <time>2012-03-13T12:43:15.000Z</time>
      </trkpt>
      <trkpt lat="44.98957" lon="0.40504">
        <ele>192</ele>
        <time>2012-03-13T12:43:17.000Z</time>
      </trkpt>
      <trkpt lat="44.98966" lon="0.40498">
        <ele>190</ele>
        <time>2012-03-13T12:43:19.000Z</time>
      </trkpt>
      <trkpt lat="44.9897" lon="0.40495">
        <ele>190</ele>
        <time>2012-03-13T12:43:20.000Z</time>
      </trkpt>
      <trkpt lat="44.98975" lon="0.40494">
        <ele>190</ele>
        <time>2012-03-13T12:43:21.000Z</time>
      </trkpt>
      <trkpt lat="44.98982" lon="0.40492">
        <ele>189</ele>
        <time>2012-03-13T12:43:22.000Z</time>
      </trkpt>
      <trkpt lat="44.98987" lon="0.40489">
        <ele>189</ele>
        <time>2012-03-13T12:43:23.000Z</time>
      </trkpt>
      <trkpt lat="44.98992" lon="0.40486">
        <ele>189</ele>
        <time>2012-03-13T12:43:24.000Z</time>
      </trkpt>
      <trkpt lat="44.98997" lon="0.40485">
        <ele>189</ele>
        <time>2012-03-13T12:43:25.000Z</time>
      </trkpt>
      <trkpt lat="44.99005" lon="0.40482">
        <ele>188</ele>
        <time>2012-03-13T12:43:27.000Z</time>
      </trkpt>
      <trkpt lat="44.99011" lon="0.40481">
        <ele>187</ele>
        <time>2012-03-13T12:43:29.000Z</time>
      </trkpt>
      <trkpt lat="44.99018" lon="0.40482">
        <ele>187</ele>
        <time>2012-03-13T12:43:31.000Z</time>
      </trkpt>
      <trkpt lat="44.99025" lon="0.40482">
        <ele>187</ele>
        <time>2012-03-13T12:43:33.000Z</time>
      </trkpt>
      <trkpt lat="44.99031" lon="0.40484">
        <ele>187</ele>
        <time>2012-03-13T12:43:35.000Z</time>
      </trkpt>
      <trkpt lat="44.99036" lon="0.40486">
        <ele>188</ele>
        <time>2012-03-13T12:43:37.000Z</time>
      </trkpt>
      <trkpt lat="44.99043" lon="0.40487">
        <ele>189</ele>
        <time>2012-03-13T12:43:39.000Z</time>
      </trkpt>
      <trkpt lat="44.99048" lon="0.4049">
        <ele>190</ele>
        <time>2012-03-13T12:43:41.000Z</time>
      </trkpt>
      <trkpt lat="44.99053" lon="0.40492">
        <ele>191</ele>
        <time>2012-03-13T12:43:43.000Z</time>
      </trkpt>
      <trkpt lat="44.99057" lon="0.40492">
        <ele>191</ele>
        <time>2012-03-13T12:43:45.000Z</time>
      </trkpt>
      <trkpt lat="44.99066" lon="0.4049">
        <ele>191</ele>
        <time>2012-03-13T12:43:47.000Z</time>
      </trkpt>
      <trkpt lat="44.99072" lon="0.40491">
        <ele>191</ele>
        <time>2012-03-13T12:43:49.000Z</time>
      </trkpt>
      <trkpt lat="44.99079" lon="0.40494">
        <ele>193</ele>
        <time>2012-03-13T12:43:51.000Z</time>
      </trkpt>
      <trkpt lat="44.99085" lon="0.40496">
        <ele>197</ele>
        <time>2012-03-13T12:43:53.000Z</time>
      </trkpt>
      <trkpt lat="44.99091" lon="0.40497">
        <ele>199</ele>
        <time>2012-03-13T12:43:55.000Z</time>
      </trkpt>
      <trkpt lat="44.99097" lon="0.40496">
        <ele>199</ele>
        <time>2012-03-13T12:43:57.000Z</time>
      </trkpt>
      <trkpt lat="44.99102" lon="0.40498">
        <ele>203</ele>
        <time>2012-03-13T12:43:59.000Z</time>
      </trkpt>
      <trkpt lat="44.9911" lon="0.40498">
        <ele>204</ele>
        <time>2012-03-13T12:44:01.000Z</time>
      </trkpt>
      <trkpt lat="44.99114" lon="0.40499">
        <ele>205</ele>
        <time>2012-03-13T12:44:03.000Z</time>
      </trkpt>
      <trkpt lat="44.99121" lon="0.40501">
        <ele>205</ele>
        <time>2012-03-13T12:44:05.000Z</time>
      </trkpt>
      <trkpt lat="44.99127" lon="0.40503">
        <ele>207</ele>
        <time>2012-03-13T12:44:07.000Z</time>
      </trkpt>
      <trkpt lat="44.99134" lon="0.40503">
        <ele>206</ele>
        <time>2012-03-13T12:44:09.000Z</time>
      </trkpt>
      <trkpt lat="44.99141" lon="0.40501">
        <ele>206</ele>
        <time>2012-03-13T12:44:11.000Z</time>
      </trkpt>
      <trkpt lat="44.99148" lon="0.40502">
        <ele>205</ele>
        <time>2012-03-13T12:44:13.000Z</time>
      </trkpt>
      <trkpt lat="44.99154" lon="0.40499">
        <ele>204</ele>
        <time>2012-03-13T12:44:15.000Z</time>
      </trkpt>
      <trkpt lat="44.9916" lon="0.40498">
        <ele>202</ele>
        <time>2012-03-13T12:44:17.000Z</time>
      </trkpt>
      <trkpt lat="44.99167" lon="0.40496">
        <ele>201</ele>
        <time>2012-03-13T12:44:19.000Z</time>
      </trkpt>
      <trkpt lat="44.99173" lon="0.40498">
        <ele>201</ele>
        <time>2012-03-13T12:44:21.000Z</time>
      </trkpt>
      <trkpt lat="44.99179" lon="0.40499">
        <ele>201</ele>
        <time>2012-03-13T12:44:23.000Z</time>
      </trkpt>
      <trkpt lat="44.99184" lon="0.405">
        <ele>203</ele>
        <time>2012-03-13T12:44:25.000Z</time>
      </trkpt>
      <trkpt lat="44.99189" lon="0.40501">
        <ele>203</ele>
        <time>2012-03-13T12:44:27.000Z</time>
      </trkpt>
      <trkpt lat="44.99196" lon="0.40501">
        <ele>203</ele>
        <time>2012-03-13T12:44:29.000Z</time>
      </trkpt>
      <trkpt lat="44.99202" lon="0.40501">
        <ele>202</ele>
        <time>2012-03-13T12:44:31.000Z</time>
      </trkpt>
      <trkpt lat="44.99207" lon="0.40501">
        <ele>206</ele>
        <time>2012-03-13T12:44:33.000Z</time>
      </trkpt>
      <trkpt lat="44.99212" lon="0.405">
        <ele>208</ele>
        <time>2012-03-13T12:44:35.000Z</time>
      </trkpt>
      <trkpt lat="44.99217" lon="0.40504">
        <ele>209</ele>
        <time>2012-03-13T12:44:37.000Z</time>
      </trkpt>
      <trkpt lat="44.99222" lon="0.40507">
        <ele>213</ele>
        <time>2012-03-13T12:44:39.000Z</time>
      </trkpt>
      <trkpt lat="44.99227" lon="0.40511">
        <ele>217</ele>
        <time>2012-03-13T12:44:41.000Z</time>
      </trkpt>
      <trkpt lat="44.99237" lon="0.40515">
        <ele>218</ele>
        <time>2012-03-13T12:44:44.000Z</time>
      </trkpt>
      <trkpt lat="44.99243" lon="0.40518">
        <ele>217</ele>
        <time>2012-03-13T12:44:46.000Z</time>
      </trkpt>
      <trkpt lat="44.9925" lon="0.40521">
        <ele>218</ele>
        <time>2012-03-13T12:44:48.000Z</time>
      </trkpt>
      <trkpt lat="44.99259" lon="0.40524">
        <ele>219</ele>
        <time>2012-03-13T12:44:50.000Z</time>
      </trkpt>
      <trkpt lat="44.99266" lon="0.40525">
        <ele>219</ele>
        <time>2012-03-13T12:44:52.000Z</time>
      </trkpt>
      <trkpt lat="44.99272" lon="0.40526">
        <ele>218</ele>
        <time>2012-03-13T12:44:53.000Z</time>
      </trkpt>
      <trkpt lat="44.99281" lon="0.40527">
        <ele>216</ele>
        <time>2012-03-13T12:44:55.000Z</time>
      </trkpt>
      <trkpt lat="44.99285" lon="0.40531">
        <ele>215</ele>
        <time>2012-03-13T12:44:56.000Z</time>
      </trkpt>
      <trkpt lat="44.99294" lon="0.40531">
        <ele>214</ele>
        <time>2012-03-13T12:44:58.000Z</time>
      </trkpt>
      <trkpt lat="44.99301" lon="0.40525">
        <ele>212</ele>
        <time>2012-03-13T12:44:59.000Z</time>
      </trkpt>
      <trkpt lat="44.99306" lon="0.40525">
        <ele>210</ele>
        <time>2012-03-13T12:45:00.000Z</time>
      </trkpt>
      <trkpt lat="44.99311" lon="0.40526">
        <ele>210</ele>
        <time>2012-03-13T12:45:01.000Z</time>
      </trkpt>
      <trkpt lat="44.99316" lon="0.40526">
        <ele>212</ele>
        <time>2012-03-13T12:45:02.000Z</time>
      </trkpt>
      <trkpt lat="44.99325" lon="0.40524">
        <ele>211</ele>
        <time>2012-03-13T12:45:04.000Z</time>
      </trkpt>
      <trkpt lat="44.99333" lon="0.40523">
        <ele>210</ele>
        <time>2012-03-13T12:45:06.000Z</time>
      </trkpt>
      <trkpt lat="44.99341" lon="0.40522">
        <ele>210</ele>
        <time>2012-03-13T12:45:08.000Z</time>
      </trkpt>
      <trkpt lat="44.99349" lon="0.40521">
        <ele>211</ele>
        <time>2012-03-13T12:45:10.000Z</time>
      </trkpt>
      <trkpt lat="44.99354" lon="0.40519">
        <ele>210</ele>
        <time>2012-03-13T12:45:11.000Z</time>
      </trkpt>
      <trkpt lat="44.99361" lon="0.4052">
        <ele>211</ele>
        <time>2012-03-13T12:45:13.000Z</time>
      </trkpt>
      <trkpt lat="44.99369" lon="0.40516">
        <ele>211</ele>
        <time>2012-03-13T12:45:15.000Z</time>
      </trkpt>
      <trkpt lat="44.99377" lon="0.40512">
        <ele>211</ele>
        <time>2012-03-13T12:45:17.000Z</time>
      </trkpt>
      <trkpt lat="44.99385" lon="0.40508">
        <ele>211</ele>
        <time>2012-03-13T12:45:19.000Z</time>
      </trkpt>
      <trkpt lat="44.99392" lon="0.40502">
        <ele>212</ele>
        <time>2012-03-13T12:45:21.000Z</time>
      </trkpt>
      <trkpt lat="44.99396" lon="0.405">
        <ele>212</ele>
        <time>2012-03-13T12:45:22.000Z</time>
      </trkpt>
      <trkpt lat="44.99402" lon="0.40495">
        <ele>212</ele>
        <time>2012-03-13T12:45:23.000Z</time>
      </trkpt>
      <trkpt lat="44.99406" lon="0.40492">
        <ele>212</ele>
        <time>2012-03-13T12:45:24.000Z</time>
      </trkpt>
      <trkpt lat="44.99412" lon="0.4049">
        <ele>210</ele>
        <time>2012-03-13T12:45:25.000Z</time>
      </trkpt>
      <trkpt lat="44.99417" lon="0.40488">
        <ele>210</ele>
        <time>2012-03-13T12:45:26.000Z</time>
      </trkpt>
      <trkpt lat="44.99422" lon="0.40487">
        <ele>210</ele>
        <time>2012-03-13T12:45:27.000Z</time>
      </trkpt>
      <trkpt lat="44.9943" lon="0.40483">
        <ele>210</ele>
        <time>2012-03-13T12:45:29.000Z</time>
      </trkpt>
      <trkpt lat="44.99438" lon="0.40484">
        <ele>210</ele>
        <time>2012-03-13T12:45:31.000Z</time>
      </trkpt>
      <trkpt lat="44.99445" lon="0.40488">
        <ele>211</ele>
        <time>2012-03-13T12:45:33.000Z</time>
      </trkpt>
      <trkpt lat="44.99444" lon="0.40496">
        <ele>209</ele>
        <time>2012-03-13T12:45:34.000Z</time>
      </trkpt>
      <trkpt lat="44.99447" lon="0.40507">
        <ele>208</ele>
        <time>2012-03-13T12:45:36.000Z</time>
      </trkpt>
      <trkpt lat="44.99448" lon="0.40513">
        <ele>207</ele>
        <time>2012-03-13T12:45:37.000Z</time>
      </trkpt>
      <trkpt lat="44.99451" lon="0.40522">
        <ele>207</ele>
        <time>2012-03-13T12:45:39.000Z</time>
      </trkpt>
      <trkpt lat="44.99457" lon="0.40523">
        <ele>208</ele>
        <time>2012-03-13T12:45:40.000Z</time>
      </trkpt>
      <trkpt lat="44.99464" lon="0.40526">
        <ele>207</ele>
        <time>2012-03-13T12:45:42.000Z</time>
      </trkpt>
      <trkpt lat="44.99472" lon="0.40523">
        <ele>206</ele>
        <time>2012-03-13T12:45:44.000Z</time>
      </trkpt>
      <trkpt lat="44.99476" lon="0.40523">
        <ele>205</ele>
        <time>2012-03-13T12:45:45.000Z</time>
      </trkpt>
      <trkpt lat="44.99486" lon="0.40521">
        <ele>205</ele>
        <time>2012-03-13T12:45:47.000Z</time>
      </trkpt>
      <trkpt lat="44.9949" lon="0.40521">
        <ele>204</ele>
        <time>2012-03-13T12:45:48.000Z</time>
      </trkpt>
      <trkpt lat="44.99495" lon="0.4052">
        <ele>203</ele>
        <time>2012-03-13T12:45:49.000Z</time>
      </trkpt>
      <trkpt lat="44.995" lon="0.40518">
        <ele>203</ele>
        <time>2012-03-13T12:45:50.000Z</time>
      </trkpt>
      <trkpt lat="44.99505" lon="0.40517">
        <ele>203</ele>
        <time>2012-03-13T12:45:51.000Z</time>
      </trkpt>
      <trkpt lat="44.9951" lon="0.40515">
        <ele>202</ele>
        <time>2012-03-13T12:45:52.000Z</time>
      </trkpt>
      <trkpt lat="44.99515" lon="0.40514">
        <ele>202</ele>
        <time>2012-03-13T12:45:53.000Z</time>
      </trkpt>
      <trkpt lat="44.9952" lon="0.40513">
        <ele>202</ele>
        <time>2012-03-13T12:45:54.000Z</time>
      </trkpt>
      <trkpt lat="44.99526" lon="0.40512">
        <ele>202</ele>
        <time>2012-03-13T12:45:55.000Z</time>
      </trkpt>
      <trkpt lat="44.99533" lon="0.40512">
        <ele>202</ele>
        <time>2012-03-13T12:45:56.000Z</time>
      </trkpt>
      <trkpt lat="44.99539" lon="0.40514">
        <ele>202</ele>
        <time>2012-03-13T12:45:57.000Z</time>
      </trkpt>
      <trkpt lat="44.99545" lon="0.40515">
        <ele>202</ele>
        <time>2012-03-13T12:45:58.000Z</time>
      </trkpt>
      <trkpt lat="44.99552" lon="0.40519">
        <ele>202</ele>
        <time>2012-03-13T12:45:59.000Z</time>
      </trkpt>
      <trkpt lat="44.99558" lon="0.40522">
        <ele>201</ele>
        <time>2012-03-13T12:46:00.000Z</time>
      </trkpt>
      <trkpt lat="44.99564" lon="0.40526">
        <ele>201</ele>
        <time>2012-03-13T12:46:01.000Z</time>
      </trkpt>
      <trkpt lat="44.99571" lon="0.4053">
        <ele>201</ele>
        <time>2012-03-13T12:46:02.000Z</time>
      </trkpt>
      <trkpt lat="44.99577" lon="0.40534">
        <ele>200</ele>
        <time>2012-03-13T12:46:03.000Z</time>
      </trkpt>
      <trkpt lat="44.99583" lon="0.40539">
        <ele>200</ele>
        <time>2012-03-13T12:46:04.000Z</time>
      </trkpt>
      <trkpt lat="44.99587" lon="0.40545">
        <ele>200</ele>
        <time>2012-03-13T12:46:05.000Z</time>
      </trkpt>
      <trkpt lat="44.99593" lon="0.4055">
        <ele>201</ele>
        <time>2012-03-13T12:46:06.000Z</time>
      </trkpt>
      <trkpt lat="44.99599" lon="0.40555">
        <ele>201</ele>
        <time>2012-03-13T12:46:07.000Z</time>
      </trkpt>
      <trkpt lat="44.99604" lon="0.4056">
        <ele>202</ele>
        <time>2012-03-13T12:46:08.000Z</time>
      </trkpt>
      <trkpt lat="44.99609" lon="0.40565">
        <ele>202</ele>
        <time>2012-03-13T12:46:09.000Z</time>
      </trkpt>
      <trkpt lat="44.99614" lon="0.40571">
        <ele>202</ele>
        <time>2012-03-13T12:46:10.000Z</time>
      </trkpt>
      <trkpt lat="44.99618" lon="0.40578">
        <ele>202</ele>
        <time>2012-03-13T12:46:11.000Z</time>
      </trkpt>
      <trkpt lat="44.99625" lon="0.40585">
        <ele>202</ele>
        <time>2012-03-13T12:46:12.000Z</time>
      </trkpt>
      <trkpt lat="44.99632" lon="0.40591">
        <ele>203</ele>
        <time>2012-03-13T12:46:13.000Z</time>
      </trkpt>
      <trkpt lat="44.9964" lon="0.40597">
        <ele>204</ele>
        <time>2012-03-13T12:46:14.000Z</time>
      </trkpt>
      <trkpt lat="44.99653" lon="0.40609">
        <ele>205</ele>
        <time>2012-03-13T12:46:16.000Z</time>
      </trkpt>
      <trkpt lat="44.99662" lon="0.40614">
        <ele>205</ele>
        <time>2012-03-13T12:46:17.000Z</time>
      </trkpt>
      <trkpt lat="44.99668" lon="0.4062">
        <ele>206</ele>
        <time>2012-03-13T12:46:18.000Z</time>
      </trkpt>
      <trkpt lat="44.99676" lon="0.40626">
        <ele>207</ele>
        <time>2012-03-13T12:46:19.000Z</time>
      </trkpt>
      <trkpt lat="44.99683" lon="0.40634">
        <ele>207</ele>
        <time>2012-03-13T12:46:20.000Z</time>
      </trkpt>
      <trkpt lat="44.9969" lon="0.40643">
        <ele>206</ele>
        <time>2012-03-13T12:46:21.000Z</time>
      </trkpt>
      <trkpt lat="44.99706" lon="0.40656">
        <ele>206</ele>
        <time>2012-03-13T12:46:23.000Z</time>
      </trkpt>
      <trkpt lat="44.99715" lon="0.40662">
        <ele>205</ele>
        <time>2012-03-13T12:46:24.000Z</time>
      </trkpt>
      <trkpt lat="44.99723" lon="0.40668">
        <ele>205</ele>
        <time>2012-03-13T12:46:25.000Z</time>
      </trkpt>
      <trkpt lat="44.9973" lon="0.40675">
        <ele>204</ele>
        <time>2012-03-13T12:46:26.000Z</time>
      </trkpt>
      <trkpt lat="44.99738" lon="0.40679">
        <ele>202</ele>
        <time>2012-03-13T12:46:27.000Z</time>
      </trkpt>
      <trkpt lat="44.99747" lon="0.40683">
        <ele>201</ele>
        <time>2012-03-13T12:46:28.000Z</time>
      </trkpt>
      <trkpt lat="44.99756" lon="0.40688">
        <ele>200</ele>
        <time>2012-03-13T12:46:29.000Z</time>
      </trkpt>
      <trkpt lat="44.99764" lon="0.40693">
        <ele>199</ele>
        <time>2012-03-13T12:46:30.000Z</time>
      </trkpt>
      <trkpt lat="44.99771" lon="0.407">
        <ele>199</ele>
        <time>2012-03-13T12:46:31.000Z</time>
      </trkpt>
      <trkpt lat="44.99779" lon="0.40706">
        <ele>199</ele>
        <time>2012-03-13T12:46:32.000Z</time>
      </trkpt>
      <trkpt lat="44.99786" lon="0.4071">
        <ele>199</ele>
        <time>2012-03-13T12:46:33.000Z</time>
      </trkpt>
      <trkpt lat="44.99792" lon="0.40716">
        <ele>199</ele>
        <time>2012-03-13T12:46:34.000Z</time>
      </trkpt>
      <trkpt lat="44.99798" lon="0.40721">
        <ele>199</ele>
        <time>2012-03-13T12:46:35.000Z</time>
      </trkpt>
      <trkpt lat="44.99806" lon="0.40727">
        <ele>198</ele>
        <time>2012-03-13T12:46:36.000Z</time>
      </trkpt>
      <trkpt lat="44.99812" lon="0.40733">
        <ele>198</ele>
        <time>2012-03-13T12:46:37.000Z</time>
      </trkpt>
      <trkpt lat="44.99818" lon="0.40739">
        <ele>199</ele>
        <time>2012-03-13T12:46:38.000Z</time>
      </trkpt>
      <trkpt lat="44.99825" lon="0.40747">
        <ele>199</ele>
        <time>2012-03-13T12:46:39.000Z</time>
      </trkpt>
      <trkpt lat="44.99831" lon="0.4075">
        <ele>198</ele>
        <time>2012-03-13T12:46:40.000Z</time>
      </trkpt>
      <trkpt lat="44.99838" lon="0.40756">
        <ele>197</ele>
        <time>2012-03-13T12:46:41.000Z</time>
      </trkpt>
      <trkpt lat="44.99843" lon="0.4076">
        <ele>196</ele>
        <time>2012-03-13T12:46:42.000Z</time>
      </trkpt>
      <trkpt lat="44.99849" lon="0.40765">
        <ele>196</ele>
        <time>2012-03-13T12:46:43.000Z</time>
      </trkpt>
      <trkpt lat="44.99854" lon="0.40771">
        <ele>197</ele>
        <time>2012-03-13T12:46:44.000Z</time>
      </trkpt>
      <trkpt lat="44.9986" lon="0.40776">
        <ele>197</ele>
        <time>2012-03-13T12:46:45.000Z</time>
      </trkpt>
      <trkpt lat="44.99872" lon="0.40787">
        <ele>197</ele>
        <time>2012-03-13T12:46:47.000Z</time>
      </trkpt>
      <trkpt lat="44.99879" lon="0.40796">
        <ele>197</ele>
        <time>2012-03-13T12:46:48.000Z</time>
      </trkpt>
      <trkpt lat="44.99885" lon="0.40804">
        <ele>197</ele>
        <time>2012-03-13T12:46:49.000Z</time>
      </trkpt>
      <trkpt lat="44.99888" lon="0.40812">
        <ele>198</ele>
        <time>2012-03-13T12:46:50.000Z</time>
      </trkpt>
      <trkpt lat="44.99898" lon="0.40819">
        <ele>198</ele>
        <time>2012-03-13T12:46:51.000Z</time>
      </trkpt>
      <trkpt lat="44.99903" lon="0.40825">
        <ele>198</ele>
        <time>2012-03-13T12:46:52.000Z</time>
      </trkpt>
      <trkpt lat="44.9991" lon="0.40831">
        <ele>198</ele>
        <time>2012-03-13T12:46:53.000Z</time>
      </trkpt>
      <trkpt lat="44.99915" lon="0.40837">
        <ele>197</ele>
        <time>2012-03-13T12:46:54.000Z</time>
      </trkpt>
      <trkpt lat="44.9992" lon="0.40839">
        <ele>197</ele>
        <time>2012-03-13T12:46:55.000Z</time>
      </trkpt>
      <trkpt lat="44.99924" lon="0.40837">
        <ele>197</ele>
        <time>2012-03-13T12:46:57.000Z</time>
      </trkpt>
      <trkpt lat="44.9993" lon="0.40828">
        <ele>195</ele>
        <time>2012-03-13T12:46:59.000Z</time>
      </trkpt>
      <trkpt lat="44.99932" lon="0.4082">
        <ele>194</ele>
        <time>2012-03-13T12:47:00.000Z</time>
      </trkpt>
      <trkpt lat="44.99934" lon="0.40813">
        <ele>194</ele>
        <time>2012-03-13T12:47:01.000Z</time>
      </trkpt>
      <trkpt lat="44.99936" lon="0.40806">
        <ele>193</ele>
        <time>2012-03-13T12:47:02.000Z</time>
      </trkpt>
      <trkpt lat="44.99939" lon="0.40797">
        <ele>193</ele>
        <time>2012-03-13T12:47:03.000Z</time>
      </trkpt>
      <trkpt lat="44.99943" lon="0.40785">
        <ele>192</ele>
        <time>2012-03-13T12:47:04.000Z</time>
      </trkpt>
      <trkpt lat="44.99946" lon="0.40774">
        <ele>192</ele>
        <time>2012-03-13T12:47:05.000Z</time>
      </trkpt>
      <trkpt lat="44.9995" lon="0.40764">
        <ele>192</ele>
        <time>2012-03-13T12:47:06.000Z</time>
      </trkpt>
      <trkpt lat="44.99953" lon="0.40754">
        <ele>191</ele>
        <time>2012-03-13T12:47:07.000Z</time>
      </trkpt>
      <trkpt lat="44.99956" lon="0.40742">
        <ele>190</ele>
        <time>2012-03-13T12:47:08.000Z</time>
      </trkpt>
      <trkpt lat="44.99956" lon="0.40731">
        <ele>189</ele>
        <time>2012-03-13T12:47:09.000Z</time>
      </trkpt>
      <trkpt lat="44.99958" lon="0.40722">
        <ele>187</ele>
        <time>2012-03-13T12:47:10.000Z</time>
      </trkpt>
      <trkpt lat="44.9996" lon="0.40713">
        <ele>186</ele>
        <time>2012-03-13T12:47:11.000Z</time>
      </trkpt>
      <trkpt lat="44.99962" lon="0.40705">
        <ele>184</ele>
        <time>2012-03-13T12:47:12.000Z</time>
      </trkpt>
      <trkpt lat="44.99964" lon="0.40697">
        <ele>182</ele>
        <time>2012-03-13T12:47:13.000Z</time>
      </trkpt>
      <trkpt lat="44.99967" lon="0.4069">
        <ele>181</ele>
        <time>2012-03-13T12:47:14.000Z</time>
      </trkpt>
      <trkpt lat="44.99974" lon="0.40679">
        <ele>179</ele>
        <time>2012-03-13T12:47:16.000Z</time>
      </trkpt>
      <trkpt lat="44.9998" lon="0.40674">
        <ele>180</ele>
        <time>2012-03-13T12:47:17.000Z</time>
      </trkpt>
      <trkpt lat="44.99986" lon="0.40672">
        <ele>180</ele>
        <time>2012-03-13T12:47:18.000Z</time>
      </trkpt>
      <trkpt lat="44.99994" lon="0.40668">
        <ele>180</ele>
        <time>2012-03-13T12:47:19.000Z</time>
      </trkpt>
      <trkpt lat="45.00003" lon="0.40663">
        <ele>179</ele>
        <time>2012-03-13T12:47:20.000Z</time>
      </trkpt>
      <trkpt lat="45.00012" lon="0.4066">
        <ele>177</ele>
        <time>2012-03-13T12:47:21.000Z</time>
      </trkpt>
      <trkpt lat="45.00029" lon="0.40654">
        <ele>176</ele>
        <time>2012-03-13T12:47:23.000Z</time>
      </trkpt>
      <trkpt lat="45.00037" lon="0.40653">
        <ele>175</ele>
        <time>2012-03-13T12:47:24.000Z</time>
      </trkpt>
      <trkpt lat="45.00046" lon="0.40652">
        <ele>175</ele>
        <time>2012-03-13T12:47:25.000Z</time>
      </trkpt>
      <trkpt lat="45.00055" lon="0.40651">
        <ele>174</ele>
        <time>2012-03-13T12:47:26.000Z</time>
      </trkpt>
      <trkpt lat="45.00064" lon="0.40653">
        <ele>174</ele>
        <time>2012-03-13T12:47:27.000Z</time>
      </trkpt>
      <trkpt lat="45.00073" lon="0.40653">
        <ele>174</ele>
        <time>2012-03-13T12:47:28.000Z</time>
      </trkpt>
      <trkpt lat="45.00081" lon="0.40655">
        <ele>173</ele>
        <time>2012-03-13T12:47:29.000Z</time>
      </trkpt>
      <trkpt lat="45.0009" lon="0.40657">
        <ele>173</ele>
        <time>2012-03-13T12:47:30.000Z</time>
      </trkpt>
      <trkpt lat="45.00098" lon="0.40652">
        <ele>174</ele>
        <time>2012-03-13T12:47:31.000Z</time>
      </trkpt>
      <trkpt lat="45.00105" lon="0.40647">
        <ele>172</ele>
        <time>2012-03-13T12:47:32.000Z</time>
      </trkpt>
      <trkpt lat="45.00113" lon="0.4064">
        <ele>171</ele>
        <time>2012-03-13T12:47:33.000Z</time>
      </trkpt>
      <trkpt lat="45.00121" lon="0.40634">
        <ele>171</ele>
        <time>2012-03-13T12:47:34.000Z</time>
      </trkpt>
      <trkpt lat="45.00129" lon="0.40626">
        <ele>170</ele>
        <time>2012-03-13T12:47:35.000Z</time>
      </trkpt>
      <trkpt lat="45.00135" lon="0.40619">
        <ele>169</ele>
        <time>2012-03-13T12:47:36.000Z</time>
      </trkpt>
      <trkpt lat="45.00142" lon="0.4061">
        <ele>166</ele>
        <time>2012-03-13T12:47:37.000Z</time>
      </trkpt>
      <trkpt lat="45.0015" lon="0.40602">
        <ele>164</ele>
        <time>2012-03-13T12:47:38.000Z</time>
      </trkpt>
      <trkpt lat="45.00158" lon="0.40595">
        <ele>163</ele>
        <time>2012-03-13T12:47:39.000Z</time>
      </trkpt>
      <trkpt lat="45.00166" lon="0.4059">
        <ele>163</ele>
        <time>2012-03-13T12:47:40.000Z</time>
      </trkpt>
      <trkpt lat="45.00185" lon="0.40586">
        <ele>164</ele>
        <time>2012-03-13T12:47:43.000Z</time>
      </trkpt>
      <trkpt lat="45.00192" lon="0.40583">
        <ele>164</ele>
        <time>2012-03-13T12:47:44.000Z</time>
      </trkpt>
      <trkpt lat="45.00197" lon="0.4058">
        <ele>164</ele>
        <time>2012-03-13T12:47:45.000Z</time>
      </trkpt>
      <trkpt lat="45.00203" lon="0.40577">
        <ele>163</ele>
        <time>2012-03-13T12:47:46.000Z</time>
      </trkpt>
      <trkpt lat="45.00209" lon="0.40574">
        <ele>163</ele>
        <time>2012-03-13T12:47:47.000Z</time>
      </trkpt>
      <trkpt lat="45.00214" lon="0.40573">
        <ele>163</ele>
        <time>2012-03-13T12:47:48.000Z</time>
      </trkpt>
      <trkpt lat="45.00222" lon="0.40578">
        <ele>164</ele>
        <time>2012-03-13T12:47:50.000Z</time>
      </trkpt>
      <trkpt lat="45.00226" lon="0.40582">
        <ele>163</ele>
        <time>2012-03-13T12:47:51.000Z</time>
      </trkpt>
      <trkpt lat="45.0023" lon="0.40591">
        <ele>164</ele>
        <time>2012-03-13T12:47:53.000Z</time>
      </trkpt>
      <trkpt lat="45.00235" lon="0.406">
        <ele>164</ele>
        <time>2012-03-13T12:47:55.000Z</time>
      </trkpt>
      <trkpt lat="45.00238" lon="0.40606">
        <ele>164</ele>
        <time>2012-03-13T12:47:56.000Z</time>
      </trkpt>
      <trkpt lat="45.00241" lon="0.40613">
        <ele>163</ele>
        <time>2012-03-13T12:47:57.000Z</time>
      </trkpt>
      <trkpt lat="45.00245" lon="0.40618">
        <ele>162</ele>
        <time>2012-03-13T12:47:58.000Z</time>
      </trkpt>
      <trkpt lat="45.00248" lon="0.40625">
        <ele>161</ele>
        <time>2012-03-13T12:47:59.000Z</time>
      </trkpt>
      <trkpt lat="45.00252" lon="0.40631">
        <ele>161</ele>
        <time>2012-03-13T12:48:00.000Z</time>
      </trkpt>
      <trkpt lat="45.00255" lon="0.40635">
        <ele>161</ele>
        <time>2012-03-13T12:48:01.000Z</time>
      </trkpt>
      <trkpt lat="45.00258" lon="0.40641">
        <ele>161</ele>
        <time>2012-03-13T12:48:02.000Z</time>
      </trkpt>
      <trkpt lat="45.00265" lon="0.4065">
        <ele>160</ele>
        <time>2012-03-13T12:48:04.000Z</time>
      </trkpt>
      <trkpt lat="45.00269" lon="0.40656">
        <ele>159</ele>
        <time>2012-03-13T12:48:05.000Z</time>
      </trkpt>
      <trkpt lat="45.00273" lon="0.40661">
        <ele>157</ele>
        <time>2012-03-13T12:48:06.000Z</time>
      </trkpt>
      <trkpt lat="45.00278" lon="0.40667">
        <ele>156</ele>
        <time>2012-03-13T12:48:07.000Z</time>
      </trkpt>
      <trkpt lat="45.00282" lon="0.40671">
        <ele>156</ele>
        <time>2012-03-13T12:48:08.000Z</time>
      </trkpt>
      <trkpt lat="45.00286" lon="0.40677">
        <ele>156</ele>
        <time>2012-03-13T12:48:09.000Z</time>
      </trkpt>
      <trkpt lat="45.0029" lon="0.40683">
        <ele>156</ele>
        <time>2012-03-13T12:48:10.000Z</time>
      </trkpt>
      <trkpt lat="45.00294" lon="0.40688">
        <ele>157</ele>
        <time>2012-03-13T12:48:11.000Z</time>
      </trkpt>
      <trkpt lat="45.00298" lon="0.40691">
        <ele>157</ele>
        <time>2012-03-13T12:48:12.000Z</time>
      </trkpt>
      <trkpt lat="45.00302" lon="0.40695">
        <ele>157</ele>
        <time>2012-03-13T12:48:13.000Z</time>
      </trkpt>
      <trkpt lat="45.00307" lon="0.40699">
        <ele>157</ele>
        <time>2012-03-13T12:48:14.000Z</time>
      </trkpt>
      <trkpt lat="45.00312" lon="0.407">
        <ele>158</ele>
        <time>2012-03-13T12:48:15.000Z</time>
      </trkpt>
      <trkpt lat="45.00317" lon="0.40702">
        <ele>159</ele>
        <time>2012-03-13T12:48:16.000Z</time>
      </trkpt>
      <trkpt lat="45.00325" lon="0.40705">
        <ele>160</ele>
        <time>2012-03-13T12:48:18.000Z</time>
      </trkpt>
      <trkpt lat="45.00333" lon="0.40706">
        <ele>160</ele>
        <time>2012-03-13T12:48:20.000Z</time>
      </trkpt>
      <trkpt lat="45.00343" lon="0.40709">
        <ele>164</ele>
        <time>2012-03-13T12:48:23.000Z</time>
      </trkpt>
      <trkpt lat="45.0035" lon="0.40712">
        <ele>164</ele>
        <time>2012-03-13T12:48:25.000Z</time>
      </trkpt>
      <trkpt lat="45.00358" lon="0.40711">
        <ele>165</ele>
        <time>2012-03-13T12:48:27.000Z</time>
      </trkpt>
      <trkpt lat="45.00364" lon="0.40712">
        <ele>165</ele>
        <time>2012-03-13T12:48:29.000Z</time>
      </trkpt>
      <trkpt lat="45.00369" lon="0.40713">
        <ele>166</ele>
        <time>2012-03-13T12:48:31.000Z</time>
      </trkpt>
      <trkpt lat="45.00376" lon="0.40714">
        <ele>165</ele>
        <time>2012-03-13T12:48:33.000Z</time>
      </trkpt>
      <trkpt lat="45.00383" lon="0.40716">
        <ele>165</ele>
        <time>2012-03-13T12:48:35.000Z</time>
      </trkpt>
      <trkpt lat="45.00388" lon="0.40717">
        <ele>166</ele>
        <time>2012-03-13T12:48:37.000Z</time>
      </trkpt>
      <trkpt lat="45.00393" lon="0.40718">
        <ele>167</ele>
        <time>2012-03-13T12:48:39.000Z</time>
      </trkpt>
      <trkpt lat="45.004" lon="0.40717">
        <ele>167</ele>
        <time>2012-03-13T12:48:41.000Z</time>
      </trkpt>
      <trkpt lat="45.00406" lon="0.40715">
        <ele>167</ele>
        <time>2012-03-13T12:48:43.000Z</time>
      </trkpt>
      <trkpt lat="45.00412" lon="0.40716">
        <ele>167</ele>
        <time>2012-03-13T12:48:45.000Z</time>
      </trkpt>
      <trkpt lat="45.0042" lon="0.40714">
        <ele>167</ele>
        <time>2012-03-13T12:48:47.000Z</time>
      </trkpt>
      <trkpt lat="45.00428" lon="0.40709">
        <ele>166</ele>
        <time>2012-03-13T12:48:49.000Z</time>
      </trkpt>
      <trkpt lat="45.00433" lon="0.40706">
        <ele>166</ele>
        <time>2012-03-13T12:48:51.000Z</time>
      </trkpt>
      <trkpt lat="45.00439" lon="0.40697">
        <ele>166</ele>
        <time>2012-03-13T12:48:53.000Z</time>
      </trkpt>
      <trkpt lat="45.00445" lon="0.4069">
        <ele>165</ele>
        <time>2012-03-13T12:48:55.000Z</time>
      </trkpt>
      <trkpt lat="45.00449" lon="0.40685">
        <ele>165</ele>
        <time>2012-03-13T12:48:56.000Z</time>
      </trkpt>
      <trkpt lat="45.00454" lon="0.40675">
        <ele>165</ele>
        <time>2012-03-13T12:48:58.000Z</time>
      </trkpt>
      <trkpt lat="45.00457" lon="0.4067">
        <ele>165</ele>
        <time>2012-03-13T12:48:59.000Z</time>
      </trkpt>
      <trkpt lat="45.00461" lon="0.40661">
        <ele>165</ele>
        <time>2012-03-13T12:49:01.000Z</time>
      </trkpt>
      <trkpt lat="45.00466" lon="0.40653">
        <ele>165</ele>
        <time>2012-03-13T12:49:03.000Z</time>
      </trkpt>
      <trkpt lat="45.00472" lon="0.40649">
        <ele>164</ele>
        <time>2012-03-13T12:49:05.000Z</time>
      </trkpt>
      <trkpt lat="45.00478" lon="0.40647">
        <ele>166</ele>
        <time>2012-03-13T12:49:07.000Z</time>
      </trkpt>
      <trkpt lat="45.00486" lon="0.40648">
        <ele>165</ele>
        <time>2012-03-13T12:49:09.000Z</time>
      </trkpt>
      <trkpt lat="45.00491" lon="0.40647">
        <ele>165</ele>
        <time>2012-03-13T12:49:10.000Z</time>
      </trkpt>
      <trkpt lat="45.00497" lon="0.40647">
        <ele>166</ele>
        <time>2012-03-13T12:49:11.000Z</time>
      </trkpt>
      <trkpt lat="45.00504" lon="0.40647">
        <ele>165</ele>
        <time>2012-03-13T12:49:12.000Z</time>
      </trkpt>
      <trkpt lat="45.00512" lon="0.40646">
        <ele>164</ele>
        <time>2012-03-13T12:49:13.000Z</time>
      </trkpt>
      <trkpt lat="45.00518" lon="0.40646">
        <ele>163</ele>
        <time>2012-03-13T12:49:14.000Z</time>
      </trkpt>
      <trkpt lat="45.00526" lon="0.40646">
        <ele>163</ele>
        <time>2012-03-13T12:49:15.000Z</time>
      </trkpt>
      <trkpt lat="45.00534" lon="0.40647">
        <ele>162</ele>
        <time>2012-03-13T12:49:16.000Z</time>
      </trkpt>
      <trkpt lat="45.00543" lon="0.40648">
        <ele>161</ele>
        <time>2012-03-13T12:49:17.000Z</time>
      </trkpt>
      <trkpt lat="45.00551" lon="0.40649">
        <ele>160</ele>
        <time>2012-03-13T12:49:18.000Z</time>
      </trkpt>
      <trkpt lat="45.0056" lon="0.4065">
        <ele>160</ele>
        <time>2012-03-13T12:49:19.000Z</time>
      </trkpt>
      <trkpt lat="45.0057" lon="0.40651">
        <ele>159</ele>
        <time>2012-03-13T12:49:20.000Z</time>
      </trkpt>
      <trkpt lat="45.00579" lon="0.40652">
        <ele>159</ele>
        <time>2012-03-13T12:49:21.000Z</time>
      </trkpt>
      <trkpt lat="45.00596" lon="0.40654">
        <ele>158</ele>
        <time>2012-03-13T12:49:23.000Z</time>
      </trkpt>
      <trkpt lat="45.00606" lon="0.40654">
        <ele>158</ele>
        <time>2012-03-13T12:49:24.000Z</time>
      </trkpt>
      <trkpt lat="45.00616" lon="0.40655">
        <ele>158</ele>
        <time>2012-03-13T12:49:25.000Z</time>
      </trkpt>
      <trkpt lat="45.00624" lon="0.40654">
        <ele>159</ele>
        <time>2012-03-13T12:49:26.000Z</time>
      </trkpt>
      <trkpt lat="45.00633" lon="0.40654">
        <ele>159</ele>
        <time>2012-03-13T12:49:27.000Z</time>
      </trkpt>
      <trkpt lat="45.00641" lon="0.40653">
        <ele>159</ele>
        <time>2012-03-13T12:49:28.000Z</time>
      </trkpt>
      <trkpt lat="45.00648" lon="0.40653">
        <ele>159</ele>
        <time>2012-03-13T12:49:29.000Z</time>
      </trkpt>
      <trkpt lat="45.00656" lon="0.40649">
        <ele>159</ele>
        <time>2012-03-13T12:49:30.000Z</time>
      </trkpt>
      <trkpt lat="45.00663" lon="0.40646">
        <ele>158</ele>
        <time>2012-03-13T12:49:31.000Z</time>
      </trkpt>
      <trkpt lat="45.00668" lon="0.40642">
        <ele>158</ele>
        <time>2012-03-13T12:49:32.000Z</time>
      </trkpt>
      <trkpt lat="45.00674" lon="0.40636">
        <ele>158</ele>
        <time>2012-03-13T12:49:33.000Z</time>
      </trkpt>
      <trkpt lat="45.00679" lon="0.40631">
        <ele>158</ele>
        <time>2012-03-13T12:49:34.000Z</time>
      </trkpt>
      <trkpt lat="45.00685" lon="0.40626">
        <ele>158</ele>
        <time>2012-03-13T12:49:35.000Z</time>
      </trkpt>
      <trkpt lat="45.0069" lon="0.4062">
        <ele>158</ele>
        <time>2012-03-13T12:49:36.000Z</time>
      </trkpt>
      <trkpt lat="45.00695" lon="0.40613">
        <ele>158</ele>
        <time>2012-03-13T12:49:37.000Z</time>
      </trkpt>
      <trkpt lat="45.007" lon="0.40608">
        <ele>158</ele>
        <time>2012-03-13T12:49:38.000Z</time>
      </trkpt>
      <trkpt lat="45.00705" lon="0.40602">
        <ele>158</ele>
        <time>2012-03-13T12:49:39.000Z</time>
      </trkpt>
      <trkpt lat="45.0071" lon="0.40597">
        <ele>157</ele>
        <time>2012-03-13T12:49:40.000Z</time>
      </trkpt>
      <trkpt lat="45.00715" lon="0.40592">
        <ele>158</ele>
        <time>2012-03-13T12:49:41.000Z</time>
      </trkpt>
      <trkpt lat="45.0072" lon="0.40588">
        <ele>158</ele>
        <time>2012-03-13T12:49:42.000Z</time>
      </trkpt>
      <trkpt lat="45.00725" lon="0.40585">
        <ele>158</ele>
        <time>2012-03-13T12:49:43.000Z</time>
      </trkpt>
      <trkpt lat="45.0073" lon="0.40582">
        <ele>158</ele>
        <time>2012-03-13T12:49:44.000Z</time>
      </trkpt>
      <trkpt lat="45.00735" lon="0.40579">
        <ele>158</ele>
        <time>2012-03-13T12:49:45.000Z</time>
      </trkpt>
      <trkpt lat="45.0074" lon="0.40574">
        <ele>158</ele>
        <time>2012-03-13T12:49:46.000Z</time>
      </trkpt>
      <trkpt lat="45.00744" lon="0.40572">
        <ele>158</ele>
        <time>2012-03-13T12:49:47.000Z</time>
      </trkpt>
      <trkpt lat="45.00753" lon="0.40569">
        <ele>158</ele>
        <time>2012-03-13T12:49:49.000Z</time>
      </trkpt>
      <trkpt lat="45.00758" lon="0.40567">
        <ele>158</ele>
        <time>2012-03-13T12:49:50.000Z</time>
      </trkpt>
      <trkpt lat="45.00779" lon="0.40554">
        <ele>159</ele>
        <time>2012-03-13T12:49:54.000Z</time>
      </trkpt>
      <trkpt lat="45.00785" lon="0.4055">
        <ele>159</ele>
        <time>2012-03-13T12:49:55.000Z</time>
      </trkpt>
      <trkpt lat="45.0079" lon="0.40546">
        <ele>159</ele>
        <time>2012-03-13T12:49:56.000Z</time>
      </trkpt>
      <trkpt lat="45.00795" lon="0.40544">
        <ele>158</ele>
        <time>2012-03-13T12:49:57.000Z</time>
      </trkpt>
      <trkpt lat="45.008" lon="0.40541">
        <ele>158</ele>
        <time>2012-03-13T12:49:58.000Z</time>
      </trkpt>
      <trkpt lat="45.00805" lon="0.40539">
        <ele>158</ele>
        <time>2012-03-13T12:49:59.000Z</time>
      </trkpt>
      <trkpt lat="45.0081" lon="0.40536">
        <ele>158</ele>
        <time>2012-03-13T12:50:00.000Z</time>
      </trkpt>
      <trkpt lat="45.00815" lon="0.40534">
        <ele>158</ele>
        <time>2012-03-13T12:50:01.000Z</time>
      </trkpt>
      <trkpt lat="45.00821" lon="0.4053">
        <ele>158</ele>
        <time>2012-03-13T12:50:02.000Z</time>
      </trkpt>
      <trkpt lat="45.00826" lon="0.40525">
        <ele>158</ele>
        <time>2012-03-13T12:50:03.000Z</time>
      </trkpt>
      <trkpt lat="45.00831" lon="0.40521">
        <ele>158</ele>
        <time>2012-03-13T12:50:04.000Z</time>
      </trkpt>
      <trkpt lat="45.00835" lon="0.40517">
        <ele>158</ele>
        <time>2012-03-13T12:50:05.000Z</time>
      </trkpt>
      <trkpt lat="45.00839" lon="0.40513">
        <ele>158</ele>
        <time>2012-03-13T12:50:06.000Z</time>
      </trkpt>
      <trkpt lat="45.00846" lon="0.40506">
        <ele>158</ele>
        <time>2012-03-13T12:50:08.000Z</time>
      </trkpt>
      <trkpt lat="45.00851" lon="0.40507">
        <ele>158</ele>
        <time>2012-03-13T12:50:09.000Z</time>
      </trkpt>
      <trkpt lat="45.00856" lon="0.4051">
        <ele>157</ele>
        <time>2012-03-13T12:50:10.000Z</time>
      </trkpt>
      <trkpt lat="45.00864" lon="0.40512">
        <ele>157</ele>
        <time>2012-03-13T12:50:12.000Z</time>
      </trkpt>
      <trkpt lat="45.00868" lon="0.40514">
        <ele>158</ele>
        <time>2012-03-13T12:50:13.000Z</time>
      </trkpt>
      <trkpt lat="45.00874" lon="0.40518">
        <ele>159</ele>
        <time>2012-03-13T12:50:15.000Z</time>
      </trkpt>
      <trkpt lat="45.0088" lon="0.40524">
        <ele>161</ele>
        <time>2012-03-13T12:50:17.000Z</time>
      </trkpt>
      <trkpt lat="45.00884" lon="0.40531">
        <ele>162</ele>
        <time>2012-03-13T12:50:18.000Z</time>
      </trkpt>
      <trkpt lat="45.00887" lon="0.40537">
        <ele>162</ele>
        <time>2012-03-13T12:50:19.000Z</time>
      </trkpt>
      <trkpt lat="45.00891" lon="0.40546">
        <ele>163</ele>
        <time>2012-03-13T12:50:20.000Z</time>
      </trkpt>
      <trkpt lat="45.00897" lon="0.40554">
        <ele>163</ele>
        <time>2012-03-13T12:50:21.000Z</time>
      </trkpt>
      <trkpt lat="45.00903" lon="0.40562">
        <ele>163</ele>
        <time>2012-03-13T12:50:22.000Z</time>
      </trkpt>
      <trkpt lat="45.00907" lon="0.4057">
        <ele>164</ele>
        <time>2012-03-13T12:50:23.000Z</time>
      </trkpt>
      <trkpt lat="45.00911" lon="0.40579">
        <ele>164</ele>
        <time>2012-03-13T12:50:24.000Z</time>
      </trkpt>
      <trkpt lat="45.00916" lon="0.40584">
        <ele>164</ele>
        <time>2012-03-13T12:50:25.000Z</time>
      </trkpt>
      <trkpt lat="45.00922" lon="0.40592">
        <ele>164</ele>
        <time>2012-03-13T12:50:26.000Z</time>
      </trkpt>
      <trkpt lat="45.00926" lon="0.406">
        <ele>163</ele>
        <time>2012-03-13T12:50:27.000Z</time>
      </trkpt>
      <trkpt lat="45.00932" lon="0.40606">
        <ele>163</ele>
        <time>2012-03-13T12:50:28.000Z</time>
      </trkpt>
      <trkpt lat="45.00937" lon="0.40612">
        <ele>163</ele>
        <time>2012-03-13T12:50:29.000Z</time>
      </trkpt>
      <trkpt lat="45.00942" lon="0.40615">
        <ele>163</ele>
        <time>2012-03-13T12:50:30.000Z</time>
      </trkpt>
      <trkpt lat="45.00947" lon="0.40618">
        <ele>162</ele>
        <time>2012-03-13T12:50:31.000Z</time>
      </trkpt>
      <trkpt lat="45.00952" lon="0.40622">
        <ele>162</ele>
        <time>2012-03-13T12:50:32.000Z</time>
      </trkpt>
      <trkpt lat="45.00956" lon="0.40625">
        <ele>163</ele>
        <time>2012-03-13T12:50:33.000Z</time>
      </trkpt>
      <trkpt lat="45.0096" lon="0.40632">
        <ele>162</ele>
        <time>2012-03-13T12:50:34.000Z</time>
      </trkpt>
      <trkpt lat="45.00963" lon="0.40638">
        <ele>163</ele>
        <time>2012-03-13T12:50:35.000Z</time>
      </trkpt>
      <trkpt lat="45.00963" lon="0.40646">
        <ele>164</ele>
        <time>2012-03-13T12:50:36.000Z</time>
      </trkpt>
      <trkpt lat="45.00964" lon="0.40653">
        <ele>165</ele>
        <time>2012-03-13T12:50:37.000Z</time>
      </trkpt>
      <trkpt lat="45.00964" lon="0.40661">
        <ele>165</ele>
        <time>2012-03-13T12:50:38.000Z</time>
      </trkpt>
      <trkpt lat="45.00966" lon="0.40668">
        <ele>166</ele>
        <time>2012-03-13T12:50:39.000Z</time>
      </trkpt>
      <trkpt lat="45.00969" lon="0.40675">
        <ele>166</ele>
        <time>2012-03-13T12:50:40.000Z</time>
      </trkpt>
      <trkpt lat="45.00972" lon="0.40683">
        <ele>166</ele>
        <time>2012-03-13T12:50:41.000Z</time>
      </trkpt>
      <trkpt lat="45.00975" lon="0.4069">
        <ele>166</ele>
        <time>2012-03-13T12:50:42.000Z</time>
      </trkpt>
      <trkpt lat="45.00975" lon="0.40697">
        <ele>165</ele>
        <time>2012-03-13T12:50:43.000Z</time>
      </trkpt>
      <trkpt lat="45.00976" lon="0.40705">
        <ele>164</ele>
        <time>2012-03-13T12:50:44.000Z</time>
      </trkpt>
      <trkpt lat="45.00978" lon="0.40713">
        <ele>164</ele>
        <time>2012-03-13T12:50:45.000Z</time>
      </trkpt>
      <trkpt lat="45.00981" lon="0.40721">
        <ele>164</ele>
        <time>2012-03-13T12:50:46.000Z</time>
      </trkpt>
      <trkpt lat="45.00984" lon="0.40728">
        <ele>165</ele>
        <time>2012-03-13T12:50:47.000Z</time>
      </trkpt>
      <trkpt lat="45.00988" lon="0.40736">
        <ele>165</ele>
        <time>2012-03-13T12:50:48.000Z</time>
      </trkpt>
      <trkpt lat="45.00992" lon="0.40742">
        <ele>165</ele>
        <time>2012-03-13T12:50:49.000Z</time>
      </trkpt>
      <trkpt lat="45.00995" lon="0.40749">
        <ele>166</ele>
        <time>2012-03-13T12:50:50.000Z</time>
      </trkpt>
      <trkpt lat="45.00999" lon="0.40755">
        <ele>166</ele>
        <time>2012-03-13T12:50:51.000Z</time>
      </trkpt>
      <trkpt lat="45.01004" lon="0.40759">
        <ele>165</ele>
        <time>2012-03-13T12:50:52.000Z</time>
      </trkpt>
      <trkpt lat="45.0101" lon="0.40765">
        <ele>166</ele>
        <time>2012-03-13T12:50:53.000Z</time>
      </trkpt>
      <trkpt lat="45.01015" lon="0.40768">
        <ele>166</ele>
        <time>2012-03-13T12:50:54.000Z</time>
      </trkpt>
      <trkpt lat="45.01019" lon="0.40772">
        <ele>166</ele>
        <time>2012-03-13T12:50:55.000Z</time>
      </trkpt>
      <trkpt lat="45.01028" lon="0.40774">
        <ele>167</ele>
        <time>2012-03-13T12:50:57.000Z</time>
      </trkpt>
      <trkpt lat="45.01034" lon="0.4077">
        <ele>166</ele>
        <time>2012-03-13T12:50:58.000Z</time>
      </trkpt>
      <trkpt lat="45.01038" lon="0.40763">
        <ele>165</ele>
        <time>2012-03-13T12:50:59.000Z</time>
      </trkpt>
      <trkpt lat="45.01043" lon="0.40758">
        <ele>162</ele>
        <time>2012-03-13T12:51:00.000Z</time>
      </trkpt>
      <trkpt lat="45.01044" lon="0.40748">
        <ele>161</ele>
        <time>2012-03-13T12:51:01.000Z</time>
      </trkpt>
      <trkpt lat="45.01048" lon="0.4074">
        <ele>160</ele>
        <time>2012-03-13T12:51:02.000Z</time>
      </trkpt>
      <trkpt lat="45.01048" lon="0.4073">
        <ele>160</ele>
        <time>2012-03-13T12:51:03.000Z</time>
      </trkpt>
      <trkpt lat="45.01051" lon="0.40723">
        <ele>157</ele>
        <time>2012-03-13T12:51:04.000Z</time>
      </trkpt>
      <trkpt lat="45.01052" lon="0.40714">
        <ele>156</ele>
        <time>2012-03-13T12:51:05.000Z</time>
      </trkpt>
      <trkpt lat="45.01055" lon="0.40706">
        <ele>155</ele>
        <time>2012-03-13T12:51:06.000Z</time>
      </trkpt>
      <trkpt lat="45.01057" lon="0.407">
        <ele>154</ele>
        <time>2012-03-13T12:51:07.000Z</time>
      </trkpt>
      <trkpt lat="45.01061" lon="0.40696">
        <ele>154</ele>
        <time>2012-03-13T12:51:08.000Z</time>
      </trkpt>
      <trkpt lat="45.01065" lon="0.40693">
        <ele>153</ele>
        <time>2012-03-13T12:51:09.000Z</time>
      </trkpt>
      <trkpt lat="45.01071" lon="0.40693">
        <ele>152</ele>
        <time>2012-03-13T12:51:10.000Z</time>
      </trkpt>
      <trkpt lat="45.01077" lon="0.40696">
        <ele>152</ele>
        <time>2012-03-13T12:51:11.000Z</time>
      </trkpt>
      <trkpt lat="45.01083" lon="0.40699">
        <ele>152</ele>
        <time>2012-03-13T12:51:12.000Z</time>
      </trkpt>
      <trkpt lat="45.0109" lon="0.40702">
        <ele>152</ele>
        <time>2012-03-13T12:51:13.000Z</time>
      </trkpt>
      <trkpt lat="45.01097" lon="0.40706">
        <ele>151</ele>
        <time>2012-03-13T12:51:14.000Z</time>
      </trkpt>
      <trkpt lat="45.01102" lon="0.40709">
        <ele>151</ele>
        <time>2012-03-13T12:51:15.000Z</time>
      </trkpt>
      <trkpt lat="45.01107" lon="0.4071">
        <ele>151</ele>
        <time>2012-03-13T12:51:16.000Z</time>
      </trkpt>
      <trkpt lat="45.01114" lon="0.40708">
        <ele>151</ele>
        <time>2012-03-13T12:51:17.000Z</time>
      </trkpt>
      <trkpt lat="45.0112" lon="0.40701">
        <ele>150</ele>
        <time>2012-03-13T12:51:18.000Z</time>
      </trkpt>
      <trkpt lat="45.01125" lon="0.40694">
        <ele>149</ele>
        <time>2012-03-13T12:51:19.000Z</time>
      </trkpt>
      <trkpt lat="45.01131" lon="0.40686">
        <ele>149</ele>
        <time>2012-03-13T12:51:20.000Z</time>
      </trkpt>
      <trkpt lat="45.01134" lon="0.40677">
        <ele>148</ele>
        <time>2012-03-13T12:51:21.000Z</time>
      </trkpt>
      <trkpt lat="45.01138" lon="0.4067">
        <ele>146</ele>
        <time>2012-03-13T12:51:22.000Z</time>
      </trkpt>
      <trkpt lat="45.01142" lon="0.40662">
        <ele>145</ele>
        <time>2012-03-13T12:51:23.000Z</time>
      </trkpt>
      <trkpt lat="45.01145" lon="0.40653">
        <ele>144</ele>
        <time>2012-03-13T12:51:24.000Z</time>
      </trkpt>
      <trkpt lat="45.01148" lon="0.40646">
        <ele>143</ele>
        <time>2012-03-13T12:51:25.000Z</time>
      </trkpt>
      <trkpt lat="45.0115" lon="0.40638">
        <ele>142</ele>
        <time>2012-03-13T12:51:26.000Z</time>
      </trkpt>
      <trkpt lat="45.01153" lon="0.40631">
        <ele>142</ele>
        <time>2012-03-13T12:51:27.000Z</time>
      </trkpt>
      <trkpt lat="45.01155" lon="0.40618">
        <ele>142</ele>
        <time>2012-03-13T12:51:29.000Z</time>
      </trkpt>
      <trkpt lat="45.01156" lon="0.4061">
        <ele>142</ele>
        <time>2012-03-13T12:51:30.000Z</time>
      </trkpt>
      <trkpt lat="45.01159" lon="0.40597">
        <ele>142</ele>
        <time>2012-03-13T12:51:32.000Z</time>
      </trkpt>
      <trkpt lat="45.0116" lon="0.4059">
        <ele>142</ele>
        <time>2012-03-13T12:51:33.000Z</time>
      </trkpt>
      <trkpt lat="45.01161" lon="0.40583">
        <ele>142</ele>
        <time>2012-03-13T12:51:34.000Z</time>
      </trkpt>
      <trkpt lat="45.01165" lon="0.40572">
        <ele>142</ele>
        <time>2012-03-13T12:51:35.000Z</time>
      </trkpt>
      <trkpt lat="45.01166" lon="0.40563">
        <ele>141</ele>
        <time>2012-03-13T12:51:36.000Z</time>
      </trkpt>
      <trkpt lat="45.01169" lon="0.40554">
        <ele>140</ele>
        <time>2012-03-13T12:51:37.000Z</time>
      </trkpt>
      <trkpt lat="45.01175" lon="0.40546">
        <ele>141</ele>
        <time>2012-03-13T12:51:38.000Z</time>
      </trkpt>
      <trkpt lat="45.01182" lon="0.4054">
        <ele>140</ele>
        <time>2012-03-13T12:51:39.000Z</time>
      </trkpt>
      <trkpt lat="45.0119" lon="0.40537">
        <ele>140</ele>
        <time>2012-03-13T12:51:40.000Z</time>
      </trkpt>
      <trkpt lat="45.01198" lon="0.40535">
        <ele>140</ele>
        <time>2012-03-13T12:51:41.000Z</time>
      </trkpt>
      <trkpt lat="45.01208" lon="0.40532">
        <ele>139</ele>
        <time>2012-03-13T12:51:42.000Z</time>
      </trkpt>
      <trkpt lat="45.01217" lon="0.4053">
        <ele>138</ele>
        <time>2012-03-13T12:51:43.000Z</time>
      </trkpt>
      <trkpt lat="45.01228" lon="0.40526">
        <ele>138</ele>
        <time>2012-03-13T12:51:44.000Z</time>
      </trkpt>
      <trkpt lat="45.01238" lon="0.40523">
        <ele>136</ele>
        <time>2012-03-13T12:51:45.000Z</time>
      </trkpt>
      <trkpt lat="45.01249" lon="0.40521">
        <ele>135</ele>
        <time>2012-03-13T12:51:46.000Z</time>
      </trkpt>
      <trkpt lat="45.01259" lon="0.4052">
        <ele>133</ele>
        <time>2012-03-13T12:51:47.000Z</time>
      </trkpt>
      <trkpt lat="45.0127" lon="0.40517">
        <ele>133</ele>
        <time>2012-03-13T12:51:48.000Z</time>
      </trkpt>
      <trkpt lat="45.0128" lon="0.40516">
        <ele>131</ele>
        <time>2012-03-13T12:51:49.000Z</time>
      </trkpt>
      <trkpt lat="45.01291" lon="0.40514">
        <ele>130</ele>
        <time>2012-03-13T12:51:50.000Z</time>
      </trkpt>
      <trkpt lat="45.01302" lon="0.40513">
        <ele>129</ele>
        <time>2012-03-13T12:51:51.000Z</time>
      </trkpt>
      <trkpt lat="45.01314" lon="0.40512">
        <ele>128</ele>
        <time>2012-03-13T12:51:52.000Z</time>
      </trkpt>
      <trkpt lat="45.01326" lon="0.4051">
        <ele>127</ele>
        <time>2012-03-13T12:51:53.000Z</time>
      </trkpt>
      <trkpt lat="45.01338" lon="0.40509">
        <ele>126</ele>
        <time>2012-03-13T12:51:54.000Z</time>
      </trkpt>
      <trkpt lat="45.0135" lon="0.40508">
        <ele>125</ele>
        <time>2012-03-13T12:51:55.000Z</time>
      </trkpt>
      <trkpt lat="45.01361" lon="0.40507">
        <ele>124</ele>
        <time>2012-03-13T12:51:56.000Z</time>
      </trkpt>
      <trkpt lat="45.01373" lon="0.40506">
        <ele>123</ele>
        <time>2012-03-13T12:51:57.000Z</time>
      </trkpt>
      <trkpt lat="45.01384" lon="0.40504">
        <ele>122</ele>
        <time>2012-03-13T12:51:58.000Z</time>
      </trkpt>
      <trkpt lat="45.01396" lon="0.40502">
        <ele>121</ele>
        <time>2012-03-13T12:51:59.000Z</time>
      </trkpt>
      <trkpt lat="45.01408" lon="0.40501">
        <ele>119</ele>
        <time>2012-03-13T12:52:00.000Z</time>
      </trkpt>
      <trkpt lat="45.01419" lon="0.40499">
        <ele>118</ele>
        <time>2012-03-13T12:52:01.000Z</time>
      </trkpt>
      <trkpt lat="45.0143" lon="0.40496">
        <ele>117</ele>
        <time>2012-03-13T12:52:02.000Z</time>
      </trkpt>
      <trkpt lat="45.01441" lon="0.40495">
        <ele>116</ele>
        <time>2012-03-13T12:52:03.000Z</time>
      </trkpt>
      <trkpt lat="45.01452" lon="0.40493">
        <ele>115</ele>
        <time>2012-03-13T12:52:04.000Z</time>
      </trkpt>
      <trkpt lat="45.01462" lon="0.40491">
        <ele>115</ele>
        <time>2012-03-13T12:52:05.000Z</time>
      </trkpt>
      <trkpt lat="45.01472" lon="0.40489">
        <ele>114</ele>
        <time>2012-03-13T12:52:06.000Z</time>
      </trkpt>
      <trkpt lat="45.01482" lon="0.40487">
        <ele>114</ele>
        <time>2012-03-13T12:52:07.000Z</time>
      </trkpt>
      <trkpt lat="45.01492" lon="0.40485">
        <ele>114</ele>
        <time>2012-03-13T12:52:08.000Z</time>
      </trkpt>
      <trkpt lat="45.01502" lon="0.40483">
        <ele>114</ele>
        <time>2012-03-13T12:52:09.000Z</time>
      </trkpt>
      <trkpt lat="45.01512" lon="0.40482">
        <ele>114</ele>
        <time>2012-03-13T12:52:10.000Z</time>
      </trkpt>
      <trkpt lat="45.01521" lon="0.4048">
        <ele>113</ele>
        <time>2012-03-13T12:52:11.000Z</time>
      </trkpt>
      <trkpt lat="45.01529" lon="0.40478">
        <ele>113</ele>
        <time>2012-03-13T12:52:12.000Z</time>
      </trkpt>
      <trkpt lat="45.01537" lon="0.40475">
        <ele>114</ele>
        <time>2012-03-13T12:52:14.000Z</time>
      </trkpt>
      <trkpt lat="45.01542" lon="0.40468">
        <ele>113</ele>
        <time>2012-03-13T12:52:16.000Z</time>
      </trkpt>
      <trkpt lat="45.01547" lon="0.40457">
        <ele>113</ele>
        <time>2012-03-13T12:52:18.000Z</time>
      </trkpt>
      <trkpt lat="45.01549" lon="0.4045">
        <ele>112</ele>
        <time>2012-03-13T12:52:19.000Z</time>
      </trkpt>
      <trkpt lat="45.01551" lon="0.40444">
        <ele>112</ele>
        <time>2012-03-13T12:52:20.000Z</time>
      </trkpt>
      <trkpt lat="45.01552" lon="0.40436">
        <ele>112</ele>
        <time>2012-03-13T12:52:21.000Z</time>
      </trkpt>
      <trkpt lat="45.01552" lon="0.40429">
        <ele>112</ele>
        <time>2012-03-13T12:52:22.000Z</time>
      </trkpt>
      <trkpt lat="45.01554" lon="0.40421">
        <ele>112</ele>
        <time>2012-03-13T12:52:23.000Z</time>
      </trkpt>
      <trkpt lat="45.01554" lon="0.40412">
        <ele>113</ele>
        <time>2012-03-13T12:52:24.000Z</time>
      </trkpt>
      <trkpt lat="45.01554" lon="0.40404">
        <ele>113</ele>
        <time>2012-03-13T12:52:25.000Z</time>
      </trkpt>
      <trkpt lat="45.01553" lon="0.40396">
        <ele>112</ele>
        <time>2012-03-13T12:52:26.000Z</time>
      </trkpt>
      <trkpt lat="45.01552" lon="0.40387">
        <ele>112</ele>
        <time>2012-03-13T12:52:27.000Z</time>
      </trkpt>
      <trkpt lat="45.01553" lon="0.40379">
        <ele>112</ele>
        <time>2012-03-13T12:52:28.000Z</time>
      </trkpt>
      <trkpt lat="45.01553" lon="0.40371">
        <ele>111</ele>
        <time>2012-03-13T12:52:29.000Z</time>
      </trkpt>
      <trkpt lat="45.01554" lon="0.40364">
        <ele>111</ele>
        <time>2012-03-13T12:52:30.000Z</time>
      </trkpt>
      <trkpt lat="45.01556" lon="0.40356">
        <ele>110</ele>
        <time>2012-03-13T12:52:31.000Z</time>
      </trkpt>
      <trkpt lat="45.01556" lon="0.40348">
        <ele>110</ele>
        <time>2012-03-13T12:52:32.000Z</time>
      </trkpt>
      <trkpt lat="45.01556" lon="0.4034">
        <ele>110</ele>
        <time>2012-03-13T12:52:33.000Z</time>
      </trkpt>
      <trkpt lat="45.01557" lon="0.40332">
        <ele>109</ele>
        <time>2012-03-13T12:52:34.000Z</time>
      </trkpt>
      <trkpt lat="45.01558" lon="0.40326">
        <ele>109</ele>
        <time>2012-03-13T12:52:35.000Z</time>
      </trkpt>
      <trkpt lat="45.01558" lon="0.4032">
        <ele>109</ele>
        <time>2012-03-13T12:52:36.000Z</time>
      </trkpt>
      <trkpt lat="45.01558" lon="0.40313">
        <ele>109</ele>
        <time>2012-03-13T12:52:37.000Z</time>
      </trkpt>
      <trkpt lat="45.01558" lon="0.40307">
        <ele>110</ele>
        <time>2012-03-13T12:52:38.000Z</time>
      </trkpt>
      <trkpt lat="45.0156" lon="0.40299">
        <ele>110</ele>
        <time>2012-03-13T12:52:39.000Z</time>
      </trkpt>
      <trkpt lat="45.01562" lon="0.4029">
        <ele>110</ele>
        <time>2012-03-13T12:52:40.000Z</time>
      </trkpt>
      <trkpt lat="45.01563" lon="0.40283">
        <ele>110</ele>
        <time>2012-03-13T12:52:41.000Z</time>
      </trkpt>
      <trkpt lat="45.01555" lon="0.40274">
        <ele>111</ele>
        <time>2012-03-13T12:52:43.000Z</time>
      </trkpt>
      <trkpt lat="45.0155" lon="0.40271">
        <ele>111</ele>
        <time>2012-03-13T12:52:44.000Z</time>
      </trkpt>
      <trkpt lat="45.01545" lon="0.40268">
        <ele>112</ele>
        <time>2012-03-13T12:52:45.000Z</time>
      </trkpt>
      <trkpt lat="45.0154" lon="0.40266">
        <ele>112</ele>
        <time>2012-03-13T12:52:46.000Z</time>
      </trkpt>
      <trkpt lat="45.01531" lon="0.40262">
        <ele>112</ele>
        <time>2012-03-13T12:52:48.000Z</time>
      </trkpt>
      <trkpt lat="45.01527" lon="0.40259">
        <ele>112</ele>
        <time>2012-03-13T12:52:49.000Z</time>
      </trkpt>
      <trkpt lat="45.01522" lon="0.40257">
        <ele>112</ele>
        <time>2012-03-13T12:52:50.000Z</time>
      </trkpt>
      <trkpt lat="45.01515" lon="0.40252">
        <ele>112</ele>
        <time>2012-03-13T12:52:52.000Z</time>
      </trkpt>
      <trkpt lat="45.01511" lon="0.40249">
        <ele>113</ele>
        <time>2012-03-13T12:52:53.000Z</time>
      </trkpt>
      <trkpt lat="45.01503" lon="0.40245">
        <ele>113</ele>
        <time>2012-03-13T12:52:55.000Z</time>
      </trkpt>
      <trkpt lat="45.01496" lon="0.40242">
        <ele>113</ele>
        <time>2012-03-13T12:52:57.000Z</time>
      </trkpt>
      <trkpt lat="45.01489" lon="0.40241">
        <ele>114</ele>
        <time>2012-03-13T12:52:59.000Z</time>
      </trkpt>
      <trkpt lat="45.01482" lon="0.40237">
        <ele>114</ele>
        <time>2012-03-13T12:53:01.000Z</time>
      </trkpt>
      <trkpt lat="45.01476" lon="0.40234">
        <ele>114</ele>
        <time>2012-03-13T12:53:03.000Z</time>
      </trkpt>
      <trkpt lat="45.0147" lon="0.40231">
        <ele>114</ele>
        <time>2012-03-13T12:53:05.000Z</time>
      </trkpt>
      <trkpt lat="45.01465" lon="0.40228">
        <ele>114</ele>
        <time>2012-03-13T12:53:07.000Z</time>
      </trkpt>
      <trkpt lat="45.01459" lon="0.40224">
        <ele>114</ele>
        <time>2012-03-13T12:53:09.000Z</time>
      </trkpt>
      <trkpt lat="45.01454" lon="0.40222">
        <ele>115</ele>
        <time>2012-03-13T12:53:11.000Z</time>
      </trkpt>
      <trkpt lat="45.01449" lon="0.4022">
        <ele>115</ele>
        <time>2012-03-13T12:53:13.000Z</time>
      </trkpt>
      <trkpt lat="45.01445" lon="0.40216">
        <ele>116</ele>
        <time>2012-03-13T12:53:15.000Z</time>
      </trkpt>
      <trkpt lat="45.01439" lon="0.40213">
        <ele>117</ele>
        <time>2012-03-13T12:53:17.000Z</time>
      </trkpt>
      <trkpt lat="45.01434" lon="0.40211">
        <ele>117</ele>
        <time>2012-03-13T12:53:19.000Z</time>
      </trkpt>
      <trkpt lat="45.0143" lon="0.40208">
        <ele>117</ele>
        <time>2012-03-13T12:53:21.000Z</time>
      </trkpt>
      <trkpt lat="45.01425" lon="0.40206">
        <ele>118</ele>
        <time>2012-03-13T12:53:23.000Z</time>
      </trkpt>
      <trkpt lat="45.01419" lon="0.40204">
        <ele>118</ele>
        <time>2012-03-13T12:53:25.000Z</time>
      </trkpt>
      <trkpt lat="45.01414" lon="0.40201">
        <ele>119</ele>
        <time>2012-03-13T12:53:27.000Z</time>
      </trkpt>
      <trkpt lat="45.01409" lon="0.40199">
        <ele>120</ele>
        <time>2012-03-13T12:53:29.000Z</time>
      </trkpt>
      <trkpt lat="45.01403" lon="0.40197">
        <ele>120</ele>
        <time>2012-03-13T12:53:31.000Z</time>
      </trkpt>
      <trkpt lat="45.01397" lon="0.40197">
        <ele>121</ele>
        <time>2012-03-13T12:53:33.000Z</time>
      </trkpt>
      <trkpt lat="45.01392" lon="0.40195">
        <ele>121</ele>
        <time>2012-03-13T12:53:35.000Z</time>
      </trkpt>
      <trkpt lat="45.01386" lon="0.40194">
        <ele>122</ele>
        <time>2012-03-13T12:53:37.000Z</time>
      </trkpt>
      <trkpt lat="45.0138" lon="0.40193">
        <ele>122</ele>
        <time>2012-03-13T12:53:39.000Z</time>
      </trkpt>
      <trkpt lat="45.01374" lon="0.40193">
        <ele>123</ele>
        <time>2012-03-13T12:53:41.000Z</time>
      </trkpt>
      <trkpt lat="45.01368" lon="0.40192">
        <ele>123</ele>
        <time>2012-03-13T12:53:43.000Z</time>
      </trkpt>
      <trkpt lat="45.01362" lon="0.4019">
        <ele>123</ele>
        <time>2012-03-13T12:53:45.000Z</time>
      </trkpt>
      <trkpt lat="45.01356" lon="0.40187">
        <ele>124</ele>
        <time>2012-03-13T12:53:47.000Z</time>
      </trkpt>
      <trkpt lat="45.0135" lon="0.40182">
        <ele>125</ele>
        <time>2012-03-13T12:53:49.000Z</time>
      </trkpt>
      <trkpt lat="45.01345" lon="0.40178">
        <ele>125</ele>
        <time>2012-03-13T12:53:51.000Z</time>
      </trkpt>
      <trkpt lat="45.01339" lon="0.40173">
        <ele>125</ele>
        <time>2012-03-13T12:53:53.000Z</time>
      </trkpt>
      <trkpt lat="45.01333" lon="0.4017">
        <ele>126</ele>
        <time>2012-03-13T12:53:55.000Z</time>
      </trkpt>
      <trkpt lat="45.01327" lon="0.40167">
        <ele>126</ele>
        <time>2012-03-13T12:53:57.000Z</time>
      </trkpt>
      <trkpt lat="45.01322" lon="0.40164">
        <ele>126</ele>
        <time>2012-03-13T12:53:59.000Z</time>
      </trkpt>
      <trkpt lat="45.01315" lon="0.40161">
        <ele>127</ele>
        <time>2012-03-13T12:54:01.000Z</time>
      </trkpt>
      <trkpt lat="45.0131" lon="0.40157">
        <ele>128</ele>
        <time>2012-03-13T12:54:03.000Z</time>
      </trkpt>
      <trkpt lat="45.01306" lon="0.40152">
        <ele>128</ele>
        <time>2012-03-13T12:54:05.000Z</time>
      </trkpt>
      <trkpt lat="45.01301" lon="0.40147">
        <ele>128</ele>
        <time>2012-03-13T12:54:07.000Z</time>
      </trkpt>
      <trkpt lat="45.01296" lon="0.40145">
        <ele>129</ele>
        <time>2012-03-13T12:54:09.000Z</time>
      </trkpt>
      <trkpt lat="45.0129" lon="0.40142">
        <ele>130</ele>
        <time>2012-03-13T12:54:11.000Z</time>
      </trkpt>
      <trkpt lat="45.01284" lon="0.4014">
        <ele>131</ele>
        <time>2012-03-13T12:54:13.000Z</time>
      </trkpt>
      <trkpt lat="45.01279" lon="0.40137">
        <ele>132</ele>
        <time>2012-03-13T12:54:15.000Z</time>
      </trkpt>
      <trkpt lat="45.01274" lon="0.40134">
        <ele>132</ele>
        <time>2012-03-13T12:54:17.000Z</time>
      </trkpt>
      <trkpt lat="45.01272" lon="0.40125">
        <ele>132</ele>
        <time>2012-03-13T12:54:19.000Z</time>
      </trkpt>
      <trkpt lat="45.01269" lon="0.40119">
        <ele>132</ele>
        <time>2012-03-13T12:54:21.000Z</time>
      </trkpt>
      <trkpt lat="45.01266" lon="0.40113">
        <ele>132</ele>
        <time>2012-03-13T12:54:23.000Z</time>
      </trkpt>
      <trkpt lat="45.01262" lon="0.40108">
        <ele>133</ele>
        <time>2012-03-13T12:54:25.000Z</time>
      </trkpt>
      <trkpt lat="45.0126" lon="0.40101">
        <ele>134</ele>
        <time>2012-03-13T12:54:27.000Z</time>
      </trkpt>
      <trkpt lat="45.01257" lon="0.40095">
        <ele>134</ele>
        <time>2012-03-13T12:54:29.000Z</time>
      </trkpt>
      <trkpt lat="45.01256" lon="0.40089">
        <ele>135</ele>
        <time>2012-03-13T12:54:31.000Z</time>
      </trkpt>
      <trkpt lat="45.01254" lon="0.40081">
        <ele>135</ele>
        <time>2012-03-13T12:54:34.000Z</time>
      </trkpt>
      <trkpt lat="45.01249" lon="0.40075">
        <ele>137</ele>
        <time>2012-03-13T12:54:37.000Z</time>
      </trkpt>
      <trkpt lat="45.01245" lon="0.40072">
        <ele>139</ele>
        <time>2012-03-13T12:54:39.000Z</time>
      </trkpt>
      <trkpt lat="45.0124" lon="0.40064">
        <ele>140</ele>
        <time>2012-03-13T12:54:42.000Z</time>
      </trkpt>
      <trkpt lat="45.01235" lon="0.40061">
        <ele>141</ele>
        <time>2012-03-13T12:54:44.000Z</time>
      </trkpt>
      <trkpt lat="45.01227" lon="0.40058">
        <ele>142</ele>
        <time>2012-03-13T12:54:46.000Z</time>
      </trkpt>
      <trkpt lat="45.01222" lon="0.40054">
        <ele>143</ele>
        <time>2012-03-13T12:54:48.000Z</time>
      </trkpt>
      <trkpt lat="45.01218" lon="0.4005">
        <ele>144</ele>
        <time>2012-03-13T12:54:50.000Z</time>
      </trkpt>
      <trkpt lat="45.0121" lon="0.40048">
        <ele>142</ele>
        <time>2012-03-13T12:54:52.000Z</time>
      </trkpt>
      <trkpt lat="45.01204" lon="0.40045">
        <ele>141</ele>
        <time>2012-03-13T12:54:54.000Z</time>
      </trkpt>
      <trkpt lat="45.01199" lon="0.40042">
        <ele>143</ele>
        <time>2012-03-13T12:54:56.000Z</time>
      </trkpt>
      <trkpt lat="45.01192" lon="0.40039">
        <ele>144</ele>
        <time>2012-03-13T12:54:58.000Z</time>
      </trkpt>
      <trkpt lat="45.01186" lon="0.40039">
        <ele>145</ele>
        <time>2012-03-13T12:55:00.000Z</time>
      </trkpt>
      <trkpt lat="45.01179" lon="0.40039">
        <ele>147</ele>
        <time>2012-03-13T12:55:02.000Z</time>
      </trkpt>
      <trkpt lat="45.01174" lon="0.40036">
        <ele>149</ele>
        <time>2012-03-13T12:55:04.000Z</time>
      </trkpt>
      <trkpt lat="45.01168" lon="0.40035">
        <ele>151</ele>
        <time>2012-03-13T12:55:06.000Z</time>
      </trkpt>
      <trkpt lat="45.01163" lon="0.40032">
        <ele>151</ele>
        <time>2012-03-13T12:55:08.000Z</time>
      </trkpt>
      <trkpt lat="45.01156" lon="0.4003">
        <ele>154</ele>
        <time>2012-03-13T12:55:10.000Z</time>
      </trkpt>
      <trkpt lat="45.0115" lon="0.40029">
        <ele>155</ele>
        <time>2012-03-13T12:55:12.000Z</time>
      </trkpt>
      <trkpt lat="45.01144" lon="0.4003">
        <ele>155</ele>
        <time>2012-03-13T12:55:14.000Z</time>
      </trkpt>
      <trkpt lat="45.01137" lon="0.4003">
        <ele>154</ele>
        <time>2012-03-13T12:55:16.000Z</time>
      </trkpt>
      <trkpt lat="45.01132" lon="0.4003">
        <ele>154</ele>
        <time>2012-03-13T12:55:18.000Z</time>
      </trkpt>
      <trkpt lat="45.01126" lon="0.4003">
        <ele>155</ele>
        <time>2012-03-13T12:55:20.000Z</time>
      </trkpt>
      <trkpt lat="45.0112" lon="0.40029">
        <ele>156</ele>
        <time>2012-03-13T12:55:22.000Z</time>
      </trkpt>
      <trkpt lat="45.01113" lon="0.4003">
        <ele>155</ele>
        <time>2012-03-13T12:55:24.000Z</time>
      </trkpt>
      <trkpt lat="45.01107" lon="0.40029">
        <ele>155</ele>
        <time>2012-03-13T12:55:26.000Z</time>
      </trkpt>
      <trkpt lat="45.01101" lon="0.40028">
        <ele>155</ele>
        <time>2012-03-13T12:55:28.000Z</time>
      </trkpt>
      <trkpt lat="45.01096" lon="0.40026">
        <ele>156</ele>
        <time>2012-03-13T12:55:30.000Z</time>
      </trkpt>
      <trkpt lat="45.0109" lon="0.40024">
        <ele>157</ele>
        <time>2012-03-13T12:55:32.000Z</time>
      </trkpt>
      <trkpt lat="45.01085" lon="0.40023">
        <ele>157</ele>
        <time>2012-03-13T12:55:35.000Z</time>
      </trkpt>
      <trkpt lat="45.0108" lon="0.40021">
        <ele>160</ele>
        <time>2012-03-13T12:55:38.000Z</time>
      </trkpt>
      <trkpt lat="45.01074" lon="0.4002">
        <ele>162</ele>
        <time>2012-03-13T12:55:41.000Z</time>
      </trkpt>
      <trkpt lat="45.01069" lon="0.40019">
        <ele>163</ele>
        <time>2012-03-13T12:55:43.000Z</time>
      </trkpt>
      <trkpt lat="45.01063" lon="0.40021">
        <ele>162</ele>
        <time>2012-03-13T12:55:45.000Z</time>
      </trkpt>
      <trkpt lat="45.01057" lon="0.40023">
        <ele>162</ele>
        <time>2012-03-13T12:55:47.000Z</time>
      </trkpt>
      <trkpt lat="45.01051" lon="0.40023">
        <ele>163</ele>
        <time>2012-03-13T12:55:49.000Z</time>
      </trkpt>
      <trkpt lat="45.01046" lon="0.40026">
        <ele>164</ele>
        <time>2012-03-13T12:55:51.000Z</time>
      </trkpt>
      <trkpt lat="45.01037" lon="0.40027">
        <ele>165</ele>
        <time>2012-03-13T12:55:53.000Z</time>
      </trkpt>
      <trkpt lat="45.0103" lon="0.40027">
        <ele>165</ele>
        <time>2012-03-13T12:55:55.000Z</time>
      </trkpt>
      <trkpt lat="45.01026" lon="0.40027">
        <ele>165</ele>
        <time>2012-03-13T12:55:56.000Z</time>
      </trkpt>
      <trkpt lat="45.01019" lon="0.40026">
        <ele>164</ele>
        <time>2012-03-13T12:55:58.000Z</time>
      </trkpt>
      <trkpt lat="45.01012" lon="0.40026">
        <ele>165</ele>
        <time>2012-03-13T12:56:00.000Z</time>
      </trkpt>
      <trkpt lat="45.01005" lon="0.40026">
        <ele>165</ele>
        <time>2012-03-13T12:56:02.000Z</time>
      </trkpt>
      <trkpt lat="45.00999" lon="0.40026">
        <ele>161</ele>
        <time>2012-03-13T12:56:04.000Z</time>
      </trkpt>
      <trkpt lat="45.00992" lon="0.40026">
        <ele>160</ele>
        <time>2012-03-13T12:56:25.000Z</time>
      </trkpt>
      <trkpt lat="45.00986" lon="0.40025">
        <ele>158</ele>
        <time>2012-03-13T12:56:27.000Z</time>
      </trkpt>
      <trkpt lat="45.00978" lon="0.40026">
        <ele>158</ele>
        <time>2012-03-13T12:56:29.000Z</time>
      </trkpt>
      <trkpt lat="45.0097" lon="0.40026">
        <ele>158</ele>
        <time>2012-03-13T12:56:31.000Z</time>
      </trkpt>
      <trkpt lat="45.00965" lon="0.40027">
        <ele>157</ele>
        <time>2012-03-13T12:56:32.000Z</time>
      </trkpt>
      <trkpt lat="45.00959" lon="0.40028">
        <ele>157</ele>
        <time>2012-03-13T12:56:33.000Z</time>
      </trkpt>
      <trkpt lat="45.00953" lon="0.40029">
        <ele>157</ele>
        <time>2012-03-13T12:56:34.000Z</time>
      </trkpt>
      <trkpt lat="45.00947" lon="0.4003">
        <ele>158</ele>
        <time>2012-03-13T12:56:35.000Z</time>
      </trkpt>
      <trkpt lat="45.0094" lon="0.40032">
        <ele>158</ele>
        <time>2012-03-13T12:56:36.000Z</time>
      </trkpt>
      <trkpt lat="45.00936" lon="0.40031">
        <ele>158</ele>
        <time>2012-03-13T12:56:37.000Z</time>
      </trkpt>
      <trkpt lat="45.00931" lon="0.40031">
        <ele>158</ele>
        <time>2012-03-13T12:56:38.000Z</time>
      </trkpt>
      <trkpt lat="45.00926" lon="0.40031">
        <ele>157</ele>
        <time>2012-03-13T12:56:39.000Z</time>
      </trkpt>
      <trkpt lat="45.00916" lon="0.40032">
        <ele>156</ele>
        <time>2012-03-13T12:56:41.000Z</time>
      </trkpt>
      <trkpt lat="45.00912" lon="0.40037">
        <ele>157</ele>
        <time>2012-03-13T12:56:43.000Z</time>
      </trkpt>
      <trkpt lat="45.00909" lon="0.40043">
        <ele>157</ele>
        <time>2012-03-13T12:56:45.000Z</time>
      </trkpt>
      <trkpt lat="45.0091" lon="0.40051">
        <ele>159</ele>
        <time>2012-03-13T12:56:47.000Z</time>
      </trkpt>
      <trkpt lat="45.00911" lon="0.40058">
        <ele>159</ele>
        <time>2012-03-13T12:56:49.000Z</time>
      </trkpt>
      <trkpt lat="45.00912" lon="0.40066">
        <ele>161</ele>
        <time>2012-03-13T12:56:51.000Z</time>
      </trkpt>
      <trkpt lat="45.00914" lon="0.40073">
        <ele>163</ele>
        <time>2012-03-13T12:56:53.000Z</time>
      </trkpt>
      <trkpt lat="45.00914" lon="0.40081">
        <ele>164</ele>
        <time>2012-03-13T12:56:55.000Z</time>
      </trkpt>
      <trkpt lat="45.00914" lon="0.4009">
        <ele>163</ele>
        <time>2012-03-13T12:56:57.000Z</time>
      </trkpt>
      <trkpt lat="45.00915" lon="0.40097">
        <ele>163</ele>
        <time>2012-03-13T12:56:58.000Z</time>
      </trkpt>
      <trkpt lat="45.00915" lon="0.40104">
        <ele>164</ele>
        <time>2012-03-13T12:56:59.000Z</time>
      </trkpt>
      <trkpt lat="45.00916" lon="0.40114">
        <ele>164</ele>
        <time>2012-03-13T12:57:01.000Z</time>
      </trkpt>
      <trkpt lat="45.00916" lon="0.40124">
        <ele>165</ele>
        <time>2012-03-13T12:57:03.000Z</time>
      </trkpt>
      <trkpt lat="45.00917" lon="0.40134">
        <ele>164</ele>
        <time>2012-03-13T12:57:05.000Z</time>
      </trkpt>
      <trkpt lat="45.00917" lon="0.40144">
        <ele>164</ele>
        <time>2012-03-13T12:57:07.000Z</time>
      </trkpt>
      <trkpt lat="45.00918" lon="0.40153">
        <ele>165</ele>
        <time>2012-03-13T12:57:09.000Z</time>
      </trkpt>
      <trkpt lat="45.00917" lon="0.40161">
        <ele>166</ele>
        <time>2012-03-13T12:57:11.000Z</time>
      </trkpt>
      <trkpt lat="45.00912" lon="0.40167">
        <ele>165</ele>
        <time>2012-03-13T12:57:13.000Z</time>
      </trkpt>
      <trkpt lat="45.00906" lon="0.4017">
        <ele>166</ele>
        <time>2012-03-13T12:57:15.000Z</time>
      </trkpt>
      <trkpt lat="45.009" lon="0.4017">
        <ele>166</ele>
        <time>2012-03-13T12:57:17.000Z</time>
      </trkpt>
      <trkpt lat="45.00893" lon="0.40171">
        <ele>166</ele>
        <time>2012-03-13T12:57:19.000Z</time>
      </trkpt>
      <trkpt lat="45.00887" lon="0.40171">
        <ele>167</ele>
        <time>2012-03-13T12:57:21.000Z</time>
      </trkpt>
      <trkpt lat="45.00881" lon="0.40171">
        <ele>168</ele>
        <time>2012-03-13T12:57:23.000Z</time>
      </trkpt>
      <trkpt lat="45.00876" lon="0.40171">
        <ele>169</ele>
        <time>2012-03-13T12:57:25.000Z</time>
      </trkpt>
      <trkpt lat="45.0087" lon="0.40171">
        <ele>170</ele>
        <time>2012-03-13T12:57:27.000Z</time>
      </trkpt>
      <trkpt lat="45.00864" lon="0.40168">
        <ele>170</ele>
        <time>2012-03-13T12:57:29.000Z</time>
      </trkpt>
      <trkpt lat="45.00857" lon="0.40167">
        <ele>170</ele>
        <time>2012-03-13T12:57:31.000Z</time>
      </trkpt>
      <trkpt lat="45.0085" lon="0.40164">
        <ele>170</ele>
        <time>2012-03-13T12:57:33.000Z</time>
      </trkpt>
      <trkpt lat="45.00844" lon="0.4016">
        <ele>171</ele>
        <time>2012-03-13T12:57:35.000Z</time>
      </trkpt>
      <trkpt lat="45.00838" lon="0.40157">
        <ele>172</ele>
        <time>2012-03-13T12:57:37.000Z</time>
      </trkpt>
      <trkpt lat="45.00834" lon="0.40151">
        <ele>173</ele>
        <time>2012-03-13T12:57:40.000Z</time>
      </trkpt>
      <trkpt lat="45.00829" lon="0.40148">
        <ele>174</ele>
        <time>2012-03-13T12:57:42.000Z</time>
      </trkpt>
      <trkpt lat="45.00824" lon="0.40147">
        <ele>174</ele>
        <time>2012-03-13T12:57:44.000Z</time>
      </trkpt>
      <trkpt lat="45.00819" lon="0.40145">
        <ele>175</ele>
        <time>2012-03-13T12:57:46.000Z</time>
      </trkpt>
      <trkpt lat="45.00812" lon="0.40147">
        <ele>176</ele>
        <time>2012-03-13T12:57:49.000Z</time>
      </trkpt>
      <trkpt lat="45.00805" lon="0.40148">
        <ele>175</ele>
        <time>2012-03-13T12:57:51.000Z</time>
      </trkpt>
      <trkpt lat="45.00798" lon="0.40151">
        <ele>176</ele>
        <time>2012-03-13T12:57:53.000Z</time>
      </trkpt>
      <trkpt lat="45.00791" lon="0.40152">
        <ele>177</ele>
        <time>2012-03-13T12:57:55.000Z</time>
      </trkpt>
      <trkpt lat="45.00785" lon="0.40153">
        <ele>177</ele>
        <time>2012-03-13T12:57:57.000Z</time>
      </trkpt>
      <trkpt lat="45.00779" lon="0.40154">
        <ele>178</ele>
        <time>2012-03-13T12:57:59.000Z</time>
      </trkpt>
      <trkpt lat="45.00773" lon="0.40157">
        <ele>179</ele>
        <time>2012-03-13T12:58:01.000Z</time>
      </trkpt>
      <trkpt lat="45.00769" lon="0.40161">
        <ele>179</ele>
        <time>2012-03-13T12:58:03.000Z</time>
      </trkpt>
      <trkpt lat="45.00763" lon="0.40165">
        <ele>179</ele>
        <time>2012-03-13T12:58:05.000Z</time>
      </trkpt>
      <trkpt lat="45.00758" lon="0.4017">
        <ele>179</ele>
        <time>2012-03-13T12:58:07.000Z</time>
      </trkpt>
      <trkpt lat="45.00754" lon="0.40172">
        <ele>180</ele>
        <time>2012-03-13T12:58:08.000Z</time>
      </trkpt>
      <trkpt lat="45.00744" lon="0.40176">
        <ele>179</ele>
        <time>2012-03-13T12:58:10.000Z</time>
      </trkpt>
      <trkpt lat="45.00738" lon="0.40178">
        <ele>180</ele>
        <time>2012-03-13T12:58:12.000Z</time>
      </trkpt>
      <trkpt lat="45.0073" lon="0.40182">
        <ele>181</ele>
        <time>2012-03-13T12:58:14.000Z</time>
      </trkpt>
      <trkpt lat="45.00725" lon="0.40185">
        <ele>181</ele>
        <time>2012-03-13T12:58:16.000Z</time>
      </trkpt>
      <trkpt lat="45.00719" lon="0.40189">
        <ele>182</ele>
        <time>2012-03-13T12:58:18.000Z</time>
      </trkpt>
      <trkpt lat="45.00715" lon="0.40192">
        <ele>183</ele>
        <time>2012-03-13T12:58:20.000Z</time>
      </trkpt>
      <trkpt lat="45.00708" lon="0.40194">
        <ele>184</ele>
        <time>2012-03-13T12:58:22.000Z</time>
      </trkpt>
      <trkpt lat="45.00699" lon="0.40198">
        <ele>184</ele>
        <time>2012-03-13T12:58:24.000Z</time>
      </trkpt>
      <trkpt lat="45.00695" lon="0.40202">
        <ele>185</ele>
        <time>2012-03-13T12:58:25.000Z</time>
      </trkpt>
      <trkpt lat="45.0069" lon="0.40205">
        <ele>185</ele>
        <time>2012-03-13T12:58:26.000Z</time>
      </trkpt>
      <trkpt lat="45.00686" lon="0.40208">
        <ele>185</ele>
        <time>2012-03-13T12:58:27.000Z</time>
      </trkpt>
      <trkpt lat="45.00678" lon="0.40213">
        <ele>184</ele>
        <time>2012-03-13T12:58:29.000Z</time>
      </trkpt>
      <trkpt lat="45.00674" lon="0.40216">
        <ele>185</ele>
        <time>2012-03-13T12:58:30.000Z</time>
      </trkpt>
      <trkpt lat="45.00669" lon="0.40218">
        <ele>184</ele>
        <time>2012-03-13T12:58:31.000Z</time>
      </trkpt>
      <trkpt lat="45.00664" lon="0.40219">
        <ele>184</ele>
        <time>2012-03-13T12:58:32.000Z</time>
      </trkpt>
      <trkpt lat="45.00655" lon="0.40221">
        <ele>184</ele>
        <time>2012-03-13T12:58:34.000Z</time>
      </trkpt>
      <trkpt lat="45.00647" lon="0.40224">
        <ele>182</ele>
        <time>2012-03-13T12:58:36.000Z</time>
      </trkpt>
      <trkpt lat="45.0064" lon="0.40225">
        <ele>184</ele>
        <time>2012-03-13T12:58:38.000Z</time>
      </trkpt>
      <trkpt lat="45.00635" lon="0.40226">
        <ele>184</ele>
        <time>2012-03-13T12:58:39.000Z</time>
      </trkpt>
      <trkpt lat="45.00626" lon="0.40228">
        <ele>182</ele>
        <time>2012-03-13T12:58:41.000Z</time>
      </trkpt>
      <trkpt lat="45.00622" lon="0.40229">
        <ele>181</ele>
        <time>2012-03-13T12:58:42.000Z</time>
      </trkpt>
      <trkpt lat="45.00613" lon="0.40232">
        <ele>181</ele>
        <time>2012-03-13T12:58:44.000Z</time>
      </trkpt>
      <trkpt lat="45.00608" lon="0.40232">
        <ele>181</ele>
        <time>2012-03-13T12:58:45.000Z</time>
      </trkpt>
      <trkpt lat="45.00599" lon="0.40233">
        <ele>180</ele>
        <time>2012-03-13T12:58:47.000Z</time>
      </trkpt>
      <trkpt lat="45.0059" lon="0.40233">
        <ele>180</ele>
        <time>2012-03-13T12:58:49.000Z</time>
      </trkpt>
      <trkpt lat="45.00582" lon="0.40232">
        <ele>181</ele>
        <time>2012-03-13T12:58:51.000Z</time>
      </trkpt>
      <trkpt lat="45.00575" lon="0.4023">
        <ele>182</ele>
        <time>2012-03-13T12:58:53.000Z</time>
      </trkpt>
      <trkpt lat="45.0057" lon="0.40229">
        <ele>182</ele>
        <time>2012-03-13T12:58:54.000Z</time>
      </trkpt>
      <trkpt lat="45.00563" lon="0.40227">
        <ele>182</ele>
        <time>2012-03-13T12:58:56.000Z</time>
      </trkpt>
      <trkpt lat="45.00556" lon="0.40223">
        <ele>181</ele>
        <time>2012-03-13T12:58:58.000Z</time>
      </trkpt>
      <trkpt lat="45.0055" lon="0.40218">
        <ele>182</ele>
        <time>2012-03-13T12:59:00.000Z</time>
      </trkpt>
      <trkpt lat="45.00546" lon="0.40214">
        <ele>183</ele>
        <time>2012-03-13T12:59:01.000Z</time>
      </trkpt>
      <trkpt lat="45.00542" lon="0.40211">
        <ele>182</ele>
        <time>2012-03-13T12:59:02.000Z</time>
      </trkpt>
      <trkpt lat="45.00535" lon="0.40207">
        <ele>183</ele>
        <time>2012-03-13T12:59:04.000Z</time>
      </trkpt>
      <trkpt lat="45.00529" lon="0.40204">
        <ele>184</ele>
        <time>2012-03-13T12:59:06.000Z</time>
      </trkpt>
      <trkpt lat="45.00527" lon="0.40197">
        <ele>184</ele>
        <time>2012-03-13T12:59:14.000Z</time>
      </trkpt>
      <trkpt lat="45.00521" lon="0.40191">
        <ele>184</ele>
        <time>2012-03-13T12:59:16.000Z</time>
      </trkpt>
      <trkpt lat="45.00515" lon="0.40184">
        <ele>183</ele>
        <time>2012-03-13T12:59:18.000Z</time>
      </trkpt>
      <trkpt lat="45.00508" lon="0.40177">
        <ele>184</ele>
        <time>2012-03-13T12:59:20.000Z</time>
      </trkpt>
      <trkpt lat="45.005" lon="0.4017">
        <ele>183</ele>
        <time>2012-03-13T12:59:22.000Z</time>
      </trkpt>
      <trkpt lat="45.00496" lon="0.40167">
        <ele>184</ele>
        <time>2012-03-13T12:59:23.000Z</time>
      </trkpt>
      <trkpt lat="45.00492" lon="0.40163">
        <ele>183</ele>
        <time>2012-03-13T12:59:24.000Z</time>
      </trkpt>
      <trkpt lat="45.00488" lon="0.4016">
        <ele>183</ele>
        <time>2012-03-13T12:59:25.000Z</time>
      </trkpt>
      <trkpt lat="45.00481" lon="0.40152">
        <ele>184</ele>
        <time>2012-03-13T12:59:27.000Z</time>
      </trkpt>
      <trkpt lat="45.00476" lon="0.40148">
        <ele>184</ele>
        <time>2012-03-13T12:59:28.000Z</time>
      </trkpt>
      <trkpt lat="45.00473" lon="0.40142">
        <ele>184</ele>
        <time>2012-03-13T12:59:29.000Z</time>
      </trkpt>
      <trkpt lat="45.00469" lon="0.40136">
        <ele>184</ele>
        <time>2012-03-13T12:59:30.000Z</time>
      </trkpt>
      <trkpt lat="45.00465" lon="0.40132">
        <ele>183</ele>
        <time>2012-03-13T12:59:31.000Z</time>
      </trkpt>
      <trkpt lat="45.00459" lon="0.40129">
        <ele>184</ele>
        <time>2012-03-13T12:59:32.000Z</time>
      </trkpt>
      <trkpt lat="45.00454" lon="0.40125">
        <ele>184</ele>
        <time>2012-03-13T12:59:33.000Z</time>
      </trkpt>
      <trkpt lat="45.00447" lon="0.40119">
        <ele>184</ele>
        <time>2012-03-13T12:59:35.000Z</time>
      </trkpt>
      <trkpt lat="45.0044" lon="0.40113">
        <ele>185</ele>
        <time>2012-03-13T12:59:37.000Z</time>
      </trkpt>
      <trkpt lat="45.00437" lon="0.40108">
        <ele>187</ele>
        <time>2012-03-13T12:59:38.000Z</time>
      </trkpt>
      <trkpt lat="45.00432" lon="0.40104">
        <ele>186</ele>
        <time>2012-03-13T12:59:39.000Z</time>
      </trkpt>
      <trkpt lat="45.00423" lon="0.40095">
        <ele>181</ele>
        <time>2012-03-13T12:59:41.000Z</time>
      </trkpt>
      <trkpt lat="45.00417" lon="0.4009">
        <ele>178</ele>
        <time>2012-03-13T12:59:42.000Z</time>
      </trkpt>
      <trkpt lat="45.00412" lon="0.40087">
        <ele>178</ele>
        <time>2012-03-13T12:59:43.000Z</time>
      </trkpt>
      <trkpt lat="45.00406" lon="0.40079">
        <ele>179</ele>
        <time>2012-03-13T12:59:45.000Z</time>
      </trkpt>
      <trkpt lat="45.00401" lon="0.40076">
        <ele>180</ele>
        <time>2012-03-13T12:59:46.000Z</time>
      </trkpt>
      <trkpt lat="45.00396" lon="0.40067">
        <ele>181</ele>
        <time>2012-03-13T12:59:48.000Z</time>
      </trkpt>
      <trkpt lat="45.00395" lon="0.4006">
        <ele>182</ele>
        <time>2012-03-13T12:59:50.000Z</time>
      </trkpt>
      <trkpt lat="45.00397" lon="0.40053">
        <ele>183</ele>
        <time>2012-03-13T12:59:52.000Z</time>
      </trkpt>
      <trkpt lat="45.00403" lon="0.40044">
        <ele>184</ele>
        <time>2012-03-13T12:59:54.000Z</time>
      </trkpt>
      <trkpt lat="45.00409" lon="0.40038">
        <ele>184</ele>
        <time>2012-03-13T12:59:55.000Z</time>
      </trkpt>
      <trkpt lat="45.00414" lon="0.40034">
        <ele>185</ele>
        <time>2012-03-13T12:59:56.000Z</time>
      </trkpt>
      <trkpt lat="45.00419" lon="0.4003">
        <ele>186</ele>
        <time>2012-03-13T12:59:57.000Z</time>
      </trkpt>
      <trkpt lat="45.00423" lon="0.40021">
        <ele>186</ele>
        <time>2012-03-13T13:00:00.000Z</time>
      </trkpt>
      <trkpt lat="45.00423" lon="0.40014">
        <ele>187</ele>
        <time>2012-03-13T13:00:02.000Z</time>
      </trkpt>
      <trkpt lat="45.00421" lon="0.40008">
        <ele>186</ele>
        <time>2012-03-13T13:00:04.000Z</time>
      </trkpt>
      <trkpt lat="45.00415" lon="0.40004">
        <ele>187</ele>
        <time>2012-03-13T13:00:07.000Z</time>
      </trkpt>
      <trkpt lat="45.0041" lon="0.40004">
        <ele>187</ele>
        <time>2012-03-13T13:00:09.000Z</time>
      </trkpt>
      <trkpt lat="45.00405" lon="0.4">
        <ele>188</ele>
        <time>2012-03-13T13:00:11.000Z</time>
      </trkpt>
      <trkpt lat="45.00398" lon="0.40001">
        <ele>188</ele>
        <time>2012-03-13T13:00:13.000Z</time>
      </trkpt>
      <trkpt lat="45.00392" lon="0.39999">
        <ele>187</ele>
        <time>2012-03-13T13:00:15.000Z</time>
      </trkpt>
      <trkpt lat="45.00384" lon="0.39996">
        <ele>185</ele>
        <time>2012-03-13T13:00:17.000Z</time>
      </trkpt>
      <trkpt lat="45.00377" lon="0.39995">
        <ele>185</ele>
        <time>2012-03-13T13:00:19.000Z</time>
      </trkpt>
      <trkpt lat="45.00371" lon="0.39995">
        <ele>186</ele>
        <time>2012-03-13T13:00:21.000Z</time>
      </trkpt>
      <trkpt lat="45.00365" lon="0.39995">
        <ele>187</ele>
        <time>2012-03-13T13:00:23.000Z</time>
      </trkpt>
      <trkpt lat="45.00359" lon="0.39992">
        <ele>185</ele>
        <time>2012-03-13T13:00:25.000Z</time>
      </trkpt>
      <trkpt lat="45.00352" lon="0.39989">
        <ele>186</ele>
        <time>2012-03-13T13:00:27.000Z</time>
      </trkpt>
      <trkpt lat="45.00346" lon="0.39986">
        <ele>187</ele>
        <time>2012-03-13T13:00:29.000Z</time>
      </trkpt>
      <trkpt lat="45.0034" lon="0.39985">
        <ele>186</ele>
        <time>2012-03-13T13:00:31.000Z</time>
      </trkpt>
      <trkpt lat="45.00334" lon="0.39984">
        <ele>186</ele>
        <time>2012-03-13T13:00:33.000Z</time>
      </trkpt>
      <trkpt lat="45.00326" lon="0.39979">
        <ele>185</ele>
        <time>2012-03-13T13:00:35.000Z</time>
      </trkpt>
      <trkpt lat="45.00316" lon="0.39973">
        <ele>185</ele>
        <time>2012-03-13T13:00:38.000Z</time>
      </trkpt>
      <trkpt lat="45.0031" lon="0.3997">
        <ele>186</ele>
        <time>2012-03-13T13:00:40.000Z</time>
      </trkpt>
      <trkpt lat="45.00304" lon="0.39966">
        <ele>187</ele>
        <time>2012-03-13T13:00:42.000Z</time>
      </trkpt>
      <trkpt lat="45.00297" lon="0.39962">
        <ele>187</ele>
        <time>2012-03-13T13:00:44.000Z</time>
      </trkpt>
      <trkpt lat="45.00292" lon="0.39957">
        <ele>188</ele>
        <time>2012-03-13T13:00:46.000Z</time>
      </trkpt>
      <trkpt lat="45.00287" lon="0.39952">
        <ele>188</ele>
        <time>2012-03-13T13:00:48.000Z</time>
      </trkpt>
      <trkpt lat="45.00281" lon="0.39948">
        <ele>189</ele>
        <time>2012-03-13T13:00:50.000Z</time>
      </trkpt>
      <trkpt lat="45.00275" lon="0.39943">
        <ele>189</ele>
        <time>2012-03-13T13:00:52.000Z</time>
      </trkpt>
      <trkpt lat="45.00269" lon="0.39939">
        <ele>191</ele>
        <time>2012-03-13T13:00:54.000Z</time>
      </trkpt>
      <trkpt lat="45.00264" lon="0.39935">
        <ele>192</ele>
        <time>2012-03-13T13:00:56.000Z</time>
      </trkpt>
      <trkpt lat="45.00256" lon="0.39932">
        <ele>192</ele>
        <time>2012-03-13T13:00:58.000Z</time>
      </trkpt>
      <trkpt lat="45.00249" lon="0.3993">
        <ele>193</ele>
        <time>2012-03-13T13:01:00.000Z</time>
      </trkpt>
      <trkpt lat="45.00241" lon="0.39928">
        <ele>192</ele>
        <time>2012-03-13T13:01:02.000Z</time>
      </trkpt>
      <trkpt lat="45.00234" lon="0.39928">
        <ele>193</ele>
        <time>2012-03-13T13:01:04.000Z</time>
      </trkpt>
      <trkpt lat="45.00227" lon="0.39928">
        <ele>194</ele>
        <time>2012-03-13T13:01:06.000Z</time>
      </trkpt>
      <trkpt lat="45.00222" lon="0.39929">
        <ele>193</ele>
        <time>2012-03-13T13:01:07.000Z</time>
      </trkpt>
      <trkpt lat="45.00212" lon="0.3993">
        <ele>191</ele>
        <time>2012-03-13T13:01:09.000Z</time>
      </trkpt>
      <trkpt lat="45.00205" lon="0.3993">
        <ele>191</ele>
        <time>2012-03-13T13:01:11.000Z</time>
      </trkpt>
      <trkpt lat="45.00196" lon="0.39929">
        <ele>192</ele>
        <time>2012-03-13T13:01:13.000Z</time>
      </trkpt>
      <trkpt lat="45.00187" lon="0.39927">
        <ele>192</ele>
        <time>2012-03-13T13:01:15.000Z</time>
      </trkpt>
      <trkpt lat="45.00179" lon="0.39925">
        <ele>192</ele>
        <time>2012-03-13T13:01:17.000Z</time>
      </trkpt>
      <trkpt lat="45.00169" lon="0.39922">
        <ele>191</ele>
        <time>2012-03-13T13:01:19.000Z</time>
      </trkpt>
      <trkpt lat="45.00164" lon="0.39922">
        <ele>191</ele>
        <time>2012-03-13T13:01:20.000Z</time>
      </trkpt>
      <trkpt lat="45.00156" lon="0.39919">
        <ele>191</ele>
        <time>2012-03-13T13:01:22.000Z</time>
      </trkpt>
      <trkpt lat="45.0015" lon="0.39917">
        <ele>191</ele>
        <time>2012-03-13T13:01:23.000Z</time>
      </trkpt>
      <trkpt lat="45.00143" lon="0.39914">
        <ele>192</ele>
        <time>2012-03-13T13:01:25.000Z</time>
      </trkpt>
      <trkpt lat="45.00137" lon="0.39911">
        <ele>193</ele>
        <time>2012-03-13T13:01:27.000Z</time>
      </trkpt>
      <trkpt lat="45.00132" lon="0.39906">
        <ele>195</ele>
        <time>2012-03-13T13:01:29.000Z</time>
      </trkpt>
      <trkpt lat="45.00125" lon="0.39905">
        <ele>196</ele>
        <time>2012-03-13T13:01:31.000Z</time>
      </trkpt>
      <trkpt lat="45.00119" lon="0.39899">
        <ele>197</ele>
        <time>2012-03-13T13:01:33.000Z</time>
      </trkpt>
      <trkpt lat="45.00112" lon="0.39896">
        <ele>198</ele>
        <time>2012-03-13T13:01:35.000Z</time>
      </trkpt>
      <trkpt lat="45.00106" lon="0.39895">
        <ele>199</ele>
        <time>2012-03-13T13:01:37.000Z</time>
      </trkpt>
      <trkpt lat="45.001" lon="0.39893">
        <ele>199</ele>
        <time>2012-03-13T13:01:38.000Z</time>
      </trkpt>
      <trkpt lat="45.00095" lon="0.3989">
        <ele>199</ele>
        <time>2012-03-13T13:01:39.000Z</time>
      </trkpt>
      <trkpt lat="45.00091" lon="0.39887">
        <ele>199</ele>
        <time>2012-03-13T13:01:40.000Z</time>
      </trkpt>
      <trkpt lat="45.00092" lon="0.39877">
        <ele>199</ele>
        <time>2012-03-13T13:01:42.000Z</time>
      </trkpt>
      <trkpt lat="45.00094" lon="0.3987">
        <ele>198</ele>
        <time>2012-03-13T13:01:44.000Z</time>
      </trkpt>
      <trkpt lat="45.00098" lon="0.39866">
        <ele>199</ele>
        <time>2012-03-13T13:01:46.000Z</time>
      </trkpt>
      <trkpt lat="45.00102" lon="0.39861">
        <ele>205</ele>
        <time>2012-03-13T13:01:48.000Z</time>
      </trkpt>
      <trkpt lat="45.00107" lon="0.39857">
        <ele>208</ele>
        <time>2012-03-13T13:01:50.000Z</time>
      </trkpt>
      <trkpt lat="45.00112" lon="0.39851">
        <ele>208</ele>
        <time>2012-03-13T13:01:52.000Z</time>
      </trkpt>
      <trkpt lat="45.00119" lon="0.39846">
        <ele>208</ele>
        <time>2012-03-13T13:01:54.000Z</time>
      </trkpt>
      <trkpt lat="45.00126" lon="0.39839">
        <ele>208</ele>
        <time>2012-03-13T13:01:56.000Z</time>
      </trkpt>
      <trkpt lat="45.0013" lon="0.39833">
        <ele>210</ele>
        <time>2012-03-13T13:01:58.000Z</time>
      </trkpt>
      <trkpt lat="45.00137" lon="0.39824">
        <ele>209</ele>
        <time>2012-03-13T13:02:00.000Z</time>
      </trkpt>
      <trkpt lat="45.00142" lon="0.39817">
        <ele>209</ele>
        <time>2012-03-13T13:02:02.000Z</time>
      </trkpt>
      <trkpt lat="45.00148" lon="0.3981">
        <ele>209</ele>
        <time>2012-03-13T13:02:04.000Z</time>
      </trkpt>
      <trkpt lat="45.00153" lon="0.39806">
        <ele>209</ele>
        <time>2012-03-13T13:02:05.000Z</time>
      </trkpt>
      <trkpt lat="45.00157" lon="0.39801">
        <ele>209</ele>
        <time>2012-03-13T13:02:06.000Z</time>
      </trkpt>
      <trkpt lat="45.00163" lon="0.39793">
        <ele>210</ele>
        <time>2012-03-13T13:02:07.000Z</time>
      </trkpt>
      <trkpt lat="45.0017" lon="0.39786">
        <ele>210</ele>
        <time>2012-03-13T13:02:08.000Z</time>
      </trkpt>
      <trkpt lat="45.00176" lon="0.39779">
        <ele>210</ele>
        <time>2012-03-13T13:02:09.000Z</time>
      </trkpt>
      <trkpt lat="45.00184" lon="0.39771">
        <ele>209</ele>
        <time>2012-03-13T13:02:10.000Z</time>
      </trkpt>
      <trkpt lat="45.00192" lon="0.39764">
        <ele>210</ele>
        <time>2012-03-13T13:02:11.000Z</time>
      </trkpt>
      <trkpt lat="45.002" lon="0.39756">
        <ele>208</ele>
        <time>2012-03-13T13:02:12.000Z</time>
      </trkpt>
      <trkpt lat="45.00206" lon="0.39746">
        <ele>209</ele>
        <time>2012-03-13T13:02:13.000Z</time>
      </trkpt>
      <trkpt lat="45.00212" lon="0.39738">
        <ele>208</ele>
        <time>2012-03-13T13:02:14.000Z</time>
      </trkpt>
      <trkpt lat="45.00218" lon="0.39728">
        <ele>207</ele>
        <time>2012-03-13T13:02:15.000Z</time>
      </trkpt>
      <trkpt lat="45.00224" lon="0.39719">
        <ele>207</ele>
        <time>2012-03-13T13:02:16.000Z</time>
      </trkpt>
      <trkpt lat="45.0023" lon="0.39711">
        <ele>207</ele>
        <time>2012-03-13T13:02:17.000Z</time>
      </trkpt>
      <trkpt lat="45.00234" lon="0.39702">
        <ele>207</ele>
        <time>2012-03-13T13:02:18.000Z</time>
      </trkpt>
      <trkpt lat="45.00239" lon="0.39693">
        <ele>206</ele>
        <time>2012-03-13T13:02:19.000Z</time>
      </trkpt>
      <trkpt lat="45.00244" lon="0.39686">
        <ele>206</ele>
        <time>2012-03-13T13:02:20.000Z</time>
      </trkpt>
      <trkpt lat="45.00249" lon="0.3968">
        <ele>205</ele>
        <time>2012-03-13T13:02:21.000Z</time>
      </trkpt>
      <trkpt lat="45.00254" lon="0.39674">
        <ele>206</ele>
        <time>2012-03-13T13:02:22.000Z</time>
      </trkpt>
      <trkpt lat="45.00258" lon="0.39669">
        <ele>206</ele>
        <time>2012-03-13T13:02:23.000Z</time>
      </trkpt>
      <trkpt lat="45.00263" lon="0.39664">
        <ele>206</ele>
        <time>2012-03-13T13:02:24.000Z</time>
      </trkpt>
      <trkpt lat="45.00271" lon="0.39659">
        <ele>206</ele>
        <time>2012-03-13T13:02:26.000Z</time>
      </trkpt>
      <trkpt lat="45.00277" lon="0.39653">
        <ele>206</ele>
        <time>2012-03-13T13:02:27.000Z</time>
      </trkpt>
      <trkpt lat="45.00282" lon="0.39649">
        <ele>206</ele>
        <time>2012-03-13T13:02:28.000Z</time>
      </trkpt>
      <trkpt lat="45.00286" lon="0.39642">
        <ele>206</ele>
        <time>2012-03-13T13:02:29.000Z</time>
      </trkpt>
      <trkpt lat="45.00289" lon="0.39634">
        <ele>206</ele>
        <time>2012-03-13T13:02:30.000Z</time>
      </trkpt>
      <trkpt lat="45.00292" lon="0.39627">
        <ele>205</ele>
        <time>2012-03-13T13:02:31.000Z</time>
      </trkpt>
      <trkpt lat="45.00295" lon="0.3962">
        <ele>205</ele>
        <time>2012-03-13T13:02:32.000Z</time>
      </trkpt>
      <trkpt lat="45.00299" lon="0.39612">
        <ele>205</ele>
        <time>2012-03-13T13:02:33.000Z</time>
      </trkpt>
      <trkpt lat="45.00302" lon="0.39604">
        <ele>205</ele>
        <time>2012-03-13T13:02:34.000Z</time>
      </trkpt>
      <trkpt lat="45.00306" lon="0.39597">
        <ele>204</ele>
        <time>2012-03-13T13:02:35.000Z</time>
      </trkpt>
      <trkpt lat="45.0031" lon="0.3959">
        <ele>204</ele>
        <time>2012-03-13T13:02:36.000Z</time>
      </trkpt>
      <trkpt lat="45.00313" lon="0.39584">
        <ele>204</ele>
        <time>2012-03-13T13:02:37.000Z</time>
      </trkpt>
      <trkpt lat="45.00316" lon="0.39579">
        <ele>204</ele>
        <time>2012-03-13T13:02:38.000Z</time>
      </trkpt>
      <trkpt lat="45.00321" lon="0.39576">
        <ele>204</ele>
        <time>2012-03-13T13:02:39.000Z</time>
      </trkpt>
      <trkpt lat="45.00329" lon="0.3957">
        <ele>203</ele>
        <time>2012-03-13T13:02:41.000Z</time>
      </trkpt>
      <trkpt lat="45.00338" lon="0.39566">
        <ele>204</ele>
        <time>2012-03-13T13:02:43.000Z</time>
      </trkpt>
      <trkpt lat="45.00344" lon="0.39562">
        <ele>204</ele>
        <time>2012-03-13T13:02:44.000Z</time>
      </trkpt>
      <trkpt lat="45.00351" lon="0.39558">
        <ele>204</ele>
        <time>2012-03-13T13:02:45.000Z</time>
      </trkpt>
      <trkpt lat="45.00358" lon="0.39554">
        <ele>204</ele>
        <time>2012-03-13T13:02:46.000Z</time>
      </trkpt>
      <trkpt lat="45.00364" lon="0.39551">
        <ele>204</ele>
        <time>2012-03-13T13:02:47.000Z</time>
      </trkpt>
      <trkpt lat="45.0037" lon="0.39546">
        <ele>204</ele>
        <time>2012-03-13T13:02:48.000Z</time>
      </trkpt>
      <trkpt lat="45.00374" lon="0.3954">
        <ele>204</ele>
        <time>2012-03-13T13:02:49.000Z</time>
      </trkpt>
      <trkpt lat="45.0038" lon="0.39532">
        <ele>204</ele>
        <time>2012-03-13T13:02:50.000Z</time>
      </trkpt>
      <trkpt lat="45.00385" lon="0.39527">
        <ele>204</ele>
        <time>2012-03-13T13:02:51.000Z</time>
      </trkpt>
      <trkpt lat="45.00391" lon="0.3952">
        <ele>204</ele>
        <time>2012-03-13T13:02:52.000Z</time>
      </trkpt>
      <trkpt lat="45.00398" lon="0.39515">
        <ele>204</ele>
        <time>2012-03-13T13:02:53.000Z</time>
      </trkpt>
      <trkpt lat="45.00405" lon="0.3951">
        <ele>204</ele>
        <time>2012-03-13T13:02:54.000Z</time>
      </trkpt>
      <trkpt lat="45.00411" lon="0.39505">
        <ele>204</ele>
        <time>2012-03-13T13:02:55.000Z</time>
      </trkpt>
      <trkpt lat="45.00417" lon="0.395">
        <ele>204</ele>
        <time>2012-03-13T13:02:56.000Z</time>
      </trkpt>
      <trkpt lat="45.00423" lon="0.39495">
        <ele>204</ele>
        <time>2012-03-13T13:02:57.000Z</time>
      </trkpt>
      <trkpt lat="45.00428" lon="0.3949">
        <ele>204</ele>
        <time>2012-03-13T13:02:58.000Z</time>
      </trkpt>
      <trkpt lat="45.00434" lon="0.39486">
        <ele>204</ele>
        <time>2012-03-13T13:02:59.000Z</time>
      </trkpt>
      <trkpt lat="45.00439" lon="0.39482">
        <ele>204</ele>
        <time>2012-03-13T13:03:00.000Z</time>
      </trkpt>
      <trkpt lat="45.00451" lon="0.3947">
        <ele>204</ele>
        <time>2012-03-13T13:03:03.000Z</time>
      </trkpt>
      <trkpt lat="45.00455" lon="0.39467">
        <ele>204</ele>
        <time>2012-03-13T13:03:04.000Z</time>
      </trkpt>
      <trkpt lat="45.00462" lon="0.39463">
        <ele>204</ele>
        <time>2012-03-13T13:03:05.000Z</time>
      </trkpt>
      <trkpt lat="45.00467" lon="0.39459">
        <ele>204</ele>
        <time>2012-03-13T13:03:06.000Z</time>
      </trkpt>
      <trkpt lat="45.00473" lon="0.39455">
        <ele>204</ele>
        <time>2012-03-13T13:03:07.000Z</time>
      </trkpt>
      <trkpt lat="45.00478" lon="0.39451">
        <ele>204</ele>
        <time>2012-03-13T13:03:08.000Z</time>
      </trkpt>
      <trkpt lat="45.00483" lon="0.39448">
        <ele>204</ele>
        <time>2012-03-13T13:03:09.000Z</time>
      </trkpt>
      <trkpt lat="45.0049" lon="0.39442">
        <ele>203</ele>
        <time>2012-03-13T13:03:10.000Z</time>
      </trkpt>
      <trkpt lat="45.00494" lon="0.39437">
        <ele>202</ele>
        <time>2012-03-13T13:03:11.000Z</time>
      </trkpt>
      <trkpt lat="45.00496" lon="0.39431">
        <ele>199</ele>
        <time>2012-03-13T13:03:16.000Z</time>
      </trkpt>
      <trkpt lat="45.00498" lon="0.39422">
        <ele>199</ele>
        <time>2012-03-13T13:03:18.000Z</time>
      </trkpt>
      <trkpt lat="45.005" lon="0.39416">
        <ele>198</ele>
        <time>2012-03-13T13:03:19.000Z</time>
      </trkpt>
      <trkpt lat="45.00502" lon="0.39409">
        <ele>196</ele>
        <time>2012-03-13T13:03:20.000Z</time>
      </trkpt>
      <trkpt lat="45.00504" lon="0.39402">
        <ele>196</ele>
        <time>2012-03-13T13:03:21.000Z</time>
      </trkpt>
      <trkpt lat="45.00508" lon="0.39393">
        <ele>195</ele>
        <time>2012-03-13T13:03:22.000Z</time>
      </trkpt>
      <trkpt lat="45.00512" lon="0.39384">
        <ele>195</ele>
        <time>2012-03-13T13:03:23.000Z</time>
      </trkpt>
      <trkpt lat="45.00516" lon="0.39373">
        <ele>195</ele>
        <time>2012-03-13T13:03:24.000Z</time>
      </trkpt>
      <trkpt lat="45.00521" lon="0.39361">
        <ele>195</ele>
        <time>2012-03-13T13:03:25.000Z</time>
      </trkpt>
      <trkpt lat="45.00526" lon="0.3935">
        <ele>194</ele>
        <time>2012-03-13T13:03:26.000Z</time>
      </trkpt>
      <trkpt lat="45.00532" lon="0.39337">
        <ele>194</ele>
        <time>2012-03-13T13:03:27.000Z</time>
      </trkpt>
      <trkpt lat="45.00538" lon="0.39325">
        <ele>193</ele>
        <time>2012-03-13T13:03:28.000Z</time>
      </trkpt>
      <trkpt lat="45.00546" lon="0.39312">
        <ele>192</ele>
        <time>2012-03-13T13:03:29.000Z</time>
      </trkpt>
      <trkpt lat="45.0055" lon="0.39299">
        <ele>191</ele>
        <time>2012-03-13T13:03:30.000Z</time>
      </trkpt>
      <trkpt lat="45.00556" lon="0.39285">
        <ele>190</ele>
        <time>2012-03-13T13:03:31.000Z</time>
      </trkpt>
      <trkpt lat="45.0056" lon="0.39272">
        <ele>187</ele>
        <time>2012-03-13T13:03:32.000Z</time>
      </trkpt>
      <trkpt lat="45.00566" lon="0.39259">
        <ele>185</ele>
        <time>2012-03-13T13:03:33.000Z</time>
      </trkpt>
      <trkpt lat="45.00572" lon="0.39247">
        <ele>183</ele>
        <time>2012-03-13T13:03:34.000Z</time>
      </trkpt>
      <trkpt lat="45.00577" lon="0.39235">
        <ele>182</ele>
        <time>2012-03-13T13:03:35.000Z</time>
      </trkpt>
      <trkpt lat="45.00582" lon="0.39225">
        <ele>181</ele>
        <time>2012-03-13T13:03:36.000Z</time>
      </trkpt>
      <trkpt lat="45.00589" lon="0.39214">
        <ele>180</ele>
        <time>2012-03-13T13:03:37.000Z</time>
      </trkpt>
      <trkpt lat="45.00593" lon="0.39202">
        <ele>180</ele>
        <time>2012-03-13T13:03:38.000Z</time>
      </trkpt>
      <trkpt lat="45.00597" lon="0.3919">
        <ele>180</ele>
        <time>2012-03-13T13:03:39.000Z</time>
      </trkpt>
      <trkpt lat="45.00602" lon="0.39178">
        <ele>179</ele>
        <time>2012-03-13T13:03:40.000Z</time>
      </trkpt>
      <trkpt lat="45.00607" lon="0.39165">
        <ele>179</ele>
        <time>2012-03-13T13:03:41.000Z</time>
      </trkpt>
      <trkpt lat="45.00614" lon="0.39158">
        <ele>179</ele>
        <time>2012-03-13T13:03:42.000Z</time>
      </trkpt>
      <trkpt lat="45.0062" lon="0.39147">
        <ele>179</ele>
        <time>2012-03-13T13:03:43.000Z</time>
      </trkpt>
      <trkpt lat="45.00625" lon="0.39137">
        <ele>179</ele>
        <time>2012-03-13T13:03:44.000Z</time>
      </trkpt>
      <trkpt lat="45.00631" lon="0.39126">
        <ele>179</ele>
        <time>2012-03-13T13:03:45.000Z</time>
      </trkpt>
      <trkpt lat="45.0064" lon="0.3912">
        <ele>179</ele>
        <time>2012-03-13T13:03:46.000Z</time>
      </trkpt>
      <trkpt lat="45.00644" lon="0.39108">
        <ele>178</ele>
        <time>2012-03-13T13:03:47.000Z</time>
      </trkpt>
      <trkpt lat="45.0065" lon="0.39095">
        <ele>177</ele>
        <time>2012-03-13T13:03:48.000Z</time>
      </trkpt>
      <trkpt lat="45.00655" lon="0.39085">
        <ele>176</ele>
        <time>2012-03-13T13:03:49.000Z</time>
      </trkpt>
      <trkpt lat="45.0066" lon="0.39073">
        <ele>174</ele>
        <time>2012-03-13T13:03:50.000Z</time>
      </trkpt>
      <trkpt lat="45.00664" lon="0.39065">
        <ele>173</ele>
        <time>2012-03-13T13:03:51.000Z</time>
      </trkpt>
      <trkpt lat="45.00668" lon="0.39061">
        <ele>173</ele>
        <time>2012-03-13T13:03:52.000Z</time>
      </trkpt>
      <trkpt lat="45.00673" lon="0.39057">
        <ele>173</ele>
        <time>2012-03-13T13:03:54.000Z</time>
      </trkpt>
      <trkpt lat="45.00681" lon="0.39052">
        <ele>172</ele>
        <time>2012-03-13T13:03:56.000Z</time>
      </trkpt>
      <trkpt lat="45.00686" lon="0.39047">
        <ele>172</ele>
        <time>2012-03-13T13:03:57.000Z</time>
      </trkpt>
      <trkpt lat="45.00694" lon="0.3904">
        <ele>170</ele>
        <time>2012-03-13T13:03:59.000Z</time>
      </trkpt>
      <trkpt lat="45.00699" lon="0.39034">
        <ele>169</ele>
        <time>2012-03-13T13:04:00.000Z</time>
      </trkpt>
      <trkpt lat="45.00703" lon="0.39029">
        <ele>169</ele>
        <time>2012-03-13T13:04:01.000Z</time>
      </trkpt>
      <trkpt lat="45.00706" lon="0.39023">
        <ele>168</ele>
        <time>2012-03-13T13:04:02.000Z</time>
      </trkpt>
      <trkpt lat="45.00711" lon="0.39018">
        <ele>168</ele>
        <time>2012-03-13T13:04:03.000Z</time>
      </trkpt>
      <trkpt lat="45.00715" lon="0.39011">
        <ele>167</ele>
        <time>2012-03-13T13:04:04.000Z</time>
      </trkpt>
      <trkpt lat="45.0072" lon="0.39004">
        <ele>166</ele>
        <time>2012-03-13T13:04:05.000Z</time>
      </trkpt>
      <trkpt lat="45.00724" lon="0.38997">
        <ele>165</ele>
        <time>2012-03-13T13:04:06.000Z</time>
      </trkpt>
      <trkpt lat="45.00728" lon="0.3899">
        <ele>164</ele>
        <time>2012-03-13T13:04:07.000Z</time>
      </trkpt>
      <trkpt lat="45.00732" lon="0.38982">
        <ele>163</ele>
        <time>2012-03-13T13:04:08.000Z</time>
      </trkpt>
      <trkpt lat="45.00736" lon="0.38975">
        <ele>162</ele>
        <time>2012-03-13T13:04:09.000Z</time>
      </trkpt>
      <trkpt lat="45.00739" lon="0.38967">
        <ele>161</ele>
        <time>2012-03-13T13:04:10.000Z</time>
      </trkpt>
      <trkpt lat="45.00747" lon="0.3895">
        <ele>161</ele>
        <time>2012-03-13T13:04:12.000Z</time>
      </trkpt>
      <trkpt lat="45.00752" lon="0.38941">
        <ele>159</ele>
        <time>2012-03-13T13:04:13.000Z</time>
      </trkpt>
      <trkpt lat="45.00757" lon="0.38933">
        <ele>158</ele>
        <time>2012-03-13T13:04:14.000Z</time>
      </trkpt>
      <trkpt lat="45.00762" lon="0.38927">
        <ele>158</ele>
        <time>2012-03-13T13:04:15.000Z</time>
      </trkpt>
      <trkpt lat="45.00767" lon="0.3892">
        <ele>158</ele>
        <time>2012-03-13T13:04:16.000Z</time>
      </trkpt>
      <trkpt lat="45.00773" lon="0.38914">
        <ele>157</ele>
        <time>2012-03-13T13:04:17.000Z</time>
      </trkpt>
      <trkpt lat="45.00779" lon="0.38909">
        <ele>156</ele>
        <time>2012-03-13T13:04:18.000Z</time>
      </trkpt>
      <trkpt lat="45.00784" lon="0.38904">
        <ele>155</ele>
        <time>2012-03-13T13:04:19.000Z</time>
      </trkpt>
      <trkpt lat="45.0079" lon="0.389">
        <ele>153</ele>
        <time>2012-03-13T13:04:20.000Z</time>
      </trkpt>
      <trkpt lat="45.00797" lon="0.38896">
        <ele>152</ele>
        <time>2012-03-13T13:04:21.000Z</time>
      </trkpt>
      <trkpt lat="45.00803" lon="0.38892">
        <ele>151</ele>
        <time>2012-03-13T13:04:22.000Z</time>
      </trkpt>
      <trkpt lat="45.00818" lon="0.38886">
        <ele>151</ele>
        <time>2012-03-13T13:04:24.000Z</time>
      </trkpt>
      <trkpt lat="45.00824" lon="0.38883">
        <ele>151</ele>
        <time>2012-03-13T13:04:25.000Z</time>
      </trkpt>
      <trkpt lat="45.00832" lon="0.3888">
        <ele>151</ele>
        <time>2012-03-13T13:04:26.000Z</time>
      </trkpt>
      <trkpt lat="45.0084" lon="0.38875">
        <ele>150</ele>
        <time>2012-03-13T13:04:27.000Z</time>
      </trkpt>
      <trkpt lat="45.00848" lon="0.38872">
        <ele>150</ele>
        <time>2012-03-13T13:04:28.000Z</time>
      </trkpt>
      <trkpt lat="45.00856" lon="0.38867">
        <ele>150</ele>
        <time>2012-03-13T13:04:29.000Z</time>
      </trkpt>
      <trkpt lat="45.00863" lon="0.38862">
        <ele>149</ele>
        <time>2012-03-13T13:04:30.000Z</time>
      </trkpt>
      <trkpt lat="45.0087" lon="0.38855">
        <ele>149</ele>
        <time>2012-03-13T13:04:31.000Z</time>
      </trkpt>
      <trkpt lat="45.00878" lon="0.38848">
        <ele>148</ele>
        <time>2012-03-13T13:04:32.000Z</time>
      </trkpt>
      <trkpt lat="45.00886" lon="0.38842">
        <ele>148</ele>
        <time>2012-03-13T13:04:33.000Z</time>
      </trkpt>
      <trkpt lat="45.00893" lon="0.38838">
        <ele>148</ele>
        <time>2012-03-13T13:04:34.000Z</time>
      </trkpt>
      <trkpt lat="45.009" lon="0.38834">
        <ele>148</ele>
        <time>2012-03-13T13:04:35.000Z</time>
      </trkpt>
      <trkpt lat="45.00906" lon="0.38832">
        <ele>149</ele>
        <time>2012-03-13T13:04:36.000Z</time>
      </trkpt>
      <trkpt lat="45.00913" lon="0.38831">
        <ele>149</ele>
        <time>2012-03-13T13:04:37.000Z</time>
      </trkpt>
      <trkpt lat="45.0092" lon="0.38831">
        <ele>149</ele>
        <time>2012-03-13T13:04:38.000Z</time>
      </trkpt>
      <trkpt lat="45.00926" lon="0.38828">
        <ele>150</ele>
        <time>2012-03-13T13:04:39.000Z</time>
      </trkpt>
      <trkpt lat="45.00933" lon="0.38829">
        <ele>149</ele>
        <time>2012-03-13T13:04:40.000Z</time>
      </trkpt>
      <trkpt lat="45.0094" lon="0.38826">
        <ele>150</ele>
        <time>2012-03-13T13:04:41.000Z</time>
      </trkpt>
      <trkpt lat="45.0095" lon="0.38822">
        <ele>149</ele>
        <time>2012-03-13T13:04:42.000Z</time>
      </trkpt>
      <trkpt lat="45.00959" lon="0.3882">
        <ele>148</ele>
        <time>2012-03-13T13:04:43.000Z</time>
      </trkpt>
      <trkpt lat="45.00966" lon="0.38818">
        <ele>148</ele>
        <time>2012-03-13T13:04:44.000Z</time>
      </trkpt>
      <trkpt lat="45.00974" lon="0.38815">
        <ele>149</ele>
        <time>2012-03-13T13:04:45.000Z</time>
      </trkpt>
      <trkpt lat="45.00983" lon="0.38812">
        <ele>150</ele>
        <time>2012-03-13T13:04:46.000Z</time>
      </trkpt>
      <trkpt lat="45.00991" lon="0.38807">
        <ele>150</ele>
        <time>2012-03-13T13:04:47.000Z</time>
      </trkpt>
      <trkpt lat="45.00998" lon="0.38801">
        <ele>150</ele>
        <time>2012-03-13T13:04:48.000Z</time>
      </trkpt>
      <trkpt lat="45.01003" lon="0.38793">
        <ele>149</ele>
        <time>2012-03-13T13:04:49.000Z</time>
      </trkpt>
      <trkpt lat="45.01006" lon="0.38786">
        <ele>149</ele>
        <time>2012-03-13T13:04:50.000Z</time>
      </trkpt>
      <trkpt lat="45.01008" lon="0.38777">
        <ele>150</ele>
        <time>2012-03-13T13:04:51.000Z</time>
      </trkpt>
      <trkpt lat="45.01004" lon="0.38769">
        <ele>150</ele>
        <time>2012-03-13T13:04:52.000Z</time>
      </trkpt>
      <trkpt lat="45.01003" lon="0.38761">
        <ele>150</ele>
        <time>2012-03-13T13:04:53.000Z</time>
      </trkpt>
      <trkpt lat="45.01004" lon="0.38753">
        <ele>151</ele>
        <time>2012-03-13T13:04:54.000Z</time>
      </trkpt>
      <trkpt lat="45.01009" lon="0.38749">
        <ele>151</ele>
        <time>2012-03-13T13:04:56.000Z</time>
      </trkpt>
      <trkpt lat="45.01015" lon="0.38749">
        <ele>152</ele>
        <time>2012-03-13T13:04:58.000Z</time>
      </trkpt>
      <trkpt lat="45.01021" lon="0.38748">
        <ele>152</ele>
        <time>2012-03-13T13:04:59.000Z</time>
      </trkpt>
      <trkpt lat="45.0103" lon="0.3875">
        <ele>153</ele>
        <time>2012-03-13T13:05:01.000Z</time>
      </trkpt>
      <trkpt lat="45.01037" lon="0.38754">
        <ele>153</ele>
        <time>2012-03-13T13:05:02.000Z</time>
      </trkpt>
      <trkpt lat="45.01043" lon="0.38758">
        <ele>153</ele>
        <time>2012-03-13T13:05:03.000Z</time>
      </trkpt>
      <trkpt lat="45.01051" lon="0.38762">
        <ele>154</ele>
        <time>2012-03-13T13:05:04.000Z</time>
      </trkpt>
      <trkpt lat="45.01058" lon="0.38764">
        <ele>154</ele>
        <time>2012-03-13T13:05:05.000Z</time>
      </trkpt>
      <trkpt lat="45.01066" lon="0.38768">
        <ele>154</ele>
        <time>2012-03-13T13:05:06.000Z</time>
      </trkpt>
      <trkpt lat="45.01074" lon="0.38771">
        <ele>154</ele>
        <time>2012-03-13T13:05:07.000Z</time>
      </trkpt>
      <trkpt lat="45.01082" lon="0.38776">
        <ele>154</ele>
        <time>2012-03-13T13:05:08.000Z</time>
      </trkpt>
      <trkpt lat="45.01092" lon="0.38784">
        <ele>155</ele>
        <time>2012-03-13T13:05:09.000Z</time>
      </trkpt>
      <trkpt lat="45.011" lon="0.3879">
        <ele>156</ele>
        <time>2012-03-13T13:05:10.000Z</time>
      </trkpt>
      <trkpt lat="45.01107" lon="0.38799">
        <ele>155</ele>
        <time>2012-03-13T13:05:11.000Z</time>
      </trkpt>
      <trkpt lat="45.01117" lon="0.38806">
        <ele>155</ele>
        <time>2012-03-13T13:05:12.000Z</time>
      </trkpt>
      <trkpt lat="45.01124" lon="0.38815">
        <ele>155</ele>
        <time>2012-03-13T13:05:13.000Z</time>
      </trkpt>
      <trkpt lat="45.01131" lon="0.38822">
        <ele>155</ele>
        <time>2012-03-13T13:05:14.000Z</time>
      </trkpt>
      <trkpt lat="45.01137" lon="0.3883">
        <ele>155</ele>
        <time>2012-03-13T13:05:15.000Z</time>
      </trkpt>
      <trkpt lat="45.01143" lon="0.38836">
        <ele>155</ele>
        <time>2012-03-13T13:05:16.000Z</time>
      </trkpt>
      <trkpt lat="45.01148" lon="0.38845">
        <ele>155</ele>
        <time>2012-03-13T13:05:17.000Z</time>
      </trkpt>
      <trkpt lat="45.01166" lon="0.38871">
        <ele>155</ele>
        <time>2012-03-13T13:05:20.000Z</time>
      </trkpt>
      <trkpt lat="45.01175" lon="0.38872">
        <ele>156</ele>
        <time>2012-03-13T13:05:21.000Z</time>
      </trkpt>
      <trkpt lat="45.01183" lon="0.38874">
        <ele>156</ele>
        <time>2012-03-13T13:05:22.000Z</time>
      </trkpt>
      <trkpt lat="45.01204" lon="0.38888">
        <ele>155</ele>
        <time>2012-03-13T13:05:25.000Z</time>
      </trkpt>
      <trkpt lat="45.01211" lon="0.38893">
        <ele>155</ele>
        <time>2012-03-13T13:05:26.000Z</time>
      </trkpt>
      <trkpt lat="45.01219" lon="0.38897">
        <ele>154</ele>
        <time>2012-03-13T13:05:27.000Z</time>
      </trkpt>
      <trkpt lat="45.01225" lon="0.38901">
        <ele>154</ele>
        <time>2012-03-13T13:05:28.000Z</time>
      </trkpt>
      <trkpt lat="45.01233" lon="0.38901">
        <ele>154</ele>
        <time>2012-03-13T13:05:29.000Z</time>
      </trkpt>
      <trkpt lat="45.01241" lon="0.38905">
        <ele>153</ele>
        <time>2012-03-13T13:05:30.000Z</time>
      </trkpt>
      <trkpt lat="45.0125" lon="0.38909">
        <ele>153</ele>
        <time>2012-03-13T13:05:31.000Z</time>
      </trkpt>
      <trkpt lat="45.01258" lon="0.38913">
        <ele>153</ele>
        <time>2012-03-13T13:05:32.000Z</time>
      </trkpt>
      <trkpt lat="45.01274" lon="0.3892">
        <ele>153</ele>
        <time>2012-03-13T13:05:34.000Z</time>
      </trkpt>
      <trkpt lat="45.0128" lon="0.38924">
        <ele>153</ele>
        <time>2012-03-13T13:05:35.000Z</time>
      </trkpt>
      <trkpt lat="45.01286" lon="0.38926">
        <ele>154</ele>
        <time>2012-03-13T13:05:36.000Z</time>
      </trkpt>
      <trkpt lat="45.01293" lon="0.38931">
        <ele>153</ele>
        <time>2012-03-13T13:05:37.000Z</time>
      </trkpt>
      <trkpt lat="45.01301" lon="0.38933">
        <ele>153</ele>
        <time>2012-03-13T13:05:38.000Z</time>
      </trkpt>
      <trkpt lat="45.01307" lon="0.38934">
        <ele>153</ele>
        <time>2012-03-13T13:05:39.000Z</time>
      </trkpt>
      <trkpt lat="45.01314" lon="0.3894">
        <ele>152</ele>
        <time>2012-03-13T13:05:40.000Z</time>
      </trkpt>
      <trkpt lat="45.0132" lon="0.38949">
        <ele>152</ele>
        <time>2012-03-13T13:05:41.000Z</time>
      </trkpt>
      <trkpt lat="45.01327" lon="0.38957">
        <ele>152</ele>
        <time>2012-03-13T13:05:42.000Z</time>
      </trkpt>
      <trkpt lat="45.01331" lon="0.38964">
        <ele>152</ele>
        <time>2012-03-13T13:05:43.000Z</time>
      </trkpt>
      <trkpt lat="45.01337" lon="0.3897">
        <ele>152</ele>
        <time>2012-03-13T13:05:44.000Z</time>
      </trkpt>
      <trkpt lat="45.01343" lon="0.38979">
        <ele>152</ele>
        <time>2012-03-13T13:05:45.000Z</time>
      </trkpt>
      <trkpt lat="45.0135" lon="0.38984">
        <ele>151</ele>
        <time>2012-03-13T13:05:46.000Z</time>
      </trkpt>
      <trkpt lat="45.01356" lon="0.38992">
        <ele>151</ele>
        <time>2012-03-13T13:05:47.000Z</time>
      </trkpt>
      <trkpt lat="45.01362" lon="0.39001">
        <ele>150</ele>
        <time>2012-03-13T13:05:48.000Z</time>
      </trkpt>
      <trkpt lat="45.01367" lon="0.39009">
        <ele>150</ele>
        <time>2012-03-13T13:05:49.000Z</time>
      </trkpt>
      <trkpt lat="45.01371" lon="0.39019">
        <ele>150</ele>
        <time>2012-03-13T13:05:50.000Z</time>
      </trkpt>
      <trkpt lat="45.01377" lon="0.39027">
        <ele>151</ele>
        <time>2012-03-13T13:05:51.000Z</time>
      </trkpt>
      <trkpt lat="45.01382" lon="0.39035">
        <ele>150</ele>
        <time>2012-03-13T13:05:52.000Z</time>
      </trkpt>
      <trkpt lat="45.01388" lon="0.39044">
        <ele>150</ele>
        <time>2012-03-13T13:05:53.000Z</time>
      </trkpt>
      <trkpt lat="45.01394" lon="0.39051">
        <ele>149</ele>
        <time>2012-03-13T13:05:54.000Z</time>
      </trkpt>
      <trkpt lat="45.01402" lon="0.39057">
        <ele>149</ele>
        <time>2012-03-13T13:05:55.000Z</time>
      </trkpt>
      <trkpt lat="45.01408" lon="0.39062">
        <ele>150</ele>
        <time>2012-03-13T13:05:56.000Z</time>
      </trkpt>
      <trkpt lat="45.01414" lon="0.39064">
        <ele>150</ele>
        <time>2012-03-13T13:05:57.000Z</time>
      </trkpt>
      <trkpt lat="45.0142" lon="0.39068">
        <ele>149</ele>
        <time>2012-03-13T13:05:58.000Z</time>
      </trkpt>
      <trkpt lat="45.01427" lon="0.39072">
        <ele>149</ele>
        <time>2012-03-13T13:05:59.000Z</time>
      </trkpt>
      <trkpt lat="45.01433" lon="0.39074">
        <ele>149</ele>
        <time>2012-03-13T13:06:00.000Z</time>
      </trkpt>
      <trkpt lat="45.01439" lon="0.3908">
        <ele>149</ele>
        <time>2012-03-13T13:06:01.000Z</time>
      </trkpt>
      <trkpt lat="45.01446" lon="0.39086">
        <ele>148</ele>
        <time>2012-03-13T13:06:02.000Z</time>
      </trkpt>
      <trkpt lat="45.0145" lon="0.39092">
        <ele>148</ele>
        <time>2012-03-13T13:06:03.000Z</time>
      </trkpt>
      <trkpt lat="45.01455" lon="0.39102">
        <ele>147</ele>
        <time>2012-03-13T13:06:04.000Z</time>
      </trkpt>
      <trkpt lat="45.01462" lon="0.39111">
        <ele>147</ele>
        <time>2012-03-13T13:06:05.000Z</time>
      </trkpt>
      <trkpt lat="45.01467" lon="0.39122">
        <ele>145</ele>
        <time>2012-03-13T13:06:06.000Z</time>
      </trkpt>
      <trkpt lat="45.01471" lon="0.39132">
        <ele>144</ele>
        <time>2012-03-13T13:06:07.000Z</time>
      </trkpt>
      <trkpt lat="45.01474" lon="0.39142">
        <ele>144</ele>
        <time>2012-03-13T13:06:08.000Z</time>
      </trkpt>
      <trkpt lat="45.01478" lon="0.39153">
        <ele>144</ele>
        <time>2012-03-13T13:06:09.000Z</time>
      </trkpt>
      <trkpt lat="45.01482" lon="0.39163">
        <ele>144</ele>
        <time>2012-03-13T13:06:10.000Z</time>
      </trkpt>
      <trkpt lat="45.01486" lon="0.39174">
        <ele>144</ele>
        <time>2012-03-13T13:06:11.000Z</time>
      </trkpt>
      <trkpt lat="45.0149" lon="0.39184">
        <ele>143</ele>
        <time>2012-03-13T13:06:12.000Z</time>
      </trkpt>
      <trkpt lat="45.01494" lon="0.39194">
        <ele>143</ele>
        <time>2012-03-13T13:06:13.000Z</time>
      </trkpt>
      <trkpt lat="45.01499" lon="0.39204">
        <ele>142</ele>
        <time>2012-03-13T13:06:14.000Z</time>
      </trkpt>
      <trkpt lat="45.01505" lon="0.39211">
        <ele>141</ele>
        <time>2012-03-13T13:06:15.000Z</time>
      </trkpt>
      <trkpt lat="45.01509" lon="0.3922">
        <ele>141</ele>
        <time>2012-03-13T13:06:16.000Z</time>
      </trkpt>
      <trkpt lat="45.01513" lon="0.3923">
        <ele>140</ele>
        <time>2012-03-13T13:06:17.000Z</time>
      </trkpt>
      <trkpt lat="45.01516" lon="0.39239">
        <ele>140</ele>
        <time>2012-03-13T13:06:18.000Z</time>
      </trkpt>
      <trkpt lat="45.01522" lon="0.39247">
        <ele>139</ele>
        <time>2012-03-13T13:06:19.000Z</time>
      </trkpt>
      <trkpt lat="45.01528" lon="0.39253">
        <ele>139</ele>
        <time>2012-03-13T13:06:20.000Z</time>
      </trkpt>
      <trkpt lat="45.01533" lon="0.39257">
        <ele>139</ele>
        <time>2012-03-13T13:06:21.000Z</time>
      </trkpt>
      <trkpt lat="45.01542" lon="0.39264">
        <ele>138</ele>
        <time>2012-03-13T13:06:23.000Z</time>
      </trkpt>
      <trkpt lat="45.01546" lon="0.39266">
        <ele>138</ele>
        <time>2012-03-13T13:06:24.000Z</time>
      </trkpt>
      <trkpt lat="45.01551" lon="0.3927">
        <ele>138</ele>
        <time>2012-03-13T13:06:25.000Z</time>
      </trkpt>
      <trkpt lat="45.01557" lon="0.39272">
        <ele>138</ele>
        <time>2012-03-13T13:06:26.000Z</time>
      </trkpt>
      <trkpt lat="45.01564" lon="0.39277">
        <ele>137</ele>
        <time>2012-03-13T13:06:27.000Z</time>
      </trkpt>
      <trkpt lat="45.01571" lon="0.39283">
        <ele>137</ele>
        <time>2012-03-13T13:06:28.000Z</time>
      </trkpt>
      <trkpt lat="45.01576" lon="0.39285">
        <ele>136</ele>
        <time>2012-03-13T13:06:29.000Z</time>
      </trkpt>
      <trkpt lat="45.01583" lon="0.3929">
        <ele>135</ele>
        <time>2012-03-13T13:06:30.000Z</time>
      </trkpt>
      <trkpt lat="45.01588" lon="0.39294">
        <ele>135</ele>
        <time>2012-03-13T13:06:31.000Z</time>
      </trkpt>
      <trkpt lat="45.01594" lon="0.393">
        <ele>134</ele>
        <time>2012-03-13T13:06:32.000Z</time>
      </trkpt>
      <trkpt lat="45.01599" lon="0.39306">
        <ele>133</ele>
        <time>2012-03-13T13:06:33.000Z</time>
      </trkpt>
      <trkpt lat="45.01603" lon="0.3931">
        <ele>134</ele>
        <time>2012-03-13T13:06:34.000Z</time>
      </trkpt>
      <trkpt lat="45.0161" lon="0.39313">
        <ele>130</ele>
        <time>2012-03-13T13:06:37.000Z</time>
      </trkpt>
      <trkpt lat="45.01615" lon="0.39302">
        <ele>130</ele>
        <time>2012-03-13T13:06:39.000Z</time>
      </trkpt>
      <trkpt lat="45.01616" lon="0.39296">
        <ele>128</ele>
        <time>2012-03-13T13:06:40.000Z</time>
      </trkpt>
      <trkpt lat="45.01618" lon="0.3929">
        <ele>128</ele>
        <time>2012-03-13T13:06:41.000Z</time>
      </trkpt>
      <trkpt lat="45.0162" lon="0.39276">
        <ele>127</ele>
        <time>2012-03-13T13:06:43.000Z</time>
      </trkpt>
      <trkpt lat="45.01622" lon="0.39268">
        <ele>125</ele>
        <time>2012-03-13T13:06:45.000Z</time>
      </trkpt>
      <trkpt lat="45.01622" lon="0.39259">
        <ele>122</ele>
        <time>2012-03-13T13:06:48.000Z</time>
      </trkpt>
      <trkpt lat="45.01624" lon="0.39251">
        <ele>124</ele>
        <time>2012-03-13T13:06:51.000Z</time>
      </trkpt>
      <trkpt lat="45.01624" lon="0.39245">
        <ele>123</ele>
        <time>2012-03-13T13:06:53.000Z</time>
      </trkpt>
      <trkpt lat="45.01627" lon="0.39235">
        <ele>122</ele>
        <time>2012-03-13T13:06:55.000Z</time>
      </trkpt>
      <trkpt lat="45.0163" lon="0.39223">
        <ele>123</ele>
        <time>2012-03-13T13:06:57.000Z</time>
      </trkpt>
      <trkpt lat="45.01632" lon="0.39216">
        <ele>123</ele>
        <time>2012-03-13T13:06:58.000Z</time>
      </trkpt>
      <trkpt lat="45.01633" lon="0.3921">
        <ele>123</ele>
        <time>2012-03-13T13:06:59.000Z</time>
      </trkpt>
      <trkpt lat="45.01635" lon="0.39198">
        <ele>123</ele>
        <time>2012-03-13T13:07:01.000Z</time>
      </trkpt>
      <trkpt lat="45.01635" lon="0.39191">
        <ele>124</ele>
        <time>2012-03-13T13:07:03.000Z</time>
      </trkpt>
      <trkpt lat="45.01637" lon="0.3918">
        <ele>124</ele>
        <time>2012-03-13T13:07:05.000Z</time>
      </trkpt>
      <trkpt lat="45.01638" lon="0.39172">
        <ele>125</ele>
        <time>2012-03-13T13:07:06.000Z</time>
      </trkpt>
      <trkpt lat="45.0164" lon="0.39161">
        <ele>126</ele>
        <time>2012-03-13T13:07:08.000Z</time>
      </trkpt>
      <trkpt lat="45.01642" lon="0.3915">
        <ele>127</ele>
        <time>2012-03-13T13:07:10.000Z</time>
      </trkpt>
      <trkpt lat="45.01642" lon="0.3914">
        <ele>128</ele>
        <time>2012-03-13T13:07:12.000Z</time>
      </trkpt>
      <trkpt lat="45.01644" lon="0.3913">
        <ele>130</ele>
        <time>2012-03-13T13:07:14.000Z</time>
      </trkpt>
      <trkpt lat="45.01647" lon="0.39118">
        <ele>131</ele>
        <time>2012-03-13T13:07:16.000Z</time>
      </trkpt>
      <trkpt lat="45.01648" lon="0.39111">
        <ele>131</ele>
        <time>2012-03-13T13:07:17.000Z</time>
      </trkpt>
      <trkpt lat="45.0165" lon="0.39104">
        <ele>132</ele>
        <time>2012-03-13T13:07:18.000Z</time>
      </trkpt>
      <trkpt lat="45.01651" lon="0.39095">
        <ele>132</ele>
        <time>2012-03-13T13:07:20.000Z</time>
      </trkpt>
      <trkpt lat="45.01649" lon="0.39087">
        <ele>131</ele>
        <time>2012-03-13T13:07:22.000Z</time>
      </trkpt>
      <trkpt lat="45.0165" lon="0.39078">
        <ele>131</ele>
        <time>2012-03-13T13:07:24.000Z</time>
      </trkpt>
      <trkpt lat="45.01652" lon="0.39067">
        <ele>131</ele>
        <time>2012-03-13T13:07:26.000Z</time>
      </trkpt>
      <trkpt lat="45.01655" lon="0.39059">
        <ele>132</ele>
        <time>2012-03-13T13:07:27.000Z</time>
      </trkpt>
      <trkpt lat="45.01658" lon="0.39051">
        <ele>132</ele>
        <time>2012-03-13T13:07:28.000Z</time>
      </trkpt>
      <trkpt lat="45.01661" lon="0.39042">
        <ele>132</ele>
        <time>2012-03-13T13:07:29.000Z</time>
      </trkpt>
      <trkpt lat="45.01664" lon="0.39034">
        <ele>132</ele>
        <time>2012-03-13T13:07:30.000Z</time>
      </trkpt>
      <trkpt lat="45.01664" lon="0.39027">
        <ele>132</ele>
        <time>2012-03-13T13:07:31.000Z</time>
      </trkpt>
      <trkpt lat="45.01667" lon="0.3902">
        <ele>132</ele>
        <time>2012-03-13T13:07:32.000Z</time>
      </trkpt>
      <trkpt lat="45.0167" lon="0.39013">
        <ele>133</ele>
        <time>2012-03-13T13:07:33.000Z</time>
      </trkpt>
      <trkpt lat="45.01673" lon="0.39006">
        <ele>133</ele>
        <time>2012-03-13T13:07:34.000Z</time>
      </trkpt>
      <trkpt lat="45.01677" lon="0.38998">
        <ele>133</ele>
        <time>2012-03-13T13:07:35.000Z</time>
      </trkpt>
      <trkpt lat="45.0168" lon="0.38991">
        <ele>133</ele>
        <time>2012-03-13T13:07:36.000Z</time>
      </trkpt>
      <trkpt lat="45.01683" lon="0.38982">
        <ele>133</ele>
        <time>2012-03-13T13:07:38.000Z</time>
      </trkpt>
      <trkpt lat="45.0168" lon="0.38977">
        <ele>133</ele>
        <time>2012-03-13T13:07:46.000Z</time>
      </trkpt>
      <trkpt lat="45.01678" lon="0.3897">
        <ele>131</ele>
        <time>2012-03-13T13:07:52.000Z</time>
      </trkpt>
      <trkpt lat="45.01674" lon="0.38964">
        <ele>131</ele>
        <time>2012-03-13T13:07:55.000Z</time>
      </trkpt>
      <trkpt lat="45.01669" lon="0.38962">
        <ele>130</ele>
        <time>2012-03-13T13:07:57.000Z</time>
      </trkpt>
      <trkpt lat="45.01662" lon="0.38961">
        <ele>129</ele>
        <time>2012-03-13T13:07:59.000Z</time>
      </trkpt>
      <trkpt lat="45.01656" lon="0.38955">
        <ele>129</ele>
        <time>2012-03-13T13:08:01.000Z</time>
      </trkpt>
      <trkpt lat="45.0165" lon="0.38954">
        <ele>129</ele>
        <time>2012-03-13T13:08:03.000Z</time>
      </trkpt>
      <trkpt lat="45.01643" lon="0.38951">
        <ele>129</ele>
        <time>2012-03-13T13:08:05.000Z</time>
      </trkpt>
      <trkpt lat="45.01638" lon="0.38946">
        <ele>129</ele>
        <time>2012-03-13T13:08:07.000Z</time>
      </trkpt>
      <trkpt lat="45.01631" lon="0.38943">
        <ele>128</ele>
        <time>2012-03-13T13:08:09.000Z</time>
      </trkpt>
      <trkpt lat="45.01624" lon="0.38942">
        <ele>126</ele>
        <time>2012-03-13T13:08:11.000Z</time>
      </trkpt>
      <trkpt lat="45.01618" lon="0.38939">
        <ele>124</ele>
        <time>2012-03-13T13:08:13.000Z</time>
      </trkpt>
      <trkpt lat="45.01612" lon="0.38935">
        <ele>125</ele>
        <time>2012-03-13T13:08:15.000Z</time>
      </trkpt>
      <trkpt lat="45.01607" lon="0.38933">
        <ele>126</ele>
        <time>2012-03-13T13:08:17.000Z</time>
      </trkpt>
      <trkpt lat="45.016" lon="0.38931">
        <ele>127</ele>
        <time>2012-03-13T13:08:19.000Z</time>
      </trkpt>
      <trkpt lat="45.01594" lon="0.3893">
        <ele>128</ele>
        <time>2012-03-13T13:08:21.000Z</time>
      </trkpt>
      <trkpt lat="45.01588" lon="0.38927">
        <ele>130</ele>
        <time>2012-03-13T13:08:23.000Z</time>
      </trkpt>
      <trkpt lat="45.01581" lon="0.38923">
        <ele>130</ele>
        <time>2012-03-13T13:08:25.000Z</time>
      </trkpt>
      <trkpt lat="45.01576" lon="0.3892">
        <ele>131</ele>
        <time>2012-03-13T13:08:27.000Z</time>
      </trkpt>
      <trkpt lat="45.01571" lon="0.38917">
        <ele>132</ele>
        <time>2012-03-13T13:08:29.000Z</time>
      </trkpt>
      <trkpt lat="45.01565" lon="0.38915">
        <ele>133</ele>
        <time>2012-03-13T13:08:31.000Z</time>
      </trkpt>
      <trkpt lat="45.0156" lon="0.38914">
        <ele>133</ele>
        <time>2012-03-13T13:08:33.000Z</time>
      </trkpt>
      <trkpt lat="45.01554" lon="0.38911">
        <ele>134</ele>
        <time>2012-03-13T13:08:35.000Z</time>
      </trkpt>
      <trkpt lat="45.01549" lon="0.38906">
        <ele>136</ele>
        <time>2012-03-13T13:08:37.000Z</time>
      </trkpt>
      <trkpt lat="45.01545" lon="0.38903">
        <ele>137</ele>
        <time>2012-03-13T13:08:39.000Z</time>
      </trkpt>
      <trkpt lat="45.0154" lon="0.389">
        <ele>138</ele>
        <time>2012-03-13T13:08:41.000Z</time>
      </trkpt>
      <trkpt lat="45.01532" lon="0.38897">
        <ele>138</ele>
        <time>2012-03-13T13:08:44.000Z</time>
      </trkpt>
      <trkpt lat="45.01522" lon="0.38898">
        <ele>139</ele>
        <time>2012-03-13T13:08:46.000Z</time>
      </trkpt>
      <trkpt lat="45.01518" lon="0.38897">
        <ele>139</ele>
        <time>2012-03-13T13:08:47.000Z</time>
      </trkpt>
      <trkpt lat="45.0151" lon="0.38895">
        <ele>141</ele>
        <time>2012-03-13T13:08:49.000Z</time>
      </trkpt>
      <trkpt lat="45.01503" lon="0.38892">
        <ele>142</ele>
        <time>2012-03-13T13:08:51.000Z</time>
      </trkpt>
      <trkpt lat="45.01499" lon="0.38886">
        <ele>144</ele>
        <time>2012-03-13T13:08:53.000Z</time>
      </trkpt>
      <trkpt lat="45.01492" lon="0.38881">
        <ele>144</ele>
        <time>2012-03-13T13:08:55.000Z</time>
      </trkpt>
      <trkpt lat="45.01488" lon="0.38881">
        <ele>144</ele>
        <time>2012-03-13T13:08:56.000Z</time>
      </trkpt>
      <trkpt lat="45.01482" lon="0.38881">
        <ele>144</ele>
        <time>2012-03-13T13:08:57.000Z</time>
      </trkpt>
      <trkpt lat="45.01477" lon="0.38878">
        <ele>144</ele>
        <time>2012-03-13T13:08:58.000Z</time>
      </trkpt>
      <trkpt lat="45.01472" lon="0.38879">
        <ele>144</ele>
        <time>2012-03-13T13:08:59.000Z</time>
      </trkpt>
      <trkpt lat="45.01467" lon="0.38878">
        <ele>144</ele>
        <time>2012-03-13T13:09:00.000Z</time>
      </trkpt>
      <trkpt lat="45.0146" lon="0.38872">
        <ele>144</ele>
        <time>2012-03-13T13:09:02.000Z</time>
      </trkpt>
      <trkpt lat="45.01454" lon="0.38867">
        <ele>146</ele>
        <time>2012-03-13T13:09:04.000Z</time>
      </trkpt>
      <trkpt lat="45.0145" lon="0.38861">
        <ele>146</ele>
        <time>2012-03-13T13:09:06.000Z</time>
      </trkpt>
      <trkpt lat="45.01447" lon="0.38857">
        <ele>148</ele>
        <time>2012-03-13T13:09:08.000Z</time>
      </trkpt>
      <trkpt lat="45.01441" lon="0.38853">
        <ele>149</ele>
        <time>2012-03-13T13:09:10.000Z</time>
      </trkpt>
      <trkpt lat="45.01438" lon="0.38848">
        <ele>151</ele>
        <time>2012-03-13T13:09:12.000Z</time>
      </trkpt>
      <trkpt lat="45.01434" lon="0.38843">
        <ele>152</ele>
        <time>2012-03-13T13:09:14.000Z</time>
      </trkpt>
      <trkpt lat="45.0143" lon="0.38838">
        <ele>153</ele>
        <time>2012-03-13T13:09:16.000Z</time>
      </trkpt>
      <trkpt lat="45.01426" lon="0.38834">
        <ele>154</ele>
        <time>2012-03-13T13:09:17.000Z</time>
      </trkpt>
      <trkpt lat="45.01418" lon="0.38829">
        <ele>156</ele>
        <time>2012-03-13T13:09:19.000Z</time>
      </trkpt>
      <trkpt lat="45.01414" lon="0.38826">
        <ele>156</ele>
        <time>2012-03-13T13:09:20.000Z</time>
      </trkpt>
      <trkpt lat="45.0141" lon="0.38822">
        <ele>157</ele>
        <time>2012-03-13T13:09:21.000Z</time>
      </trkpt>
      <trkpt lat="45.01404" lon="0.38818">
        <ele>158</ele>
        <time>2012-03-13T13:09:22.000Z</time>
      </trkpt>
      <trkpt lat="45.01394" lon="0.38813">
        <ele>156</ele>
        <time>2012-03-13T13:09:24.000Z</time>
      </trkpt>
      <trkpt lat="45.01388" lon="0.3881">
        <ele>156</ele>
        <time>2012-03-13T13:09:25.000Z</time>
      </trkpt>
      <trkpt lat="45.01382" lon="0.38808">
        <ele>155</ele>
        <time>2012-03-13T13:09:26.000Z</time>
      </trkpt>
      <trkpt lat="45.01376" lon="0.38806">
        <ele>154</ele>
        <time>2012-03-13T13:09:27.000Z</time>
      </trkpt>
      <trkpt lat="45.01371" lon="0.38804">
        <ele>154</ele>
        <time>2012-03-13T13:09:28.000Z</time>
      </trkpt>
      <trkpt lat="45.01366" lon="0.38801">
        <ele>153</ele>
        <time>2012-03-13T13:09:29.000Z</time>
      </trkpt>
      <trkpt lat="45.0136" lon="0.388">
        <ele>153</ele>
        <time>2012-03-13T13:09:30.000Z</time>
      </trkpt>
      <trkpt lat="45.01356" lon="0.38798">
        <ele>153</ele>
        <time>2012-03-13T13:09:31.000Z</time>
      </trkpt>
      <trkpt lat="45.01349" lon="0.38799">
        <ele>154</ele>
        <time>2012-03-13T13:09:32.000Z</time>
      </trkpt>
      <trkpt lat="45.01343" lon="0.38797">
        <ele>154</ele>
        <time>2012-03-13T13:09:33.000Z</time>
      </trkpt>
      <trkpt lat="45.01334" lon="0.38794">
        <ele>156</ele>
        <time>2012-03-13T13:09:35.000Z</time>
      </trkpt>
      <trkpt lat="45.01326" lon="0.38791">
        <ele>156</ele>
        <time>2012-03-13T13:09:37.000Z</time>
      </trkpt>
      <trkpt lat="45.01319" lon="0.38787">
        <ele>155</ele>
        <time>2012-03-13T13:09:39.000Z</time>
      </trkpt>
      <trkpt lat="45.01315" lon="0.38784">
        <ele>157</ele>
        <time>2012-03-13T13:09:41.000Z</time>
      </trkpt>
      <trkpt lat="45.01308" lon="0.38781">
        <ele>158</ele>
        <time>2012-03-13T13:09:43.000Z</time>
      </trkpt>
      <trkpt lat="45.01303" lon="0.3878">
        <ele>158</ele>
        <time>2012-03-13T13:09:44.000Z</time>
      </trkpt>
      <trkpt lat="45.01296" lon="0.38774">
        <ele>159</ele>
        <time>2012-03-13T13:09:46.000Z</time>
      </trkpt>
      <trkpt lat="45.01289" lon="0.38767">
        <ele>158</ele>
        <time>2012-03-13T13:09:48.000Z</time>
      </trkpt>
      <trkpt lat="45.01282" lon="0.38762">
        <ele>159</ele>
        <time>2012-03-13T13:09:50.000Z</time>
      </trkpt>
      <trkpt lat="45.01274" lon="0.38759">
        <ele>160</ele>
        <time>2012-03-13T13:09:52.000Z</time>
      </trkpt>
      <trkpt lat="45.0127" lon="0.38758">
        <ele>160</ele>
        <time>2012-03-13T13:09:53.000Z</time>
      </trkpt>
      <trkpt lat="45.01264" lon="0.38756">
        <ele>159</ele>
        <time>2012-03-13T13:09:54.000Z</time>
      </trkpt>
      <trkpt lat="45.01259" lon="0.38756">
        <ele>157</ele>
        <time>2012-03-13T13:09:55.000Z</time>
      </trkpt>
      <trkpt lat="45.01254" lon="0.38754">
        <ele>157</ele>
        <time>2012-03-13T13:09:56.000Z</time>
      </trkpt>
      <trkpt lat="45.01249" lon="0.38751">
        <ele>156</ele>
        <time>2012-03-13T13:09:57.000Z</time>
      </trkpt>
      <trkpt lat="45.01244" lon="0.38749">
        <ele>157</ele>
        <time>2012-03-13T13:09:58.000Z</time>
      </trkpt>
      <trkpt lat="45.0124" lon="0.38747">
        <ele>157</ele>
        <time>2012-03-13T13:09:59.000Z</time>
      </trkpt>
      <trkpt lat="45.01235" lon="0.38743">
        <ele>156</ele>
        <time>2012-03-13T13:10:00.000Z</time>
      </trkpt>
      <trkpt lat="45.01231" lon="0.38739">
        <ele>156</ele>
        <time>2012-03-13T13:10:01.000Z</time>
      </trkpt>
      <trkpt lat="45.01225" lon="0.38736">
        <ele>155</ele>
        <time>2012-03-13T13:10:02.000Z</time>
      </trkpt>
      <trkpt lat="45.01221" lon="0.38733">
        <ele>155</ele>
        <time>2012-03-13T13:10:03.000Z</time>
      </trkpt>
      <trkpt lat="45.01217" lon="0.38729">
        <ele>155</ele>
        <time>2012-03-13T13:10:04.000Z</time>
      </trkpt>
      <trkpt lat="45.01211" lon="0.38725">
        <ele>154</ele>
        <time>2012-03-13T13:10:05.000Z</time>
      </trkpt>
      <trkpt lat="45.01206" lon="0.38721">
        <ele>154</ele>
        <time>2012-03-13T13:10:06.000Z</time>
      </trkpt>
      <trkpt lat="45.01201" lon="0.38716">
        <ele>153</ele>
        <time>2012-03-13T13:10:07.000Z</time>
      </trkpt>
      <trkpt lat="45.01196" lon="0.38711">
        <ele>152</ele>
        <time>2012-03-13T13:10:08.000Z</time>
      </trkpt>
      <trkpt lat="45.01191" lon="0.38705">
        <ele>152</ele>
        <time>2012-03-13T13:10:09.000Z</time>
      </trkpt>
      <trkpt lat="45.01187" lon="0.38699">
        <ele>151</ele>
        <time>2012-03-13T13:10:10.000Z</time>
      </trkpt>
      <trkpt lat="45.01184" lon="0.38693">
        <ele>152</ele>
        <time>2012-03-13T13:10:11.000Z</time>
      </trkpt>
      <trkpt lat="45.01182" lon="0.38686">
        <ele>152</ele>
        <time>2012-03-13T13:10:12.000Z</time>
      </trkpt>
      <trkpt lat="45.01179" lon="0.38677">
        <ele>152</ele>
        <time>2012-03-13T13:10:14.000Z</time>
      </trkpt>
      <trkpt lat="45.01177" lon="0.38666">
        <ele>150</ele>
        <time>2012-03-13T13:10:16.000Z</time>
      </trkpt>
      <trkpt lat="45.01176" lon="0.38654">
        <ele>150</ele>
        <time>2012-03-13T13:10:18.000Z</time>
      </trkpt>
      <trkpt lat="45.01175" lon="0.38646">
        <ele>151</ele>
        <time>2012-03-13T13:10:20.000Z</time>
      </trkpt>
      <trkpt lat="45.01175" lon="0.38639">
        <ele>152</ele>
        <time>2012-03-13T13:10:22.000Z</time>
      </trkpt>
      <trkpt lat="45.01175" lon="0.38631">
        <ele>153</ele>
        <time>2012-03-13T13:10:23.000Z</time>
      </trkpt>
      <trkpt lat="45.01174" lon="0.3862">
        <ele>153</ele>
        <time>2012-03-13T13:10:25.000Z</time>
      </trkpt>
      <trkpt lat="45.01172" lon="0.38609">
        <ele>154</ele>
        <time>2012-03-13T13:10:27.000Z</time>
      </trkpt>
      <trkpt lat="45.01172" lon="0.38598">
        <ele>154</ele>
        <time>2012-03-13T13:10:29.000Z</time>
      </trkpt>
      <trkpt lat="45.01173" lon="0.38586">
        <ele>154</ele>
        <time>2012-03-13T13:10:31.000Z</time>
      </trkpt>
      <trkpt lat="45.01175" lon="0.38576">
        <ele>154</ele>
        <time>2012-03-13T13:10:33.000Z</time>
      </trkpt>
      <trkpt lat="45.01176" lon="0.38569">
        <ele>155</ele>
        <time>2012-03-13T13:10:34.000Z</time>
      </trkpt>
      <trkpt lat="45.01176" lon="0.38559">
        <ele>155</ele>
        <time>2012-03-13T13:10:36.000Z</time>
      </trkpt>
      <trkpt lat="45.01175" lon="0.38549">
        <ele>155</ele>
        <time>2012-03-13T13:10:38.000Z</time>
      </trkpt>
      <trkpt lat="45.01174" lon="0.38538">
        <ele>155</ele>
        <time>2012-03-13T13:10:40.000Z</time>
      </trkpt>
      <trkpt lat="45.01173" lon="0.38529">
        <ele>157</ele>
        <time>2012-03-13T13:10:42.000Z</time>
      </trkpt>
      <trkpt lat="45.01172" lon="0.38518">
        <ele>157</ele>
        <time>2012-03-13T13:10:44.000Z</time>
      </trkpt>
      <trkpt lat="45.01172" lon="0.38511">
        <ele>156</ele>
        <time>2012-03-13T13:10:45.000Z</time>
      </trkpt>
      <trkpt lat="45.01171" lon="0.38504">
        <ele>156</ele>
        <time>2012-03-13T13:10:46.000Z</time>
      </trkpt>
      <trkpt lat="45.01172" lon="0.38498">
        <ele>156</ele>
        <time>2012-03-13T13:10:47.000Z</time>
      </trkpt>
      <trkpt lat="45.01173" lon="0.38491">
        <ele>156</ele>
        <time>2012-03-13T13:10:48.000Z</time>
      </trkpt>
      <trkpt lat="45.01174" lon="0.38485">
        <ele>157</ele>
        <time>2012-03-13T13:10:49.000Z</time>
      </trkpt>
      <trkpt lat="45.01176" lon="0.38479">
        <ele>157</ele>
        <time>2012-03-13T13:10:50.000Z</time>
      </trkpt>
      <trkpt lat="45.01178" lon="0.38473">
        <ele>157</ele>
        <time>2012-03-13T13:10:51.000Z</time>
      </trkpt>
      <trkpt lat="45.01183" lon="0.38463">
        <ele>157</ele>
        <time>2012-03-13T13:10:53.000Z</time>
      </trkpt>
      <trkpt lat="45.01188" lon="0.38453">
        <ele>158</ele>
        <time>2012-03-13T13:10:55.000Z</time>
      </trkpt>
      <trkpt lat="45.01192" lon="0.38444">
        <ele>159</ele>
        <time>2012-03-13T13:10:57.000Z</time>
      </trkpt>
      <trkpt lat="45.01196" lon="0.38435">
        <ele>159</ele>
        <time>2012-03-13T13:10:59.000Z</time>
      </trkpt>
      <trkpt lat="45.01198" lon="0.38426">
        <ele>159</ele>
        <time>2012-03-13T13:11:01.000Z</time>
      </trkpt>
      <trkpt lat="45.012" lon="0.38418">
        <ele>159</ele>
        <time>2012-03-13T13:11:03.000Z</time>
      </trkpt>
      <trkpt lat="45.01204" lon="0.38408">
        <ele>160</ele>
        <time>2012-03-13T13:11:05.000Z</time>
      </trkpt>
      <trkpt lat="45.01205" lon="0.38397">
        <ele>160</ele>
        <time>2012-03-13T13:11:07.000Z</time>
      </trkpt>
      <trkpt lat="45.01208" lon="0.38386">
        <ele>159</ele>
        <time>2012-03-13T13:11:09.000Z</time>
      </trkpt>
      <trkpt lat="45.01209" lon="0.38375">
        <ele>159</ele>
        <time>2012-03-13T13:11:11.000Z</time>
      </trkpt>
      <trkpt lat="45.0121" lon="0.38364">
        <ele>159</ele>
        <time>2012-03-13T13:11:13.000Z</time>
      </trkpt>
      <trkpt lat="45.01212" lon="0.38352">
        <ele>158</ele>
        <time>2012-03-13T13:11:15.000Z</time>
      </trkpt>
      <trkpt lat="45.01214" lon="0.38345">
        <ele>157</ele>
        <time>2012-03-13T13:11:16.000Z</time>
      </trkpt>
      <trkpt lat="45.01217" lon="0.38334">
        <ele>157</ele>
        <time>2012-03-13T13:11:18.000Z</time>
      </trkpt>
      <trkpt lat="45.01217" lon="0.38326">
        <ele>158</ele>
        <time>2012-03-13T13:11:20.000Z</time>
      </trkpt>
      <trkpt lat="45.01217" lon="0.38316">
        <ele>158</ele>
        <time>2012-03-13T13:11:22.000Z</time>
      </trkpt>
      <trkpt lat="45.01218" lon="0.38309">
        <ele>158</ele>
        <time>2012-03-13T13:11:24.000Z</time>
      </trkpt>
      <trkpt lat="45.0122" lon="0.38302">
        <ele>158</ele>
        <time>2012-03-13T13:11:26.000Z</time>
      </trkpt>
      <trkpt lat="45.01222" lon="0.38296">
        <ele>157</ele>
        <time>2012-03-13T13:11:28.000Z</time>
      </trkpt>
      <trkpt lat="45.01227" lon="0.38286">
        <ele>157</ele>
        <time>2012-03-13T13:11:30.000Z</time>
      </trkpt>
      <trkpt lat="45.01232" lon="0.38277">
        <ele>156</ele>
        <time>2012-03-13T13:11:32.000Z</time>
      </trkpt>
      <trkpt lat="45.01236" lon="0.38273">
        <ele>156</ele>
        <time>2012-03-13T13:11:33.000Z</time>
      </trkpt>
      <trkpt lat="45.01242" lon="0.38266">
        <ele>156</ele>
        <time>2012-03-13T13:11:35.000Z</time>
      </trkpt>
      <trkpt lat="45.01247" lon="0.38264">
        <ele>156</ele>
        <time>2012-03-13T13:11:36.000Z</time>
      </trkpt>
      <trkpt lat="45.01255" lon="0.38264">
        <ele>157</ele>
        <time>2012-03-13T13:11:38.000Z</time>
      </trkpt>
      <trkpt lat="45.01262" lon="0.38267">
        <ele>158</ele>
        <time>2012-03-13T13:11:40.000Z</time>
      </trkpt>
      <trkpt lat="45.01269" lon="0.38272">
        <ele>159</ele>
        <time>2012-03-13T13:11:42.000Z</time>
      </trkpt>
      <trkpt lat="45.01276" lon="0.38275">
        <ele>159</ele>
        <time>2012-03-13T13:11:44.000Z</time>
      </trkpt>
      <trkpt lat="45.01284" lon="0.38277">
        <ele>159</ele>
        <time>2012-03-13T13:11:46.000Z</time>
      </trkpt>
      <trkpt lat="45.01292" lon="0.38276">
        <ele>159</ele>
        <time>2012-03-13T13:11:48.000Z</time>
      </trkpt>
      <trkpt lat="45.01296" lon="0.38274">
        <ele>159</ele>
        <time>2012-03-13T13:11:49.000Z</time>
      </trkpt>
      <trkpt lat="45.01302" lon="0.38271">
        <ele>158</ele>
        <time>2012-03-13T13:11:50.000Z</time>
      </trkpt>
      <trkpt lat="45.01307" lon="0.38266">
        <ele>158</ele>
        <time>2012-03-13T13:11:51.000Z</time>
      </trkpt>
      <trkpt lat="45.01311" lon="0.38261">
        <ele>157</ele>
        <time>2012-03-13T13:11:52.000Z</time>
      </trkpt>
      <trkpt lat="45.01315" lon="0.38253">
        <ele>157</ele>
        <time>2012-03-13T13:11:53.000Z</time>
      </trkpt>
      <trkpt lat="45.01319" lon="0.38246">
        <ele>156</ele>
        <time>2012-03-13T13:11:54.000Z</time>
      </trkpt>
      <trkpt lat="45.01323" lon="0.38239">
        <ele>155</ele>
        <time>2012-03-13T13:11:55.000Z</time>
      </trkpt>
      <trkpt lat="45.01329" lon="0.38235">
        <ele>155</ele>
        <time>2012-03-13T13:11:56.000Z</time>
      </trkpt>
      <trkpt lat="45.01335" lon="0.38234">
        <ele>154</ele>
        <time>2012-03-13T13:11:57.000Z</time>
      </trkpt>
      <trkpt lat="45.01342" lon="0.38235">
        <ele>154</ele>
        <time>2012-03-13T13:11:58.000Z</time>
      </trkpt>
      <trkpt lat="45.01349" lon="0.38241">
        <ele>153</ele>
        <time>2012-03-13T13:11:59.000Z</time>
      </trkpt>
      <trkpt lat="45.01356" lon="0.38246">
        <ele>152</ele>
        <time>2012-03-13T13:12:00.000Z</time>
      </trkpt>
      <trkpt lat="45.01363" lon="0.38252">
        <ele>151</ele>
        <time>2012-03-13T13:12:01.000Z</time>
      </trkpt>
      <trkpt lat="45.01371" lon="0.38259">
        <ele>150</ele>
        <time>2012-03-13T13:12:02.000Z</time>
      </trkpt>
      <trkpt lat="45.01379" lon="0.38265">
        <ele>149</ele>
        <time>2012-03-13T13:12:03.000Z</time>
      </trkpt>
      <trkpt lat="45.01388" lon="0.38271">
        <ele>148</ele>
        <time>2012-03-13T13:12:04.000Z</time>
      </trkpt>
      <trkpt lat="45.01396" lon="0.38278">
        <ele>147</ele>
        <time>2012-03-13T13:12:05.000Z</time>
      </trkpt>
      <trkpt lat="45.01414" lon="0.38292">
        <ele>144</ele>
        <time>2012-03-13T13:12:07.000Z</time>
      </trkpt>
      <trkpt lat="45.01423" lon="0.38299">
        <ele>143</ele>
        <time>2012-03-13T13:12:08.000Z</time>
      </trkpt>
      <trkpt lat="45.01432" lon="0.38306">
        <ele>142</ele>
        <time>2012-03-13T13:12:09.000Z</time>
      </trkpt>
      <trkpt lat="45.01442" lon="0.38313">
        <ele>142</ele>
        <time>2012-03-13T13:12:10.000Z</time>
      </trkpt>
      <trkpt lat="45.01451" lon="0.3832">
        <ele>142</ele>
        <time>2012-03-13T13:12:11.000Z</time>
      </trkpt>
      <trkpt lat="45.0146" lon="0.38327">
        <ele>142</ele>
        <time>2012-03-13T13:12:12.000Z</time>
      </trkpt>
      <trkpt lat="45.01469" lon="0.38334">
        <ele>142</ele>
        <time>2012-03-13T13:12:13.000Z</time>
      </trkpt>
      <trkpt lat="45.01477" lon="0.38341">
        <ele>141</ele>
        <time>2012-03-13T13:12:14.000Z</time>
      </trkpt>
      <trkpt lat="45.01486" lon="0.38348">
        <ele>141</ele>
        <time>2012-03-13T13:12:15.000Z</time>
      </trkpt>
      <trkpt lat="45.01495" lon="0.38356">
        <ele>139</ele>
        <time>2012-03-13T13:12:16.000Z</time>
      </trkpt>
      <trkpt lat="45.01504" lon="0.38363">
        <ele>138</ele>
        <time>2012-03-13T13:12:17.000Z</time>
      </trkpt>
      <trkpt lat="45.01513" lon="0.38371">
        <ele>136</ele>
        <time>2012-03-13T13:12:18.000Z</time>
      </trkpt>
      <trkpt lat="45.01522" lon="0.38379">
        <ele>135</ele>
        <time>2012-03-13T13:12:19.000Z</time>
      </trkpt>
      <trkpt lat="45.01531" lon="0.38387">
        <ele>134</ele>
        <time>2012-03-13T13:12:20.000Z</time>
      </trkpt>
      <trkpt lat="45.0154" lon="0.38395">
        <ele>134</ele>
        <time>2012-03-13T13:12:21.000Z</time>
      </trkpt>
      <trkpt lat="45.01549" lon="0.38402">
        <ele>133</ele>
        <time>2012-03-13T13:12:22.000Z</time>
      </trkpt>
      <trkpt lat="45.01567" lon="0.38417">
        <ele>132</ele>
        <time>2012-03-13T13:12:24.000Z</time>
      </trkpt>
      <trkpt lat="45.01576" lon="0.38425">
        <ele>132</ele>
        <time>2012-03-13T13:12:25.000Z</time>
      </trkpt>
      <trkpt lat="45.01584" lon="0.38433">
        <ele>132</ele>
        <time>2012-03-13T13:12:26.000Z</time>
      </trkpt>
      <trkpt lat="45.01592" lon="0.3844">
        <ele>132</ele>
        <time>2012-03-13T13:12:27.000Z</time>
      </trkpt>
      <trkpt lat="45.016" lon="0.38448">
        <ele>132</ele>
        <time>2012-03-13T13:12:28.000Z</time>
      </trkpt>
      <trkpt lat="45.01608" lon="0.38455">
        <ele>132</ele>
        <time>2012-03-13T13:12:29.000Z</time>
      </trkpt>
      <trkpt lat="45.01615" lon="0.38463">
        <ele>132</ele>
        <time>2012-03-13T13:12:30.000Z</time>
      </trkpt>
      <trkpt lat="45.01622" lon="0.3847">
        <ele>132</ele>
        <time>2012-03-13T13:12:31.000Z</time>
      </trkpt>
      <trkpt lat="45.0163" lon="0.38476">
        <ele>132</ele>
        <time>2012-03-13T13:12:32.000Z</time>
      </trkpt>
      <trkpt lat="45.01638" lon="0.38484">
        <ele>131</ele>
        <time>2012-03-13T13:12:33.000Z</time>
      </trkpt>
      <trkpt lat="45.01646" lon="0.38491">
        <ele>131</ele>
        <time>2012-03-13T13:12:34.000Z</time>
      </trkpt>
      <trkpt lat="45.01654" lon="0.38497">
        <ele>131</ele>
        <time>2012-03-13T13:12:35.000Z</time>
      </trkpt>
      <trkpt lat="45.01661" lon="0.38505">
        <ele>131</ele>
        <time>2012-03-13T13:12:36.000Z</time>
      </trkpt>
      <trkpt lat="45.01669" lon="0.38512">
        <ele>130</ele>
        <time>2012-03-13T13:12:37.000Z</time>
      </trkpt>
      <trkpt lat="45.01676" lon="0.38519">
        <ele>130</ele>
        <time>2012-03-13T13:12:38.000Z</time>
      </trkpt>
      <trkpt lat="45.01683" lon="0.38527">
        <ele>130</ele>
        <time>2012-03-13T13:12:39.000Z</time>
      </trkpt>
      <trkpt lat="45.01691" lon="0.38536">
        <ele>129</ele>
        <time>2012-03-13T13:12:40.000Z</time>
      </trkpt>
      <trkpt lat="45.01697" lon="0.38544">
        <ele>128</ele>
        <time>2012-03-13T13:12:41.000Z</time>
      </trkpt>
      <trkpt lat="45.01703" lon="0.38554">
        <ele>126</ele>
        <time>2012-03-13T13:12:42.000Z</time>
      </trkpt>
      <trkpt lat="45.01708" lon="0.38565">
        <ele>126</ele>
        <time>2012-03-13T13:12:43.000Z</time>
      </trkpt>
      <trkpt lat="45.01714" lon="0.38577">
        <ele>125</ele>
        <time>2012-03-13T13:12:44.000Z</time>
      </trkpt>
      <trkpt lat="45.0172" lon="0.38587">
        <ele>124</ele>
        <time>2012-03-13T13:12:45.000Z</time>
      </trkpt>
      <trkpt lat="45.01725" lon="0.386">
        <ele>122</ele>
        <time>2012-03-13T13:12:46.000Z</time>
      </trkpt>
      <trkpt lat="45.01732" lon="0.38612">
        <ele>122</ele>
        <time>2012-03-13T13:12:47.000Z</time>
      </trkpt>
      <trkpt lat="45.01738" lon="0.38623">
        <ele>121</ele>
        <time>2012-03-13T13:12:48.000Z</time>
      </trkpt>
      <trkpt lat="45.01742" lon="0.38634">
        <ele>121</ele>
        <time>2012-03-13T13:12:49.000Z</time>
      </trkpt>
      <trkpt lat="45.01745" lon="0.38645">
        <ele>121</ele>
        <time>2012-03-13T13:12:50.000Z</time>
      </trkpt>
      <trkpt lat="45.01746" lon="0.38657">
        <ele>120</ele>
        <time>2012-03-13T13:12:51.000Z</time>
      </trkpt>
      <trkpt lat="45.01744" lon="0.38669">
        <ele>120</ele>
        <time>2012-03-13T13:12:52.000Z</time>
      </trkpt>
      <trkpt lat="45.01741" lon="0.38682">
        <ele>119</ele>
        <time>2012-03-13T13:12:53.000Z</time>
      </trkpt>
      <trkpt lat="45.01739" lon="0.38695">
        <ele>118</ele>
        <time>2012-03-13T13:12:54.000Z</time>
      </trkpt>
      <trkpt lat="45.0174" lon="0.38707">
        <ele>118</ele>
        <time>2012-03-13T13:12:55.000Z</time>
      </trkpt>
      <trkpt lat="45.01743" lon="0.38718">
        <ele>118</ele>
        <time>2012-03-13T13:12:56.000Z</time>
      </trkpt>
      <trkpt lat="45.01747" lon="0.38728">
        <ele>118</ele>
        <time>2012-03-13T13:12:57.000Z</time>
      </trkpt>
      <trkpt lat="45.01752" lon="0.38736">
        <ele>117</ele>
        <time>2012-03-13T13:12:58.000Z</time>
      </trkpt>
      <trkpt lat="45.01758" lon="0.38743">
        <ele>116</ele>
        <time>2012-03-13T13:12:59.000Z</time>
      </trkpt>
      <trkpt lat="45.01763" lon="0.38746">
        <ele>117</ele>
        <time>2012-03-13T13:13:00.000Z</time>
      </trkpt>
      <trkpt lat="45.01768" lon="0.38748">
        <ele>117</ele>
        <time>2012-03-13T13:13:01.000Z</time>
      </trkpt>
      <trkpt lat="45.01774" lon="0.38747">
        <ele>117</ele>
        <time>2012-03-13T13:13:03.000Z</time>
      </trkpt>
      <trkpt lat="45.01779" lon="0.3874">
        <ele>116</ele>
        <time>2012-03-13T13:13:05.000Z</time>
      </trkpt>
      <trkpt lat="45.01783" lon="0.3873">
        <ele>115</ele>
        <time>2012-03-13T13:13:07.000Z</time>
      </trkpt>
      <trkpt lat="45.01785" lon="0.38724">
        <ele>114</ele>
        <time>2012-03-13T13:13:08.000Z</time>
      </trkpt>
      <trkpt lat="45.01788" lon="0.38711">
        <ele>113</ele>
        <time>2012-03-13T13:13:10.000Z</time>
      </trkpt>
      <trkpt lat="45.01791" lon="0.38704">
        <ele>113</ele>
        <time>2012-03-13T13:13:11.000Z</time>
      </trkpt>
      <trkpt lat="45.01793" lon="0.38698">
        <ele>113</ele>
        <time>2012-03-13T13:13:12.000Z</time>
      </trkpt>
      <trkpt lat="45.01794" lon="0.38691">
        <ele>113</ele>
        <time>2012-03-13T13:13:13.000Z</time>
      </trkpt>
      <trkpt lat="45.01796" lon="0.38685">
        <ele>113</ele>
        <time>2012-03-13T13:13:14.000Z</time>
      </trkpt>
      <trkpt lat="45.01799" lon="0.38678">
        <ele>113</ele>
        <time>2012-03-13T13:13:15.000Z</time>
      </trkpt>
      <trkpt lat="45.01801" lon="0.38672">
        <ele>113</ele>
        <time>2012-03-13T13:13:16.000Z</time>
      </trkpt>
      <trkpt lat="45.01804" lon="0.38666">
        <ele>113</ele>
        <time>2012-03-13T13:13:17.000Z</time>
      </trkpt>
      <trkpt lat="45.01806" lon="0.38659">
        <ele>114</ele>
        <time>2012-03-13T13:13:18.000Z</time>
      </trkpt>
      <trkpt lat="45.01808" lon="0.38653">
        <ele>113</ele>
        <time>2012-03-13T13:13:19.000Z</time>
      </trkpt>
      <trkpt lat="45.0181" lon="0.38647">
        <ele>113</ele>
        <time>2012-03-13T13:13:20.000Z</time>
      </trkpt>
      <trkpt lat="45.01812" lon="0.3864">
        <ele>113</ele>
        <time>2012-03-13T13:13:21.000Z</time>
      </trkpt>
      <trkpt lat="45.01815" lon="0.38634">
        <ele>113</ele>
        <time>2012-03-13T13:13:22.000Z</time>
      </trkpt>
      <trkpt lat="45.01839" lon="0.38581">
        <ele>113</ele>
        <time>2012-03-13T13:13:32.000Z</time>
      </trkpt>
      <trkpt lat="45.01839" lon="0.38581">
        <ele>113</ele>
        <time>2012-03-13T13:13:32.000Z</time>
      </trkpt>
      <trkpt lat="45.01839" lon="0.38581">
        <ele>113</ele>
        <time>2012-03-13T13:13:33.000Z</time>
      </trkpt>
      <trkpt lat="45.01842" lon="0.38568">
        <ele>114</ele>
        <time>2012-03-13T13:13:34.000Z</time>
      </trkpt>
      <trkpt lat="45.01846" lon="0.38558">
        <ele>114</ele>
        <time>2012-03-13T13:13:36.000Z</time>
      </trkpt>
      <trkpt lat="45.01848" lon="0.38546">
        <ele>112</ele>
        <time>2012-03-13T13:13:38.000Z</time>
      </trkpt>
      <trkpt lat="45.01851" lon="0.38539">
        <ele>112</ele>
        <time>2012-03-13T13:13:39.000Z</time>
      </trkpt>
      <trkpt lat="45.01856" lon="0.38529">
        <ele>112</ele>
        <time>2012-03-13T13:13:41.000Z</time>
      </trkpt>
      <trkpt lat="45.01858" lon="0.38523">
        <ele>112</ele>
        <time>2012-03-13T13:13:42.000Z</time>
      </trkpt>
      <trkpt lat="45.01861" lon="0.38516">
        <ele>113</ele>
        <time>2012-03-13T13:13:43.000Z</time>
      </trkpt>
      <trkpt lat="45.01864" lon="0.38511">
        <ele>113</ele>
        <time>2012-03-13T13:13:44.000Z</time>
      </trkpt>
      <trkpt lat="45.01868" lon="0.38499">
        <ele>113</ele>
        <time>2012-03-13T13:13:46.000Z</time>
      </trkpt>
      <trkpt lat="45.01871" lon="0.38493">
        <ele>113</ele>
        <time>2012-03-13T13:13:47.000Z</time>
      </trkpt>
      <trkpt lat="45.01873" lon="0.38488">
        <ele>114</ele>
        <time>2012-03-13T13:13:48.000Z</time>
      </trkpt>
      <trkpt lat="45.01878" lon="0.38477">
        <ele>114</ele>
        <time>2012-03-13T13:13:50.000Z</time>
      </trkpt>
      <trkpt lat="45.01881" lon="0.38468">
        <ele>114</ele>
        <time>2012-03-13T13:13:52.000Z</time>
      </trkpt>
      <trkpt lat="45.01884" lon="0.38462">
        <ele>114</ele>
        <time>2012-03-13T13:13:53.000Z</time>
      </trkpt>
      <trkpt lat="45.01887" lon="0.38454">
        <ele>114</ele>
        <time>2012-03-13T13:13:54.000Z</time>
      </trkpt>
      <trkpt lat="45.01889" lon="0.38447">
        <ele>114</ele>
        <time>2012-03-13T13:13:56.000Z</time>
      </trkpt>
      <trkpt lat="45.01892" lon="0.38438">
        <ele>115</ele>
        <time>2012-03-13T13:13:58.000Z</time>
      </trkpt>
      <trkpt lat="45.01897" lon="0.38427">
        <ele>115</ele>
        <time>2012-03-13T13:14:00.000Z</time>
      </trkpt>
      <trkpt lat="45.019" lon="0.3842">
        <ele>116</ele>
        <time>2012-03-13T13:14:01.000Z</time>
      </trkpt>
      <trkpt lat="45.01903" lon="0.3841">
        <ele>116</ele>
        <time>2012-03-13T13:14:03.000Z</time>
      </trkpt>
      <trkpt lat="45.01906" lon="0.38404">
        <ele>115</ele>
        <time>2012-03-13T13:14:04.000Z</time>
      </trkpt>
      <trkpt lat="45.0191" lon="0.38394">
        <ele>115</ele>
        <time>2012-03-13T13:14:06.000Z</time>
      </trkpt>
      <trkpt lat="45.01913" lon="0.38387">
        <ele>116</ele>
        <time>2012-03-13T13:14:07.000Z</time>
      </trkpt>
      <trkpt lat="45.01916" lon="0.3838">
        <ele>116</ele>
        <time>2012-03-13T13:14:08.000Z</time>
      </trkpt>
      <trkpt lat="45.01918" lon="0.38374">
        <ele>115</ele>
        <time>2012-03-13T13:14:09.000Z</time>
      </trkpt>
      <trkpt lat="45.0192" lon="0.38368">
        <ele>115</ele>
        <time>2012-03-13T13:14:10.000Z</time>
      </trkpt>
      <trkpt lat="45.01925" lon="0.38358">
        <ele>114</ele>
        <time>2012-03-13T13:14:11.000Z</time>
      </trkpt>
      <trkpt lat="45.01929" lon="0.38349">
        <ele>114</ele>
        <time>2012-03-13T13:14:12.000Z</time>
      </trkpt>
      <trkpt lat="45.01933" lon="0.38342">
        <ele>114</ele>
        <time>2012-03-13T13:14:13.000Z</time>
      </trkpt>
      <trkpt lat="45.01936" lon="0.38331">
        <ele>114</ele>
        <time>2012-03-13T13:14:15.000Z</time>
      </trkpt>
      <trkpt lat="45.01939" lon="0.38325">
        <ele>115</ele>
        <time>2012-03-13T13:14:16.000Z</time>
      </trkpt>
      <trkpt lat="45.01944" lon="0.38314">
        <ele>114</ele>
        <time>2012-03-13T13:14:18.000Z</time>
      </trkpt>
      <trkpt lat="45.01946" lon="0.38308">
        <ele>114</ele>
        <time>2012-03-13T13:14:19.000Z</time>
      </trkpt>
      <trkpt lat="45.01951" lon="0.38296">
        <ele>114</ele>
        <time>2012-03-13T13:14:21.000Z</time>
      </trkpt>
      <trkpt lat="45.01955" lon="0.38285">
        <ele>114</ele>
        <time>2012-03-13T13:14:23.000Z</time>
      </trkpt>
      <trkpt lat="45.01958" lon="0.38279">
        <ele>114</ele>
        <time>2012-03-13T13:14:24.000Z</time>
      </trkpt>
      <trkpt lat="45.0196" lon="0.38273">
        <ele>114</ele>
        <time>2012-03-13T13:14:25.000Z</time>
      </trkpt>
      <trkpt lat="45.01962" lon="0.38267">
        <ele>115</ele>
        <time>2012-03-13T13:14:26.000Z</time>
      </trkpt>
      <trkpt lat="45.01965" lon="0.38261">
        <ele>114</ele>
        <time>2012-03-13T13:14:27.000Z</time>
      </trkpt>
      <trkpt lat="45.0197" lon="0.3825">
        <ele>115</ele>
        <time>2012-03-13T13:14:29.000Z</time>
      </trkpt>
      <trkpt lat="45.01973" lon="0.38244">
        <ele>114</ele>
        <time>2012-03-13T13:14:30.000Z</time>
      </trkpt>
      <trkpt lat="45.01978" lon="0.38233">
        <ele>115</ele>
        <time>2012-03-13T13:14:32.000Z</time>
      </trkpt>
      <trkpt lat="45.01983" lon="0.38224">
        <ele>114</ele>
        <time>2012-03-13T13:14:34.000Z</time>
      </trkpt>
      <trkpt lat="45.01986" lon="0.38214">
        <ele>115</ele>
        <time>2012-03-13T13:14:36.000Z</time>
      </trkpt>
      <trkpt lat="45.01987" lon="0.38204">
        <ele>115</ele>
        <time>2012-03-13T13:14:38.000Z</time>
      </trkpt>
      <trkpt lat="45.01984" lon="0.38197">
        <ele>115</ele>
        <time>2012-03-13T13:14:40.000Z</time>
      </trkpt>
      <trkpt lat="45.01979" lon="0.38192">
        <ele>115</ele>
        <time>2012-03-13T13:14:42.000Z</time>
      </trkpt>
      <trkpt lat="45.01973" lon="0.38185">
        <ele>116</ele>
        <time>2012-03-13T13:14:44.000Z</time>
      </trkpt>
      <trkpt lat="45.01967" lon="0.38177">
        <ele>116</ele>
        <time>2012-03-13T13:14:46.000Z</time>
      </trkpt>
      <trkpt lat="45.01963" lon="0.38169">
        <ele>117</ele>
        <time>2012-03-13T13:14:48.000Z</time>
      </trkpt>
      <trkpt lat="45.01963" lon="0.38158">
        <ele>116</ele>
        <time>2012-03-13T13:14:50.000Z</time>
      </trkpt>
      <trkpt lat="45.01962" lon="0.38148">
        <ele>117</ele>
        <time>2012-03-13T13:14:52.000Z</time>
      </trkpt>
      <trkpt lat="45.0196" lon="0.3814">
        <ele>117</ele>
        <time>2012-03-13T13:14:54.000Z</time>
      </trkpt>
      <trkpt lat="45.01954" lon="0.38138">
        <ele>118</ele>
        <time>2012-03-13T13:14:56.000Z</time>
      </trkpt>
      <trkpt lat="45.01948" lon="0.3814">
        <ele>113</ele>
        <time>2012-03-13T13:14:57.000Z</time>
      </trkpt>
      <trkpt lat="45.0194" lon="0.38139">
        <ele>110</ele>
        <time>2012-03-13T13:14:59.000Z</time>
      </trkpt>
      <trkpt lat="45.01933" lon="0.38139">
        <ele>110</ele>
        <time>2012-03-13T13:15:01.000Z</time>
      </trkpt>
      <trkpt lat="45.01927" lon="0.38139">
        <ele>110</ele>
        <time>2012-03-13T13:15:03.000Z</time>
      </trkpt>
      <trkpt lat="45.01918" lon="0.38137">
        <ele>104</ele>
        <time>2012-03-13T13:15:05.000Z</time>
      </trkpt>
      <trkpt lat="45.01911" lon="0.38136">
        <ele>102</ele>
        <time>2012-03-13T13:15:07.000Z</time>
      </trkpt>
      <trkpt lat="45.01906" lon="0.38136">
        <ele>103</ele>
        <time>2012-03-13T13:15:09.000Z</time>
      </trkpt>
      <trkpt lat="45.019" lon="0.38135">
        <ele>104</ele>
        <time>2012-03-13T13:15:11.000Z</time>
      </trkpt>
      <trkpt lat="45.01894" lon="0.38134">
        <ele>106</ele>
        <time>2012-03-13T13:15:14.000Z</time>
      </trkpt>
      <trkpt lat="45.01887" lon="0.38134">
        <ele>107</ele>
        <time>2012-03-13T13:15:16.000Z</time>
      </trkpt>
      <trkpt lat="45.0188" lon="0.38134">
        <ele>109</ele>
        <time>2012-03-13T13:15:19.000Z</time>
      </trkpt>
      <trkpt lat="45.01874" lon="0.38134">
        <ele>110</ele>
        <time>2012-03-13T13:15:21.000Z</time>
      </trkpt>
      <trkpt lat="45.01869" lon="0.38134">
        <ele>111</ele>
        <time>2012-03-13T13:15:23.000Z</time>
      </trkpt>
      <trkpt lat="45.01864" lon="0.38132">
        <ele>112</ele>
        <time>2012-03-13T13:15:25.000Z</time>
      </trkpt>
      <trkpt lat="45.01857" lon="0.38135">
        <ele>117</ele>
        <time>2012-03-13T13:15:29.000Z</time>
      </trkpt>
      <trkpt lat="45.01852" lon="0.38134">
        <ele>118</ele>
        <time>2012-03-13T13:15:31.000Z</time>
      </trkpt>
      <trkpt lat="45.01844" lon="0.38133">
        <ele>118</ele>
        <time>2012-03-13T13:15:33.000Z</time>
      </trkpt>
      <trkpt lat="45.01838" lon="0.3813">
        <ele>119</ele>
        <time>2012-03-13T13:15:35.000Z</time>
      </trkpt>
      <trkpt lat="45.01833" lon="0.38128">
        <ele>123</ele>
        <time>2012-03-13T13:15:37.000Z</time>
      </trkpt>
      <trkpt lat="45.01829" lon="0.38126">
        <ele>125</ele>
        <time>2012-03-13T13:15:39.000Z</time>
      </trkpt>
      <trkpt lat="45.01824" lon="0.38121">
        <ele>128</ele>
        <time>2012-03-13T13:15:42.000Z</time>
      </trkpt>
      <trkpt lat="45.0182" lon="0.38114">
        <ele>131</ele>
        <time>2012-03-13T13:15:45.000Z</time>
      </trkpt>
      <trkpt lat="45.01818" lon="0.38107">
        <ele>132</ele>
        <time>2012-03-13T13:15:47.000Z</time>
      </trkpt>
      <trkpt lat="45.01816" lon="0.381">
        <ele>131</ele>
        <time>2012-03-13T13:15:49.000Z</time>
      </trkpt>
      <trkpt lat="45.01813" lon="0.38095">
        <ele>132</ele>
        <time>2012-03-13T13:15:51.000Z</time>
      </trkpt>
      <trkpt lat="45.0181" lon="0.38088">
        <ele>132</ele>
        <time>2012-03-13T13:15:53.000Z</time>
      </trkpt>
      <trkpt lat="45.01811" lon="0.3808">
        <ele>133</ele>
        <time>2012-03-13T13:15:55.000Z</time>
      </trkpt>
      <trkpt lat="45.01809" lon="0.38073">
        <ele>134</ele>
        <time>2012-03-13T13:15:57.000Z</time>
      </trkpt>
      <trkpt lat="45.01809" lon="0.38066">
        <ele>137</ele>
        <time>2012-03-13T13:15:59.000Z</time>
      </trkpt>
      <trkpt lat="45.01807" lon="0.38059">
        <ele>138</ele>
        <time>2012-03-13T13:16:01.000Z</time>
      </trkpt>
      <trkpt lat="45.01803" lon="0.38051">
        <ele>137</ele>
        <time>2012-03-13T13:16:03.000Z</time>
      </trkpt>
      <trkpt lat="45.01799" lon="0.38043">
        <ele>137</ele>
        <time>2012-03-13T13:16:05.000Z</time>
      </trkpt>
      <trkpt lat="45.01795" lon="0.38036">
        <ele>136</ele>
        <time>2012-03-13T13:16:07.000Z</time>
      </trkpt>
      <trkpt lat="45.01792" lon="0.38029">
        <ele>136</ele>
        <time>2012-03-13T13:16:09.000Z</time>
      </trkpt>
      <trkpt lat="45.01787" lon="0.38022">
        <ele>135</ele>
        <time>2012-03-13T13:16:11.000Z</time>
      </trkpt>
      <trkpt lat="45.01783" lon="0.38016">
        <ele>136</ele>
        <time>2012-03-13T13:16:13.000Z</time>
      </trkpt>
      <trkpt lat="45.01778" lon="0.3801">
        <ele>130</ele>
        <time>2012-03-13T13:16:15.000Z</time>
      </trkpt>
      <trkpt lat="45.01772" lon="0.38006">
        <ele>130</ele>
        <time>2012-03-13T13:16:17.000Z</time>
      </trkpt>
      <trkpt lat="45.01768" lon="0.38003">
        <ele>131</ele>
        <time>2012-03-13T13:16:19.000Z</time>
      </trkpt>
      <trkpt lat="45.0176" lon="0.38001">
        <ele>132</ele>
        <time>2012-03-13T13:16:21.000Z</time>
      </trkpt>
      <trkpt lat="45.01748" lon="0.38002">
        <ele>134</ele>
        <time>2012-03-13T13:16:24.000Z</time>
      </trkpt>
      <trkpt lat="45.01742" lon="0.38001">
        <ele>137</ele>
        <time>2012-03-13T13:16:26.000Z</time>
      </trkpt>
      <trkpt lat="45.01736" lon="0.38002">
        <ele>138</ele>
        <time>2012-03-13T13:16:28.000Z</time>
      </trkpt>
      <trkpt lat="45.0173" lon="0.38002">
        <ele>138</ele>
        <time>2012-03-13T13:16:30.000Z</time>
      </trkpt>
      <trkpt lat="45.01726" lon="0.37999">
        <ele>140</ele>
        <time>2012-03-13T13:16:32.000Z</time>
      </trkpt>
      <trkpt lat="45.01719" lon="0.37997">
        <ele>140</ele>
        <time>2012-03-13T13:16:34.000Z</time>
      </trkpt>
      <trkpt lat="45.01712" lon="0.37997">
        <ele>141</ele>
        <time>2012-03-13T13:16:36.000Z</time>
      </trkpt>
      <trkpt lat="45.01704" lon="0.37997">
        <ele>142</ele>
        <time>2012-03-13T13:16:38.000Z</time>
      </trkpt>
      <trkpt lat="45.01698" lon="0.37997">
        <ele>143</ele>
        <time>2012-03-13T13:16:40.000Z</time>
      </trkpt>
      <trkpt lat="45.01691" lon="0.37998">
        <ele>145</ele>
        <time>2012-03-13T13:16:42.000Z</time>
      </trkpt>
      <trkpt lat="45.01684" lon="0.38">
        <ele>146</ele>
        <time>2012-03-13T13:16:44.000Z</time>
      </trkpt>
      <trkpt lat="45.01676" lon="0.38">
        <ele>147</ele>
        <time>2012-03-13T13:16:46.000Z</time>
      </trkpt>
      <trkpt lat="45.01667" lon="0.38">
        <ele>148</ele>
        <time>2012-03-13T13:16:48.000Z</time>
      </trkpt>
      <trkpt lat="45.0166" lon="0.37998">
        <ele>148</ele>
        <time>2012-03-13T13:16:50.000Z</time>
      </trkpt>
      <trkpt lat="45.01653" lon="0.37994">
        <ele>148</ele>
        <time>2012-03-13T13:16:52.000Z</time>
      </trkpt>
      <trkpt lat="45.01648" lon="0.37988">
        <ele>148</ele>
        <time>2012-03-13T13:16:54.000Z</time>
      </trkpt>
      <trkpt lat="45.01646" lon="0.3798">
        <ele>147</ele>
        <time>2012-03-13T13:16:56.000Z</time>
      </trkpt>
      <trkpt lat="45.01649" lon="0.37971">
        <ele>146</ele>
        <time>2012-03-13T13:16:58.000Z</time>
      </trkpt>
      <trkpt lat="45.01653" lon="0.37961">
        <ele>145</ele>
        <time>2012-03-13T13:17:00.000Z</time>
      </trkpt>
      <trkpt lat="45.01655" lon="0.37955">
        <ele>145</ele>
        <time>2012-03-13T13:17:01.000Z</time>
      </trkpt>
      <trkpt lat="45.01659" lon="0.37944">
        <ele>145</ele>
        <time>2012-03-13T13:17:03.000Z</time>
      </trkpt>
      <trkpt lat="45.01662" lon="0.37937">
        <ele>146</ele>
        <time>2012-03-13T13:17:04.000Z</time>
      </trkpt>
      <trkpt lat="45.01665" lon="0.37925">
        <ele>146</ele>
        <time>2012-03-13T13:17:06.000Z</time>
      </trkpt>
      <trkpt lat="45.01667" lon="0.37919">
        <ele>147</ele>
        <time>2012-03-13T13:17:07.000Z</time>
      </trkpt>
      <trkpt lat="45.01672" lon="0.37908">
        <ele>147</ele>
        <time>2012-03-13T13:17:09.000Z</time>
      </trkpt>
      <trkpt lat="45.01676" lon="0.37899">
        <ele>148</ele>
        <time>2012-03-13T13:17:11.000Z</time>
      </trkpt>
      <trkpt lat="45.01678" lon="0.37894">
        <ele>148</ele>
        <time>2012-03-13T13:17:12.000Z</time>
      </trkpt>
      <trkpt lat="45.01684" lon="0.37884">
        <ele>147</ele>
        <time>2012-03-13T13:17:14.000Z</time>
      </trkpt>
      <trkpt lat="45.01689" lon="0.37875">
        <ele>147</ele>
        <time>2012-03-13T13:17:16.000Z</time>
      </trkpt>
      <trkpt lat="45.01691" lon="0.3787">
        <ele>147</ele>
        <time>2012-03-13T13:17:17.000Z</time>
      </trkpt>
      <trkpt lat="45.01694" lon="0.37863">
        <ele>147</ele>
        <time>2012-03-13T13:17:18.000Z</time>
      </trkpt>
      <trkpt lat="45.01698" lon="0.37857">
        <ele>147</ele>
        <time>2012-03-13T13:17:19.000Z</time>
      </trkpt>
      <trkpt lat="45.01703" lon="0.3785">
        <ele>148</ele>
        <time>2012-03-13T13:17:20.000Z</time>
      </trkpt>
      <trkpt lat="45.01706" lon="0.37842">
        <ele>148</ele>
        <time>2012-03-13T13:17:21.000Z</time>
      </trkpt>
      <trkpt lat="45.01711" lon="0.37834">
        <ele>148</ele>
        <time>2012-03-13T13:17:22.000Z</time>
      </trkpt>
      <trkpt lat="45.01722" lon="0.3781">
        <ele>147</ele>
        <time>2012-03-13T13:17:24.000Z</time>
      </trkpt>
      <trkpt lat="45.01727" lon="0.37799">
        <ele>147</ele>
        <time>2012-03-13T13:17:25.000Z</time>
      </trkpt>
      <trkpt lat="45.01732" lon="0.37787">
        <ele>146</ele>
        <time>2012-03-13T13:17:26.000Z</time>
      </trkpt>
      <trkpt lat="45.01737" lon="0.37776">
        <ele>146</ele>
        <time>2012-03-13T13:17:27.000Z</time>
      </trkpt>
      <trkpt lat="45.01741" lon="0.37766">
        <ele>146</ele>
        <time>2012-03-13T13:17:28.000Z</time>
      </trkpt>
      <trkpt lat="45.01744" lon="0.37755">
        <ele>146</ele>
        <time>2012-03-13T13:17:29.000Z</time>
      </trkpt>
      <trkpt lat="45.01748" lon="0.37746">
        <ele>144</ele>
        <time>2012-03-13T13:17:30.000Z</time>
      </trkpt>
      <trkpt lat="45.01751" lon="0.37739">
        <ele>144</ele>
        <time>2012-03-13T13:17:31.000Z</time>
      </trkpt>
      <trkpt lat="45.01754" lon="0.37732">
        <ele>143</ele>
        <time>2012-03-13T13:17:34.000Z</time>
      </trkpt>
      <trkpt lat="45.01758" lon="0.37729">
        <ele>142</ele>
        <time>2012-03-13T13:17:36.000Z</time>
      </trkpt>
      <trkpt lat="45.01764" lon="0.3773">
        <ele>141</ele>
        <time>2012-03-13T13:17:39.000Z</time>
      </trkpt>
      <trkpt lat="45.01769" lon="0.37727">
        <ele>141</ele>
        <time>2012-03-13T13:17:40.000Z</time>
      </trkpt>
      <trkpt lat="45.01773" lon="0.37721">
        <ele>141</ele>
        <time>2012-03-13T13:17:42.000Z</time>
      </trkpt>
      <trkpt lat="45.01776" lon="0.37714">
        <ele>141</ele>
        <time>2012-03-13T13:17:44.000Z</time>
      </trkpt>
      <trkpt lat="45.01764" lon="0.37712">
        <ele>141</ele>
        <time>2012-03-13T13:17:47.000Z</time>
      </trkpt>
      <trkpt lat="45.0176" lon="0.37709">
        <ele>141</ele>
        <time>2012-03-13T13:17:48.000Z</time>
      </trkpt>
      <trkpt lat="45.01752" lon="0.37705">
        <ele>140</ele>
        <time>2012-03-13T13:17:50.000Z</time>
      </trkpt>
      <trkpt lat="45.01746" lon="0.37701">
        <ele>139</ele>
        <time>2012-03-13T13:17:52.000Z</time>
      </trkpt>
      <trkpt lat="45.01739" lon="0.37697">
        <ele>140</ele>
        <time>2012-03-13T13:17:54.000Z</time>
      </trkpt>
      <trkpt lat="45.01733" lon="0.37692">
        <ele>140</ele>
        <time>2012-03-13T13:17:56.000Z</time>
      </trkpt>
      <trkpt lat="45.01726" lon="0.37688">
        <ele>141</ele>
        <time>2012-03-13T13:17:58.000Z</time>
      </trkpt>
      <trkpt lat="45.01721" lon="0.37682">
        <ele>142</ele>
        <time>2012-03-13T13:18:00.000Z</time>
      </trkpt>
      <trkpt lat="45.01717" lon="0.37675">
        <ele>142</ele>
        <time>2012-03-13T13:18:02.000Z</time>
      </trkpt>
      <trkpt lat="45.01709" lon="0.3767">
        <ele>141</ele>
        <time>2012-03-13T13:18:04.000Z</time>
      </trkpt>
      <trkpt lat="45.01704" lon="0.37667">
        <ele>140</ele>
        <time>2012-03-13T13:18:05.000Z</time>
      </trkpt>
      <trkpt lat="45.01699" lon="0.37664">
        <ele>139</ele>
        <time>2012-03-13T13:18:06.000Z</time>
      </trkpt>
      <trkpt lat="45.01695" lon="0.37656">
        <ele>137</ele>
        <time>2012-03-13T13:18:08.000Z</time>
      </trkpt>
      <trkpt lat="45.01701" lon="0.37643">
        <ele>137</ele>
        <time>2012-03-13T13:18:11.000Z</time>
      </trkpt>
      <trkpt lat="45.01705" lon="0.37637">
        <ele>137</ele>
        <time>2012-03-13T13:18:13.000Z</time>
      </trkpt>
      <trkpt lat="45.01709" lon="0.37633">
        <ele>137</ele>
        <time>2012-03-13T13:18:14.000Z</time>
      </trkpt>
      <trkpt lat="45.01713" lon="0.37629">
        <ele>137</ele>
        <time>2012-03-13T13:18:15.000Z</time>
      </trkpt>
      <trkpt lat="45.01718" lon="0.37621">
        <ele>138</ele>
        <time>2012-03-13T13:18:17.000Z</time>
      </trkpt>
      <trkpt lat="45.01723" lon="0.37613">
        <ele>139</ele>
        <time>2012-03-13T13:18:19.000Z</time>
      </trkpt>
      <trkpt lat="45.01727" lon="0.37605">
        <ele>141</ele>
        <time>2012-03-13T13:18:22.000Z</time>
      </trkpt>
      <trkpt lat="45.01731" lon="0.37598">
        <ele>141</ele>
        <time>2012-03-13T13:18:24.000Z</time>
      </trkpt>
      <trkpt lat="45.01734" lon="0.37591">
        <ele>142</ele>
        <time>2012-03-13T13:18:26.000Z</time>
      </trkpt>
      <trkpt lat="45.01738" lon="0.37583">
        <ele>142</ele>
        <time>2012-03-13T13:18:29.000Z</time>
      </trkpt>
      <trkpt lat="45.0174" lon="0.37575">
        <ele>142</ele>
        <time>2012-03-13T13:18:32.000Z</time>
      </trkpt>
      <trkpt lat="45.01746" lon="0.37568">
        <ele>145</ele>
        <time>2012-03-13T13:18:36.000Z</time>
      </trkpt>
      <trkpt lat="45.01749" lon="0.37561">
        <ele>147</ele>
        <time>2012-03-13T13:18:38.000Z</time>
      </trkpt>
      <trkpt lat="45.01751" lon="0.37554">
        <ele>148</ele>
        <time>2012-03-13T13:18:40.000Z</time>
      </trkpt>
      <trkpt lat="45.01754" lon="0.37547">
        <ele>149</ele>
        <time>2012-03-13T13:18:42.000Z</time>
      </trkpt>
      <trkpt lat="45.01757" lon="0.3754">
        <ele>149</ele>
        <time>2012-03-13T13:18:44.000Z</time>
      </trkpt>
      <trkpt lat="45.01762" lon="0.37532">
        <ele>148</ele>
        <time>2012-03-13T13:18:47.000Z</time>
      </trkpt>
      <trkpt lat="45.01764" lon="0.37527">
        <ele>148</ele>
        <time>2012-03-13T13:18:49.000Z</time>
      </trkpt>
      <trkpt lat="45.01767" lon="0.3752">
        <ele>149</ele>
        <time>2012-03-13T13:18:52.000Z</time>
      </trkpt>
      <trkpt lat="45.01771" lon="0.37512">
        <ele>149</ele>
        <time>2012-03-13T13:18:55.000Z</time>
      </trkpt>
      <trkpt lat="45.01773" lon="0.37506">
        <ele>148</ele>
        <time>2012-03-13T13:18:58.000Z</time>
      </trkpt>
      <trkpt lat="45.01778" lon="0.37501">
        <ele>152</ele>
        <time>2012-03-13T13:19:00.000Z</time>
      </trkpt>
      <trkpt lat="45.01782" lon="0.37495">
        <ele>155</ele>
        <time>2012-03-13T13:19:03.000Z</time>
      </trkpt>
      <trkpt lat="45.01786" lon="0.37488">
        <ele>156</ele>
        <time>2012-03-13T13:19:05.000Z</time>
      </trkpt>
      <trkpt lat="45.01791" lon="0.3748">
        <ele>156</ele>
        <time>2012-03-13T13:19:07.000Z</time>
      </trkpt>
      <trkpt lat="45.01794" lon="0.37474">
        <ele>157</ele>
        <time>2012-03-13T13:19:09.000Z</time>
      </trkpt>
      <trkpt lat="45.018" lon="0.37465">
        <ele>157</ele>
        <time>2012-03-13T13:19:13.000Z</time>
      </trkpt>
      <trkpt lat="45.01802" lon="0.37457">
        <ele>159</ele>
        <time>2012-03-13T13:19:15.000Z</time>
      </trkpt>
      <trkpt lat="45.01801" lon="0.3745">
        <ele>159</ele>
        <time>2012-03-13T13:19:17.000Z</time>
      </trkpt>
      <trkpt lat="45.018" lon="0.37438">
        <ele>158</ele>
        <time>2012-03-13T13:19:19.000Z</time>
      </trkpt>
      <trkpt lat="45.01796" lon="0.3743">
        <ele>158</ele>
        <time>2012-03-13T13:19:21.000Z</time>
      </trkpt>
      <trkpt lat="45.01787" lon="0.37421">
        <ele>157</ele>
        <time>2012-03-13T13:19:24.000Z</time>
      </trkpt>
      <trkpt lat="45.0178" lon="0.37417">
        <ele>156</ele>
        <time>2012-03-13T13:19:26.000Z</time>
      </trkpt>
      <trkpt lat="45.01779" lon="0.37406">
        <ele>156</ele>
        <time>2012-03-13T13:19:28.000Z</time>
      </trkpt>
      <trkpt lat="45.0178" lon="0.37395">
        <ele>156</ele>
        <time>2012-03-13T13:19:30.000Z</time>
      </trkpt>
      <trkpt lat="45.01779" lon="0.37385">
        <ele>156</ele>
        <time>2012-03-13T13:19:32.000Z</time>
      </trkpt>
      <trkpt lat="45.01779" lon="0.3737">
        <ele>157</ele>
        <time>2012-03-13T13:19:34.000Z</time>
      </trkpt>
      <trkpt lat="45.01776" lon="0.3736">
        <ele>156</ele>
        <time>2012-03-13T13:19:36.000Z</time>
      </trkpt>
      <trkpt lat="45.01774" lon="0.37354">
        <ele>156</ele>
        <time>2012-03-13T13:19:37.000Z</time>
      </trkpt>
      <trkpt lat="45.01773" lon="0.37346">
        <ele>156</ele>
        <time>2012-03-13T13:19:38.000Z</time>
      </trkpt>
      <trkpt lat="45.01773" lon="0.37336">
        <ele>155</ele>
        <time>2012-03-13T13:19:39.000Z</time>
      </trkpt>
      <trkpt lat="45.01772" lon="0.37326">
        <ele>154</ele>
        <time>2012-03-13T13:19:40.000Z</time>
      </trkpt>
      <trkpt lat="45.01771" lon="0.37315">
        <ele>154</ele>
        <time>2012-03-13T13:19:41.000Z</time>
      </trkpt>
      <trkpt lat="45.0177" lon="0.37304">
        <ele>154</ele>
        <time>2012-03-13T13:19:42.000Z</time>
      </trkpt>
      <trkpt lat="45.01767" lon="0.37294">
        <ele>154</ele>
        <time>2012-03-13T13:19:43.000Z</time>
      </trkpt>
      <trkpt lat="45.01766" lon="0.37282">
        <ele>154</ele>
        <time>2012-03-13T13:19:44.000Z</time>
      </trkpt>
      <trkpt lat="45.01765" lon="0.37271">
        <ele>153</ele>
        <time>2012-03-13T13:19:45.000Z</time>
      </trkpt>
      <trkpt lat="45.01765" lon="0.3726">
        <ele>153</ele>
        <time>2012-03-13T13:19:46.000Z</time>
      </trkpt>
      <trkpt lat="45.0177" lon="0.37246">
        <ele>153</ele>
        <time>2012-03-13T13:19:47.000Z</time>
      </trkpt>
      <trkpt lat="45.01772" lon="0.37235">
        <ele>153</ele>
        <time>2012-03-13T13:19:48.000Z</time>
      </trkpt>
      <trkpt lat="45.01774" lon="0.37226">
        <ele>153</ele>
        <time>2012-03-13T13:19:49.000Z</time>
      </trkpt>
      <trkpt lat="45.01779" lon="0.37217">
        <ele>153</ele>
        <time>2012-03-13T13:19:50.000Z</time>
      </trkpt>
      <trkpt lat="45.01782" lon="0.37208">
        <ele>152</ele>
        <time>2012-03-13T13:19:51.000Z</time>
      </trkpt>
      <trkpt lat="45.01788" lon="0.37199">
        <ele>152</ele>
        <time>2012-03-13T13:19:53.000Z</time>
      </trkpt>
      <trkpt lat="45.01788" lon="0.37192">
        <ele>154</ele>
        <time>2012-03-13T13:19:56.000Z</time>
      </trkpt>
      <trkpt lat="45.01782" lon="0.37192">
        <ele>156</ele>
        <time>2012-03-13T13:19:58.000Z</time>
      </trkpt>
      <trkpt lat="45.01776" lon="0.37192">
        <ele>156</ele>
        <time>2012-03-13T13:20:00.000Z</time>
      </trkpt>
      <trkpt lat="45.01771" lon="0.37195">
        <ele>156</ele>
        <time>2012-03-13T13:20:01.000Z</time>
      </trkpt>
      <trkpt lat="45.01766" lon="0.37197">
        <ele>157</ele>
        <time>2012-03-13T13:20:02.000Z</time>
      </trkpt>
      <trkpt lat="45.01761" lon="0.37204">
        <ele>158</ele>
        <time>2012-03-13T13:20:04.000Z</time>
      </trkpt>
      <trkpt lat="45.01756" lon="0.37209">
        <ele>159</ele>
        <time>2012-03-13T13:20:06.000Z</time>
      </trkpt>
      <trkpt lat="45.01746" lon="0.37217">
        <ele>160</ele>
        <time>2012-03-13T13:20:08.000Z</time>
      </trkpt>
      <trkpt lat="45.01739" lon="0.37218">
        <ele>158</ele>
        <time>2012-03-13T13:20:09.000Z</time>
      </trkpt>
      <trkpt lat="45.01733" lon="0.37222">
        <ele>158</ele>
        <time>2012-03-13T13:20:10.000Z</time>
      </trkpt>
      <trkpt lat="45.01729" lon="0.37226">
        <ele>157</ele>
        <time>2012-03-13T13:20:11.000Z</time>
      </trkpt>
      <trkpt lat="45.01721" lon="0.37234">
        <ele>155</ele>
        <time>2012-03-13T13:20:13.000Z</time>
      </trkpt>
      <trkpt lat="45.01714" lon="0.3724">
        <ele>155</ele>
        <time>2012-03-13T13:20:15.000Z</time>
      </trkpt>
      <trkpt lat="45.01708" lon="0.37244">
        <ele>156</ele>
        <time>2012-03-13T13:20:17.000Z</time>
      </trkpt>
      <trkpt lat="45.01704" lon="0.37247">
        <ele>156</ele>
        <time>2012-03-13T13:20:18.000Z</time>
      </trkpt>
      <trkpt lat="45.01696" lon="0.37254">
        <ele>155</ele>
        <time>2012-03-13T13:20:20.000Z</time>
      </trkpt>
      <trkpt lat="45.01689" lon="0.37262">
        <ele>155</ele>
        <time>2012-03-13T13:20:22.000Z</time>
      </trkpt>
      <trkpt lat="45.01681" lon="0.37269">
        <ele>155</ele>
        <time>2012-03-13T13:20:24.000Z</time>
      </trkpt>
      <trkpt lat="45.01677" lon="0.37274">
        <ele>155</ele>
        <time>2012-03-13T13:20:25.000Z</time>
      </trkpt>
      <trkpt lat="45.01672" lon="0.37278">
        <ele>155</ele>
        <time>2012-03-13T13:20:26.000Z</time>
      </trkpt>
      <trkpt lat="45.01668" lon="0.3728">
        <ele>155</ele>
        <time>2012-03-13T13:20:27.000Z</time>
      </trkpt>
      <trkpt lat="45.01662" lon="0.37283">
        <ele>156</ele>
        <time>2012-03-13T13:20:28.000Z</time>
      </trkpt>
      <trkpt lat="45.01653" lon="0.37289">
        <ele>157</ele>
        <time>2012-03-13T13:20:30.000Z</time>
      </trkpt>
      <trkpt lat="45.01646" lon="0.37296">
        <ele>157</ele>
        <time>2012-03-13T13:20:32.000Z</time>
      </trkpt>
      <trkpt lat="45.01642" lon="0.37299">
        <ele>157</ele>
        <time>2012-03-13T13:20:33.000Z</time>
      </trkpt>
      <trkpt lat="45.01638" lon="0.37304">
        <ele>157</ele>
        <time>2012-03-13T13:20:34.000Z</time>
      </trkpt>
      <trkpt lat="45.01633" lon="0.37308">
        <ele>157</ele>
        <time>2012-03-13T13:20:35.000Z</time>
      </trkpt>
      <trkpt lat="45.01629" lon="0.37313">
        <ele>158</ele>
        <time>2012-03-13T13:20:36.000Z</time>
      </trkpt>
      <trkpt lat="45.01625" lon="0.37316">
        <ele>158</ele>
        <time>2012-03-13T13:20:37.000Z</time>
      </trkpt>
      <trkpt lat="45.01621" lon="0.37321">
        <ele>158</ele>
        <time>2012-03-13T13:20:38.000Z</time>
      </trkpt>
      <trkpt lat="45.01617" lon="0.37325">
        <ele>157</ele>
        <time>2012-03-13T13:20:39.000Z</time>
      </trkpt>
      <trkpt lat="45.01614" lon="0.37329">
        <ele>157</ele>
        <time>2012-03-13T13:20:40.000Z</time>
      </trkpt>
      <trkpt lat="45.01606" lon="0.37335">
        <ele>157</ele>
        <time>2012-03-13T13:20:42.000Z</time>
      </trkpt>
      <trkpt lat="45.01598" lon="0.3734">
        <ele>159</ele>
        <time>2012-03-13T13:20:44.000Z</time>
      </trkpt>
      <trkpt lat="45.0159" lon="0.37346">
        <ele>161</ele>
        <time>2012-03-13T13:20:46.000Z</time>
      </trkpt>
      <trkpt lat="45.01587" lon="0.3735">
        <ele>161</ele>
        <time>2012-03-13T13:20:47.000Z</time>
      </trkpt>
      <trkpt lat="45.01581" lon="0.37353">
        <ele>163</ele>
        <time>2012-03-13T13:20:48.000Z</time>
      </trkpt>
      <trkpt lat="45.01576" lon="0.37356">
        <ele>164</ele>
        <time>2012-03-13T13:20:49.000Z</time>
      </trkpt>
      <trkpt lat="45.01571" lon="0.37359">
        <ele>163</ele>
        <time>2012-03-13T13:20:50.000Z</time>
      </trkpt>
      <trkpt lat="45.01566" lon="0.37363">
        <ele>163</ele>
        <time>2012-03-13T13:20:51.000Z</time>
      </trkpt>
      <trkpt lat="45.0156" lon="0.37366">
        <ele>163</ele>
        <time>2012-03-13T13:20:52.000Z</time>
      </trkpt>
      <trkpt lat="45.01556" lon="0.37371">
        <ele>164</ele>
        <time>2012-03-13T13:20:53.000Z</time>
      </trkpt>
      <trkpt lat="45.0155" lon="0.37376">
        <ele>163</ele>
        <time>2012-03-13T13:20:54.000Z</time>
      </trkpt>
      <trkpt lat="45.01543" lon="0.37382">
        <ele>162</ele>
        <time>2012-03-13T13:20:55.000Z</time>
      </trkpt>
      <trkpt lat="45.01537" lon="0.37387">
        <ele>161</ele>
        <time>2012-03-13T13:20:56.000Z</time>
      </trkpt>
      <trkpt lat="45.0153" lon="0.37392">
        <ele>159</ele>
        <time>2012-03-13T13:20:57.000Z</time>
      </trkpt>
      <trkpt lat="45.01524" lon="0.37396">
        <ele>157</ele>
        <time>2012-03-13T13:20:58.000Z</time>
      </trkpt>
      <trkpt lat="45.01518" lon="0.37401">
        <ele>156</ele>
        <time>2012-03-13T13:20:59.000Z</time>
      </trkpt>
      <trkpt lat="45.01513" lon="0.37406">
        <ele>156</ele>
        <time>2012-03-13T13:21:00.000Z</time>
      </trkpt>
      <trkpt lat="45.01507" lon="0.3741">
        <ele>156</ele>
        <time>2012-03-13T13:21:01.000Z</time>
      </trkpt>
      <trkpt lat="45.01502" lon="0.37414">
        <ele>156</ele>
        <time>2012-03-13T13:21:02.000Z</time>
      </trkpt>
      <trkpt lat="45.01497" lon="0.37418">
        <ele>156</ele>
        <time>2012-03-13T13:21:03.000Z</time>
      </trkpt>
      <trkpt lat="45.01492" lon="0.37423">
        <ele>155</ele>
        <time>2012-03-13T13:21:04.000Z</time>
      </trkpt>
      <trkpt lat="45.01488" lon="0.37426">
        <ele>155</ele>
        <time>2012-03-13T13:21:05.000Z</time>
      </trkpt>
      <trkpt lat="45.0148" lon="0.37432">
        <ele>158</ele>
        <time>2012-03-13T13:21:07.000Z</time>
      </trkpt>
      <trkpt lat="45.01475" lon="0.37434">
        <ele>160</ele>
        <time>2012-03-13T13:21:08.000Z</time>
      </trkpt>
      <trkpt lat="45.0147" lon="0.37438">
        <ele>161</ele>
        <time>2012-03-13T13:21:09.000Z</time>
      </trkpt>
      <trkpt lat="45.01465" lon="0.37441">
        <ele>162</ele>
        <time>2012-03-13T13:21:10.000Z</time>
      </trkpt>
      <trkpt lat="45.0146" lon="0.37443">
        <ele>163</ele>
        <time>2012-03-13T13:21:11.000Z</time>
      </trkpt>
      <trkpt lat="45.01452" lon="0.37449">
        <ele>168</ele>
        <time>2012-03-13T13:21:13.000Z</time>
      </trkpt>
      <trkpt lat="45.01445" lon="0.37452">
        <ele>169</ele>
        <time>2012-03-13T13:21:15.000Z</time>
      </trkpt>
      <trkpt lat="45.01437" lon="0.37455">
        <ele>170</ele>
        <time>2012-03-13T13:21:17.000Z</time>
      </trkpt>
      <trkpt lat="45.01428" lon="0.37458">
        <ele>169</ele>
        <time>2012-03-13T13:21:19.000Z</time>
      </trkpt>
      <trkpt lat="45.01424" lon="0.37462">
        <ele>170</ele>
        <time>2012-03-13T13:21:20.000Z</time>
      </trkpt>
      <trkpt lat="45.0142" lon="0.37464">
        <ele>170</ele>
        <time>2012-03-13T13:21:21.000Z</time>
      </trkpt>
      <trkpt lat="45.01412" lon="0.3747">
        <ele>169</ele>
        <time>2012-03-13T13:21:23.000Z</time>
      </trkpt>
      <trkpt lat="45.01408" lon="0.37474">
        <ele>169</ele>
        <time>2012-03-13T13:21:24.000Z</time>
      </trkpt>
      <trkpt lat="45.01403" lon="0.37477">
        <ele>169</ele>
        <time>2012-03-13T13:21:25.000Z</time>
      </trkpt>
      <trkpt lat="45.01397" lon="0.3748">
        <ele>169</ele>
        <time>2012-03-13T13:21:26.000Z</time>
      </trkpt>
      <trkpt lat="45.01393" lon="0.37484">
        <ele>168</ele>
        <time>2012-03-13T13:21:27.000Z</time>
      </trkpt>
      <trkpt lat="45.01387" lon="0.37487">
        <ele>168</ele>
        <time>2012-03-13T13:21:28.000Z</time>
      </trkpt>
      <trkpt lat="45.01381" lon="0.3749">
        <ele>167</ele>
        <time>2012-03-13T13:21:29.000Z</time>
      </trkpt>
      <trkpt lat="45.01376" lon="0.37492">
        <ele>167</ele>
        <time>2012-03-13T13:21:30.000Z</time>
      </trkpt>
      <trkpt lat="45.01371" lon="0.37496">
        <ele>167</ele>
        <time>2012-03-13T13:21:31.000Z</time>
      </trkpt>
      <trkpt lat="45.01365" lon="0.37499">
        <ele>167</ele>
        <time>2012-03-13T13:21:32.000Z</time>
      </trkpt>
      <trkpt lat="45.01359" lon="0.37502">
        <ele>167</ele>
        <time>2012-03-13T13:21:33.000Z</time>
      </trkpt>
      <trkpt lat="45.01353" lon="0.37505">
        <ele>166</ele>
        <time>2012-03-13T13:21:34.000Z</time>
      </trkpt>
      <trkpt lat="45.01348" lon="0.37507">
        <ele>166</ele>
        <time>2012-03-13T13:21:35.000Z</time>
      </trkpt>
      <trkpt lat="45.01342" lon="0.37511">
        <ele>165</ele>
        <time>2012-03-13T13:21:36.000Z</time>
      </trkpt>
      <trkpt lat="45.01336" lon="0.37515">
        <ele>165</ele>
        <time>2012-03-13T13:21:37.000Z</time>
      </trkpt>
      <trkpt lat="45.0133" lon="0.37521">
        <ele>164</ele>
        <time>2012-03-13T13:21:38.000Z</time>
      </trkpt>
      <trkpt lat="45.01325" lon="0.37527">
        <ele>164</ele>
        <time>2012-03-13T13:21:39.000Z</time>
      </trkpt>
      <trkpt lat="45.0132" lon="0.37533">
        <ele>163</ele>
        <time>2012-03-13T13:21:40.000Z</time>
      </trkpt>
      <trkpt lat="45.01313" lon="0.37541">
        <ele>162</ele>
        <time>2012-03-13T13:21:41.000Z</time>
      </trkpt>
      <trkpt lat="45.01308" lon="0.37548">
        <ele>159</ele>
        <time>2012-03-13T13:21:42.000Z</time>
      </trkpt>
      <trkpt lat="45.01307" lon="0.37564">
        <ele>156</ele>
        <time>2012-03-13T13:21:44.000Z</time>
      </trkpt>
      <trkpt lat="45.01306" lon="0.37572">
        <ele>155</ele>
        <time>2012-03-13T13:21:45.000Z</time>
      </trkpt>
      <trkpt lat="45.01306" lon="0.37581">
        <ele>154</ele>
        <time>2012-03-13T13:21:46.000Z</time>
      </trkpt>
      <trkpt lat="45.01305" lon="0.37591">
        <ele>153</ele>
        <time>2012-03-13T13:21:47.000Z</time>
      </trkpt>
      <trkpt lat="45.01301" lon="0.37595">
        <ele>152</ele>
        <time>2012-03-13T13:21:48.000Z</time>
      </trkpt>
      <trkpt lat="45.01297" lon="0.37599">
        <ele>152</ele>
        <time>2012-03-13T13:21:49.000Z</time>
      </trkpt>
      <trkpt lat="45.01292" lon="0.37602">
        <ele>151</ele>
        <time>2012-03-13T13:21:50.000Z</time>
      </trkpt>
      <trkpt lat="45.01287" lon="0.37602">
        <ele>151</ele>
        <time>2012-03-13T13:21:51.000Z</time>
      </trkpt>
      <trkpt lat="45.01282" lon="0.37602">
        <ele>150</ele>
        <time>2012-03-13T13:21:52.000Z</time>
      </trkpt>
      <trkpt lat="45.01277" lon="0.37601">
        <ele>150</ele>
        <time>2012-03-13T13:21:53.000Z</time>
      </trkpt>
      <trkpt lat="45.01271" lon="0.37602">
        <ele>150</ele>
        <time>2012-03-13T13:21:54.000Z</time>
      </trkpt>
      <trkpt lat="45.01265" lon="0.37602">
        <ele>151</ele>
        <time>2012-03-13T13:21:55.000Z</time>
      </trkpt>
      <trkpt lat="45.0126" lon="0.37602">
        <ele>151</ele>
        <time>2012-03-13T13:21:56.000Z</time>
      </trkpt>
      <trkpt lat="45.01254" lon="0.37601">
        <ele>151</ele>
        <time>2012-03-13T13:21:57.000Z</time>
      </trkpt>
      <trkpt lat="45.01249" lon="0.376">
        <ele>151</ele>
        <time>2012-03-13T13:21:58.000Z</time>
      </trkpt>
      <trkpt lat="45.01243" lon="0.37599">
        <ele>151</ele>
        <time>2012-03-13T13:21:59.000Z</time>
      </trkpt>
      <trkpt lat="45.01239" lon="0.37597">
        <ele>151</ele>
        <time>2012-03-13T13:22:00.000Z</time>
      </trkpt>
      <trkpt lat="45.01234" lon="0.37594">
        <ele>151</ele>
        <time>2012-03-13T13:22:01.000Z</time>
      </trkpt>
      <trkpt lat="45.01229" lon="0.37592">
        <ele>152</ele>
        <time>2012-03-13T13:22:02.000Z</time>
      </trkpt>
      <trkpt lat="45.01224" lon="0.37591">
        <ele>152</ele>
        <time>2012-03-13T13:22:03.000Z</time>
      </trkpt>
      <trkpt lat="45.01218" lon="0.37591">
        <ele>152</ele>
        <time>2012-03-13T13:22:04.000Z</time>
      </trkpt>
      <trkpt lat="45.01212" lon="0.37589">
        <ele>152</ele>
        <time>2012-03-13T13:22:05.000Z</time>
      </trkpt>
      <trkpt lat="45.01208" lon="0.37588">
        <ele>153</ele>
        <time>2012-03-13T13:22:06.000Z</time>
      </trkpt>
      <trkpt lat="45.01202" lon="0.37587">
        <ele>152</ele>
        <time>2012-03-13T13:22:07.000Z</time>
      </trkpt>
      <trkpt lat="45.01197" lon="0.37585">
        <ele>152</ele>
        <time>2012-03-13T13:22:08.000Z</time>
      </trkpt>
      <trkpt lat="45.01192" lon="0.37582">
        <ele>153</ele>
        <time>2012-03-13T13:22:09.000Z</time>
      </trkpt>
      <trkpt lat="45.01186" lon="0.3758">
        <ele>153</ele>
        <time>2012-03-13T13:22:10.000Z</time>
      </trkpt>
      <trkpt lat="45.01181" lon="0.37577">
        <ele>153</ele>
        <time>2012-03-13T13:22:11.000Z</time>
      </trkpt>
      <trkpt lat="45.01176" lon="0.37574">
        <ele>154</ele>
        <time>2012-03-13T13:22:12.000Z</time>
      </trkpt>
      <trkpt lat="45.01172" lon="0.37572">
        <ele>154</ele>
        <time>2012-03-13T13:22:13.000Z</time>
      </trkpt>
      <trkpt lat="45.01167" lon="0.3757">
        <ele>155</ele>
        <time>2012-03-13T13:22:14.000Z</time>
      </trkpt>
      <trkpt lat="45.01161" lon="0.37568">
        <ele>155</ele>
        <time>2012-03-13T13:22:15.000Z</time>
      </trkpt>
      <trkpt lat="45.01156" lon="0.37566">
        <ele>155</ele>
        <time>2012-03-13T13:22:16.000Z</time>
      </trkpt>
      <trkpt lat="45.01152" lon="0.37562">
        <ele>155</ele>
        <time>2012-03-13T13:22:17.000Z</time>
      </trkpt>
      <trkpt lat="45.01147" lon="0.37559">
        <ele>154</ele>
        <time>2012-03-13T13:22:18.000Z</time>
      </trkpt>
      <trkpt lat="45.01144" lon="0.37555">
        <ele>155</ele>
        <time>2012-03-13T13:22:19.000Z</time>
      </trkpt>
      <trkpt lat="45.01137" lon="0.3755">
        <ele>155</ele>
        <time>2012-03-13T13:22:21.000Z</time>
      </trkpt>
      <trkpt lat="45.01134" lon="0.37536">
        <ele>154</ele>
        <time>2012-03-13T13:22:24.000Z</time>
      </trkpt>
      <trkpt lat="45.01132" lon="0.37525">
        <ele>152</ele>
        <time>2012-03-13T13:22:26.000Z</time>
      </trkpt>
      <trkpt lat="45.01132" lon="0.37513">
        <ele>152</ele>
        <time>2012-03-13T13:22:28.000Z</time>
      </trkpt>
      <trkpt lat="45.01132" lon="0.37502">
        <ele>152</ele>
        <time>2012-03-13T13:22:30.000Z</time>
      </trkpt>
      <trkpt lat="45.01137" lon="0.37494">
        <ele>152</ele>
        <time>2012-03-13T13:22:32.000Z</time>
      </trkpt>
      <trkpt lat="45.01145" lon="0.37492">
        <ele>152</ele>
        <time>2012-03-13T13:22:34.000Z</time>
      </trkpt>
      <trkpt lat="45.0115" lon="0.37492">
        <ele>152</ele>
        <time>2012-03-13T13:22:35.000Z</time>
      </trkpt>
      <trkpt lat="45.01154" lon="0.37491">
        <ele>152</ele>
        <time>2012-03-13T13:22:36.000Z</time>
      </trkpt>
      <trkpt lat="45.01163" lon="0.3749">
        <ele>153</ele>
        <time>2012-03-13T13:22:38.000Z</time>
      </trkpt>
      <trkpt lat="45.01168" lon="0.3749">
        <ele>152</ele>
        <time>2012-03-13T13:22:39.000Z</time>
      </trkpt>
      <trkpt lat="45.01173" lon="0.3749">
        <ele>152</ele>
        <time>2012-03-13T13:22:40.000Z</time>
      </trkpt>
      <trkpt lat="45.01178" lon="0.3749">
        <ele>152</ele>
        <time>2012-03-13T13:22:41.000Z</time>
      </trkpt>
      <trkpt lat="45.01183" lon="0.3749">
        <ele>153</ele>
        <time>2012-03-13T13:22:42.000Z</time>
      </trkpt>
      <trkpt lat="45.01189" lon="0.3749">
        <ele>153</ele>
        <time>2012-03-13T13:22:43.000Z</time>
      </trkpt>
      <trkpt lat="45.01195" lon="0.37489">
        <ele>153</ele>
        <time>2012-03-13T13:22:44.000Z</time>
      </trkpt>
      <trkpt lat="45.012" lon="0.37489">
        <ele>153</ele>
        <time>2012-03-13T13:22:45.000Z</time>
      </trkpt>
      <trkpt lat="45.01205" lon="0.37488">
        <ele>154</ele>
        <time>2012-03-13T13:22:46.000Z</time>
      </trkpt>
      <trkpt lat="45.0121" lon="0.37489">
        <ele>154</ele>
        <time>2012-03-13T13:22:47.000Z</time>
      </trkpt>
      <trkpt lat="45.01214" lon="0.37489">
        <ele>155</ele>
        <time>2012-03-13T13:22:48.000Z</time>
      </trkpt>
      <trkpt lat="45.01219" lon="0.3749">
        <ele>155</ele>
        <time>2012-03-13T13:22:49.000Z</time>
      </trkpt>
      <trkpt lat="45.01228" lon="0.37489">
        <ele>156</ele>
        <time>2012-03-13T13:22:51.000Z</time>
      </trkpt>
      <trkpt lat="45.01233" lon="0.37488">
        <ele>156</ele>
        <time>2012-03-13T13:22:52.000Z</time>
      </trkpt>
      <trkpt lat="45.01242" lon="0.37488">
        <ele>157</ele>
        <time>2012-03-13T13:22:54.000Z</time>
      </trkpt>
      <trkpt lat="45.0125" lon="0.37487">
        <ele>157</ele>
        <time>2012-03-13T13:22:56.000Z</time>
      </trkpt>
      <trkpt lat="45.01257" lon="0.37488">
        <ele>158</ele>
        <time>2012-03-13T13:22:58.000Z</time>
      </trkpt>
      <trkpt lat="45.01265" lon="0.37489">
        <ele>159</ele>
        <time>2012-03-13T13:23:00.000Z</time>
      </trkpt>
      <trkpt lat="45.01274" lon="0.37489">
        <ele>159</ele>
        <time>2012-03-13T13:23:02.000Z</time>
      </trkpt>
      <trkpt lat="45.01279" lon="0.37488">
        <ele>159</ele>
        <time>2012-03-13T13:23:03.000Z</time>
      </trkpt>
      <trkpt lat="45.01287" lon="0.37486">
        <ele>159</ele>
        <time>2012-03-13T13:23:05.000Z</time>
      </trkpt>
      <trkpt lat="45.01292" lon="0.37479">
        <ele>159</ele>
        <time>2012-03-13T13:23:07.000Z</time>
      </trkpt>
      <trkpt lat="45.01294" lon="0.3747">
        <ele>159</ele>
        <time>2012-03-13T13:23:09.000Z</time>
      </trkpt>
      <trkpt lat="45.01287" lon="0.37469">
        <ele>158</ele>
        <time>2012-03-13T13:23:10.000Z</time>
      </trkpt>
      <trkpt lat="45.01282" lon="0.37461">
        <ele>159</ele>
        <time>2012-03-13T13:23:12.000Z</time>
      </trkpt>
      <trkpt lat="45.01277" lon="0.37454">
        <ele>159</ele>
        <time>2012-03-13T13:23:14.000Z</time>
      </trkpt>
      <trkpt lat="45.01271" lon="0.37447">
        <ele>157</ele>
        <time>2012-03-13T13:23:16.000Z</time>
      </trkpt>
      <trkpt lat="45.01268" lon="0.37438">
        <ele>155</ele>
        <time>2012-03-13T13:23:18.000Z</time>
      </trkpt>
      <trkpt lat="45.01265" lon="0.37429">
        <ele>156</ele>
        <time>2012-03-13T13:23:20.000Z</time>
      </trkpt>
      <trkpt lat="45.01261" lon="0.3742">
        <ele>158</ele>
        <time>2012-03-13T13:23:22.000Z</time>
      </trkpt>
      <trkpt lat="45.01258" lon="0.37413">
        <ele>158</ele>
        <time>2012-03-13T13:23:24.000Z</time>
      </trkpt>
      <trkpt lat="45.01255" lon="0.37407">
        <ele>158</ele>
        <time>2012-03-13T13:23:26.000Z</time>
      </trkpt>
      <trkpt lat="45.01252" lon="0.37401">
        <ele>158</ele>
        <time>2012-03-13T13:23:28.000Z</time>
      </trkpt>
      <trkpt lat="45.01249" lon="0.37393">
        <ele>159</ele>
        <time>2012-03-13T13:23:30.000Z</time>
      </trkpt>
      <trkpt lat="45.01246" lon="0.37387">
        <ele>160</ele>
        <time>2012-03-13T13:23:32.000Z</time>
      </trkpt>
      <trkpt lat="45.01243" lon="0.37381">
        <ele>162</ele>
        <time>2012-03-13T13:23:34.000Z</time>
      </trkpt>
      <trkpt lat="45.01239" lon="0.37376">
        <ele>164</ele>
        <time>2012-03-13T13:23:36.000Z</time>
      </trkpt>
      <trkpt lat="45.01238" lon="0.37369">
        <ele>164</ele>
        <time>2012-03-13T13:23:38.000Z</time>
      </trkpt>
      <trkpt lat="45.01237" lon="0.37363">
        <ele>165</ele>
        <time>2012-03-13T13:23:40.000Z</time>
      </trkpt>
      <trkpt lat="45.01235" lon="0.37356">
        <ele>166</ele>
        <time>2012-03-13T13:23:42.000Z</time>
      </trkpt>
      <trkpt lat="45.01236" lon="0.37345">
        <ele>168</ele>
        <time>2012-03-13T13:23:45.000Z</time>
      </trkpt>
      <trkpt lat="45.01235" lon="0.37336">
        <ele>168</ele>
        <time>2012-03-13T13:23:47.000Z</time>
      </trkpt>
      <trkpt lat="45.01238" lon="0.37328">
        <ele>170</ele>
        <time>2012-03-13T13:23:49.000Z</time>
      </trkpt>
      <trkpt lat="45.0124" lon="0.37319">
        <ele>170</ele>
        <time>2012-03-13T13:23:51.000Z</time>
      </trkpt>
      <trkpt lat="45.01244" lon="0.37314">
        <ele>171</ele>
        <time>2012-03-13T13:23:52.000Z</time>
      </trkpt>
      <trkpt lat="45.01247" lon="0.37308">
        <ele>172</ele>
        <time>2012-03-13T13:23:53.000Z</time>
      </trkpt>
      <trkpt lat="45.01251" lon="0.37299">
        <ele>173</ele>
        <time>2012-03-13T13:23:55.000Z</time>
      </trkpt>
      <trkpt lat="45.01254" lon="0.3729">
        <ele>174</ele>
        <time>2012-03-13T13:23:57.000Z</time>
      </trkpt>
      <trkpt lat="45.0126" lon="0.3728">
        <ele>175</ele>
        <time>2012-03-13T13:23:59.000Z</time>
      </trkpt>
      <trkpt lat="45.01263" lon="0.37272">
        <ele>174</ele>
        <time>2012-03-13T13:24:01.000Z</time>
      </trkpt>
      <trkpt lat="45.01267" lon="0.37267">
        <ele>174</ele>
        <time>2012-03-13T13:24:03.000Z</time>
      </trkpt>
      <trkpt lat="45.01272" lon="0.37261">
        <ele>174</ele>
        <time>2012-03-13T13:24:06.000Z</time>
      </trkpt>
      <trkpt lat="45.01277" lon="0.37257">
        <ele>176</ele>
        <time>2012-03-13T13:24:07.000Z</time>
      </trkpt>
      <trkpt lat="45.01281" lon="0.3725">
        <ele>176</ele>
        <time>2012-03-13T13:24:09.000Z</time>
      </trkpt>
      <trkpt lat="45.0128" lon="0.37241">
        <ele>178</ele>
        <time>2012-03-13T13:24:12.000Z</time>
      </trkpt>
      <trkpt lat="45.0128" lon="0.37234">
        <ele>179</ele>
        <time>2012-03-13T13:24:14.000Z</time>
      </trkpt>
      <trkpt lat="45.0128" lon="0.37225">
        <ele>182</ele>
        <time>2012-03-13T13:24:17.000Z</time>
      </trkpt>
      <trkpt lat="45.0128" lon="0.37214">
        <ele>183</ele>
        <time>2012-03-13T13:24:20.000Z</time>
      </trkpt>
      <trkpt lat="45.01279" lon="0.37206">
        <ele>183</ele>
        <time>2012-03-13T13:24:22.000Z</time>
      </trkpt>
      <trkpt lat="45.01278" lon="0.37198">
        <ele>185</ele>
        <time>2012-03-13T13:24:25.000Z</time>
      </trkpt>
      <trkpt lat="45.01274" lon="0.37192">
        <ele>184</ele>
        <time>2012-03-13T13:24:27.000Z</time>
      </trkpt>
      <trkpt lat="45.01274" lon="0.37184">
        <ele>184</ele>
        <time>2012-03-13T13:24:29.000Z</time>
      </trkpt>
      <trkpt lat="45.01272" lon="0.37176">
        <ele>184</ele>
        <time>2012-03-13T13:24:31.000Z</time>
      </trkpt>
      <trkpt lat="45.01269" lon="0.37168">
        <ele>184</ele>
        <time>2012-03-13T13:24:33.000Z</time>
      </trkpt>
      <trkpt lat="45.01266" lon="0.37161">
        <ele>184</ele>
        <time>2012-03-13T13:24:35.000Z</time>
      </trkpt>
      <trkpt lat="45.01263" lon="0.37154">
        <ele>184</ele>
        <time>2012-03-13T13:24:37.000Z</time>
      </trkpt>
      <trkpt lat="45.01262" lon="0.37145">
        <ele>186</ele>
        <time>2012-03-13T13:24:39.000Z</time>
      </trkpt>
      <trkpt lat="45.01262" lon="0.37136">
        <ele>187</ele>
        <time>2012-03-13T13:24:41.000Z</time>
      </trkpt>
      <trkpt lat="45.0126" lon="0.37127">
        <ele>187</ele>
        <time>2012-03-13T13:24:43.000Z</time>
      </trkpt>
      <trkpt lat="45.01256" lon="0.37117">
        <ele>188</ele>
        <time>2012-03-13T13:24:45.000Z</time>
      </trkpt>
      <trkpt lat="45.01255" lon="0.37109">
        <ele>189</ele>
        <time>2012-03-13T13:24:47.000Z</time>
      </trkpt>
      <trkpt lat="45.0125" lon="0.371">
        <ele>191</ele>
        <time>2012-03-13T13:24:49.000Z</time>
      </trkpt>
      <trkpt lat="45.01249" lon="0.3709">
        <ele>191</ele>
        <time>2012-03-13T13:24:51.000Z</time>
      </trkpt>
      <trkpt lat="45.01248" lon="0.37082">
        <ele>191</ele>
        <time>2012-03-13T13:24:52.000Z</time>
      </trkpt>
      <trkpt lat="45.01247" lon="0.37073">
        <ele>192</ele>
        <time>2012-03-13T13:24:53.000Z</time>
      </trkpt>
      <trkpt lat="45.01246" lon="0.37063">
        <ele>191</ele>
        <time>2012-03-13T13:24:54.000Z</time>
      </trkpt>
      <trkpt lat="45.01242" lon="0.37053">
        <ele>191</ele>
        <time>2012-03-13T13:24:55.000Z</time>
      </trkpt>
      <trkpt lat="45.01241" lon="0.3704">
        <ele>190</ele>
        <time>2012-03-13T13:24:56.000Z</time>
      </trkpt>
      <trkpt lat="45.01238" lon="0.37028">
        <ele>189</ele>
        <time>2012-03-13T13:24:57.000Z</time>
      </trkpt>
      <trkpt lat="45.01233" lon="0.37017">
        <ele>188</ele>
        <time>2012-03-13T13:24:58.000Z</time>
      </trkpt>
      <trkpt lat="45.01229" lon="0.37006">
        <ele>187</ele>
        <time>2012-03-13T13:24:59.000Z</time>
      </trkpt>
      <trkpt lat="45.01225" lon="0.36998">
        <ele>187</ele>
        <time>2012-03-13T13:25:00.000Z</time>
      </trkpt>
      <trkpt lat="45.01219" lon="0.36992">
        <ele>187</ele>
        <time>2012-03-13T13:25:02.000Z</time>
      </trkpt>
      <trkpt lat="45.01212" lon="0.36995">
        <ele>188</ele>
        <time>2012-03-13T13:25:03.000Z</time>
      </trkpt>
      <trkpt lat="45.01208" lon="0.36995">
        <ele>189</ele>
        <time>2012-03-13T13:25:04.000Z</time>
      </trkpt>
      <trkpt lat="45.01199" lon="0.36995">
        <ele>190</ele>
        <time>2012-03-13T13:25:06.000Z</time>
      </trkpt>
      <trkpt lat="45.0119" lon="0.36998">
        <ele>190</ele>
        <time>2012-03-13T13:25:08.000Z</time>
      </trkpt>
      <trkpt lat="45.01181" lon="0.37001">
        <ele>191</ele>
        <time>2012-03-13T13:25:10.000Z</time>
      </trkpt>
      <trkpt lat="45.01173" lon="0.37001">
        <ele>191</ele>
        <time>2012-03-13T13:25:12.000Z</time>
      </trkpt>
      <trkpt lat="45.01165" lon="0.36999">
        <ele>191</ele>
        <time>2012-03-13T13:25:14.000Z</time>
      </trkpt>
      <trkpt lat="45.01158" lon="0.37">
        <ele>192</ele>
        <time>2012-03-13T13:25:16.000Z</time>
      </trkpt>
      <trkpt lat="45.01152" lon="0.37002">
        <ele>192</ele>
        <time>2012-03-13T13:25:18.000Z</time>
      </trkpt>
      <trkpt lat="45.01144" lon="0.37004">
        <ele>192</ele>
        <time>2012-03-13T13:25:20.000Z</time>
      </trkpt>
      <trkpt lat="45.01138" lon="0.37008">
        <ele>191</ele>
        <time>2012-03-13T13:25:21.000Z</time>
      </trkpt>
      <trkpt lat="45.01134" lon="0.37011">
        <ele>191</ele>
        <time>2012-03-13T13:25:22.000Z</time>
      </trkpt>
      <trkpt lat="45.01128" lon="0.37014">
        <ele>191</ele>
        <time>2012-03-13T13:25:24.000Z</time>
      </trkpt>
      <trkpt lat="45.01123" lon="0.37017">
        <ele>191</ele>
        <time>2012-03-13T13:25:25.000Z</time>
      </trkpt>
      <trkpt lat="45.01114" lon="0.37019">
        <ele>190</ele>
        <time>2012-03-13T13:25:27.000Z</time>
      </trkpt>
      <trkpt lat="45.01107" lon="0.37016">
        <ele>190</ele>
        <time>2012-03-13T13:25:29.000Z</time>
      </trkpt>
      <trkpt lat="45.011" lon="0.37011">
        <ele>190</ele>
        <time>2012-03-13T13:25:31.000Z</time>
      </trkpt>
      <trkpt lat="45.01098" lon="0.37005">
        <ele>190</ele>
        <time>2012-03-13T13:25:32.000Z</time>
      </trkpt>
      <trkpt lat="45.01095" lon="0.37">
        <ele>190</ele>
        <time>2012-03-13T13:25:33.000Z</time>
      </trkpt>
      <trkpt lat="45.01091" lon="0.36994">
        <ele>189</ele>
        <time>2012-03-13T13:25:34.000Z</time>
      </trkpt>
      <trkpt lat="45.01089" lon="0.36986">
        <ele>189</ele>
        <time>2012-03-13T13:25:35.000Z</time>
      </trkpt>
      <trkpt lat="45.01085" lon="0.3698">
        <ele>189</ele>
        <time>2012-03-13T13:25:36.000Z</time>
      </trkpt>
      <trkpt lat="45.0108" lon="0.36968">
        <ele>189</ele>
        <time>2012-03-13T13:25:38.000Z</time>
      </trkpt>
      <trkpt lat="45.01078" lon="0.3696">
        <ele>189</ele>
        <time>2012-03-13T13:25:39.000Z</time>
      </trkpt>
      <trkpt lat="45.01079" lon="0.36953">
        <ele>189</ele>
        <time>2012-03-13T13:25:40.000Z</time>
      </trkpt>
      <trkpt lat="45.01076" lon="0.36948">
        <ele>189</ele>
        <time>2012-03-13T13:25:41.000Z</time>
      </trkpt>
      <trkpt lat="45.01075" lon="0.36941">
        <ele>189</ele>
        <time>2012-03-13T13:25:42.000Z</time>
      </trkpt>
      <trkpt lat="45.01072" lon="0.36931">
        <ele>189</ele>
        <time>2012-03-13T13:25:44.000Z</time>
      </trkpt>
      <trkpt lat="45.0107" lon="0.36923">
        <ele>188</ele>
        <time>2012-03-13T13:25:46.000Z</time>
      </trkpt>
      <trkpt lat="45.01068" lon="0.36914">
        <ele>188</ele>
        <time>2012-03-13T13:25:48.000Z</time>
      </trkpt>
      <trkpt lat="45.01066" lon="0.36905">
        <ele>189</ele>
        <time>2012-03-13T13:25:50.000Z</time>
      </trkpt>
      <trkpt lat="45.01064" lon="0.36895">
        <ele>190</ele>
        <time>2012-03-13T13:25:52.000Z</time>
      </trkpt>
      <trkpt lat="45.0106" lon="0.36885">
        <ele>189</ele>
        <time>2012-03-13T13:25:54.000Z</time>
      </trkpt>
      <trkpt lat="45.0106" lon="0.36878">
        <ele>189</ele>
        <time>2012-03-13T13:25:55.000Z</time>
      </trkpt>
      <trkpt lat="45.01062" lon="0.36867">
        <ele>188</ele>
        <time>2012-03-13T13:25:57.000Z</time>
      </trkpt>
      <trkpt lat="45.01065" lon="0.36861">
        <ele>189</ele>
        <time>2012-03-13T13:25:58.000Z</time>
      </trkpt>
      <trkpt lat="45.0107" lon="0.36849">
        <ele>188</ele>
        <time>2012-03-13T13:26:00.000Z</time>
      </trkpt>
      <trkpt lat="45.01073" lon="0.36843">
        <ele>188</ele>
        <time>2012-03-13T13:26:01.000Z</time>
      </trkpt>
      <trkpt lat="45.01077" lon="0.36836">
        <ele>187</ele>
        <time>2012-03-13T13:26:02.000Z</time>
      </trkpt>
      <trkpt lat="45.01081" lon="0.3683">
        <ele>187</ele>
        <time>2012-03-13T13:26:03.000Z</time>
      </trkpt>
      <trkpt lat="45.01085" lon="0.36823">
        <ele>186</ele>
        <time>2012-03-13T13:26:04.000Z</time>
      </trkpt>
      <trkpt lat="45.01088" lon="0.36815">
        <ele>186</ele>
        <time>2012-03-13T13:26:05.000Z</time>
      </trkpt>
      <trkpt lat="45.01093" lon="0.36808">
        <ele>185</ele>
        <time>2012-03-13T13:26:06.000Z</time>
      </trkpt>
      <trkpt lat="45.01096" lon="0.368">
        <ele>185</ele>
        <time>2012-03-13T13:26:07.000Z</time>
      </trkpt>
      <trkpt lat="45.01099" lon="0.36794">
        <ele>185</ele>
        <time>2012-03-13T13:26:08.000Z</time>
      </trkpt>
      <trkpt lat="45.01099" lon="0.36783">
        <ele>185</ele>
        <time>2012-03-13T13:26:10.000Z</time>
      </trkpt>
      <trkpt lat="45.01096" lon="0.36777">
        <ele>185</ele>
        <time>2012-03-13T13:26:11.000Z</time>
      </trkpt>
      <trkpt lat="45.01094" lon="0.36771">
        <ele>184</ele>
        <time>2012-03-13T13:26:12.000Z</time>
      </trkpt>
      <trkpt lat="45.0109" lon="0.36767">
        <ele>184</ele>
        <time>2012-03-13T13:26:13.000Z</time>
      </trkpt>
      <trkpt lat="45.01087" lon="0.36761">
        <ele>184</ele>
        <time>2012-03-13T13:26:14.000Z</time>
      </trkpt>
      <trkpt lat="45.01083" lon="0.36756">
        <ele>183</ele>
        <time>2012-03-13T13:26:15.000Z</time>
      </trkpt>
      <trkpt lat="45.01079" lon="0.36748">
        <ele>184</ele>
        <time>2012-03-13T13:26:17.000Z</time>
      </trkpt>
      <trkpt lat="45.01075" lon="0.36739">
        <ele>185</ele>
        <time>2012-03-13T13:26:19.000Z</time>
      </trkpt>
      <trkpt lat="45.01071" lon="0.36735">
        <ele>186</ele>
        <time>2012-03-13T13:26:20.000Z</time>
      </trkpt>
      <trkpt lat="45.01065" lon="0.36728">
        <ele>186</ele>
        <time>2012-03-13T13:26:22.000Z</time>
      </trkpt>
      <trkpt lat="45.01061" lon="0.36722">
        <ele>188</ele>
        <time>2012-03-13T13:26:24.000Z</time>
      </trkpt>
      <trkpt lat="45.01053" lon="0.36712">
        <ele>188</ele>
        <time>2012-03-13T13:26:26.000Z</time>
      </trkpt>
      <trkpt lat="45.01048" lon="0.36708">
        <ele>187</ele>
        <time>2012-03-13T13:26:27.000Z</time>
      </trkpt>
      <trkpt lat="45.01042" lon="0.367">
        <ele>188</ele>
        <time>2012-03-13T13:26:29.000Z</time>
      </trkpt>
      <trkpt lat="45.01038" lon="0.3669">
        <ele>187</ele>
        <time>2012-03-13T13:26:31.000Z</time>
      </trkpt>
      <trkpt lat="45.01037" lon="0.36684">
        <ele>187</ele>
        <time>2012-03-13T13:26:33.000Z</time>
      </trkpt>
      <trkpt lat="45.01032" lon="0.36679">
        <ele>186</ele>
        <time>2012-03-13T13:26:35.000Z</time>
      </trkpt>
      <trkpt lat="45.01026" lon="0.36675">
        <ele>186</ele>
        <time>2012-03-13T13:26:37.000Z</time>
      </trkpt>
      <trkpt lat="45.01021" lon="0.36667">
        <ele>189</ele>
        <time>2012-03-13T13:26:39.000Z</time>
      </trkpt>
      <trkpt lat="45.01016" lon="0.36663">
        <ele>192</ele>
        <time>2012-03-13T13:26:41.000Z</time>
      </trkpt>
      <trkpt lat="45.0101" lon="0.36657">
        <ele>192</ele>
        <time>2012-03-13T13:26:43.000Z</time>
      </trkpt>
      <trkpt lat="45.01006" lon="0.36652">
        <ele>192</ele>
        <time>2012-03-13T13:26:44.000Z</time>
      </trkpt>
      <trkpt lat="45.01002" lon="0.36646">
        <ele>191</ele>
        <time>2012-03-13T13:26:45.000Z</time>
      </trkpt>
      <trkpt lat="45.00997" lon="0.36642">
        <ele>191</ele>
        <time>2012-03-13T13:26:46.000Z</time>
      </trkpt>
      <trkpt lat="45.0099" lon="0.36635">
        <ele>191</ele>
        <time>2012-03-13T13:26:48.000Z</time>
      </trkpt>
      <trkpt lat="45.00986" lon="0.36629">
        <ele>191</ele>
        <time>2012-03-13T13:26:50.000Z</time>
      </trkpt>
      <trkpt lat="45.00981" lon="0.36628">
        <ele>192</ele>
        <time>2012-03-13T13:26:52.000Z</time>
      </trkpt>
      <trkpt lat="45.00972" lon="0.36629">
        <ele>192</ele>
        <time>2012-03-13T13:26:54.000Z</time>
      </trkpt>
      <trkpt lat="45.00961" lon="0.3663">
        <ele>192</ele>
        <time>2012-03-13T13:26:56.000Z</time>
      </trkpt>
      <trkpt lat="45.00953" lon="0.3663">
        <ele>192</ele>
        <time>2012-03-13T13:26:58.000Z</time>
      </trkpt>
      <trkpt lat="45.00947" lon="0.36631">
        <ele>192</ele>
        <time>2012-03-13T13:27:00.000Z</time>
      </trkpt>
      <trkpt lat="45.00943" lon="0.36635">
        <ele>192</ele>
        <time>2012-03-13T13:27:01.000Z</time>
      </trkpt>
      <trkpt lat="45.00946" lon="0.3664">
        <ele>190</ele>
        <time>2012-03-13T13:27:02.000Z</time>
      </trkpt>
      <trkpt lat="45.00943" lon="0.36649">
        <ele>187</ele>
        <time>2012-03-13T13:27:04.000Z</time>
      </trkpt>
      <trkpt lat="45.0094" lon="0.36659">
        <ele>187</ele>
        <time>2012-03-13T13:27:06.000Z</time>
      </trkpt>
      <trkpt lat="45.00937" lon="0.36668">
        <ele>187</ele>
        <time>2012-03-13T13:27:08.000Z</time>
      </trkpt>
      <trkpt lat="45.00934" lon="0.36677">
        <ele>187</ele>
        <time>2012-03-13T13:27:10.000Z</time>
      </trkpt>
      <trkpt lat="45.00934" lon="0.36683">
        <ele>189</ele>
        <time>2012-03-13T13:27:13.000Z</time>
      </trkpt>
      <trkpt lat="45.00937" lon="0.36689">
        <ele>190</ele>
        <time>2012-03-13T13:27:15.000Z</time>
      </trkpt>
      <trkpt lat="45.00935" lon="0.36697">
        <ele>190</ele>
        <time>2012-03-13T13:27:16.000Z</time>
      </trkpt>
      <trkpt lat="45.00937" lon="0.36705">
        <ele>190</ele>
        <time>2012-03-13T13:27:18.000Z</time>
      </trkpt>
      <trkpt lat="45.00938" lon="0.36717">
        <ele>190</ele>
        <time>2012-03-13T13:27:20.000Z</time>
      </trkpt>
      <trkpt lat="45.00938" lon="0.36723">
        <ele>190</ele>
        <time>2012-03-13T13:27:21.000Z</time>
      </trkpt>
      <trkpt lat="45.00945" lon="0.36737">
        <ele>189</ele>
        <time>2012-03-13T13:27:24.000Z</time>
      </trkpt>
      <trkpt lat="45.00948" lon="0.36747">
        <ele>189</ele>
        <time>2012-03-13T13:27:26.000Z</time>
      </trkpt>
      <trkpt lat="45.0095" lon="0.36757">
        <ele>191</ele>
        <time>2012-03-13T13:27:28.000Z</time>
      </trkpt>
      <trkpt lat="45.00953" lon="0.36766">
        <ele>191</ele>
        <time>2012-03-13T13:27:30.000Z</time>
      </trkpt>
      <trkpt lat="45.00956" lon="0.36777">
        <ele>191</ele>
        <time>2012-03-13T13:27:32.000Z</time>
      </trkpt>
      <trkpt lat="45.00963" lon="0.36787">
        <ele>190</ele>
        <time>2012-03-13T13:27:34.000Z</time>
      </trkpt>
      <trkpt lat="45.00967" lon="0.36797">
        <ele>189</ele>
        <time>2012-03-13T13:27:36.000Z</time>
      </trkpt>
      <trkpt lat="45.00969" lon="0.36805">
        <ele>189</ele>
        <time>2012-03-13T13:27:38.000Z</time>
      </trkpt>
      <trkpt lat="45.00969" lon="0.36813">
        <ele>190</ele>
        <time>2012-03-13T13:27:40.000Z</time>
      </trkpt>
      <trkpt lat="45.00966" lon="0.3682">
        <ele>191</ele>
        <time>2012-03-13T13:27:42.000Z</time>
      </trkpt>
      <trkpt lat="45.00962" lon="0.36828">
        <ele>193</ele>
        <time>2012-03-13T13:27:44.000Z</time>
      </trkpt>
      <trkpt lat="45.00956" lon="0.36834">
        <ele>193</ele>
        <time>2012-03-13T13:27:46.000Z</time>
      </trkpt>
      <trkpt lat="45.00949" lon="0.36834">
        <ele>195</ele>
        <time>2012-03-13T13:27:47.000Z</time>
      </trkpt>
      <trkpt lat="45.00941" lon="0.36836">
        <ele>197</ele>
        <time>2012-03-13T13:27:49.000Z</time>
      </trkpt>
      <trkpt lat="45.00936" lon="0.36838">
        <ele>197</ele>
        <time>2012-03-13T13:27:50.000Z</time>
      </trkpt>
      <trkpt lat="45.00931" lon="0.3684">
        <ele>198</ele>
        <time>2012-03-13T13:27:51.000Z</time>
      </trkpt>
      <trkpt lat="45.00926" lon="0.36843">
        <ele>198</ele>
        <time>2012-03-13T13:27:52.000Z</time>
      </trkpt>
      <trkpt lat="45.0092" lon="0.36844">
        <ele>198</ele>
        <time>2012-03-13T13:27:53.000Z</time>
      </trkpt>
      <trkpt lat="45.00915" lon="0.36848">
        <ele>198</ele>
        <time>2012-03-13T13:27:54.000Z</time>
      </trkpt>
      <trkpt lat="45.0091" lon="0.3685">
        <ele>197</ele>
        <time>2012-03-13T13:27:55.000Z</time>
      </trkpt>
      <trkpt lat="45.00904" lon="0.36852">
        <ele>197</ele>
        <time>2012-03-13T13:27:56.000Z</time>
      </trkpt>
      <trkpt lat="45.00899" lon="0.36854">
        <ele>196</ele>
        <time>2012-03-13T13:27:57.000Z</time>
      </trkpt>
      <trkpt lat="45.0089" lon="0.36858">
        <ele>195</ele>
        <time>2012-03-13T13:27:59.000Z</time>
      </trkpt>
      <trkpt lat="45.00882" lon="0.36861">
        <ele>193</ele>
        <time>2012-03-13T13:28:01.000Z</time>
      </trkpt>
      <trkpt lat="45.00876" lon="0.36864">
        <ele>192</ele>
        <time>2012-03-13T13:28:02.000Z</time>
      </trkpt>
      <trkpt lat="45.00869" lon="0.36867">
        <ele>192</ele>
        <time>2012-03-13T13:28:03.000Z</time>
      </trkpt>
      <trkpt lat="45.00862" lon="0.36869">
        <ele>192</ele>
        <time>2012-03-13T13:28:04.000Z</time>
      </trkpt>
      <trkpt lat="45.00854" lon="0.36871">
        <ele>192</ele>
        <time>2012-03-13T13:28:05.000Z</time>
      </trkpt>
      <trkpt lat="45.00846" lon="0.36872">
        <ele>192</ele>
        <time>2012-03-13T13:28:06.000Z</time>
      </trkpt>
      <trkpt lat="45.0084" lon="0.36873">
        <ele>193</ele>
        <time>2012-03-13T13:28:07.000Z</time>
      </trkpt>
      <trkpt lat="45.00834" lon="0.36874">
        <ele>191</ele>
        <time>2012-03-13T13:28:08.000Z</time>
      </trkpt>
      <trkpt lat="45.00828" lon="0.36875">
        <ele>190</ele>
        <time>2012-03-13T13:28:09.000Z</time>
      </trkpt>
      <trkpt lat="45.00821" lon="0.36876">
        <ele>190</ele>
        <time>2012-03-13T13:28:10.000Z</time>
      </trkpt>
      <trkpt lat="45.00813" lon="0.36879">
        <ele>188</ele>
        <time>2012-03-13T13:28:11.000Z</time>
      </trkpt>
      <trkpt lat="45.00806" lon="0.36882">
        <ele>187</ele>
        <time>2012-03-13T13:28:12.000Z</time>
      </trkpt>
      <trkpt lat="45.00798" lon="0.36886">
        <ele>187</ele>
        <time>2012-03-13T13:28:13.000Z</time>
      </trkpt>
      <trkpt lat="45.00791" lon="0.36887">
        <ele>187</ele>
        <time>2012-03-13T13:28:14.000Z</time>
      </trkpt>
      <trkpt lat="45.00784" lon="0.36888">
        <ele>187</ele>
        <time>2012-03-13T13:28:15.000Z</time>
      </trkpt>
      <trkpt lat="45.00778" lon="0.36891">
        <ele>186</ele>
        <time>2012-03-13T13:28:16.000Z</time>
      </trkpt>
      <trkpt lat="45.00771" lon="0.36894">
        <ele>187</ele>
        <time>2012-03-13T13:28:17.000Z</time>
      </trkpt>
      <trkpt lat="45.00762" lon="0.36897">
        <ele>186</ele>
        <time>2012-03-13T13:28:18.000Z</time>
      </trkpt>
      <trkpt lat="45.00754" lon="0.36899">
        <ele>186</ele>
        <time>2012-03-13T13:28:19.000Z</time>
      </trkpt>
      <trkpt lat="45.00747" lon="0.36902">
        <ele>186</ele>
        <time>2012-03-13T13:28:20.000Z</time>
      </trkpt>
      <trkpt lat="45.00738" lon="0.36906">
        <ele>184</ele>
        <time>2012-03-13T13:28:21.000Z</time>
      </trkpt>
      <trkpt lat="45.00729" lon="0.36909">
        <ele>182</ele>
        <time>2012-03-13T13:28:22.000Z</time>
      </trkpt>
      <trkpt lat="45.00711" lon="0.36912">
        <ele>180</ele>
        <time>2012-03-13T13:28:24.000Z</time>
      </trkpt>
      <trkpt lat="45.00702" lon="0.36912">
        <ele>179</ele>
        <time>2012-03-13T13:28:25.000Z</time>
      </trkpt>
      <trkpt lat="45.00694" lon="0.36914">
        <ele>178</ele>
        <time>2012-03-13T13:28:26.000Z</time>
      </trkpt>
      <trkpt lat="45.00686" lon="0.36916">
        <ele>178</ele>
        <time>2012-03-13T13:28:27.000Z</time>
      </trkpt>
      <trkpt lat="45.00675" lon="0.36917">
        <ele>177</ele>
        <time>2012-03-13T13:28:28.000Z</time>
      </trkpt>
      <trkpt lat="45.00667" lon="0.36918">
        <ele>175</ele>
        <time>2012-03-13T13:28:29.000Z</time>
      </trkpt>
      <trkpt lat="45.0066" lon="0.36921">
        <ele>173</ele>
        <time>2012-03-13T13:28:30.000Z</time>
      </trkpt>
      <trkpt lat="45.00652" lon="0.36922">
        <ele>172</ele>
        <time>2012-03-13T13:28:31.000Z</time>
      </trkpt>
      <trkpt lat="45.00645" lon="0.36923">
        <ele>172</ele>
        <time>2012-03-13T13:28:32.000Z</time>
      </trkpt>
      <trkpt lat="45.00639" lon="0.36924">
        <ele>171</ele>
        <time>2012-03-13T13:28:33.000Z</time>
      </trkpt>
      <trkpt lat="45.00632" lon="0.36927">
        <ele>171</ele>
        <time>2012-03-13T13:28:34.000Z</time>
      </trkpt>
      <trkpt lat="45.00625" lon="0.36931">
        <ele>169</ele>
        <time>2012-03-13T13:28:35.000Z</time>
      </trkpt>
      <trkpt lat="45.0062" lon="0.36937">
        <ele>168</ele>
        <time>2012-03-13T13:28:36.000Z</time>
      </trkpt>
      <trkpt lat="45.00614" lon="0.3694">
        <ele>166</ele>
        <time>2012-03-13T13:28:37.000Z</time>
      </trkpt>
      <trkpt lat="45.00608" lon="0.3694">
        <ele>167</ele>
        <time>2012-03-13T13:28:38.000Z</time>
      </trkpt>
      <trkpt lat="45.00602" lon="0.3694">
        <ele>167</ele>
        <time>2012-03-13T13:28:39.000Z</time>
      </trkpt>
      <trkpt lat="45.00595" lon="0.36937">
        <ele>164</ele>
        <time>2012-03-13T13:28:41.000Z</time>
      </trkpt>
      <trkpt lat="45.00589" lon="0.3693">
        <ele>163</ele>
        <time>2012-03-13T13:28:43.000Z</time>
      </trkpt>
      <trkpt lat="45.00584" lon="0.36922">
        <ele>160</ele>
        <time>2012-03-13T13:28:45.000Z</time>
      </trkpt>
      <trkpt lat="45.0058" lon="0.36914">
        <ele>156</ele>
        <time>2012-03-13T13:28:47.000Z</time>
      </trkpt>
      <trkpt lat="45.00579" lon="0.36907">
        <ele>155</ele>
        <time>2012-03-13T13:28:48.000Z</time>
      </trkpt>
      <trkpt lat="45.00577" lon="0.369">
        <ele>155</ele>
        <time>2012-03-13T13:28:50.000Z</time>
      </trkpt>
      <trkpt lat="45.00575" lon="0.36894">
        <ele>154</ele>
        <time>2012-03-13T13:28:55.000Z</time>
      </trkpt>
      <trkpt lat="45.00578" lon="0.36885">
        <ele>152</ele>
        <time>2012-03-13T13:28:58.000Z</time>
      </trkpt>
      <trkpt lat="45.00582" lon="0.36879">
        <ele>152</ele>
        <time>2012-03-13T13:29:00.000Z</time>
      </trkpt>
      <trkpt lat="45.00584" lon="0.36872">
        <ele>152</ele>
        <time>2012-03-13T13:29:02.000Z</time>
      </trkpt>
      <trkpt lat="45.00587" lon="0.36865">
        <ele>152</ele>
        <time>2012-03-13T13:29:04.000Z</time>
      </trkpt>
      <trkpt lat="45.00591" lon="0.36857">
        <ele>152</ele>
        <time>2012-03-13T13:29:06.000Z</time>
      </trkpt>
      <trkpt lat="45.00593" lon="0.3685">
        <ele>152</ele>
        <time>2012-03-13T13:29:08.000Z</time>
      </trkpt>
      <trkpt lat="45.00596" lon="0.36843">
        <ele>153</ele>
        <time>2012-03-13T13:29:10.000Z</time>
      </trkpt>
      <trkpt lat="45.00599" lon="0.36834">
        <ele>155</ele>
        <time>2012-03-13T13:29:12.000Z</time>
      </trkpt>
      <trkpt lat="45.00602" lon="0.36827">
        <ele>155</ele>
        <time>2012-03-13T13:29:14.000Z</time>
      </trkpt>
      <trkpt lat="45.00604" lon="0.3682">
        <ele>156</ele>
        <time>2012-03-13T13:29:16.000Z</time>
      </trkpt>
      <trkpt lat="45.00606" lon="0.36812">
        <ele>156</ele>
        <time>2012-03-13T13:29:18.000Z</time>
      </trkpt>
      <trkpt lat="45.00607" lon="0.36803">
        <ele>156</ele>
        <time>2012-03-13T13:29:20.000Z</time>
      </trkpt>
      <trkpt lat="45.00609" lon="0.36796">
        <ele>156</ele>
        <time>2012-03-13T13:29:22.000Z</time>
      </trkpt>
      <trkpt lat="45.0061" lon="0.36789">
        <ele>156</ele>
        <time>2012-03-13T13:29:24.000Z</time>
      </trkpt>
      <trkpt lat="45.00612" lon="0.36781">
        <ele>156</ele>
        <time>2012-03-13T13:29:26.000Z</time>
      </trkpt>
      <trkpt lat="45.00613" lon="0.36774">
        <ele>157</ele>
        <time>2012-03-13T13:29:28.000Z</time>
      </trkpt>
      <trkpt lat="45.00613" lon="0.36766">
        <ele>157</ele>
        <time>2012-03-13T13:29:30.000Z</time>
      </trkpt>
      <trkpt lat="45.00613" lon="0.36757">
        <ele>157</ele>
        <time>2012-03-13T13:29:32.000Z</time>
      </trkpt>
      <trkpt lat="45.00612" lon="0.36748">
        <ele>157</ele>
        <time>2012-03-13T13:29:34.000Z</time>
      </trkpt>
      <trkpt lat="45.00611" lon="0.3674">
        <ele>158</ele>
        <time>2012-03-13T13:29:36.000Z</time>
      </trkpt>
      <trkpt lat="45.0061" lon="0.36731">
        <ele>158</ele>
        <time>2012-03-13T13:29:38.000Z</time>
      </trkpt>
      <trkpt lat="45.00609" lon="0.36721">
        <ele>158</ele>
        <time>2012-03-13T13:29:40.000Z</time>
      </trkpt>
      <trkpt lat="45.00608" lon="0.36711">
        <ele>158</ele>
        <time>2012-03-13T13:29:42.000Z</time>
      </trkpt>
      <trkpt lat="45.00607" lon="0.36701">
        <ele>159</ele>
        <time>2012-03-13T13:29:44.000Z</time>
      </trkpt>
      <trkpt lat="45.00605" lon="0.36692">
        <ele>159</ele>
        <time>2012-03-13T13:29:46.000Z</time>
      </trkpt>
      <trkpt lat="45.00602" lon="0.36682">
        <ele>159</ele>
        <time>2012-03-13T13:29:48.000Z</time>
      </trkpt>
      <trkpt lat="45.006" lon="0.36671">
        <ele>159</ele>
        <time>2012-03-13T13:29:50.000Z</time>
      </trkpt>
      <trkpt lat="45.00598" lon="0.36665">
        <ele>159</ele>
        <time>2012-03-13T13:29:51.000Z</time>
      </trkpt>
      <trkpt lat="45.00592" lon="0.36653">
        <ele>158</ele>
        <time>2012-03-13T13:29:53.000Z</time>
      </trkpt>
      <trkpt lat="45.00587" lon="0.36646">
        <ele>157</ele>
        <time>2012-03-13T13:29:54.000Z</time>
      </trkpt>
      <trkpt lat="45.00582" lon="0.3664">
        <ele>157</ele>
        <time>2012-03-13T13:29:55.000Z</time>
      </trkpt>
      <trkpt lat="45.00576" lon="0.36634">
        <ele>156</ele>
        <time>2012-03-13T13:29:56.000Z</time>
      </trkpt>
      <trkpt lat="45.0057" lon="0.36628">
        <ele>156</ele>
        <time>2012-03-13T13:29:57.000Z</time>
      </trkpt>
      <trkpt lat="45.00565" lon="0.36622">
        <ele>156</ele>
        <time>2012-03-13T13:29:58.000Z</time>
      </trkpt>
      <trkpt lat="45.0056" lon="0.36618">
        <ele>156</ele>
        <time>2012-03-13T13:29:59.000Z</time>
      </trkpt>
      <trkpt lat="45.00557" lon="0.36613">
        <ele>156</ele>
        <time>2012-03-13T13:30:00.000Z</time>
      </trkpt>
      <trkpt lat="45.0055" lon="0.36607">
        <ele>156</ele>
        <time>2012-03-13T13:30:02.000Z</time>
      </trkpt>
      <trkpt lat="45.00547" lon="0.36601">
        <ele>156</ele>
        <time>2012-03-13T13:30:04.000Z</time>
      </trkpt>
      <trkpt lat="45.00541" lon="0.36596">
        <ele>158</ele>
        <time>2012-03-13T13:30:06.000Z</time>
      </trkpt>
      <trkpt lat="45.00537" lon="0.3659">
        <ele>159</ele>
        <time>2012-03-13T13:30:08.000Z</time>
      </trkpt>
      <trkpt lat="45.00533" lon="0.36586">
        <ele>162</ele>
        <time>2012-03-13T13:30:10.000Z</time>
      </trkpt>
      <trkpt lat="45.00528" lon="0.36582">
        <ele>163</ele>
        <time>2012-03-13T13:30:12.000Z</time>
      </trkpt>
      <trkpt lat="45.00525" lon="0.36578">
        <ele>164</ele>
        <time>2012-03-13T13:30:14.000Z</time>
      </trkpt>
      <trkpt lat="45.0052" lon="0.36575">
        <ele>166</ele>
        <time>2012-03-13T13:30:16.000Z</time>
      </trkpt>
      <trkpt lat="45.00516" lon="0.36571">
        <ele>167</ele>
        <time>2012-03-13T13:30:18.000Z</time>
      </trkpt>
      <trkpt lat="45.00513" lon="0.36566">
        <ele>168</ele>
        <time>2012-03-13T13:30:20.000Z</time>
      </trkpt>
      <trkpt lat="45.00508" lon="0.36562">
        <ele>169</ele>
        <time>2012-03-13T13:30:22.000Z</time>
      </trkpt>
      <trkpt lat="45.00505" lon="0.36558">
        <ele>170</ele>
        <time>2012-03-13T13:30:24.000Z</time>
      </trkpt>
      <trkpt lat="45.00499" lon="0.36553">
        <ele>171</ele>
        <time>2012-03-13T13:30:27.000Z</time>
      </trkpt>
      <trkpt lat="45.00494" lon="0.36548">
        <ele>173</ele>
        <time>2012-03-13T13:30:30.000Z</time>
      </trkpt>
      <trkpt lat="45.00488" lon="0.36543">
        <ele>175</ele>
        <time>2012-03-13T13:30:33.000Z</time>
      </trkpt>
      <trkpt lat="45.00484" lon="0.3654">
        <ele>176</ele>
        <time>2012-03-13T13:30:35.000Z</time>
      </trkpt>
      <trkpt lat="45.0048" lon="0.36533">
        <ele>177</ele>
        <time>2012-03-13T13:30:38.000Z</time>
      </trkpt>
      <trkpt lat="45.00476" lon="0.36528">
        <ele>177</ele>
        <time>2012-03-13T13:30:40.000Z</time>
      </trkpt>
      <trkpt lat="45.00473" lon="0.36522">
        <ele>178</ele>
        <time>2012-03-13T13:30:42.000Z</time>
      </trkpt>
      <trkpt lat="45.00469" lon="0.36516">
        <ele>178</ele>
        <time>2012-03-13T13:30:44.000Z</time>
      </trkpt>
      <trkpt lat="45.00466" lon="0.36508">
        <ele>178</ele>
        <time>2012-03-13T13:30:46.000Z</time>
      </trkpt>
      <trkpt lat="45.00463" lon="0.36498">
        <ele>178</ele>
        <time>2012-03-13T13:30:48.000Z</time>
      </trkpt>
      <trkpt lat="45.00461" lon="0.36489">
        <ele>178</ele>
        <time>2012-03-13T13:30:50.000Z</time>
      </trkpt>
      <trkpt lat="45.00459" lon="0.36478">
        <ele>178</ele>
        <time>2012-03-13T13:30:52.000Z</time>
      </trkpt>
      <trkpt lat="45.00458" lon="0.36469">
        <ele>178</ele>
        <time>2012-03-13T13:30:54.000Z</time>
      </trkpt>
      <trkpt lat="45.00455" lon="0.36459">
        <ele>179</ele>
        <time>2012-03-13T13:30:56.000Z</time>
      </trkpt>
      <trkpt lat="45.00453" lon="0.36449">
        <ele>179</ele>
        <time>2012-03-13T13:30:58.000Z</time>
      </trkpt>
      <trkpt lat="45.00451" lon="0.36439">
        <ele>180</ele>
        <time>2012-03-13T13:31:00.000Z</time>
      </trkpt>
      <trkpt lat="45.00449" lon="0.36429">
        <ele>180</ele>
        <time>2012-03-13T13:31:02.000Z</time>
      </trkpt>
      <trkpt lat="45.00447" lon="0.36419">
        <ele>180</ele>
        <time>2012-03-13T13:31:04.000Z</time>
      </trkpt>
      <trkpt lat="45.00445" lon="0.36408">
        <ele>180</ele>
        <time>2012-03-13T13:31:06.000Z</time>
      </trkpt>
      <trkpt lat="45.00442" lon="0.36397">
        <ele>180</ele>
        <time>2012-03-13T13:31:08.000Z</time>
      </trkpt>
      <trkpt lat="45.0044" lon="0.36385">
        <ele>179</ele>
        <time>2012-03-13T13:31:10.000Z</time>
      </trkpt>
      <trkpt lat="45.00438" lon="0.36378">
        <ele>179</ele>
        <time>2012-03-13T13:31:11.000Z</time>
      </trkpt>
      <trkpt lat="45.00437" lon="0.36372">
        <ele>179</ele>
        <time>2012-03-13T13:31:12.000Z</time>
      </trkpt>
      <trkpt lat="45.00436" lon="0.36365">
        <ele>179</ele>
        <time>2012-03-13T13:31:13.000Z</time>
      </trkpt>
      <trkpt lat="45.00434" lon="0.36354">
        <ele>178</ele>
        <time>2012-03-13T13:31:15.000Z</time>
      </trkpt>
      <trkpt lat="45.00432" lon="0.36342">
        <ele>178</ele>
        <time>2012-03-13T13:31:17.000Z</time>
      </trkpt>
      <trkpt lat="45.00431" lon="0.36335">
        <ele>178</ele>
        <time>2012-03-13T13:31:18.000Z</time>
      </trkpt>
      <trkpt lat="45.00429" lon="0.36328">
        <ele>177</ele>
        <time>2012-03-13T13:31:19.000Z</time>
      </trkpt>
      <trkpt lat="45.00428" lon="0.36321">
        <ele>177</ele>
        <time>2012-03-13T13:31:20.000Z</time>
      </trkpt>
      <trkpt lat="45.00427" lon="0.36313">
        <ele>176</ele>
        <time>2012-03-13T13:31:21.000Z</time>
      </trkpt>
      <trkpt lat="45.00426" lon="0.36304">
        <ele>175</ele>
        <time>2012-03-13T13:31:22.000Z</time>
      </trkpt>
      <trkpt lat="45.00424" lon="0.36283">
        <ele>173</ele>
        <time>2012-03-13T13:31:24.000Z</time>
      </trkpt>
      <trkpt lat="45.00423" lon="0.36271">
        <ele>173</ele>
        <time>2012-03-13T13:31:25.000Z</time>
      </trkpt>
      <trkpt lat="45.00423" lon="0.36259">
        <ele>172</ele>
        <time>2012-03-13T13:31:26.000Z</time>
      </trkpt>
      <trkpt lat="45.00423" lon="0.36247">
        <ele>171</ele>
        <time>2012-03-13T13:31:27.000Z</time>
      </trkpt>
      <trkpt lat="45.00422" lon="0.36234">
        <ele>170</ele>
        <time>2012-03-13T13:31:28.000Z</time>
      </trkpt>
      <trkpt lat="45.00422" lon="0.36223">
        <ele>170</ele>
        <time>2012-03-13T13:31:29.000Z</time>
      </trkpt>
      <trkpt lat="45.00422" lon="0.36212">
        <ele>169</ele>
        <time>2012-03-13T13:31:30.000Z</time>
      </trkpt>
      <trkpt lat="45.00421" lon="0.36202">
        <ele>168</ele>
        <time>2012-03-13T13:31:31.000Z</time>
      </trkpt>
      <trkpt lat="45.00418" lon="0.36192">
        <ele>167</ele>
        <time>2012-03-13T13:31:32.000Z</time>
      </trkpt>
      <trkpt lat="45.00416" lon="0.36182">
        <ele>165</ele>
        <time>2012-03-13T13:31:33.000Z</time>
      </trkpt>
      <trkpt lat="45.00412" lon="0.36175">
        <ele>165</ele>
        <time>2012-03-13T13:31:34.000Z</time>
      </trkpt>
      <trkpt lat="45.00405" lon="0.36174">
        <ele>164</ele>
        <time>2012-03-13T13:31:36.000Z</time>
      </trkpt>
      <trkpt lat="45.00401" lon="0.36176">
        <ele>165</ele>
        <time>2012-03-13T13:31:37.000Z</time>
      </trkpt>
      <trkpt lat="45.00396" lon="0.36179">
        <ele>164</ele>
        <time>2012-03-13T13:31:38.000Z</time>
      </trkpt>
      <trkpt lat="45.0039" lon="0.36181">
        <ele>164</ele>
        <time>2012-03-13T13:31:39.000Z</time>
      </trkpt>
      <trkpt lat="45.00385" lon="0.36185">
        <ele>164</ele>
        <time>2012-03-13T13:31:40.000Z</time>
      </trkpt>
      <trkpt lat="45.00379" lon="0.36188">
        <ele>164</ele>
        <time>2012-03-13T13:31:41.000Z</time>
      </trkpt>
      <trkpt lat="45.00373" lon="0.3619">
        <ele>163</ele>
        <time>2012-03-13T13:31:42.000Z</time>
      </trkpt>
      <trkpt lat="45.00368" lon="0.36189">
        <ele>163</ele>
        <time>2012-03-13T13:31:43.000Z</time>
      </trkpt>
      <trkpt lat="45.00363" lon="0.3618">
        <ele>161</ele>
        <time>2012-03-13T13:31:45.000Z</time>
      </trkpt>
      <trkpt lat="45.00358" lon="0.36172">
        <ele>161</ele>
        <time>2012-03-13T13:31:47.000Z</time>
      </trkpt>
      <trkpt lat="45.00355" lon="0.36166">
        <ele>160</ele>
        <time>2012-03-13T13:31:50.000Z</time>
      </trkpt>
      <trkpt lat="45.00359" lon="0.36162">
        <ele>159</ele>
        <time>2012-03-13T13:32:03.000Z</time>
      </trkpt>
      <trkpt lat="45.00363" lon="0.36167">
        <ele>160</ele>
        <time>2012-03-13T13:32:07.000Z</time>
      </trkpt>
      <trkpt lat="45.00369" lon="0.36168">
        <ele>160</ele>
        <time>2012-03-13T13:32:10.000Z</time>
      </trkpt>
      <trkpt lat="45.00374" lon="0.36168">
        <ele>160</ele>
        <time>2012-03-13T13:32:12.000Z</time>
      </trkpt>
      <trkpt lat="45.0038" lon="0.36167">
        <ele>161</ele>
        <time>2012-03-13T13:32:15.000Z</time>
      </trkpt>
      <trkpt lat="45.00387" lon="0.36165">
        <ele>162</ele>
        <time>2012-03-13T13:32:18.000Z</time>
      </trkpt>
      <trkpt lat="45.00392" lon="0.36162">
        <ele>162</ele>
        <time>2012-03-13T13:32:20.000Z</time>
      </trkpt>
      <trkpt lat="45.00397" lon="0.36159">
        <ele>163</ele>
        <time>2012-03-13T13:32:22.000Z</time>
      </trkpt>
      <trkpt lat="45.00402" lon="0.36156">
        <ele>164</ele>
        <time>2012-03-13T13:32:24.000Z</time>
      </trkpt>
      <trkpt lat="45.00407" lon="0.36151">
        <ele>165</ele>
        <time>2012-03-13T13:32:26.000Z</time>
      </trkpt>
      <trkpt lat="45.0041" lon="0.36148">
        <ele>165</ele>
        <time>2012-03-13T13:32:28.000Z</time>
      </trkpt>
      <trkpt lat="45.00414" lon="0.36144">
        <ele>166</ele>
        <time>2012-03-13T13:32:30.000Z</time>
      </trkpt>
      <trkpt lat="45.00419" lon="0.36141">
        <ele>168</ele>
        <time>2012-03-13T13:32:32.000Z</time>
      </trkpt>
      <trkpt lat="45.00424" lon="0.36138">
        <ele>169</ele>
        <time>2012-03-13T13:32:34.000Z</time>
      </trkpt>
      <trkpt lat="45.0043" lon="0.3614">
        <ele>170</ele>
        <time>2012-03-13T13:32:37.000Z</time>
      </trkpt>
      <trkpt lat="45.00432" lon="0.36147">
        <ele>170</ele>
        <time>2012-03-13T13:32:39.000Z</time>
      </trkpt>
      <trkpt lat="45.00433" lon="0.36154">
        <ele>170</ele>
        <time>2012-03-13T13:32:41.000Z</time>
      </trkpt>
      <trkpt lat="45.00432" lon="0.36162">
        <ele>170</ele>
        <time>2012-03-13T13:32:43.000Z</time>
      </trkpt>
      <trkpt lat="45.00432" lon="0.36171">
        <ele>170</ele>
        <time>2012-03-13T13:32:45.000Z</time>
      </trkpt>
      <trkpt lat="45.00431" lon="0.3618">
        <ele>171</ele>
        <time>2012-03-13T13:32:47.000Z</time>
      </trkpt>
      <trkpt lat="45.00431" lon="0.36191">
        <ele>171</ele>
        <time>2012-03-13T13:32:49.000Z</time>
      </trkpt>
      <trkpt lat="45.00431" lon="0.36201">
        <ele>172</ele>
        <time>2012-03-13T13:32:51.000Z</time>
      </trkpt>
      <trkpt lat="45.00431" lon="0.36211">
        <ele>173</ele>
        <time>2012-03-13T13:32:53.000Z</time>
      </trkpt>
      <trkpt lat="45.00431" lon="0.36221">
        <ele>173</ele>
        <time>2012-03-13T13:32:55.000Z</time>
      </trkpt>
      <trkpt lat="45.00431" lon="0.36231">
        <ele>174</ele>
        <time>2012-03-13T13:32:57.000Z</time>
      </trkpt>
      <trkpt lat="45.00431" lon="0.3624">
        <ele>174</ele>
        <time>2012-03-13T13:32:59.000Z</time>
      </trkpt>
      <trkpt lat="45.00431" lon="0.36249">
        <ele>175</ele>
        <time>2012-03-13T13:33:01.000Z</time>
      </trkpt>
      <trkpt lat="45.00431" lon="0.36257">
        <ele>176</ele>
        <time>2012-03-13T13:33:03.000Z</time>
      </trkpt>
      <trkpt lat="45.00431" lon="0.36266">
        <ele>176</ele>
        <time>2012-03-13T13:33:05.000Z</time>
      </trkpt>
      <trkpt lat="45.00433" lon="0.36275">
        <ele>177</ele>
        <time>2012-03-13T13:33:07.000Z</time>
      </trkpt>
      <trkpt lat="45.00434" lon="0.36283">
        <ele>177</ele>
        <time>2012-03-13T13:33:09.000Z</time>
      </trkpt>
      <trkpt lat="45.00436" lon="0.3629">
        <ele>177</ele>
        <time>2012-03-13T13:33:11.000Z</time>
      </trkpt>
      <trkpt lat="45.00439" lon="0.36296">
        <ele>178</ele>
        <time>2012-03-13T13:33:14.000Z</time>
      </trkpt>
      <trkpt lat="45.00444" lon="0.36296">
        <ele>179</ele>
        <time>2012-03-13T13:33:18.000Z</time>
      </trkpt>
      <trkpt lat="45.00448" lon="0.36289">
        <ele>179</ele>
        <time>2012-03-13T13:33:21.000Z</time>
      </trkpt>
      <trkpt lat="45.00453" lon="0.36283">
        <ele>179</ele>
        <time>2012-03-13T13:33:23.000Z</time>
      </trkpt>
      <trkpt lat="45.00456" lon="0.36278">
        <ele>180</ele>
        <time>2012-03-13T13:33:25.000Z</time>
      </trkpt>
      <trkpt lat="45.00461" lon="0.36274">
        <ele>181</ele>
        <time>2012-03-13T13:33:27.000Z</time>
      </trkpt>
      <trkpt lat="45.00466" lon="0.3627">
        <ele>182</ele>
        <time>2012-03-13T13:33:29.000Z</time>
      </trkpt>
      <trkpt lat="45.0047" lon="0.36268">
        <ele>184</ele>
        <time>2012-03-13T13:33:31.000Z</time>
      </trkpt>
      <trkpt lat="45.00475" lon="0.36266">
        <ele>185</ele>
        <time>2012-03-13T13:33:33.000Z</time>
      </trkpt>
      <trkpt lat="45.0048" lon="0.36263">
        <ele>185</ele>
        <time>2012-03-13T13:33:35.000Z</time>
      </trkpt>
      <trkpt lat="45.00486" lon="0.36262">
        <ele>185</ele>
        <time>2012-03-13T13:33:38.000Z</time>
      </trkpt>
      <trkpt lat="45.00491" lon="0.36262">
        <ele>186</ele>
        <time>2012-03-13T13:33:40.000Z</time>
      </trkpt>
      <trkpt lat="45.00495" lon="0.36268">
        <ele>185</ele>
        <time>2012-03-13T13:33:42.000Z</time>
      </trkpt>
      <trkpt lat="45.005" lon="0.36264">
        <ele>186</ele>
        <time>2012-03-13T13:33:44.000Z</time>
      </trkpt>
      <trkpt lat="45.00505" lon="0.36259">
        <ele>187</ele>
        <time>2012-03-13T13:33:46.000Z</time>
      </trkpt>
      <trkpt lat="45.00508" lon="0.36252">
        <ele>187</ele>
        <time>2012-03-13T13:33:48.000Z</time>
      </trkpt>
      <trkpt lat="45.00514" lon="0.3625">
        <ele>189</ele>
        <time>2012-03-13T13:33:51.000Z</time>
      </trkpt>
      <trkpt lat="45.0052" lon="0.36246">
        <ele>191</ele>
        <time>2012-03-13T13:33:53.000Z</time>
      </trkpt>
      <trkpt lat="45.00524" lon="0.36242">
        <ele>191</ele>
        <time>2012-03-13T13:33:54.000Z</time>
      </trkpt>
      <trkpt lat="45.00528" lon="0.36234">
        <ele>191</ele>
        <time>2012-03-13T13:33:56.000Z</time>
      </trkpt>
      <trkpt lat="45.00532" lon="0.36226">
        <ele>191</ele>
        <time>2012-03-13T13:33:58.000Z</time>
      </trkpt>
      <trkpt lat="45.00532" lon="0.36215">
        <ele>190</ele>
        <time>2012-03-13T13:34:00.000Z</time>
      </trkpt>
      <trkpt lat="45.00532" lon="0.36209">
        <ele>189</ele>
        <time>2012-03-13T13:34:01.000Z</time>
      </trkpt>
      <trkpt lat="45.00533" lon="0.36202">
        <ele>189</ele>
        <time>2012-03-13T13:34:02.000Z</time>
      </trkpt>
      <trkpt lat="45.00534" lon="0.36194">
        <ele>189</ele>
        <time>2012-03-13T13:34:03.000Z</time>
      </trkpt>
      <trkpt lat="45.00533" lon="0.36185">
        <ele>188</ele>
        <time>2012-03-13T13:34:04.000Z</time>
      </trkpt>
      <trkpt lat="45.00534" lon="0.36175">
        <ele>188</ele>
        <time>2012-03-13T13:34:05.000Z</time>
      </trkpt>
      <trkpt lat="45.00532" lon="0.36165">
        <ele>188</ele>
        <time>2012-03-13T13:34:06.000Z</time>
      </trkpt>
      <trkpt lat="45.00532" lon="0.36156">
        <ele>188</ele>
        <time>2012-03-13T13:34:07.000Z</time>
      </trkpt>
      <trkpt lat="45.00532" lon="0.36146">
        <ele>188</ele>
        <time>2012-03-13T13:34:08.000Z</time>
      </trkpt>
      <trkpt lat="45.00535" lon="0.36137">
        <ele>188</ele>
        <time>2012-03-13T13:34:09.000Z</time>
      </trkpt>
      <trkpt lat="45.00537" lon="0.36129">
        <ele>188</ele>
        <time>2012-03-13T13:34:10.000Z</time>
      </trkpt>
      <trkpt lat="45.00538" lon="0.36122">
        <ele>188</ele>
        <time>2012-03-13T13:34:11.000Z</time>
      </trkpt>
      <trkpt lat="45.00541" lon="0.3611">
        <ele>188</ele>
        <time>2012-03-13T13:34:13.000Z</time>
      </trkpt>
      <trkpt lat="45.00543" lon="0.36101">
        <ele>189</ele>
        <time>2012-03-13T13:34:14.000Z</time>
      </trkpt>
      <trkpt lat="45.00546" lon="0.36093">
        <ele>189</ele>
        <time>2012-03-13T13:34:15.000Z</time>
      </trkpt>
      <trkpt lat="45.00549" lon="0.36084">
        <ele>190</ele>
        <time>2012-03-13T13:34:17.000Z</time>
      </trkpt>
      <trkpt lat="45.0055" lon="0.36074">
        <ele>190</ele>
        <time>2012-03-13T13:34:19.000Z</time>
      </trkpt>
      <trkpt lat="45.00546" lon="0.36069">
        <ele>189</ele>
        <time>2012-03-13T13:34:20.000Z</time>
      </trkpt>
      <trkpt lat="45.00542" lon="0.3606">
        <ele>189</ele>
        <time>2012-03-13T13:34:22.000Z</time>
      </trkpt>
      <trkpt lat="45.0054" lon="0.3605">
        <ele>188</ele>
        <time>2012-03-13T13:34:24.000Z</time>
      </trkpt>
      <trkpt lat="45.00538" lon="0.36042">
        <ele>187</ele>
        <time>2012-03-13T13:34:26.000Z</time>
      </trkpt>
      <trkpt lat="45.00535" lon="0.36036">
        <ele>184</ele>
        <time>2012-03-13T13:34:37.000Z</time>
      </trkpt>
      <trkpt lat="45.00534" lon="0.36029">
        <ele>183</ele>
        <time>2012-03-13T13:34:39.000Z</time>
      </trkpt>
      <trkpt lat="45.00531" lon="0.36019">
        <ele>181</ele>
        <time>2012-03-13T13:34:41.000Z</time>
      </trkpt>
      <trkpt lat="45.00526" lon="0.36016">
        <ele>181</ele>
        <time>2012-03-13T13:34:44.000Z</time>
      </trkpt>
      <trkpt lat="45.0052" lon="0.36017">
        <ele>182</ele>
        <time>2012-03-13T13:34:47.000Z</time>
      </trkpt>
      <trkpt lat="45.00511" lon="0.36016">
        <ele>192</ele>
        <time>2012-03-13T13:34:49.000Z</time>
      </trkpt>
      <trkpt lat="45.00506" lon="0.36014">
        <ele>197</ele>
        <time>2012-03-13T13:34:51.000Z</time>
      </trkpt>
      <trkpt lat="45.00501" lon="0.36013">
        <ele>198</ele>
        <time>2012-03-13T13:34:53.000Z</time>
      </trkpt>
      <trkpt lat="45.00497" lon="0.36011">
        <ele>198</ele>
        <time>2012-03-13T13:34:54.000Z</time>
      </trkpt>
      <trkpt lat="45.0049" lon="0.36006">
        <ele>198</ele>
        <time>2012-03-13T13:34:56.000Z</time>
      </trkpt>
      <trkpt lat="45.00485" lon="0.36003">
        <ele>197</ele>
        <time>2012-03-13T13:34:57.000Z</time>
      </trkpt>
      <trkpt lat="45.00487" lon="0.35993">
        <ele>192</ele>
        <time>2012-03-13T13:34:59.000Z</time>
      </trkpt>
      <trkpt lat="45.00485" lon="0.35982">
        <ele>187</ele>
        <time>2012-03-13T13:35:01.000Z</time>
      </trkpt>
      <trkpt lat="45.00484" lon="0.35969">
        <ele>185</ele>
        <time>2012-03-13T13:35:03.000Z</time>
      </trkpt>
      <trkpt lat="45.00485" lon="0.35961">
        <ele>185</ele>
        <time>2012-03-13T13:35:04.000Z</time>
      </trkpt>
      <trkpt lat="45.00488" lon="0.35951">
        <ele>184</ele>
        <time>2012-03-13T13:35:05.000Z</time>
      </trkpt>
      <trkpt lat="45.0049" lon="0.35942">
        <ele>183</ele>
        <time>2012-03-13T13:35:06.000Z</time>
      </trkpt>
      <trkpt lat="45.00496" lon="0.35931">
        <ele>180</ele>
        <time>2012-03-13T13:35:07.000Z</time>
      </trkpt>
      <trkpt lat="45.005" lon="0.3592">
        <ele>179</ele>
        <time>2012-03-13T13:35:08.000Z</time>
      </trkpt>
      <trkpt lat="45.00505" lon="0.35909">
        <ele>177</ele>
        <time>2012-03-13T13:35:09.000Z</time>
      </trkpt>
      <trkpt lat="45.00507" lon="0.35899">
        <ele>176</ele>
        <time>2012-03-13T13:35:10.000Z</time>
      </trkpt>
      <trkpt lat="45.00509" lon="0.3589">
        <ele>175</ele>
        <time>2012-03-13T13:35:11.000Z</time>
      </trkpt>
      <trkpt lat="45.00508" lon="0.35881">
        <ele>173</ele>
        <time>2012-03-13T13:35:12.000Z</time>
      </trkpt>
      <trkpt lat="45.00505" lon="0.35873">
        <ele>173</ele>
        <time>2012-03-13T13:35:13.000Z</time>
      </trkpt>
      <trkpt lat="45.005" lon="0.35868">
        <ele>173</ele>
        <time>2012-03-13T13:35:14.000Z</time>
      </trkpt>
      <trkpt lat="45.00492" lon="0.35868">
        <ele>172</ele>
        <time>2012-03-13T13:35:15.000Z</time>
      </trkpt>
      <trkpt lat="45.00485" lon="0.35864">
        <ele>171</ele>
        <time>2012-03-13T13:35:16.000Z</time>
      </trkpt>
      <trkpt lat="45.00478" lon="0.3586">
        <ele>170</ele>
        <time>2012-03-13T13:35:17.000Z</time>
      </trkpt>
      <trkpt lat="45.00472" lon="0.35856">
        <ele>169</ele>
        <time>2012-03-13T13:35:18.000Z</time>
      </trkpt>
      <trkpt lat="45.00465" lon="0.35852">
        <ele>168</ele>
        <time>2012-03-13T13:35:19.000Z</time>
      </trkpt>
      <trkpt lat="45.00459" lon="0.3585">
        <ele>168</ele>
        <time>2012-03-13T13:35:20.000Z</time>
      </trkpt>
      <trkpt lat="45.00453" lon="0.35849">
        <ele>168</ele>
        <time>2012-03-13T13:35:21.000Z</time>
      </trkpt>
      <trkpt lat="45.00446" lon="0.35847">
        <ele>167</ele>
        <time>2012-03-13T13:35:23.000Z</time>
      </trkpt>
      <trkpt lat="45.00441" lon="0.3584">
        <ele>166</ele>
        <time>2012-03-13T13:35:25.000Z</time>
      </trkpt>
      <trkpt lat="45.00436" lon="0.3583">
        <ele>164</ele>
        <time>2012-03-13T13:35:27.000Z</time>
      </trkpt>
      <trkpt lat="45.00431" lon="0.35818">
        <ele>160</ele>
        <time>2012-03-13T13:35:29.000Z</time>
      </trkpt>
      <trkpt lat="45.00426" lon="0.35813">
        <ele>159</ele>
        <time>2012-03-13T13:35:30.000Z</time>
      </trkpt>
      <trkpt lat="45.00421" lon="0.35809">
        <ele>159</ele>
        <time>2012-03-13T13:35:31.000Z</time>
      </trkpt>
      <trkpt lat="45.00417" lon="0.35806">
        <ele>159</ele>
        <time>2012-03-13T13:35:32.000Z</time>
      </trkpt>
      <trkpt lat="45.00412" lon="0.35803">
        <ele>158</ele>
        <time>2012-03-13T13:35:33.000Z</time>
      </trkpt>
      <trkpt lat="45.00409" lon="0.35799">
        <ele>158</ele>
        <time>2012-03-13T13:35:34.000Z</time>
      </trkpt>
      <trkpt lat="45.00404" lon="0.35794">
        <ele>158</ele>
        <time>2012-03-13T13:35:35.000Z</time>
      </trkpt>
      <trkpt lat="45.004" lon="0.35788">
        <ele>156</ele>
        <time>2012-03-13T13:35:36.000Z</time>
      </trkpt>
      <trkpt lat="45.00396" lon="0.35781">
        <ele>155</ele>
        <time>2012-03-13T13:35:37.000Z</time>
      </trkpt>
      <trkpt lat="45.00392" lon="0.35774">
        <ele>154</ele>
        <time>2012-03-13T13:35:38.000Z</time>
      </trkpt>
      <trkpt lat="45.00388" lon="0.35766">
        <ele>153</ele>
        <time>2012-03-13T13:35:39.000Z</time>
      </trkpt>
      <trkpt lat="45.00384" lon="0.35757">
        <ele>151</ele>
        <time>2012-03-13T13:35:40.000Z</time>
      </trkpt>
      <trkpt lat="45.00378" lon="0.35749">
        <ele>150</ele>
        <time>2012-03-13T13:35:41.000Z</time>
      </trkpt>
      <trkpt lat="45.00372" lon="0.35742">
        <ele>149</ele>
        <time>2012-03-13T13:35:42.000Z</time>
      </trkpt>
      <trkpt lat="45.00366" lon="0.35736">
        <ele>149</ele>
        <time>2012-03-13T13:35:43.000Z</time>
      </trkpt>
      <trkpt lat="45.0036" lon="0.35732">
        <ele>149</ele>
        <time>2012-03-13T13:35:44.000Z</time>
      </trkpt>
      <trkpt lat="45.00354" lon="0.3573">
        <ele>149</ele>
        <time>2012-03-13T13:35:45.000Z</time>
      </trkpt>
      <trkpt lat="45.00349" lon="0.35729">
        <ele>149</ele>
        <time>2012-03-13T13:35:46.000Z</time>
      </trkpt>
      <trkpt lat="45.00341" lon="0.35729">
        <ele>150</ele>
        <time>2012-03-13T13:35:48.000Z</time>
      </trkpt>
      <trkpt lat="45.00336" lon="0.35727">
        <ele>150</ele>
        <time>2012-03-13T13:35:50.000Z</time>
      </trkpt>
      <trkpt lat="45.00331" lon="0.35726">
        <ele>150</ele>
        <time>2012-03-13T13:35:52.000Z</time>
      </trkpt>
      <trkpt lat="45.00324" lon="0.35724">
        <ele>149</ele>
        <time>2012-03-13T13:35:54.000Z</time>
      </trkpt>
      <trkpt lat="45.00319" lon="0.35718">
        <ele>147</ele>
        <time>2012-03-13T13:35:56.000Z</time>
      </trkpt>
      <trkpt lat="45.00315" lon="0.35709">
        <ele>146</ele>
        <time>2012-03-13T13:35:58.000Z</time>
      </trkpt>
      <trkpt lat="45.00313" lon="0.35695">
        <ele>145</ele>
        <time>2012-03-13T13:36:00.000Z</time>
      </trkpt>
      <trkpt lat="45.00312" lon="0.35687">
        <ele>143</ele>
        <time>2012-03-13T13:36:01.000Z</time>
      </trkpt>
      <trkpt lat="45.0031" lon="0.35677">
        <ele>142</ele>
        <time>2012-03-13T13:36:02.000Z</time>
      </trkpt>
      <trkpt lat="45.00309" lon="0.35666">
        <ele>141</ele>
        <time>2012-03-13T13:36:03.000Z</time>
      </trkpt>
      <trkpt lat="45.00308" lon="0.35656">
        <ele>140</ele>
        <time>2012-03-13T13:36:04.000Z</time>
      </trkpt>
      <trkpt lat="45.00307" lon="0.35645">
        <ele>140</ele>
        <time>2012-03-13T13:36:05.000Z</time>
      </trkpt>
      <trkpt lat="45.00307" lon="0.35634">
        <ele>140</ele>
        <time>2012-03-13T13:36:06.000Z</time>
      </trkpt>
      <trkpt lat="45.00306" lon="0.35624">
        <ele>140</ele>
        <time>2012-03-13T13:36:07.000Z</time>
      </trkpt>
      <trkpt lat="45.00306" lon="0.35616">
        <ele>140</ele>
        <time>2012-03-13T13:36:08.000Z</time>
      </trkpt>
      <trkpt lat="45.00307" lon="0.35607">
        <ele>141</ele>
        <time>2012-03-13T13:36:09.000Z</time>
      </trkpt>
      <trkpt lat="45.00307" lon="0.35599">
        <ele>142</ele>
        <time>2012-03-13T13:36:10.000Z</time>
      </trkpt>
      <trkpt lat="45.00308" lon="0.35592">
        <ele>142</ele>
        <time>2012-03-13T13:36:11.000Z</time>
      </trkpt>
      <trkpt lat="45.00308" lon="0.35585">
        <ele>143</ele>
        <time>2012-03-13T13:36:12.000Z</time>
      </trkpt>
      <trkpt lat="45.00309" lon="0.35578">
        <ele>144</ele>
        <time>2012-03-13T13:36:13.000Z</time>
      </trkpt>
      <trkpt lat="45.0031" lon="0.35571">
        <ele>144</ele>
        <time>2012-03-13T13:36:14.000Z</time>
      </trkpt>
      <trkpt lat="45.0031" lon="0.35565">
        <ele>144</ele>
        <time>2012-03-13T13:36:15.000Z</time>
      </trkpt>
      <trkpt lat="45.00313" lon="0.35553">
        <ele>144</ele>
        <time>2012-03-13T13:36:17.000Z</time>
      </trkpt>
      <trkpt lat="45.00314" lon="0.35546">
        <ele>144</ele>
        <time>2012-03-13T13:36:18.000Z</time>
      </trkpt>
      <trkpt lat="45.00314" lon="0.35539">
        <ele>144</ele>
        <time>2012-03-13T13:36:19.000Z</time>
      </trkpt>
      <trkpt lat="45.00315" lon="0.35532">
        <ele>144</ele>
        <time>2012-03-13T13:36:20.000Z</time>
      </trkpt>
      <trkpt lat="45.00316" lon="0.3552">
        <ele>144</ele>
        <time>2012-03-13T13:36:22.000Z</time>
      </trkpt>
      <trkpt lat="45.00315" lon="0.35509">
        <ele>144</ele>
        <time>2012-03-13T13:36:24.000Z</time>
      </trkpt>
      <trkpt lat="45.00313" lon="0.35498">
        <ele>143</ele>
        <time>2012-03-13T13:36:26.000Z</time>
      </trkpt>
      <trkpt lat="45.00308" lon="0.35489">
        <ele>143</ele>
        <time>2012-03-13T13:36:28.000Z</time>
      </trkpt>
      <trkpt lat="45.00304" lon="0.35483">
        <ele>143</ele>
        <time>2012-03-13T13:36:29.000Z</time>
      </trkpt>
      <trkpt lat="45.00303" lon="0.35473">
        <ele>143</ele>
        <time>2012-03-13T13:36:30.000Z</time>
      </trkpt>
      <trkpt lat="45.003" lon="0.35464">
        <ele>142</ele>
        <time>2012-03-13T13:36:31.000Z</time>
      </trkpt>
      <trkpt lat="45.00299" lon="0.35453">
        <ele>142</ele>
        <time>2012-03-13T13:36:32.000Z</time>
      </trkpt>
      <trkpt lat="45.00299" lon="0.3544">
        <ele>142</ele>
        <time>2012-03-13T13:36:33.000Z</time>
      </trkpt>
      <trkpt lat="45.00297" lon="0.35428">
        <ele>142</ele>
        <time>2012-03-13T13:36:34.000Z</time>
      </trkpt>
      <trkpt lat="45.00297" lon="0.35415">
        <ele>141</ele>
        <time>2012-03-13T13:36:35.000Z</time>
      </trkpt>
      <trkpt lat="45.00297" lon="0.354">
        <ele>140</ele>
        <time>2012-03-13T13:36:36.000Z</time>
      </trkpt>
      <trkpt lat="45.00298" lon="0.35387">
        <ele>140</ele>
        <time>2012-03-13T13:36:37.000Z</time>
      </trkpt>
      <trkpt lat="45.00299" lon="0.35374">
        <ele>138</ele>
        <time>2012-03-13T13:36:38.000Z</time>
      </trkpt>
      <trkpt lat="45.00299" lon="0.35361">
        <ele>137</ele>
        <time>2012-03-13T13:36:39.000Z</time>
      </trkpt>
      <trkpt lat="45.00302" lon="0.35345">
        <ele>136</ele>
        <time>2012-03-13T13:36:40.000Z</time>
      </trkpt>
      <trkpt lat="45.00304" lon="0.35331">
        <ele>136</ele>
        <time>2012-03-13T13:36:41.000Z</time>
      </trkpt>
      <trkpt lat="45.00305" lon="0.35318">
        <ele>135</ele>
        <time>2012-03-13T13:36:42.000Z</time>
      </trkpt>
      <trkpt lat="45.00306" lon="0.35306">
        <ele>135</ele>
        <time>2012-03-13T13:36:43.000Z</time>
      </trkpt>
      <trkpt lat="45.00307" lon="0.35293">
        <ele>134</ele>
        <time>2012-03-13T13:36:44.000Z</time>
      </trkpt>
      <trkpt lat="45.00307" lon="0.35281">
        <ele>134</ele>
        <time>2012-03-13T13:36:45.000Z</time>
      </trkpt>
      <trkpt lat="45.00306" lon="0.35269">
        <ele>134</ele>
        <time>2012-03-13T13:36:46.000Z</time>
      </trkpt>
      <trkpt lat="45.00302" lon="0.35256">
        <ele>133</ele>
        <time>2012-03-13T13:36:47.000Z</time>
      </trkpt>
      <trkpt lat="45.003" lon="0.35245">
        <ele>132</ele>
        <time>2012-03-13T13:36:48.000Z</time>
      </trkpt>
      <trkpt lat="45.00298" lon="0.35232">
        <ele>131</ele>
        <time>2012-03-13T13:36:49.000Z</time>
      </trkpt>
      <trkpt lat="45.00296" lon="0.35218">
        <ele>131</ele>
        <time>2012-03-13T13:36:50.000Z</time>
      </trkpt>
      <trkpt lat="45.00296" lon="0.35205">
        <ele>130</ele>
        <time>2012-03-13T13:36:51.000Z</time>
      </trkpt>
      <trkpt lat="45.00296" lon="0.35191">
        <ele>130</ele>
        <time>2012-03-13T13:36:52.000Z</time>
      </trkpt>
      <trkpt lat="45.00297" lon="0.35177">
        <ele>129</ele>
        <time>2012-03-13T13:36:53.000Z</time>
      </trkpt>
      <trkpt lat="45.00298" lon="0.35163">
        <ele>129</ele>
        <time>2012-03-13T13:36:54.000Z</time>
      </trkpt>
      <trkpt lat="45.00299" lon="0.35149">
        <ele>127</ele>
        <time>2012-03-13T13:36:55.000Z</time>
      </trkpt>
      <trkpt lat="45.00299" lon="0.35134">
        <ele>126</ele>
        <time>2012-03-13T13:36:56.000Z</time>
      </trkpt>
      <trkpt lat="45.003" lon="0.35119">
        <ele>126</ele>
        <time>2012-03-13T13:36:57.000Z</time>
      </trkpt>
      <trkpt lat="45.00301" lon="0.35104">
        <ele>125</ele>
        <time>2012-03-13T13:36:58.000Z</time>
      </trkpt>
      <trkpt lat="45.00303" lon="0.35089">
        <ele>125</ele>
        <time>2012-03-13T13:36:59.000Z</time>
      </trkpt>
      <trkpt lat="45.00306" lon="0.35074">
        <ele>123</ele>
        <time>2012-03-13T13:37:00.000Z</time>
      </trkpt>
      <trkpt lat="45.0031" lon="0.3506">
        <ele>123</ele>
        <time>2012-03-13T13:37:01.000Z</time>
      </trkpt>
      <trkpt lat="45.00315" lon="0.35047">
        <ele>122</ele>
        <time>2012-03-13T13:37:02.000Z</time>
      </trkpt>
      <trkpt lat="45.00321" lon="0.35034">
        <ele>121</ele>
        <time>2012-03-13T13:37:03.000Z</time>
      </trkpt>
      <trkpt lat="45.00328" lon="0.35023">
        <ele>120</ele>
        <time>2012-03-13T13:37:04.000Z</time>
      </trkpt>
      <trkpt lat="45.00334" lon="0.35011">
        <ele>120</ele>
        <time>2012-03-13T13:37:05.000Z</time>
      </trkpt>
      <trkpt lat="45.00339" lon="0.34998">
        <ele>119</ele>
        <time>2012-03-13T13:37:06.000Z</time>
      </trkpt>
      <trkpt lat="45.00343" lon="0.34986">
        <ele>119</ele>
        <time>2012-03-13T13:37:07.000Z</time>
      </trkpt>
      <trkpt lat="45.00344" lon="0.34975">
        <ele>119</ele>
        <time>2012-03-13T13:37:08.000Z</time>
      </trkpt>
      <trkpt lat="45.00344" lon="0.34967">
        <ele>118</ele>
        <time>2012-03-13T13:37:09.000Z</time>
      </trkpt>
      <trkpt lat="45.00343" lon="0.34956">
        <ele>118</ele>
        <time>2012-03-13T13:37:11.000Z</time>
      </trkpt>
      <trkpt lat="45.00336" lon="0.34956">
        <ele>118</ele>
        <time>2012-03-13T13:37:13.000Z</time>
      </trkpt>
      <trkpt lat="45.00328" lon="0.34958">
        <ele>118</ele>
        <time>2012-03-13T13:37:15.000Z</time>
      </trkpt>
      <trkpt lat="45.00318" lon="0.34963">
        <ele>118</ele>
        <time>2012-03-13T13:37:17.000Z</time>
      </trkpt>
      <trkpt lat="45.00313" lon="0.34965">
        <ele>118</ele>
        <time>2012-03-13T13:37:18.000Z</time>
      </trkpt>
      <trkpt lat="45.00309" lon="0.34968">
        <ele>118</ele>
        <time>2012-03-13T13:37:19.000Z</time>
      </trkpt>
      <trkpt lat="45.00304" lon="0.34971">
        <ele>118</ele>
        <time>2012-03-13T13:37:20.000Z</time>
      </trkpt>
      <trkpt lat="45.00299" lon="0.34973">
        <ele>118</ele>
        <time>2012-03-13T13:37:21.000Z</time>
      </trkpt>
      <trkpt lat="45.00294" lon="0.34975">
        <ele>118</ele>
        <time>2012-03-13T13:37:22.000Z</time>
      </trkpt>
      <trkpt lat="45.00285" lon="0.34979">
        <ele>118</ele>
        <time>2012-03-13T13:37:24.000Z</time>
      </trkpt>
      <trkpt lat="45.00269" lon="0.34989">
        <ele>118</ele>
        <time>2012-03-13T13:37:28.000Z</time>
      </trkpt>
      <trkpt lat="45.00263" lon="0.3499">
        <ele>118</ele>
        <time>2012-03-13T13:37:29.000Z</time>
      </trkpt>
      <trkpt lat="45.00255" lon="0.34998">
        <ele>118</ele>
        <time>2012-03-13T13:37:31.000Z</time>
      </trkpt>
      <trkpt lat="45.00243" lon="0.35006">
        <ele>118</ele>
        <time>2012-03-13T13:37:33.000Z</time>
      </trkpt>
      <trkpt lat="45.00236" lon="0.35009">
        <ele>118</ele>
        <time>2012-03-13T13:37:34.000Z</time>
      </trkpt>
      <trkpt lat="45.00233" lon="0.35014">
        <ele>117</ele>
        <time>2012-03-13T13:37:35.000Z</time>
      </trkpt>
      <trkpt lat="45.00229" lon="0.35017">
        <ele>118</ele>
        <time>2012-03-13T13:37:36.000Z</time>
      </trkpt>
      <trkpt lat="45.00226" lon="0.35022">
        <ele>117</ele>
        <time>2012-03-13T13:37:37.000Z</time>
      </trkpt>
      <trkpt lat="45.00219" lon="0.35029">
        <ele>117</ele>
        <time>2012-03-13T13:37:39.000Z</time>
      </trkpt>
      <trkpt lat="45.00215" lon="0.35033">
        <ele>116</ele>
        <time>2012-03-13T13:37:40.000Z</time>
      </trkpt>
      <trkpt lat="45.00209" lon="0.35043">
        <ele>116</ele>
        <time>2012-03-13T13:37:42.000Z</time>
      </trkpt>
      <trkpt lat="45.00206" lon="0.35048">
        <ele>116</ele>
        <time>2012-03-13T13:37:43.000Z</time>
      </trkpt>
      <trkpt lat="45.00203" lon="0.35053">
        <ele>116</ele>
        <time>2012-03-13T13:37:44.000Z</time>
      </trkpt>
      <trkpt lat="45.002" lon="0.35059">
        <ele>116</ele>
        <time>2012-03-13T13:37:45.000Z</time>
      </trkpt>
      <trkpt lat="45.00196" lon="0.35064">
        <ele>116</ele>
        <time>2012-03-13T13:37:46.000Z</time>
      </trkpt>
      <trkpt lat="45.00192" lon="0.35069">
        <ele>116</ele>
        <time>2012-03-13T13:37:47.000Z</time>
      </trkpt>
      <trkpt lat="45.0019" lon="0.35075">
        <ele>116</ele>
        <time>2012-03-13T13:37:48.000Z</time>
      </trkpt>
      <trkpt lat="45.00187" lon="0.3508">
        <ele>116</ele>
        <time>2012-03-13T13:37:49.000Z</time>
      </trkpt>
      <trkpt lat="45.00183" lon="0.35084">
        <ele>116</ele>
        <time>2012-03-13T13:37:50.000Z</time>
      </trkpt>
      <trkpt lat="45.0018" lon="0.35089">
        <ele>116</ele>
        <time>2012-03-13T13:37:51.000Z</time>
      </trkpt>
      <trkpt lat="45.00175" lon="0.35094">
        <ele>116</ele>
        <time>2012-03-13T13:37:52.000Z</time>
      </trkpt>
      <trkpt lat="45.0017" lon="0.35099">
        <ele>116</ele>
        <time>2012-03-13T13:37:53.000Z</time>
      </trkpt>
      <trkpt lat="45.00167" lon="0.35103">
        <ele>116</ele>
        <time>2012-03-13T13:37:54.000Z</time>
      </trkpt>
      <trkpt lat="45.00162" lon="0.35106">
        <ele>116</ele>
        <time>2012-03-13T13:37:55.000Z</time>
      </trkpt>
      <trkpt lat="45.00158" lon="0.3511">
        <ele>116</ele>
        <time>2012-03-13T13:37:56.000Z</time>
      </trkpt>
      <trkpt lat="45.00153" lon="0.35113">
        <ele>116</ele>
        <time>2012-03-13T13:37:57.000Z</time>
      </trkpt>
      <trkpt lat="45.00144" lon="0.35115">
        <ele>117</ele>
        <time>2012-03-13T13:37:59.000Z</time>
      </trkpt>
      <trkpt lat="45.00135" lon="0.35116">
        <ele>118</ele>
        <time>2012-03-13T13:38:01.000Z</time>
      </trkpt>
      <trkpt lat="45.00127" lon="0.35119">
        <ele>119</ele>
        <time>2012-03-13T13:38:03.000Z</time>
      </trkpt>
      <trkpt lat="45.00118" lon="0.35119">
        <ele>119</ele>
        <time>2012-03-13T13:38:05.000Z</time>
      </trkpt>
      <trkpt lat="45.00111" lon="0.35119">
        <ele>120</ele>
        <time>2012-03-13T13:38:07.000Z</time>
      </trkpt>
      <trkpt lat="45.00105" lon="0.3512">
        <ele>121</ele>
        <time>2012-03-13T13:38:09.000Z</time>
      </trkpt>
      <trkpt lat="45.00097" lon="0.3512">
        <ele>122</ele>
        <time>2012-03-13T13:38:11.000Z</time>
      </trkpt>
      <trkpt lat="45.00091" lon="0.35117">
        <ele>123</ele>
        <time>2012-03-13T13:38:13.000Z</time>
      </trkpt>
      <trkpt lat="45.00085" lon="0.35118">
        <ele>124</ele>
        <time>2012-03-13T13:38:15.000Z</time>
      </trkpt>
      <trkpt lat="45.00073" lon="0.35116">
        <ele>123</ele>
        <time>2012-03-13T13:38:17.000Z</time>
      </trkpt>
      <trkpt lat="45.00066" lon="0.35115">
        <ele>124</ele>
        <time>2012-03-13T13:38:18.000Z</time>
      </trkpt>
      <trkpt lat="45.0006" lon="0.35115">
        <ele>124</ele>
        <time>2012-03-13T13:38:19.000Z</time>
      </trkpt>
      <trkpt lat="45.00054" lon="0.35115">
        <ele>125</ele>
        <time>2012-03-13T13:38:20.000Z</time>
      </trkpt>
      <trkpt lat="45.00047" lon="0.35116">
        <ele>125</ele>
        <time>2012-03-13T13:38:21.000Z</time>
      </trkpt>
      <trkpt lat="45.00042" lon="0.35116">
        <ele>125</ele>
        <time>2012-03-13T13:38:22.000Z</time>
      </trkpt>
      <trkpt lat="45.00036" lon="0.35113">
        <ele>125</ele>
        <time>2012-03-13T13:38:23.000Z</time>
      </trkpt>
      <trkpt lat="45.0003" lon="0.35113">
        <ele>125</ele>
        <time>2012-03-13T13:38:24.000Z</time>
      </trkpt>
      <trkpt lat="45.0002" lon="0.35112">
        <ele>126</ele>
        <time>2012-03-13T13:38:26.000Z</time>
      </trkpt>
      <trkpt lat="45.00014" lon="0.35112">
        <ele>126</ele>
        <time>2012-03-13T13:38:27.000Z</time>
      </trkpt>
      <trkpt lat="45.00003" lon="0.35111">
        <ele>126</ele>
        <time>2012-03-13T13:38:29.000Z</time>
      </trkpt>
      <trkpt lat="44.99997" lon="0.35112">
        <ele>126</ele>
        <time>2012-03-13T13:38:30.000Z</time>
      </trkpt>
      <trkpt lat="44.99991" lon="0.35113">
        <ele>126</ele>
        <time>2012-03-13T13:38:31.000Z</time>
      </trkpt>
      <trkpt lat="44.99986" lon="0.35114">
        <ele>127</ele>
        <time>2012-03-13T13:38:32.000Z</time>
      </trkpt>
      <trkpt lat="44.99976" lon="0.35117">
        <ele>126</ele>
        <time>2012-03-13T13:38:34.000Z</time>
      </trkpt>
      <trkpt lat="44.99971" lon="0.3512">
        <ele>126</ele>
        <time>2012-03-13T13:38:35.000Z</time>
      </trkpt>
      <trkpt lat="44.99966" lon="0.35119">
        <ele>126</ele>
        <time>2012-03-13T13:38:36.000Z</time>
      </trkpt>
      <trkpt lat="44.99962" lon="0.35121">
        <ele>126</ele>
        <time>2012-03-13T13:38:37.000Z</time>
      </trkpt>
      <trkpt lat="44.99958" lon="0.35124">
        <ele>126</ele>
        <time>2012-03-13T13:38:38.000Z</time>
      </trkpt>
      <trkpt lat="44.99953" lon="0.35127">
        <ele>125</ele>
        <time>2012-03-13T13:38:39.000Z</time>
      </trkpt>
      <trkpt lat="44.99948" lon="0.35131">
        <ele>126</ele>
        <time>2012-03-13T13:38:40.000Z</time>
      </trkpt>
      <trkpt lat="44.99942" lon="0.35134">
        <ele>126</ele>
        <time>2012-03-13T13:38:41.000Z</time>
      </trkpt>
      <trkpt lat="44.99935" lon="0.35136">
        <ele>125</ele>
        <time>2012-03-13T13:38:42.000Z</time>
      </trkpt>
      <trkpt lat="44.9993" lon="0.35139">
        <ele>124</ele>
        <time>2012-03-13T13:38:43.000Z</time>
      </trkpt>
      <trkpt lat="44.99926" lon="0.35142">
        <ele>125</ele>
        <time>2012-03-13T13:38:44.000Z</time>
      </trkpt>
      <trkpt lat="44.99922" lon="0.35146">
        <ele>125</ele>
        <time>2012-03-13T13:38:45.000Z</time>
      </trkpt>
      <trkpt lat="44.99916" lon="0.35154">
        <ele>125</ele>
        <time>2012-03-13T13:38:47.000Z</time>
      </trkpt>
      <trkpt lat="44.9991" lon="0.35162">
        <ele>125</ele>
        <time>2012-03-13T13:38:49.000Z</time>
      </trkpt>
      <trkpt lat="44.99906" lon="0.35166">
        <ele>125</ele>
        <time>2012-03-13T13:38:50.000Z</time>
      </trkpt>
      <trkpt lat="44.99899" lon="0.35174">
        <ele>125</ele>
        <time>2012-03-13T13:38:52.000Z</time>
      </trkpt>
      <trkpt lat="44.99895" lon="0.35178">
        <ele>125</ele>
        <time>2012-03-13T13:38:53.000Z</time>
      </trkpt>
      <trkpt lat="44.99888" lon="0.35185">
        <ele>124</ele>
        <time>2012-03-13T13:38:55.000Z</time>
      </trkpt>
      <trkpt lat="44.99881" lon="0.35193">
        <ele>124</ele>
        <time>2012-03-13T13:38:57.000Z</time>
      </trkpt>
      <trkpt lat="44.99874" lon="0.352">
        <ele>123</ele>
        <time>2012-03-13T13:38:59.000Z</time>
      </trkpt>
      <trkpt lat="44.99867" lon="0.35207">
        <ele>123</ele>
        <time>2012-03-13T13:39:01.000Z</time>
      </trkpt>
      <trkpt lat="44.99862" lon="0.35215">
        <ele>122</ele>
        <time>2012-03-13T13:39:03.000Z</time>
      </trkpt>
      <trkpt lat="44.99849" lon="0.35229">
        <ele>121</ele>
        <time>2012-03-13T13:39:07.000Z</time>
      </trkpt>
      <trkpt lat="44.99843" lon="0.35237">
        <ele>122</ele>
        <time>2012-03-13T13:39:09.000Z</time>
      </trkpt>
      <trkpt lat="44.99837" lon="0.35245">
        <ele>122</ele>
        <time>2012-03-13T13:39:11.000Z</time>
      </trkpt>
      <trkpt lat="44.99832" lon="0.35253">
        <ele>122</ele>
        <time>2012-03-13T13:39:13.000Z</time>
      </trkpt>
      <trkpt lat="44.99827" lon="0.35261">
        <ele>123</ele>
        <time>2012-03-13T13:39:15.000Z</time>
      </trkpt>
      <trkpt lat="44.99824" lon="0.3527">
        <ele>123</ele>
        <time>2012-03-13T13:39:17.000Z</time>
      </trkpt>
      <trkpt lat="44.9982" lon="0.35278">
        <ele>124</ele>
        <time>2012-03-13T13:39:19.000Z</time>
      </trkpt>
      <trkpt lat="44.99816" lon="0.35287">
        <ele>125</ele>
        <time>2012-03-13T13:39:21.000Z</time>
      </trkpt>
      <trkpt lat="44.99812" lon="0.35302">
        <ele>125</ele>
        <time>2012-03-13T13:39:24.000Z</time>
      </trkpt>
      <trkpt lat="44.99808" lon="0.35311">
        <ele>124</ele>
        <time>2012-03-13T13:39:26.000Z</time>
      </trkpt>
      <trkpt lat="44.99806" lon="0.35321">
        <ele>123</ele>
        <time>2012-03-13T13:39:28.000Z</time>
      </trkpt>
      <trkpt lat="44.99804" lon="0.35332">
        <ele>122</ele>
        <time>2012-03-13T13:39:30.000Z</time>
      </trkpt>
      <trkpt lat="44.99802" lon="0.35342">
        <ele>123</ele>
        <time>2012-03-13T13:39:32.000Z</time>
      </trkpt>
      <trkpt lat="44.99801" lon="0.35351">
        <ele>124</ele>
        <time>2012-03-13T13:39:34.000Z</time>
      </trkpt>
      <trkpt lat="44.99797" lon="0.35362">
        <ele>125</ele>
        <time>2012-03-13T13:39:36.000Z</time>
      </trkpt>
      <trkpt lat="44.99793" lon="0.35374">
        <ele>125</ele>
        <time>2012-03-13T13:39:38.000Z</time>
      </trkpt>
      <trkpt lat="44.99791" lon="0.35379">
        <ele>126</ele>
        <time>2012-03-13T13:39:39.000Z</time>
      </trkpt>
      <trkpt lat="44.99787" lon="0.3539">
        <ele>126</ele>
        <time>2012-03-13T13:39:41.000Z</time>
      </trkpt>
      <trkpt lat="44.99784" lon="0.35396">
        <ele>126</ele>
        <time>2012-03-13T13:39:42.000Z</time>
      </trkpt>
      <trkpt lat="44.99782" lon="0.35402">
        <ele>126</ele>
        <time>2012-03-13T13:39:43.000Z</time>
      </trkpt>
      <trkpt lat="44.99778" lon="0.35408">
        <ele>126</ele>
        <time>2012-03-13T13:39:44.000Z</time>
      </trkpt>
      <trkpt lat="44.99775" lon="0.35414">
        <ele>125</ele>
        <time>2012-03-13T13:39:45.000Z</time>
      </trkpt>
      <trkpt lat="44.99771" lon="0.35421">
        <ele>126</ele>
        <time>2012-03-13T13:39:46.000Z</time>
      </trkpt>
      <trkpt lat="44.99768" lon="0.35427">
        <ele>126</ele>
        <time>2012-03-13T13:39:47.000Z</time>
      </trkpt>
      <trkpt lat="44.99764" lon="0.35434">
        <ele>126</ele>
        <time>2012-03-13T13:39:48.000Z</time>
      </trkpt>
      <trkpt lat="44.99761" lon="0.35442">
        <ele>125</ele>
        <time>2012-03-13T13:39:49.000Z</time>
      </trkpt>
      <trkpt lat="44.99759" lon="0.35449">
        <ele>125</ele>
        <time>2012-03-13T13:39:50.000Z</time>
      </trkpt>
      <trkpt lat="44.99756" lon="0.35456">
        <ele>124</ele>
        <time>2012-03-13T13:39:51.000Z</time>
      </trkpt>
      <trkpt lat="44.99754" lon="0.35464">
        <ele>124</ele>
        <time>2012-03-13T13:39:52.000Z</time>
      </trkpt>
      <trkpt lat="44.99752" lon="0.35472">
        <ele>125</ele>
        <time>2012-03-13T13:39:53.000Z</time>
      </trkpt>
      <trkpt lat="44.99752" lon="0.35479">
        <ele>125</ele>
        <time>2012-03-13T13:39:54.000Z</time>
      </trkpt>
      <trkpt lat="44.9975" lon="0.35486">
        <ele>125</ele>
        <time>2012-03-13T13:39:55.000Z</time>
      </trkpt>
      <trkpt lat="44.99749" lon="0.35494">
        <ele>125</ele>
        <time>2012-03-13T13:39:56.000Z</time>
      </trkpt>
      <trkpt lat="44.99749" lon="0.355">
        <ele>126</ele>
        <time>2012-03-13T13:39:57.000Z</time>
      </trkpt>
      <trkpt lat="44.99749" lon="0.35506">
        <ele>126</ele>
        <time>2012-03-13T13:39:58.000Z</time>
      </trkpt>
      <trkpt lat="44.99748" lon="0.35514">
        <ele>125</ele>
        <time>2012-03-13T13:39:59.000Z</time>
      </trkpt>
      <trkpt lat="44.99747" lon="0.3552">
        <ele>125</ele>
        <time>2012-03-13T13:40:00.000Z</time>
      </trkpt>
      <trkpt lat="44.99745" lon="0.35533">
        <ele>125</ele>
        <time>2012-03-13T13:40:02.000Z</time>
      </trkpt>
      <trkpt lat="44.99744" lon="0.35539">
        <ele>125</ele>
        <time>2012-03-13T13:40:03.000Z</time>
      </trkpt>
      <trkpt lat="44.99744" lon="0.35546">
        <ele>124</ele>
        <time>2012-03-13T13:40:04.000Z</time>
      </trkpt>
      <trkpt lat="44.99744" lon="0.35556">
        <ele>124</ele>
        <time>2012-03-13T13:40:06.000Z</time>
      </trkpt>
      <trkpt lat="44.99744" lon="0.35563">
        <ele>124</ele>
        <time>2012-03-13T13:40:07.000Z</time>
      </trkpt>
      <trkpt lat="44.99743" lon="0.3557">
        <ele>124</ele>
        <time>2012-03-13T13:40:08.000Z</time>
      </trkpt>
      <trkpt lat="44.99743" lon="0.35577">
        <ele>124</ele>
        <time>2012-03-13T13:40:09.000Z</time>
      </trkpt>
      <trkpt lat="44.99741" lon="0.35584">
        <ele>125</ele>
        <time>2012-03-13T13:40:10.000Z</time>
      </trkpt>
      <trkpt lat="44.99739" lon="0.35591">
        <ele>125</ele>
        <time>2012-03-13T13:40:11.000Z</time>
      </trkpt>
      <trkpt lat="44.99739" lon="0.35598">
        <ele>125</ele>
        <time>2012-03-13T13:40:12.000Z</time>
      </trkpt>
      <trkpt lat="44.99738" lon="0.35605">
        <ele>125</ele>
        <time>2012-03-13T13:40:13.000Z</time>
      </trkpt>
      <trkpt lat="44.99737" lon="0.35612">
        <ele>125</ele>
        <time>2012-03-13T13:40:14.000Z</time>
      </trkpt>
      <trkpt lat="44.99736" lon="0.35619">
        <ele>126</ele>
        <time>2012-03-13T13:40:15.000Z</time>
      </trkpt>
      <trkpt lat="44.99733" lon="0.35625">
        <ele>126</ele>
        <time>2012-03-13T13:40:16.000Z</time>
      </trkpt>
      <trkpt lat="44.99732" lon="0.35633">
        <ele>126</ele>
        <time>2012-03-13T13:40:17.000Z</time>
      </trkpt>
      <trkpt lat="44.99731" lon="0.3564">
        <ele>125</ele>
        <time>2012-03-13T13:40:18.000Z</time>
      </trkpt>
      <trkpt lat="44.9973" lon="0.35648">
        <ele>125</ele>
        <time>2012-03-13T13:40:19.000Z</time>
      </trkpt>
      <trkpt lat="44.9973" lon="0.35656">
        <ele>126</ele>
        <time>2012-03-13T13:40:20.000Z</time>
      </trkpt>
      <trkpt lat="44.99729" lon="0.35665">
        <ele>126</ele>
        <time>2012-03-13T13:40:21.000Z</time>
      </trkpt>
      <trkpt lat="44.99729" lon="0.35673">
        <ele>126</ele>
        <time>2012-03-13T13:40:22.000Z</time>
      </trkpt>
      <trkpt lat="44.99731" lon="0.35689">
        <ele>127</ele>
        <time>2012-03-13T13:40:24.000Z</time>
      </trkpt>
      <trkpt lat="44.99731" lon="0.35697">
        <ele>127</ele>
        <time>2012-03-13T13:40:25.000Z</time>
      </trkpt>
      <trkpt lat="44.99731" lon="0.35706">
        <ele>127</ele>
        <time>2012-03-13T13:40:26.000Z</time>
      </trkpt>
      <trkpt lat="44.99731" lon="0.35714">
        <ele>127</ele>
        <time>2012-03-13T13:40:27.000Z</time>
      </trkpt>
      <trkpt lat="44.99731" lon="0.35722">
        <ele>127</ele>
        <time>2012-03-13T13:40:28.000Z</time>
      </trkpt>
      <trkpt lat="44.9973" lon="0.35731">
        <ele>127</ele>
        <time>2012-03-13T13:40:29.000Z</time>
      </trkpt>
      <trkpt lat="44.99728" lon="0.3574">
        <ele>127</ele>
        <time>2012-03-13T13:40:30.000Z</time>
      </trkpt>
      <trkpt lat="44.99728" lon="0.3575">
        <ele>127</ele>
        <time>2012-03-13T13:40:31.000Z</time>
      </trkpt>
      <trkpt lat="44.99727" lon="0.3576">
        <ele>126</ele>
        <time>2012-03-13T13:40:32.000Z</time>
      </trkpt>
      <trkpt lat="44.99726" lon="0.35768">
        <ele>126</ele>
        <time>2012-03-13T13:40:33.000Z</time>
      </trkpt>
      <trkpt lat="44.99725" lon="0.35776">
        <ele>125</ele>
        <time>2012-03-13T13:40:34.000Z</time>
      </trkpt>
      <trkpt lat="44.99724" lon="0.35785">
        <ele>125</ele>
        <time>2012-03-13T13:40:35.000Z</time>
      </trkpt>
      <trkpt lat="44.99723" lon="0.35793">
        <ele>125</ele>
        <time>2012-03-13T13:40:36.000Z</time>
      </trkpt>
      <trkpt lat="44.99722" lon="0.35802">
        <ele>124</ele>
        <time>2012-03-13T13:40:37.000Z</time>
      </trkpt>
      <trkpt lat="44.9972" lon="0.3581">
        <ele>124</ele>
        <time>2012-03-13T13:40:38.000Z</time>
      </trkpt>
      <trkpt lat="44.9972" lon="0.35819">
        <ele>124</ele>
        <time>2012-03-13T13:40:39.000Z</time>
      </trkpt>
      <trkpt lat="44.99719" lon="0.35828">
        <ele>124</ele>
        <time>2012-03-13T13:40:40.000Z</time>
      </trkpt>
      <trkpt lat="44.99718" lon="0.35836">
        <ele>124</ele>
        <time>2012-03-13T13:40:41.000Z</time>
      </trkpt>
      <trkpt lat="44.99718" lon="0.35844">
        <ele>125</ele>
        <time>2012-03-13T13:40:42.000Z</time>
      </trkpt>
      <trkpt lat="44.99717" lon="0.35852">
        <ele>125</ele>
        <time>2012-03-13T13:40:43.000Z</time>
      </trkpt>
      <trkpt lat="44.99715" lon="0.3586">
        <ele>126</ele>
        <time>2012-03-13T13:40:44.000Z</time>
      </trkpt>
      <trkpt lat="44.99714" lon="0.35868">
        <ele>127</ele>
        <time>2012-03-13T13:40:45.000Z</time>
      </trkpt>
      <trkpt lat="44.99714" lon="0.35877">
        <ele>127</ele>
        <time>2012-03-13T13:40:46.000Z</time>
      </trkpt>
      <trkpt lat="44.99713" lon="0.35884">
        <ele>127</ele>
        <time>2012-03-13T13:40:47.000Z</time>
      </trkpt>
      <trkpt lat="44.99712" lon="0.35892">
        <ele>127</ele>
        <time>2012-03-13T13:40:48.000Z</time>
      </trkpt>
      <trkpt lat="44.99712" lon="0.35899">
        <ele>128</ele>
        <time>2012-03-13T13:40:49.000Z</time>
      </trkpt>
      <trkpt lat="44.99712" lon="0.35906">
        <ele>127</ele>
        <time>2012-03-13T13:40:50.000Z</time>
      </trkpt>
      <trkpt lat="44.9971" lon="0.35914">
        <ele>128</ele>
        <time>2012-03-13T13:40:51.000Z</time>
      </trkpt>
      <trkpt lat="44.99708" lon="0.35922">
        <ele>128</ele>
        <time>2012-03-13T13:40:52.000Z</time>
      </trkpt>
      <trkpt lat="44.99707" lon="0.35929">
        <ele>128</ele>
        <time>2012-03-13T13:40:53.000Z</time>
      </trkpt>
      <trkpt lat="44.99706" lon="0.35937">
        <ele>129</ele>
        <time>2012-03-13T13:40:54.000Z</time>
      </trkpt>
      <trkpt lat="44.99705" lon="0.35944">
        <ele>129</ele>
        <time>2012-03-13T13:40:55.000Z</time>
      </trkpt>
      <trkpt lat="44.99704" lon="0.35952">
        <ele>129</ele>
        <time>2012-03-13T13:40:56.000Z</time>
      </trkpt>
      <trkpt lat="44.99703" lon="0.35961">
        <ele>128</ele>
        <time>2012-03-13T13:40:57.000Z</time>
      </trkpt>
      <trkpt lat="44.99702" lon="0.35969">
        <ele>128</ele>
        <time>2012-03-13T13:40:58.000Z</time>
      </trkpt>
      <trkpt lat="44.997" lon="0.35979">
        <ele>128</ele>
        <time>2012-03-13T13:40:59.000Z</time>
      </trkpt>
      <trkpt lat="44.99699" lon="0.35988">
        <ele>127</ele>
        <time>2012-03-13T13:41:00.000Z</time>
      </trkpt>
      <trkpt lat="44.99698" lon="0.35997">
        <ele>127</ele>
        <time>2012-03-13T13:41:01.000Z</time>
      </trkpt>
      <trkpt lat="44.99697" lon="0.36006">
        <ele>127</ele>
        <time>2012-03-13T13:41:02.000Z</time>
      </trkpt>
      <trkpt lat="44.99696" lon="0.36017">
        <ele>126</ele>
        <time>2012-03-13T13:41:03.000Z</time>
      </trkpt>
      <trkpt lat="44.99695" lon="0.36027">
        <ele>126</ele>
        <time>2012-03-13T13:41:04.000Z</time>
      </trkpt>
      <trkpt lat="44.99693" lon="0.36038">
        <ele>125</ele>
        <time>2012-03-13T13:41:05.000Z</time>
      </trkpt>
      <trkpt lat="44.99693" lon="0.36048">
        <ele>125</ele>
        <time>2012-03-13T13:41:06.000Z</time>
      </trkpt>
      <trkpt lat="44.99694" lon="0.3606">
        <ele>125</ele>
        <time>2012-03-13T13:41:07.000Z</time>
      </trkpt>
      <trkpt lat="44.99695" lon="0.36071">
        <ele>125</ele>
        <time>2012-03-13T13:41:08.000Z</time>
      </trkpt>
      <trkpt lat="44.99696" lon="0.36082">
        <ele>125</ele>
        <time>2012-03-13T13:41:09.000Z</time>
      </trkpt>
      <trkpt lat="44.99696" lon="0.36093">
        <ele>125</ele>
        <time>2012-03-13T13:41:10.000Z</time>
      </trkpt>
      <trkpt lat="44.99697" lon="0.36102">
        <ele>125</ele>
        <time>2012-03-13T13:41:11.000Z</time>
      </trkpt>
      <trkpt lat="44.99697" lon="0.36109">
        <ele>125</ele>
        <time>2012-03-13T13:41:12.000Z</time>
      </trkpt>
      <trkpt lat="44.99694" lon="0.36115">
        <ele>125</ele>
        <time>2012-03-13T13:41:14.000Z</time>
      </trkpt>
      <trkpt lat="44.99688" lon="0.36108">
        <ele>127</ele>
        <time>2012-03-13T13:41:16.000Z</time>
      </trkpt>
      <trkpt lat="44.99683" lon="0.36103">
        <ele>128</ele>
        <time>2012-03-13T13:41:18.000Z</time>
      </trkpt>
      <trkpt lat="44.9968" lon="0.36094">
        <ele>129</ele>
        <time>2012-03-13T13:41:20.000Z</time>
      </trkpt>
      <trkpt lat="44.99675" lon="0.36092">
        <ele>129</ele>
        <time>2012-03-13T13:41:21.000Z</time>
      </trkpt>
      <trkpt lat="44.9967" lon="0.36088">
        <ele>130</ele>
        <time>2012-03-13T13:41:24.000Z</time>
      </trkpt>
      <trkpt lat="44.99665" lon="0.36091">
        <ele>130</ele>
        <time>2012-03-13T13:41:26.000Z</time>
      </trkpt>
      <trkpt lat="44.99662" lon="0.36098">
        <ele>131</ele>
        <time>2012-03-13T13:41:28.000Z</time>
      </trkpt>
      <trkpt lat="44.99656" lon="0.36104">
        <ele>131</ele>
        <time>2012-03-13T13:41:30.000Z</time>
      </trkpt>
      <trkpt lat="44.9965" lon="0.3611">
        <ele>132</ele>
        <time>2012-03-13T13:41:32.000Z</time>
      </trkpt>
      <trkpt lat="44.99644" lon="0.36113">
        <ele>133</ele>
        <time>2012-03-13T13:41:34.000Z</time>
      </trkpt>
      <trkpt lat="44.99637" lon="0.36113">
        <ele>134</ele>
        <time>2012-03-13T13:41:36.000Z</time>
      </trkpt>
      <trkpt lat="44.99632" lon="0.36112">
        <ele>135</ele>
        <time>2012-03-13T13:41:38.000Z</time>
      </trkpt>
      <trkpt lat="44.99627" lon="0.36109">
        <ele>143</ele>
        <time>2012-03-13T13:41:41.000Z</time>
      </trkpt>
      <trkpt lat="44.99622" lon="0.3611">
        <ele>146</ele>
        <time>2012-03-13T13:41:43.000Z</time>
      </trkpt>
      <trkpt lat="44.99616" lon="0.3611">
        <ele>148</ele>
        <time>2012-03-13T13:41:45.000Z</time>
      </trkpt>
      <trkpt lat="44.99608" lon="0.3611">
        <ele>149</ele>
        <time>2012-03-13T13:41:47.000Z</time>
      </trkpt>
      <trkpt lat="44.99604" lon="0.3611">
        <ele>149</ele>
        <time>2012-03-13T13:41:48.000Z</time>
      </trkpt>
      <trkpt lat="44.99598" lon="0.36111">
        <ele>151</ele>
        <time>2012-03-13T13:41:50.000Z</time>
      </trkpt>
      <trkpt lat="44.99593" lon="0.36111">
        <ele>152</ele>
        <time>2012-03-13T13:41:51.000Z</time>
      </trkpt>
      <trkpt lat="44.99587" lon="0.36112">
        <ele>152</ele>
        <time>2012-03-13T13:41:52.000Z</time>
      </trkpt>
      <trkpt lat="44.99576" lon="0.36108">
        <ele>154</ele>
        <time>2012-03-13T13:41:54.000Z</time>
      </trkpt>
      <trkpt lat="44.99568" lon="0.36107">
        <ele>152</ele>
        <time>2012-03-13T13:41:55.000Z</time>
      </trkpt>
      <trkpt lat="44.99562" lon="0.36106">
        <ele>152</ele>
        <time>2012-03-13T13:41:56.000Z</time>
      </trkpt>
      <trkpt lat="44.99552" lon="0.36101">
        <ele>150</ele>
        <time>2012-03-13T13:41:58.000Z</time>
      </trkpt>
      <trkpt lat="44.99547" lon="0.36098">
        <ele>149</ele>
        <time>2012-03-13T13:41:59.000Z</time>
      </trkpt>
      <trkpt lat="44.99543" lon="0.36094">
        <ele>149</ele>
        <time>2012-03-13T13:42:00.000Z</time>
      </trkpt>
      <trkpt lat="44.99539" lon="0.3609">
        <ele>148</ele>
        <time>2012-03-13T13:42:01.000Z</time>
      </trkpt>
      <trkpt lat="44.99536" lon="0.36084">
        <ele>147</ele>
        <time>2012-03-13T13:42:02.000Z</time>
      </trkpt>
      <trkpt lat="44.99533" lon="0.36078">
        <ele>147</ele>
        <time>2012-03-13T13:42:03.000Z</time>
      </trkpt>
      <trkpt lat="44.99535" lon="0.36066">
        <ele>144</ele>
        <time>2012-03-13T13:42:04.000Z</time>
      </trkpt>
      <trkpt lat="44.99534" lon="0.36057">
        <ele>142</ele>
        <time>2012-03-13T13:42:05.000Z</time>
      </trkpt>
      <trkpt lat="44.99532" lon="0.36039">
        <ele>141</ele>
        <time>2012-03-13T13:42:07.000Z</time>
      </trkpt>
      <trkpt lat="44.9953" lon="0.36028">
        <ele>142</ele>
        <time>2012-03-13T13:42:08.000Z</time>
      </trkpt>
      <trkpt lat="44.99528" lon="0.36018">
        <ele>142</ele>
        <time>2012-03-13T13:42:09.000Z</time>
      </trkpt>
      <trkpt lat="44.99525" lon="0.36007">
        <ele>141</ele>
        <time>2012-03-13T13:42:10.000Z</time>
      </trkpt>
      <trkpt lat="44.99522" lon="0.35997">
        <ele>140</ele>
        <time>2012-03-13T13:42:11.000Z</time>
      </trkpt>
      <trkpt lat="44.99521" lon="0.35987">
        <ele>139</ele>
        <time>2012-03-13T13:42:12.000Z</time>
      </trkpt>
      <trkpt lat="44.9952" lon="0.35976">
        <ele>138</ele>
        <time>2012-03-13T13:42:13.000Z</time>
      </trkpt>
      <trkpt lat="44.99517" lon="0.35967">
        <ele>138</ele>
        <time>2012-03-13T13:42:14.000Z</time>
      </trkpt>
      <trkpt lat="44.99513" lon="0.3596">
        <ele>138</ele>
        <time>2012-03-13T13:42:15.000Z</time>
      </trkpt>
      <trkpt lat="44.99508" lon="0.35955">
        <ele>138</ele>
        <time>2012-03-13T13:42:16.000Z</time>
      </trkpt>
      <trkpt lat="44.99502" lon="0.35951">
        <ele>138</ele>
        <time>2012-03-13T13:42:17.000Z</time>
      </trkpt>
      <trkpt lat="44.99497" lon="0.3595">
        <ele>138</ele>
        <time>2012-03-13T13:42:18.000Z</time>
      </trkpt>
      <trkpt lat="44.9949" lon="0.35948">
        <ele>138</ele>
        <time>2012-03-13T13:42:19.000Z</time>
      </trkpt>
      <trkpt lat="44.99484" lon="0.35945">
        <ele>138</ele>
        <time>2012-03-13T13:42:20.000Z</time>
      </trkpt>
      <trkpt lat="44.99478" lon="0.35943">
        <ele>138</ele>
        <time>2012-03-13T13:42:21.000Z</time>
      </trkpt>
      <trkpt lat="44.99472" lon="0.3594">
        <ele>138</ele>
        <time>2012-03-13T13:42:22.000Z</time>
      </trkpt>
      <trkpt lat="44.99457" lon="0.3593">
        <ele>139</ele>
        <time>2012-03-13T13:42:24.000Z</time>
      </trkpt>
      <trkpt lat="44.9945" lon="0.35926">
        <ele>139</ele>
        <time>2012-03-13T13:42:25.000Z</time>
      </trkpt>
      <trkpt lat="44.99444" lon="0.35923">
        <ele>139</ele>
        <time>2012-03-13T13:42:26.000Z</time>
      </trkpt>
      <trkpt lat="44.99437" lon="0.35922">
        <ele>139</ele>
        <time>2012-03-13T13:42:27.000Z</time>
      </trkpt>
      <trkpt lat="44.99431" lon="0.35921">
        <ele>140</ele>
        <time>2012-03-13T13:42:28.000Z</time>
      </trkpt>
      <trkpt lat="44.99424" lon="0.35921">
        <ele>140</ele>
        <time>2012-03-13T13:42:29.000Z</time>
      </trkpt>
      <trkpt lat="44.99415" lon="0.35917">
        <ele>141</ele>
        <time>2012-03-13T13:42:31.000Z</time>
      </trkpt>
      <trkpt lat="44.9941" lon="0.35915">
        <ele>141</ele>
        <time>2012-03-13T13:42:32.000Z</time>
      </trkpt>
      <trkpt lat="44.99403" lon="0.35914">
        <ele>141</ele>
        <time>2012-03-13T13:42:33.000Z</time>
      </trkpt>
      <trkpt lat="44.99399" lon="0.35911">
        <ele>141</ele>
        <time>2012-03-13T13:42:34.000Z</time>
      </trkpt>
      <trkpt lat="44.99394" lon="0.3591">
        <ele>141</ele>
        <time>2012-03-13T13:42:35.000Z</time>
      </trkpt>
      <trkpt lat="44.99388" lon="0.35907">
        <ele>141</ele>
        <time>2012-03-13T13:42:36.000Z</time>
      </trkpt>
      <trkpt lat="44.99383" lon="0.35902">
        <ele>141</ele>
        <time>2012-03-13T13:42:37.000Z</time>
      </trkpt>
      <trkpt lat="44.99378" lon="0.35901">
        <ele>141</ele>
        <time>2012-03-13T13:42:38.000Z</time>
      </trkpt>
      <trkpt lat="44.99373" lon="0.35899">
        <ele>140</ele>
        <time>2012-03-13T13:42:39.000Z</time>
      </trkpt>
      <trkpt lat="44.9937" lon="0.35893">
        <ele>141</ele>
        <time>2012-03-13T13:42:40.000Z</time>
      </trkpt>
      <trkpt lat="44.99365" lon="0.35888">
        <ele>141</ele>
        <time>2012-03-13T13:42:41.000Z</time>
      </trkpt>
      <trkpt lat="44.99359" lon="0.35885">
        <ele>140</ele>
        <time>2012-03-13T13:42:42.000Z</time>
      </trkpt>
      <trkpt lat="44.99352" lon="0.35879">
        <ele>141</ele>
        <time>2012-03-13T13:42:44.000Z</time>
      </trkpt>
      <trkpt lat="44.99348" lon="0.35877">
        <ele>141</ele>
        <time>2012-03-13T13:42:45.000Z</time>
      </trkpt>
      <trkpt lat="44.99342" lon="0.35874">
        <ele>141</ele>
        <time>2012-03-13T13:42:46.000Z</time>
      </trkpt>
      <trkpt lat="44.99338" lon="0.3587">
        <ele>141</ele>
        <time>2012-03-13T13:42:47.000Z</time>
      </trkpt>
      <trkpt lat="44.99334" lon="0.35867">
        <ele>141</ele>
        <time>2012-03-13T13:42:48.000Z</time>
      </trkpt>
      <trkpt lat="44.99327" lon="0.35859">
        <ele>142</ele>
        <time>2012-03-13T13:42:50.000Z</time>
      </trkpt>
      <trkpt lat="44.99323" lon="0.35856">
        <ele>142</ele>
        <time>2012-03-13T13:42:51.000Z</time>
      </trkpt>
      <trkpt lat="44.99319" lon="0.35852">
        <ele>143</ele>
        <time>2012-03-13T13:42:52.000Z</time>
      </trkpt>
      <trkpt lat="44.99312" lon="0.35848">
        <ele>144</ele>
        <time>2012-03-13T13:42:54.000Z</time>
      </trkpt>
      <trkpt lat="44.99307" lon="0.35844">
        <ele>144</ele>
        <time>2012-03-13T13:42:55.000Z</time>
      </trkpt>
      <trkpt lat="44.99302" lon="0.35838">
        <ele>145</ele>
        <time>2012-03-13T13:42:57.000Z</time>
      </trkpt>
      <trkpt lat="44.99297" lon="0.35834">
        <ele>145</ele>
        <time>2012-03-13T13:42:58.000Z</time>
      </trkpt>
      <trkpt lat="44.99289" lon="0.35829">
        <ele>147</ele>
        <time>2012-03-13T13:43:00.000Z</time>
      </trkpt>
      <trkpt lat="44.99285" lon="0.35827">
        <ele>147</ele>
        <time>2012-03-13T13:43:02.000Z</time>
      </trkpt>
      <trkpt lat="44.99275" lon="0.35826">
        <ele>147</ele>
        <time>2012-03-13T13:43:04.000Z</time>
      </trkpt>
      <trkpt lat="44.99267" lon="0.35823">
        <ele>147</ele>
        <time>2012-03-13T13:43:06.000Z</time>
      </trkpt>
      <trkpt lat="44.99259" lon="0.35822">
        <ele>148</ele>
        <time>2012-03-13T13:43:08.000Z</time>
      </trkpt>
      <trkpt lat="44.99251" lon="0.3582">
        <ele>149</ele>
        <time>2012-03-13T13:43:10.000Z</time>
      </trkpt>
      <trkpt lat="44.99243" lon="0.35814">
        <ele>149</ele>
        <time>2012-03-13T13:43:12.000Z</time>
      </trkpt>
      <trkpt lat="44.99236" lon="0.35816">
        <ele>150</ele>
        <time>2012-03-13T13:43:13.000Z</time>
      </trkpt>
      <trkpt lat="44.9923" lon="0.35816">
        <ele>150</ele>
        <time>2012-03-13T13:43:14.000Z</time>
      </trkpt>
      <trkpt lat="44.99223" lon="0.35818">
        <ele>149</ele>
        <time>2012-03-13T13:43:15.000Z</time>
      </trkpt>
      <trkpt lat="44.99217" lon="0.35817">
        <ele>150</ele>
        <time>2012-03-13T13:43:16.000Z</time>
      </trkpt>
      <trkpt lat="44.99212" lon="0.35818">
        <ele>151</ele>
        <time>2012-03-13T13:43:17.000Z</time>
      </trkpt>
      <trkpt lat="44.99206" lon="0.35818">
        <ele>151</ele>
        <time>2012-03-13T13:43:18.000Z</time>
      </trkpt>
      <trkpt lat="44.992" lon="0.35818">
        <ele>151</ele>
        <time>2012-03-13T13:43:19.000Z</time>
      </trkpt>
      <trkpt lat="44.99194" lon="0.35819">
        <ele>152</ele>
        <time>2012-03-13T13:43:20.000Z</time>
      </trkpt>
      <trkpt lat="44.99187" lon="0.35816">
        <ele>152</ele>
        <time>2012-03-13T13:43:21.000Z</time>
      </trkpt>
      <trkpt lat="44.99182" lon="0.35813">
        <ele>151</ele>
        <time>2012-03-13T13:43:22.000Z</time>
      </trkpt>
      <trkpt lat="44.99178" lon="0.35807">
        <ele>152</ele>
        <time>2012-03-13T13:43:23.000Z</time>
      </trkpt>
      <trkpt lat="44.99171" lon="0.35804">
        <ele>152</ele>
        <time>2012-03-13T13:43:25.000Z</time>
      </trkpt>
      <trkpt lat="44.99163" lon="0.358">
        <ele>153</ele>
        <time>2012-03-13T13:43:27.000Z</time>
      </trkpt>
      <trkpt lat="44.99158" lon="0.35799">
        <ele>155</ele>
        <time>2012-03-13T13:43:29.000Z</time>
      </trkpt>
      <trkpt lat="44.9915" lon="0.358">
        <ele>158</ele>
        <time>2012-03-13T13:43:31.000Z</time>
      </trkpt>
      <trkpt lat="44.99141" lon="0.35802">
        <ele>158</ele>
        <time>2012-03-13T13:43:33.000Z</time>
      </trkpt>
      <trkpt lat="44.99136" lon="0.35802">
        <ele>157</ele>
        <time>2012-03-13T13:43:34.000Z</time>
      </trkpt>
      <trkpt lat="44.99122" lon="0.35796">
        <ele>159</ele>
        <time>2012-03-13T13:43:36.000Z</time>
      </trkpt>
      <trkpt lat="44.99117" lon="0.35792">
        <ele>158</ele>
        <time>2012-03-13T13:43:37.000Z</time>
      </trkpt>
      <trkpt lat="44.99112" lon="0.3579">
        <ele>158</ele>
        <time>2012-03-13T13:43:38.000Z</time>
      </trkpt>
      <trkpt lat="44.99107" lon="0.3579">
        <ele>158</ele>
        <time>2012-03-13T13:43:39.000Z</time>
      </trkpt>
      <trkpt lat="44.99099" lon="0.35789">
        <ele>159</ele>
        <time>2012-03-13T13:43:41.000Z</time>
      </trkpt>
      <trkpt lat="44.9909" lon="0.35786">
        <ele>158</ele>
        <time>2012-03-13T13:43:43.000Z</time>
      </trkpt>
      <trkpt lat="44.99079" lon="0.35781">
        <ele>159</ele>
        <time>2012-03-13T13:43:45.000Z</time>
      </trkpt>
      <trkpt lat="44.99075" lon="0.35781">
        <ele>159</ele>
        <time>2012-03-13T13:43:46.000Z</time>
      </trkpt>
      <trkpt lat="44.99073" lon="0.35774">
        <ele>160</ele>
        <time>2012-03-13T13:43:48.000Z</time>
      </trkpt>
      <trkpt lat="44.99067" lon="0.35772">
        <ele>160</ele>
        <time>2012-03-13T13:43:49.000Z</time>
      </trkpt>
      <trkpt lat="44.99062" lon="0.35774">
        <ele>161</ele>
        <time>2012-03-13T13:43:50.000Z</time>
      </trkpt>
      <trkpt lat="44.99053" lon="0.35769">
        <ele>161</ele>
        <time>2012-03-13T13:43:52.000Z</time>
      </trkpt>
      <trkpt lat="44.99044" lon="0.35769">
        <ele>163</ele>
        <time>2012-03-13T13:43:54.000Z</time>
      </trkpt>
      <trkpt lat="44.99038" lon="0.35768">
        <ele>163</ele>
        <time>2012-03-13T13:43:56.000Z</time>
      </trkpt>
      <trkpt lat="44.99031" lon="0.35768">
        <ele>164</ele>
        <time>2012-03-13T13:43:58.000Z</time>
      </trkpt>
      <trkpt lat="44.99026" lon="0.35766">
        <ele>165</ele>
        <time>2012-03-13T13:44:00.000Z</time>
      </trkpt>
      <trkpt lat="44.99017" lon="0.35764">
        <ele>164</ele>
        <time>2012-03-13T13:44:01.000Z</time>
      </trkpt>
      <trkpt lat="44.99009" lon="0.35759">
        <ele>164</ele>
        <time>2012-03-13T13:44:02.000Z</time>
      </trkpt>
      <trkpt lat="44.99001" lon="0.35758">
        <ele>164</ele>
        <time>2012-03-13T13:44:03.000Z</time>
      </trkpt>
      <trkpt lat="44.98995" lon="0.35754">
        <ele>164</ele>
        <time>2012-03-13T13:44:04.000Z</time>
      </trkpt>
      <trkpt lat="44.9899" lon="0.35751">
        <ele>164</ele>
        <time>2012-03-13T13:44:05.000Z</time>
      </trkpt>
      <trkpt lat="44.98986" lon="0.35748">
        <ele>164</ele>
        <time>2012-03-13T13:44:06.000Z</time>
      </trkpt>
      <trkpt lat="44.98981" lon="0.35745">
        <ele>164</ele>
        <time>2012-03-13T13:44:07.000Z</time>
      </trkpt>
      <trkpt lat="44.98973" lon="0.35741">
        <ele>163</ele>
        <time>2012-03-13T13:44:09.000Z</time>
      </trkpt>
      <trkpt lat="44.98968" lon="0.35739">
        <ele>163</ele>
        <time>2012-03-13T13:44:10.000Z</time>
      </trkpt>
      <trkpt lat="44.98962" lon="0.35736">
        <ele>164</ele>
        <time>2012-03-13T13:44:12.000Z</time>
      </trkpt>
      <trkpt lat="44.98944" lon="0.35736">
        <ele>165</ele>
        <time>2012-03-13T13:44:16.000Z</time>
      </trkpt>
      <trkpt lat="44.98937" lon="0.35735">
        <ele>166</ele>
        <time>2012-03-13T13:44:18.000Z</time>
      </trkpt>
      <trkpt lat="44.9893" lon="0.35737">
        <ele>166</ele>
        <time>2012-03-13T13:44:20.000Z</time>
      </trkpt>
      <trkpt lat="44.98924" lon="0.35742">
        <ele>166</ele>
        <time>2012-03-13T13:44:22.000Z</time>
      </trkpt>
      <trkpt lat="44.98918" lon="0.35747">
        <ele>167</ele>
        <time>2012-03-13T13:44:23.000Z</time>
      </trkpt>
      <trkpt lat="44.98914" lon="0.35751">
        <ele>167</ele>
        <time>2012-03-13T13:44:24.000Z</time>
      </trkpt>
      <trkpt lat="44.9891" lon="0.35754">
        <ele>167</ele>
        <time>2012-03-13T13:44:25.000Z</time>
      </trkpt>
      <trkpt lat="44.98902" lon="0.35761">
        <ele>166</ele>
        <time>2012-03-13T13:44:27.000Z</time>
      </trkpt>
      <trkpt lat="44.98898" lon="0.35764">
        <ele>166</ele>
        <time>2012-03-13T13:44:28.000Z</time>
      </trkpt>
      <trkpt lat="44.98894" lon="0.35768">
        <ele>168</ele>
        <time>2012-03-13T13:44:29.000Z</time>
      </trkpt>
      <trkpt lat="44.98891" lon="0.35773">
        <ele>167</ele>
        <time>2012-03-13T13:44:30.000Z</time>
      </trkpt>
      <trkpt lat="44.98885" lon="0.35783">
        <ele>166</ele>
        <time>2012-03-13T13:44:32.000Z</time>
      </trkpt>
      <trkpt lat="44.98879" lon="0.35793">
        <ele>168</ele>
        <time>2012-03-13T13:44:34.000Z</time>
      </trkpt>
      <trkpt lat="44.98874" lon="0.35801">
        <ele>167</ele>
        <time>2012-03-13T13:44:36.000Z</time>
      </trkpt>
      <trkpt lat="44.98871" lon="0.35806">
        <ele>167</ele>
        <time>2012-03-13T13:44:37.000Z</time>
      </trkpt>
      <trkpt lat="44.98867" lon="0.35816">
        <ele>167</ele>
        <time>2012-03-13T13:44:39.000Z</time>
      </trkpt>
      <trkpt lat="44.98866" lon="0.35828">
        <ele>167</ele>
        <time>2012-03-13T13:44:41.000Z</time>
      </trkpt>
      <trkpt lat="44.98864" lon="0.35838">
        <ele>166</ele>
        <time>2012-03-13T13:44:43.000Z</time>
      </trkpt>
      <trkpt lat="44.98857" lon="0.35842">
        <ele>170</ele>
        <time>2012-03-13T13:44:45.000Z</time>
      </trkpt>
      <trkpt lat="44.98849" lon="0.35841">
        <ele>172</ele>
        <time>2012-03-13T13:44:47.000Z</time>
      </trkpt>
      <trkpt lat="44.9884" lon="0.3584">
        <ele>173</ele>
        <time>2012-03-13T13:44:49.000Z</time>
      </trkpt>
      <trkpt lat="44.98832" lon="0.3584">
        <ele>173</ele>
        <time>2012-03-13T13:44:51.000Z</time>
      </trkpt>
      <trkpt lat="44.98824" lon="0.3584">
        <ele>174</ele>
        <time>2012-03-13T13:44:53.000Z</time>
      </trkpt>
      <trkpt lat="44.98817" lon="0.35835">
        <ele>174</ele>
        <time>2012-03-13T13:44:55.000Z</time>
      </trkpt>
      <trkpt lat="44.98809" lon="0.35828">
        <ele>174</ele>
        <time>2012-03-13T13:44:57.000Z</time>
      </trkpt>
      <trkpt lat="44.98806" lon="0.35821">
        <ele>174</ele>
        <time>2012-03-13T13:44:58.000Z</time>
      </trkpt>
      <trkpt lat="44.98803" lon="0.35817">
        <ele>174</ele>
        <time>2012-03-13T13:44:59.000Z</time>
      </trkpt>
      <trkpt lat="44.98796" lon="0.35808">
        <ele>173</ele>
        <time>2012-03-13T13:45:01.000Z</time>
      </trkpt>
      <trkpt lat="44.9879" lon="0.35799">
        <ele>174</ele>
        <time>2012-03-13T13:45:03.000Z</time>
      </trkpt>
      <trkpt lat="44.98784" lon="0.3579">
        <ele>174</ele>
        <time>2012-03-13T13:45:05.000Z</time>
      </trkpt>
      <trkpt lat="44.98767" lon="0.3577">
        <ele>172</ele>
        <time>2012-03-13T13:45:10.000Z</time>
      </trkpt>
      <trkpt lat="44.98761" lon="0.3576">
        <ele>172</ele>
        <time>2012-03-13T13:45:12.000Z</time>
      </trkpt>
      <trkpt lat="44.98755" lon="0.35751">
        <ele>173</ele>
        <time>2012-03-13T13:45:14.000Z</time>
      </trkpt>
      <trkpt lat="44.9875" lon="0.35743">
        <ele>173</ele>
        <time>2012-03-13T13:45:16.000Z</time>
      </trkpt>
      <trkpt lat="44.98746" lon="0.35739">
        <ele>173</ele>
        <time>2012-03-13T13:45:17.000Z</time>
      </trkpt>
      <trkpt lat="44.9874" lon="0.35731">
        <ele>173</ele>
        <time>2012-03-13T13:45:19.000Z</time>
      </trkpt>
      <trkpt lat="44.98733" lon="0.35724">
        <ele>174</ele>
        <time>2012-03-13T13:45:21.000Z</time>
      </trkpt>
      <trkpt lat="44.98728" lon="0.35718">
        <ele>175</ele>
        <time>2012-03-13T13:45:23.000Z</time>
      </trkpt>
      <trkpt lat="44.98722" lon="0.35712">
        <ele>176</ele>
        <time>2012-03-13T13:45:25.000Z</time>
      </trkpt>
      <trkpt lat="44.98718" lon="0.35708">
        <ele>175</ele>
        <time>2012-03-13T13:45:26.000Z</time>
      </trkpt>
      <trkpt lat="44.9871" lon="0.35704">
        <ele>176</ele>
        <time>2012-03-13T13:45:28.000Z</time>
      </trkpt>
      <trkpt lat="44.98707" lon="0.357">
        <ele>176</ele>
        <time>2012-03-13T13:45:29.000Z</time>
      </trkpt>
      <trkpt lat="44.98702" lon="0.35693">
        <ele>177</ele>
        <time>2012-03-13T13:45:31.000Z</time>
      </trkpt>
      <trkpt lat="44.98694" lon="0.35687">
        <ele>178</ele>
        <time>2012-03-13T13:45:33.000Z</time>
      </trkpt>
      <trkpt lat="44.98688" lon="0.35685">
        <ele>180</ele>
        <time>2012-03-13T13:45:35.000Z</time>
      </trkpt>
      <trkpt lat="44.98682" lon="0.35676">
        <ele>181</ele>
        <time>2012-03-13T13:45:37.000Z</time>
      </trkpt>
      <trkpt lat="44.98678" lon="0.35671">
        <ele>181</ele>
        <time>2012-03-13T13:45:38.000Z</time>
      </trkpt>
      <trkpt lat="44.98674" lon="0.35667">
        <ele>181</ele>
        <time>2012-03-13T13:45:39.000Z</time>
      </trkpt>
      <trkpt lat="44.9867" lon="0.35661">
        <ele>183</ele>
        <time>2012-03-13T13:45:41.000Z</time>
      </trkpt>
      <trkpt lat="44.98663" lon="0.35655">
        <ele>184</ele>
        <time>2012-03-13T13:45:43.000Z</time>
      </trkpt>
      <trkpt lat="44.98657" lon="0.35648">
        <ele>185</ele>
        <time>2012-03-13T13:45:45.000Z</time>
      </trkpt>
      <trkpt lat="44.98652" lon="0.35643">
        <ele>184</ele>
        <time>2012-03-13T13:45:46.000Z</time>
      </trkpt>
      <trkpt lat="44.98648" lon="0.35638">
        <ele>184</ele>
        <time>2012-03-13T13:45:47.000Z</time>
      </trkpt>
      <trkpt lat="44.98642" lon="0.35632">
        <ele>184</ele>
        <time>2012-03-13T13:45:49.000Z</time>
      </trkpt>
      <trkpt lat="44.98635" lon="0.35627">
        <ele>186</ele>
        <time>2012-03-13T13:45:51.000Z</time>
      </trkpt>
      <trkpt lat="44.98629" lon="0.35623">
        <ele>187</ele>
        <time>2012-03-13T13:45:52.000Z</time>
      </trkpt>
      <trkpt lat="44.98624" lon="0.35622">
        <ele>187</ele>
        <time>2012-03-13T13:45:53.000Z</time>
      </trkpt>
      <trkpt lat="44.9862" lon="0.3562">
        <ele>187</ele>
        <time>2012-03-13T13:45:54.000Z</time>
      </trkpt>
      <trkpt lat="44.98615" lon="0.35618">
        <ele>187</ele>
        <time>2012-03-13T13:45:55.000Z</time>
      </trkpt>
      <trkpt lat="44.9861" lon="0.35611">
        <ele>187</ele>
        <time>2012-03-13T13:45:56.000Z</time>
      </trkpt>
      <trkpt lat="44.98606" lon="0.35607">
        <ele>187</ele>
        <time>2012-03-13T13:45:57.000Z</time>
      </trkpt>
      <trkpt lat="44.98597" lon="0.35605">
        <ele>189</ele>
        <time>2012-03-13T13:45:59.000Z</time>
      </trkpt>
      <trkpt lat="44.98592" lon="0.35601">
        <ele>190</ele>
        <time>2012-03-13T13:46:00.000Z</time>
      </trkpt>
      <trkpt lat="44.98588" lon="0.35598">
        <ele>191</ele>
        <time>2012-03-13T13:46:01.000Z</time>
      </trkpt>
      <trkpt lat="44.98582" lon="0.35596">
        <ele>192</ele>
        <time>2012-03-13T13:46:02.000Z</time>
      </trkpt>
      <trkpt lat="44.98572" lon="0.35593">
        <ele>190</ele>
        <time>2012-03-13T13:46:03.000Z</time>
      </trkpt>
      <trkpt lat="44.98565" lon="0.35585">
        <ele>191</ele>
        <time>2012-03-13T13:46:05.000Z</time>
      </trkpt>
      <trkpt lat="44.98561" lon="0.3558">
        <ele>191</ele>
        <time>2012-03-13T13:46:06.000Z</time>
      </trkpt>
      <trkpt lat="44.98556" lon="0.35576">
        <ele>191</ele>
        <time>2012-03-13T13:46:07.000Z</time>
      </trkpt>
      <trkpt lat="44.98554" lon="0.35571">
        <ele>192</ele>
        <time>2012-03-13T13:46:08.000Z</time>
      </trkpt>
      <trkpt lat="44.98548" lon="0.35567">
        <ele>192</ele>
        <time>2012-03-13T13:46:09.000Z</time>
      </trkpt>
      <trkpt lat="44.98544" lon="0.3556">
        <ele>193</ele>
        <time>2012-03-13T13:46:10.000Z</time>
      </trkpt>
      <trkpt lat="44.98541" lon="0.35552">
        <ele>193</ele>
        <time>2012-03-13T13:46:11.000Z</time>
      </trkpt>
      <trkpt lat="44.98535" lon="0.35539">
        <ele>194</ele>
        <time>2012-03-13T13:46:13.000Z</time>
      </trkpt>
      <trkpt lat="44.9853" lon="0.35533">
        <ele>194</ele>
        <time>2012-03-13T13:46:14.000Z</time>
      </trkpt>
      <trkpt lat="44.98523" lon="0.35526">
        <ele>194</ele>
        <time>2012-03-13T13:46:15.000Z</time>
      </trkpt>
      <trkpt lat="44.98517" lon="0.35519">
        <ele>194</ele>
        <time>2012-03-13T13:46:16.000Z</time>
      </trkpt>
      <trkpt lat="44.98511" lon="0.35514">
        <ele>193</ele>
        <time>2012-03-13T13:46:17.000Z</time>
      </trkpt>
      <trkpt lat="44.98506" lon="0.35508">
        <ele>193</ele>
        <time>2012-03-13T13:46:18.000Z</time>
      </trkpt>
      <trkpt lat="44.985" lon="0.35506">
        <ele>194</ele>
        <time>2012-03-13T13:46:20.000Z</time>
      </trkpt>
      <trkpt lat="44.98494" lon="0.35512">
        <ele>192</ele>
        <time>2012-03-13T13:46:22.000Z</time>
      </trkpt>
      <trkpt lat="44.9849" lon="0.35514">
        <ele>192</ele>
        <time>2012-03-13T13:46:23.000Z</time>
      </trkpt>
      <trkpt lat="44.98482" lon="0.35516">
        <ele>191</ele>
        <time>2012-03-13T13:46:25.000Z</time>
      </trkpt>
      <trkpt lat="44.98475" lon="0.35513">
        <ele>191</ele>
        <time>2012-03-13T13:46:27.000Z</time>
      </trkpt>
      <trkpt lat="44.98473" lon="0.35504">
        <ele>191</ele>
        <time>2012-03-13T13:46:28.000Z</time>
      </trkpt>
      <trkpt lat="44.98469" lon="0.35498">
        <ele>191</ele>
        <time>2012-03-13T13:46:29.000Z</time>
      </trkpt>
      <trkpt lat="44.98466" lon="0.35492">
        <ele>190</ele>
        <time>2012-03-13T13:46:30.000Z</time>
      </trkpt>
      <trkpt lat="44.98462" lon="0.35487">
        <ele>189</ele>
        <time>2012-03-13T13:46:31.000Z</time>
      </trkpt>
      <trkpt lat="44.98459" lon="0.35482">
        <ele>189</ele>
        <time>2012-03-13T13:46:32.000Z</time>
      </trkpt>
      <trkpt lat="44.98456" lon="0.35476">
        <ele>189</ele>
        <time>2012-03-13T13:46:33.000Z</time>
      </trkpt>
      <trkpt lat="44.98452" lon="0.35471">
        <ele>189</ele>
        <time>2012-03-13T13:46:34.000Z</time>
      </trkpt>
      <trkpt lat="44.98452" lon="0.35463">
        <ele>188</ele>
        <time>2012-03-13T13:46:35.000Z</time>
      </trkpt>
      <trkpt lat="44.98449" lon="0.35457">
        <ele>188</ele>
        <time>2012-03-13T13:46:36.000Z</time>
      </trkpt>
      <trkpt lat="44.98444" lon="0.35451">
        <ele>188</ele>
        <time>2012-03-13T13:46:38.000Z</time>
      </trkpt>
      <trkpt lat="44.98437" lon="0.35444">
        <ele>188</ele>
        <time>2012-03-13T13:46:40.000Z</time>
      </trkpt>
      <trkpt lat="44.9843" lon="0.35443">
        <ele>189</ele>
        <time>2012-03-13T13:46:42.000Z</time>
      </trkpt>
      <trkpt lat="44.98424" lon="0.35442">
        <ele>189</ele>
        <time>2012-03-13T13:46:44.000Z</time>
      </trkpt>
      <trkpt lat="44.98418" lon="0.35439">
        <ele>189</ele>
        <time>2012-03-13T13:46:48.000Z</time>
      </trkpt>
      <trkpt lat="44.98413" lon="0.35445">
        <ele>188</ele>
        <time>2012-03-13T13:46:50.000Z</time>
      </trkpt>
      <trkpt lat="44.98408" lon="0.35449">
        <ele>188</ele>
        <time>2012-03-13T13:46:51.000Z</time>
      </trkpt>
      <trkpt lat="44.98404" lon="0.35456">
        <ele>187</ele>
        <time>2012-03-13T13:46:52.000Z</time>
      </trkpt>
      <trkpt lat="44.98399" lon="0.35463">
        <ele>187</ele>
        <time>2012-03-13T13:46:53.000Z</time>
      </trkpt>
      <trkpt lat="44.98394" lon="0.35472">
        <ele>187</ele>
        <time>2012-03-13T13:46:54.000Z</time>
      </trkpt>
      <trkpt lat="44.9839" lon="0.35482">
        <ele>186</ele>
        <time>2012-03-13T13:46:55.000Z</time>
      </trkpt>
      <trkpt lat="44.98385" lon="0.35492">
        <ele>185</ele>
        <time>2012-03-13T13:46:56.000Z</time>
      </trkpt>
      <trkpt lat="44.98378" lon="0.35503">
        <ele>184</ele>
        <time>2012-03-13T13:46:57.000Z</time>
      </trkpt>
      <trkpt lat="44.98372" lon="0.35515">
        <ele>184</ele>
        <time>2012-03-13T13:46:58.000Z</time>
      </trkpt>
      <trkpt lat="44.98365" lon="0.35526">
        <ele>183</ele>
        <time>2012-03-13T13:46:59.000Z</time>
      </trkpt>
      <trkpt lat="44.98361" lon="0.35534">
        <ele>182</ele>
        <time>2012-03-13T13:47:00.000Z</time>
      </trkpt>
      <trkpt lat="44.98355" lon="0.3554">
        <ele>181</ele>
        <time>2012-03-13T13:47:01.000Z</time>
      </trkpt>
      <trkpt lat="44.9835" lon="0.35544">
        <ele>179</ele>
        <time>2012-03-13T13:47:02.000Z</time>
      </trkpt>
      <trkpt lat="44.98341" lon="0.35563">
        <ele>178</ele>
        <time>2012-03-13T13:47:05.000Z</time>
      </trkpt>
      <trkpt lat="44.98338" lon="0.35575">
        <ele>177</ele>
        <time>2012-03-13T13:47:07.000Z</time>
      </trkpt>
      <trkpt lat="44.98336" lon="0.35582">
        <ele>173</ele>
        <time>2012-03-13T13:47:32.000Z</time>
      </trkpt>
      <trkpt lat="44.98332" lon="0.35584">
        <ele>174</ele>
        <time>2012-03-13T13:47:33.000Z</time>
      </trkpt>
      <trkpt lat="44.98327" lon="0.35588">
        <ele>175</ele>
        <time>2012-03-13T13:47:35.000Z</time>
      </trkpt>
      <trkpt lat="44.98319" lon="0.35596">
        <ele>174</ele>
        <time>2012-03-13T13:47:37.000Z</time>
      </trkpt>
      <trkpt lat="44.98316" lon="0.35601">
        <ele>175</ele>
        <time>2012-03-13T13:47:38.000Z</time>
      </trkpt>
      <trkpt lat="44.98313" lon="0.35607">
        <ele>174</ele>
        <time>2012-03-13T13:47:39.000Z</time>
      </trkpt>
      <trkpt lat="44.9831" lon="0.35613">
        <ele>174</ele>
        <time>2012-03-13T13:47:40.000Z</time>
      </trkpt>
      <trkpt lat="44.98306" lon="0.35618">
        <ele>173</ele>
        <time>2012-03-13T13:47:41.000Z</time>
      </trkpt>
      <trkpt lat="44.98302" lon="0.35623">
        <ele>174</ele>
        <time>2012-03-13T13:47:42.000Z</time>
      </trkpt>
      <trkpt lat="44.98299" lon="0.35628">
        <ele>173</ele>
        <time>2012-03-13T13:47:43.000Z</time>
      </trkpt>
      <trkpt lat="44.98295" lon="0.35634">
        <ele>173</ele>
        <time>2012-03-13T13:47:44.000Z</time>
      </trkpt>
      <trkpt lat="44.98292" lon="0.3564">
        <ele>172</ele>
        <time>2012-03-13T13:47:45.000Z</time>
      </trkpt>
      <trkpt lat="44.98288" lon="0.35646">
        <ele>172</ele>
        <time>2012-03-13T13:47:46.000Z</time>
      </trkpt>
      <trkpt lat="44.98284" lon="0.35654">
        <ele>172</ele>
        <time>2012-03-13T13:47:47.000Z</time>
      </trkpt>
      <trkpt lat="44.98281" lon="0.3566">
        <ele>171</ele>
        <time>2012-03-13T13:47:48.000Z</time>
      </trkpt>
      <trkpt lat="44.98277" lon="0.35667">
        <ele>170</ele>
        <time>2012-03-13T13:47:49.000Z</time>
      </trkpt>
      <trkpt lat="44.98275" lon="0.35674">
        <ele>169</ele>
        <time>2012-03-13T13:47:50.000Z</time>
      </trkpt>
      <trkpt lat="44.9827" lon="0.35682">
        <ele>168</ele>
        <time>2012-03-13T13:47:51.000Z</time>
      </trkpt>
      <trkpt lat="44.98267" lon="0.3569">
        <ele>166</ele>
        <time>2012-03-13T13:47:52.000Z</time>
      </trkpt>
      <trkpt lat="44.98265" lon="0.35698">
        <ele>165</ele>
        <time>2012-03-13T13:47:53.000Z</time>
      </trkpt>
      <trkpt lat="44.98265" lon="0.35704">
        <ele>165</ele>
        <time>2012-03-13T13:47:54.000Z</time>
      </trkpt>
      <trkpt lat="44.98267" lon="0.35711">
        <ele>164</ele>
        <time>2012-03-13T13:47:55.000Z</time>
      </trkpt>
      <trkpt lat="44.98269" lon="0.35717">
        <ele>164</ele>
        <time>2012-03-13T13:47:56.000Z</time>
      </trkpt>
      <trkpt lat="44.98274" lon="0.35728">
        <ele>164</ele>
        <time>2012-03-13T13:47:58.000Z</time>
      </trkpt>
      <trkpt lat="44.9828" lon="0.35736">
        <ele>163</ele>
        <time>2012-03-13T13:48:00.000Z</time>
      </trkpt>
      <trkpt lat="44.98285" lon="0.3574">
        <ele>162</ele>
        <time>2012-03-13T13:48:01.000Z</time>
      </trkpt>
      <trkpt lat="44.98288" lon="0.35744">
        <ele>161</ele>
        <time>2012-03-13T13:48:02.000Z</time>
      </trkpt>
      <trkpt lat="44.98295" lon="0.35751">
        <ele>162</ele>
        <time>2012-03-13T13:48:04.000Z</time>
      </trkpt>
      <trkpt lat="44.98301" lon="0.35752">
        <ele>161</ele>
        <time>2012-03-13T13:48:05.000Z</time>
      </trkpt>
      <trkpt lat="44.98308" lon="0.35755">
        <ele>161</ele>
        <time>2012-03-13T13:48:07.000Z</time>
      </trkpt>
      <trkpt lat="44.98311" lon="0.35759">
        <ele>160</ele>
        <time>2012-03-13T13:48:08.000Z</time>
      </trkpt>
      <trkpt lat="44.9831" lon="0.35768">
        <ele>158</ele>
        <time>2012-03-13T13:48:09.000Z</time>
      </trkpt>
      <trkpt lat="44.9831" lon="0.3578">
        <ele>155</ele>
        <time>2012-03-13T13:48:11.000Z</time>
      </trkpt>
      <trkpt lat="44.98308" lon="0.35785">
        <ele>155</ele>
        <time>2012-03-13T13:48:12.000Z</time>
      </trkpt>
      <trkpt lat="44.98304" lon="0.35791">
        <ele>155</ele>
        <time>2012-03-13T13:48:13.000Z</time>
      </trkpt>
      <trkpt lat="44.98301" lon="0.35799">
        <ele>155</ele>
        <time>2012-03-13T13:48:14.000Z</time>
      </trkpt>
      <trkpt lat="44.98297" lon="0.35807">
        <ele>155</ele>
        <time>2012-03-13T13:48:15.000Z</time>
      </trkpt>
      <trkpt lat="44.98293" lon="0.35816">
        <ele>154</ele>
        <time>2012-03-13T13:48:16.000Z</time>
      </trkpt>
      <trkpt lat="44.9829" lon="0.35825">
        <ele>154</ele>
        <time>2012-03-13T13:48:17.000Z</time>
      </trkpt>
      <trkpt lat="44.98286" lon="0.35835">
        <ele>154</ele>
        <time>2012-03-13T13:48:18.000Z</time>
      </trkpt>
      <trkpt lat="44.98284" lon="0.35844">
        <ele>152</ele>
        <time>2012-03-13T13:48:19.000Z</time>
      </trkpt>
      <trkpt lat="44.98279" lon="0.35852">
        <ele>151</ele>
        <time>2012-03-13T13:48:20.000Z</time>
      </trkpt>
      <trkpt lat="44.98274" lon="0.35858">
        <ele>150</ele>
        <time>2012-03-13T13:48:21.000Z</time>
      </trkpt>
      <trkpt lat="44.98271" lon="0.35865">
        <ele>149</ele>
        <time>2012-03-13T13:48:22.000Z</time>
      </trkpt>
      <trkpt lat="44.98269" lon="0.35873">
        <ele>148</ele>
        <time>2012-03-13T13:48:23.000Z</time>
      </trkpt>
      <trkpt lat="44.98272" lon="0.35882">
        <ele>147</ele>
        <time>2012-03-13T13:48:24.000Z</time>
      </trkpt>
      <trkpt lat="44.98274" lon="0.35888">
        <ele>148</ele>
        <time>2012-03-13T13:48:25.000Z</time>
      </trkpt>
      <trkpt lat="44.98274" lon="0.35898">
        <ele>147</ele>
        <time>2012-03-13T13:48:26.000Z</time>
      </trkpt>
      <trkpt lat="44.98273" lon="0.35906">
        <ele>146</ele>
        <time>2012-03-13T13:48:27.000Z</time>
      </trkpt>
      <trkpt lat="44.9827" lon="0.35912">
        <ele>146</ele>
        <time>2012-03-13T13:48:28.000Z</time>
      </trkpt>
      <trkpt lat="44.98264" lon="0.35918">
        <ele>145</ele>
        <time>2012-03-13T13:48:29.000Z</time>
      </trkpt>
      <trkpt lat="44.98258" lon="0.35926">
        <ele>144</ele>
        <time>2012-03-13T13:48:30.000Z</time>
      </trkpt>
      <trkpt lat="44.98253" lon="0.35933">
        <ele>143</ele>
        <time>2012-03-13T13:48:31.000Z</time>
      </trkpt>
      <trkpt lat="44.98248" lon="0.35941">
        <ele>142</ele>
        <time>2012-03-13T13:48:32.000Z</time>
      </trkpt>
      <trkpt lat="44.98245" lon="0.3595">
        <ele>141</ele>
        <time>2012-03-13T13:48:33.000Z</time>
      </trkpt>
      <trkpt lat="44.98244" lon="0.3597">
        <ele>138</ele>
        <time>2012-03-13T13:48:35.000Z</time>
      </trkpt>
      <trkpt lat="44.98244" lon="0.35981">
        <ele>137</ele>
        <time>2012-03-13T13:48:36.000Z</time>
      </trkpt>
      <trkpt lat="44.98244" lon="0.35991">
        <ele>137</ele>
        <time>2012-03-13T13:48:37.000Z</time>
      </trkpt>
      <trkpt lat="44.98244" lon="0.36">
        <ele>137</ele>
        <time>2012-03-13T13:48:38.000Z</time>
      </trkpt>
      <trkpt lat="44.98244" lon="0.36008">
        <ele>137</ele>
        <time>2012-03-13T13:48:39.000Z</time>
      </trkpt>
      <trkpt lat="44.98244" lon="0.36014">
        <ele>137</ele>
        <time>2012-03-13T13:48:40.000Z</time>
      </trkpt>
      <trkpt lat="44.98244" lon="0.36022">
        <ele>138</ele>
        <time>2012-03-13T13:48:42.000Z</time>
      </trkpt>
      <trkpt lat="44.9824" lon="0.36025">
        <ele>138</ele>
        <time>2012-03-13T13:48:44.000Z</time>
      </trkpt>
      <trkpt lat="44.98233" lon="0.36023">
        <ele>138</ele>
        <time>2012-03-13T13:48:48.000Z</time>
      </trkpt>
      <trkpt lat="44.98232" lon="0.36016">
        <ele>137</ele>
        <time>2012-03-13T13:49:02.000Z</time>
      </trkpt>
      <trkpt lat="44.98226" lon="0.36014">
        <ele>137</ele>
        <time>2012-03-13T13:49:33.000Z</time>
      </trkpt>
      <trkpt lat="44.98223" lon="0.3601">
        <ele>139</ele>
        <time>2012-03-13T13:49:35.000Z</time>
      </trkpt>
      <trkpt lat="44.98214" lon="0.36008">
        <ele>139</ele>
        <time>2012-03-13T13:49:37.000Z</time>
      </trkpt>
      <trkpt lat="44.98208" lon="0.36008">
        <ele>139</ele>
        <time>2012-03-13T13:49:38.000Z</time>
      </trkpt>
      <trkpt lat="44.98199" lon="0.36004">
        <ele>140</ele>
        <time>2012-03-13T13:49:40.000Z</time>
      </trkpt>
      <trkpt lat="44.98194" lon="0.36002">
        <ele>140</ele>
        <time>2012-03-13T13:49:41.000Z</time>
      </trkpt>
      <trkpt lat="44.98186" lon="0.36">
        <ele>141</ele>
        <time>2012-03-13T13:49:43.000Z</time>
      </trkpt>
      <trkpt lat="44.98179" lon="0.36">
        <ele>142</ele>
        <time>2012-03-13T13:49:45.000Z</time>
      </trkpt>
      <trkpt lat="44.98173" lon="0.36">
        <ele>145</ele>
        <time>2012-03-13T13:49:47.000Z</time>
      </trkpt>
      <trkpt lat="44.98168" lon="0.35996">
        <ele>148</ele>
        <time>2012-03-13T13:49:49.000Z</time>
      </trkpt>
      <trkpt lat="44.9816" lon="0.35992">
        <ele>150</ele>
        <time>2012-03-13T13:49:51.000Z</time>
      </trkpt>
      <trkpt lat="44.98155" lon="0.35988">
        <ele>152</ele>
        <time>2012-03-13T13:49:53.000Z</time>
      </trkpt>
      <trkpt lat="44.9815" lon="0.35984">
        <ele>155</ele>
        <time>2012-03-13T13:49:55.000Z</time>
      </trkpt>
      <trkpt lat="44.98142" lon="0.35978">
        <ele>157</ele>
        <time>2012-03-13T13:49:57.000Z</time>
      </trkpt>
      <trkpt lat="44.98136" lon="0.35971">
        <ele>160</ele>
        <time>2012-03-13T13:49:59.000Z</time>
      </trkpt>
      <trkpt lat="44.98126" lon="0.35968">
        <ele>164</ele>
        <time>2012-03-13T13:50:01.000Z</time>
      </trkpt>
      <trkpt lat="44.98117" lon="0.35965">
        <ele>167</ele>
        <time>2012-03-13T13:50:03.000Z</time>
      </trkpt>
      <trkpt lat="44.98112" lon="0.35959">
        <ele>169</ele>
        <time>2012-03-13T13:50:05.000Z</time>
      </trkpt>
      <trkpt lat="44.98105" lon="0.35957">
        <ele>169</ele>
        <time>2012-03-13T13:50:06.000Z</time>
      </trkpt>
      <trkpt lat="44.98098" lon="0.3595">
        <ele>169</ele>
        <time>2012-03-13T13:50:08.000Z</time>
      </trkpt>
      <trkpt lat="44.98093" lon="0.35946">
        <ele>170</ele>
        <time>2012-03-13T13:50:09.000Z</time>
      </trkpt>
      <trkpt lat="44.98086" lon="0.35944">
        <ele>170</ele>
        <time>2012-03-13T13:50:10.000Z</time>
      </trkpt>
      <trkpt lat="44.98081" lon="0.35941">
        <ele>170</ele>
        <time>2012-03-13T13:50:11.000Z</time>
      </trkpt>
      <trkpt lat="44.98074" lon="0.35936">
        <ele>169</ele>
        <time>2012-03-13T13:50:12.000Z</time>
      </trkpt>
      <trkpt lat="44.9807" lon="0.35923">
        <ele>167</ele>
        <time>2012-03-13T13:50:13.000Z</time>
      </trkpt>
      <trkpt lat="44.98067" lon="0.35915">
        <ele>167</ele>
        <time>2012-03-13T13:50:14.000Z</time>
      </trkpt>
      <trkpt lat="44.98065" lon="0.35909">
        <ele>166</ele>
        <time>2012-03-13T13:50:15.000Z</time>
      </trkpt>
      <trkpt lat="44.98067" lon="0.35896">
        <ele>165</ele>
        <time>2012-03-13T13:50:16.000Z</time>
      </trkpt>
      <trkpt lat="44.98068" lon="0.35886">
        <ele>163</ele>
        <time>2012-03-13T13:50:17.000Z</time>
      </trkpt>
      <trkpt lat="44.98065" lon="0.35879">
        <ele>159</ele>
        <time>2012-03-13T13:50:18.000Z</time>
      </trkpt>
      <trkpt lat="44.9806" lon="0.35879">
        <ele>157</ele>
        <time>2012-03-13T13:50:19.000Z</time>
      </trkpt>
      <trkpt lat="44.98055" lon="0.35885">
        <ele>156</ele>
        <time>2012-03-13T13:50:21.000Z</time>
      </trkpt>
      <trkpt lat="44.98048" lon="0.35889">
        <ele>155</ele>
        <time>2012-03-13T13:50:23.000Z</time>
      </trkpt>
      <trkpt lat="44.98041" lon="0.35891">
        <ele>154</ele>
        <time>2012-03-13T13:50:25.000Z</time>
      </trkpt>
      <trkpt lat="44.98036" lon="0.35896">
        <ele>153</ele>
        <time>2012-03-13T13:50:27.000Z</time>
      </trkpt>
      <trkpt lat="44.98028" lon="0.35901">
        <ele>155</ele>
        <time>2012-03-13T13:50:29.000Z</time>
      </trkpt>
      <trkpt lat="44.98022" lon="0.35904">
        <ele>156</ele>
        <time>2012-03-13T13:50:30.000Z</time>
      </trkpt>
      <trkpt lat="44.98018" lon="0.35906">
        <ele>157</ele>
        <time>2012-03-13T13:50:31.000Z</time>
      </trkpt>
      <trkpt lat="44.98011" lon="0.35913">
        <ele>158</ele>
        <time>2012-03-13T13:50:33.000Z</time>
      </trkpt>
      <trkpt lat="44.98006" lon="0.35917">
        <ele>158</ele>
        <time>2012-03-13T13:50:35.000Z</time>
      </trkpt>
      <trkpt lat="44.98001" lon="0.35922">
        <ele>159</ele>
        <time>2012-03-13T13:50:37.000Z</time>
      </trkpt>
      <trkpt lat="44.97995" lon="0.35926">
        <ele>160</ele>
        <time>2012-03-13T13:50:39.000Z</time>
      </trkpt>
      <trkpt lat="44.97991" lon="0.35929">
        <ele>161</ele>
        <time>2012-03-13T13:50:40.000Z</time>
      </trkpt>
      <trkpt lat="44.97984" lon="0.35933">
        <ele>161</ele>
        <time>2012-03-13T13:50:41.000Z</time>
      </trkpt>
      <trkpt lat="44.97977" lon="0.35937">
        <ele>160</ele>
        <time>2012-03-13T13:50:42.000Z</time>
      </trkpt>
      <trkpt lat="44.97973" lon="0.35942">
        <ele>159</ele>
        <time>2012-03-13T13:50:43.000Z</time>
      </trkpt>
      <trkpt lat="44.97968" lon="0.35945">
        <ele>159</ele>
        <time>2012-03-13T13:50:44.000Z</time>
      </trkpt>
      <trkpt lat="44.97964" lon="0.3595">
        <ele>160</ele>
        <time>2012-03-13T13:50:45.000Z</time>
      </trkpt>
      <trkpt lat="44.97958" lon="0.35954">
        <ele>159</ele>
        <time>2012-03-13T13:50:46.000Z</time>
      </trkpt>
      <trkpt lat="44.97952" lon="0.35956">
        <ele>159</ele>
        <time>2012-03-13T13:50:47.000Z</time>
      </trkpt>
      <trkpt lat="44.97947" lon="0.35957">
        <ele>159</ele>
        <time>2012-03-13T13:50:48.000Z</time>
      </trkpt>
      <trkpt lat="44.97941" lon="0.35957">
        <ele>159</ele>
        <time>2012-03-13T13:50:49.000Z</time>
      </trkpt>
      <trkpt lat="44.97934" lon="0.35959">
        <ele>160</ele>
        <time>2012-03-13T13:50:51.000Z</time>
      </trkpt>
      <trkpt lat="44.97929" lon="0.35981">
        <ele>159</ele>
        <time>2012-03-13T13:50:56.000Z</time>
      </trkpt>
      <trkpt lat="44.97926" lon="0.35989">
        <ele>159</ele>
        <time>2012-03-13T13:50:58.000Z</time>
      </trkpt>
      <trkpt lat="44.97921" lon="0.35996">
        <ele>160</ele>
        <time>2012-03-13T13:51:00.000Z</time>
      </trkpt>
      <trkpt lat="44.97918" lon="0.36">
        <ele>159</ele>
        <time>2012-03-13T13:51:01.000Z</time>
      </trkpt>
      <trkpt lat="44.97912" lon="0.36005">
        <ele>159</ele>
        <time>2012-03-13T13:51:03.000Z</time>
      </trkpt>
      <trkpt lat="44.97906" lon="0.36009">
        <ele>160</ele>
        <time>2012-03-13T13:51:05.000Z</time>
      </trkpt>
      <trkpt lat="44.97901" lon="0.36011">
        <ele>167</ele>
        <time>2012-03-13T13:51:06.000Z</time>
      </trkpt>
      <trkpt lat="44.97895" lon="0.36018">
        <ele>167</ele>
        <time>2012-03-13T13:51:08.000Z</time>
      </trkpt>
      <trkpt lat="44.9789" lon="0.36025">
        <ele>166</ele>
        <time>2012-03-13T13:51:10.000Z</time>
      </trkpt>
      <trkpt lat="44.97888" lon="0.36034">
        <ele>166</ele>
        <time>2012-03-13T13:51:12.000Z</time>
      </trkpt>
      <trkpt lat="44.97888" lon="0.36041">
        <ele>166</ele>
        <time>2012-03-13T13:51:13.000Z</time>
      </trkpt>
      <trkpt lat="44.97888" lon="0.36047">
        <ele>166</ele>
        <time>2012-03-13T13:51:14.000Z</time>
      </trkpt>
      <trkpt lat="44.97887" lon="0.36057">
        <ele>165</ele>
        <time>2012-03-13T13:51:16.000Z</time>
      </trkpt>
      <trkpt lat="44.97887" lon="0.36066">
        <ele>163</ele>
        <time>2012-03-13T13:51:18.000Z</time>
      </trkpt>
      <trkpt lat="44.97887" lon="0.36077">
        <ele>163</ele>
        <time>2012-03-13T13:51:20.000Z</time>
      </trkpt>
      <trkpt lat="44.97886" lon="0.36088">
        <ele>163</ele>
        <time>2012-03-13T13:51:22.000Z</time>
      </trkpt>
      <trkpt lat="44.97885" lon="0.36095">
        <ele>162</ele>
        <time>2012-03-13T13:51:23.000Z</time>
      </trkpt>
      <trkpt lat="44.97883" lon="0.36102">
        <ele>161</ele>
        <time>2012-03-13T13:51:24.000Z</time>
      </trkpt>
      <trkpt lat="44.97878" lon="0.36109">
        <ele>163</ele>
        <time>2012-03-13T13:51:26.000Z</time>
      </trkpt>
      <trkpt lat="44.97874" lon="0.36112">
        <ele>163</ele>
        <time>2012-03-13T13:51:28.000Z</time>
      </trkpt>
      <trkpt lat="44.9787" lon="0.36121">
        <ele>161</ele>
        <time>2012-03-13T13:51:30.000Z</time>
      </trkpt>
      <trkpt lat="44.97869" lon="0.36135">
        <ele>161</ele>
        <time>2012-03-13T13:51:32.000Z</time>
      </trkpt>
      <trkpt lat="44.97867" lon="0.36143">
        <ele>161</ele>
        <time>2012-03-13T13:51:33.000Z</time>
      </trkpt>
      <trkpt lat="44.97866" lon="0.36152">
        <ele>161</ele>
        <time>2012-03-13T13:51:34.000Z</time>
      </trkpt>
      <trkpt lat="44.97867" lon="0.36162">
        <ele>160</ele>
        <time>2012-03-13T13:51:35.000Z</time>
      </trkpt>
      <trkpt lat="44.97866" lon="0.36168">
        <ele>160</ele>
        <time>2012-03-13T13:51:36.000Z</time>
      </trkpt>
      <trkpt lat="44.97866" lon="0.36177">
        <ele>160</ele>
        <time>2012-03-13T13:51:38.000Z</time>
      </trkpt>
      <trkpt lat="44.97866" lon="0.36186">
        <ele>161</ele>
        <time>2012-03-13T13:51:40.000Z</time>
      </trkpt>
      <trkpt lat="44.97863" lon="0.36198">
        <ele>159</ele>
        <time>2012-03-13T13:51:42.000Z</time>
      </trkpt>
      <trkpt lat="44.97862" lon="0.36205">
        <ele>158</ele>
        <time>2012-03-13T13:51:43.000Z</time>
      </trkpt>
      <trkpt lat="44.97861" lon="0.36212">
        <ele>157</ele>
        <time>2012-03-13T13:51:44.000Z</time>
      </trkpt>
      <trkpt lat="44.97861" lon="0.36219">
        <ele>156</ele>
        <time>2012-03-13T13:51:45.000Z</time>
      </trkpt>
      <trkpt lat="44.9786" lon="0.36227">
        <ele>155</ele>
        <time>2012-03-13T13:51:46.000Z</time>
      </trkpt>
      <trkpt lat="44.97861" lon="0.36234">
        <ele>154</ele>
        <time>2012-03-13T13:51:47.000Z</time>
      </trkpt>
      <trkpt lat="44.97862" lon="0.36241">
        <ele>154</ele>
        <time>2012-03-13T13:51:48.000Z</time>
      </trkpt>
      <trkpt lat="44.97862" lon="0.36248">
        <ele>153</ele>
        <time>2012-03-13T13:51:49.000Z</time>
      </trkpt>
      <trkpt lat="44.9786" lon="0.36255">
        <ele>153</ele>
        <time>2012-03-13T13:51:50.000Z</time>
      </trkpt>
      <trkpt lat="44.97858" lon="0.36262">
        <ele>153</ele>
        <time>2012-03-13T13:51:51.000Z</time>
      </trkpt>
      <trkpt lat="44.97857" lon="0.36275">
        <ele>153</ele>
        <time>2012-03-13T13:51:53.000Z</time>
      </trkpt>
      <trkpt lat="44.97858" lon="0.36281">
        <ele>152</ele>
        <time>2012-03-13T13:51:54.000Z</time>
      </trkpt>
      <trkpt lat="44.97859" lon="0.36288">
        <ele>152</ele>
        <time>2012-03-13T13:51:55.000Z</time>
      </trkpt>
      <trkpt lat="44.97864" lon="0.36294">
        <ele>151</ele>
        <time>2012-03-13T13:51:56.000Z</time>
      </trkpt>
      <trkpt lat="44.97867" lon="0.36301">
        <ele>150</ele>
        <time>2012-03-13T13:51:57.000Z</time>
      </trkpt>
      <trkpt lat="44.97871" lon="0.36309">
        <ele>151</ele>
        <time>2012-03-13T13:51:58.000Z</time>
      </trkpt>
      <trkpt lat="44.97876" lon="0.36317">
        <ele>150</ele>
        <time>2012-03-13T13:51:59.000Z</time>
      </trkpt>
      <trkpt lat="44.97881" lon="0.36325">
        <ele>149</ele>
        <time>2012-03-13T13:52:00.000Z</time>
      </trkpt>
      <trkpt lat="44.97886" lon="0.36333">
        <ele>148</ele>
        <time>2012-03-13T13:52:01.000Z</time>
      </trkpt>
      <trkpt lat="44.97891" lon="0.36339">
        <ele>149</ele>
        <time>2012-03-13T13:52:02.000Z</time>
      </trkpt>
      <trkpt lat="44.97894" lon="0.36348">
        <ele>148</ele>
        <time>2012-03-13T13:52:03.000Z</time>
      </trkpt>
      <trkpt lat="44.97896" lon="0.36358">
        <ele>148</ele>
        <time>2012-03-13T13:52:05.000Z</time>
      </trkpt>
      <trkpt lat="44.97898" lon="0.36364">
        <ele>148</ele>
        <time>2012-03-13T13:52:06.000Z</time>
      </trkpt>
      <trkpt lat="44.979" lon="0.36372">
        <ele>148</ele>
        <time>2012-03-13T13:52:09.000Z</time>
      </trkpt>
      <trkpt lat="44.97901" lon="0.3638">
        <ele>149</ele>
        <time>2012-03-13T13:52:11.000Z</time>
      </trkpt>
      <trkpt lat="44.97902" lon="0.36391">
        <ele>149</ele>
        <time>2012-03-13T13:52:13.000Z</time>
      </trkpt>
      <trkpt lat="44.97904" lon="0.36397">
        <ele>149</ele>
        <time>2012-03-13T13:52:14.000Z</time>
      </trkpt>
      <trkpt lat="44.97902" lon="0.36404">
        <ele>149</ele>
        <time>2012-03-13T13:52:15.000Z</time>
      </trkpt>
      <trkpt lat="44.97907" lon="0.36403">
        <ele>149</ele>
        <time>2012-03-13T13:52:17.000Z</time>
      </trkpt>
      <trkpt lat="44.97915" lon="0.36405">
        <ele>148</ele>
        <time>2012-03-13T13:52:19.000Z</time>
      </trkpt>
      <trkpt lat="44.97922" lon="0.36402">
        <ele>149</ele>
        <time>2012-03-13T13:52:21.000Z</time>
      </trkpt>
      <trkpt lat="44.97928" lon="0.36403">
        <ele>149</ele>
        <time>2012-03-13T13:52:23.000Z</time>
      </trkpt>
      <trkpt lat="44.97933" lon="0.36406">
        <ele>150</ele>
        <time>2012-03-13T13:52:25.000Z</time>
      </trkpt>
      <trkpt lat="44.97939" lon="0.36412">
        <ele>147</ele>
        <time>2012-03-13T13:52:27.000Z</time>
      </trkpt>
      <trkpt lat="44.97942" lon="0.36417">
        <ele>146</ele>
        <time>2012-03-13T13:52:29.000Z</time>
      </trkpt>
      <trkpt lat="44.97947" lon="0.36421">
        <ele>146</ele>
        <time>2012-03-13T13:52:31.000Z</time>
      </trkpt>
      <trkpt lat="44.97957" lon="0.36428">
        <ele>148</ele>
        <time>2012-03-13T13:52:34.000Z</time>
      </trkpt>
      <trkpt lat="44.97966" lon="0.3643">
        <ele>147</ele>
        <time>2012-03-13T13:52:36.000Z</time>
      </trkpt>
      <trkpt lat="44.97973" lon="0.36436">
        <ele>146</ele>
        <time>2012-03-13T13:52:38.000Z</time>
      </trkpt>
      <trkpt lat="44.97979" lon="0.3644">
        <ele>147</ele>
        <time>2012-03-13T13:52:40.000Z</time>
      </trkpt>
      <trkpt lat="44.97986" lon="0.36445">
        <ele>147</ele>
        <time>2012-03-13T13:52:42.000Z</time>
      </trkpt>
      <trkpt lat="44.97989" lon="0.36449">
        <ele>148</ele>
        <time>2012-03-13T13:52:43.000Z</time>
      </trkpt>
      <trkpt lat="44.97994" lon="0.36454">
        <ele>148</ele>
        <time>2012-03-13T13:52:44.000Z</time>
      </trkpt>
      <trkpt lat="44.97997" lon="0.36459">
        <ele>149</ele>
        <time>2012-03-13T13:52:45.000Z</time>
      </trkpt>
      <trkpt lat="44.98" lon="0.36464">
        <ele>149</ele>
        <time>2012-03-13T13:52:46.000Z</time>
      </trkpt>
      <trkpt lat="44.98003" lon="0.36468">
        <ele>148</ele>
        <time>2012-03-13T13:52:47.000Z</time>
      </trkpt>
      <trkpt lat="44.98006" lon="0.36476">
        <ele>148</ele>
        <time>2012-03-13T13:52:49.000Z</time>
      </trkpt>
      <trkpt lat="44.98009" lon="0.36486">
        <ele>149</ele>
        <time>2012-03-13T13:52:51.000Z</time>
      </trkpt>
      <trkpt lat="44.9801" lon="0.36493">
        <ele>151</ele>
        <time>2012-03-13T13:52:53.000Z</time>
      </trkpt>
      <trkpt lat="44.9801" lon="0.36505">
        <ele>152</ele>
        <time>2012-03-13T13:52:55.000Z</time>
      </trkpt>
      <trkpt lat="44.98015" lon="0.36514">
        <ele>153</ele>
        <time>2012-03-13T13:52:57.000Z</time>
      </trkpt>
      <trkpt lat="44.9802" lon="0.3652">
        <ele>153</ele>
        <time>2012-03-13T13:52:59.000Z</time>
      </trkpt>
      <trkpt lat="44.98026" lon="0.36526">
        <ele>154</ele>
        <time>2012-03-13T13:53:01.000Z</time>
      </trkpt>
      <trkpt lat="44.98031" lon="0.36533">
        <ele>157</ele>
        <time>2012-03-13T13:53:03.000Z</time>
      </trkpt>
      <trkpt lat="44.98039" lon="0.36539">
        <ele>157</ele>
        <time>2012-03-13T13:53:05.000Z</time>
      </trkpt>
      <trkpt lat="44.98044" lon="0.36545">
        <ele>157</ele>
        <time>2012-03-13T13:53:06.000Z</time>
      </trkpt>
      <trkpt lat="44.98048" lon="0.36549">
        <ele>157</ele>
        <time>2012-03-13T13:53:07.000Z</time>
      </trkpt>
      <trkpt lat="44.98052" lon="0.36556">
        <ele>156</ele>
        <time>2012-03-13T13:53:08.000Z</time>
      </trkpt>
      <trkpt lat="44.98055" lon="0.3656">
        <ele>155</ele>
        <time>2012-03-13T13:53:09.000Z</time>
      </trkpt>
      <trkpt lat="44.98055" lon="0.36568">
        <ele>156</ele>
        <time>2012-03-13T13:53:10.000Z</time>
      </trkpt>
      <trkpt lat="44.98059" lon="0.36579">
        <ele>156</ele>
        <time>2012-03-13T13:53:12.000Z</time>
      </trkpt>
      <trkpt lat="44.9806" lon="0.36591">
        <ele>156</ele>
        <time>2012-03-13T13:53:14.000Z</time>
      </trkpt>
      <trkpt lat="44.98063" lon="0.366">
        <ele>157</ele>
        <time>2012-03-13T13:53:16.000Z</time>
      </trkpt>
      <trkpt lat="44.98068" lon="0.36606">
        <ele>156</ele>
        <time>2012-03-13T13:53:17.000Z</time>
      </trkpt>
      <trkpt lat="44.9807" lon="0.36612">
        <ele>156</ele>
        <time>2012-03-13T13:53:18.000Z</time>
      </trkpt>
      <trkpt lat="44.98074" lon="0.36618">
        <ele>156</ele>
        <time>2012-03-13T13:53:19.000Z</time>
      </trkpt>
      <trkpt lat="44.98079" lon="0.36626">
        <ele>156</ele>
        <time>2012-03-13T13:53:21.000Z</time>
      </trkpt>
      <trkpt lat="44.98084" lon="0.36635">
        <ele>155</ele>
        <time>2012-03-13T13:53:23.000Z</time>
      </trkpt>
      <trkpt lat="44.98089" lon="0.36642">
        <ele>155</ele>
        <time>2012-03-13T13:53:25.000Z</time>
      </trkpt>
      <trkpt lat="44.98094" lon="0.36651">
        <ele>156</ele>
        <time>2012-03-13T13:53:27.000Z</time>
      </trkpt>
      <trkpt lat="44.98098" lon="0.36659">
        <ele>157</ele>
        <time>2012-03-13T13:53:29.000Z</time>
      </trkpt>
      <trkpt lat="44.98102" lon="0.36669">
        <ele>157</ele>
        <time>2012-03-13T13:53:31.000Z</time>
      </trkpt>
      <trkpt lat="44.98105" lon="0.36676">
        <ele>156</ele>
        <time>2012-03-13T13:53:32.000Z</time>
      </trkpt>
      <trkpt lat="44.98107" lon="0.36683">
        <ele>155</ele>
        <time>2012-03-13T13:53:33.000Z</time>
      </trkpt>
      <trkpt lat="44.98109" lon="0.3669">
        <ele>154</ele>
        <time>2012-03-13T13:53:34.000Z</time>
      </trkpt>
      <trkpt lat="44.98112" lon="0.36696">
        <ele>154</ele>
        <time>2012-03-13T13:53:35.000Z</time>
      </trkpt>
      <trkpt lat="44.98113" lon="0.36702">
        <ele>154</ele>
        <time>2012-03-13T13:53:36.000Z</time>
      </trkpt>
      <trkpt lat="44.98115" lon="0.36708">
        <ele>154</ele>
        <time>2012-03-13T13:53:37.000Z</time>
      </trkpt>
      <trkpt lat="44.98118" lon="0.36719">
        <ele>154</ele>
        <time>2012-03-13T13:53:39.000Z</time>
      </trkpt>
      <trkpt lat="44.98121" lon="0.3673">
        <ele>155</ele>
        <time>2012-03-13T13:53:41.000Z</time>
      </trkpt>
      <trkpt lat="44.98124" lon="0.36736">
        <ele>155</ele>
        <time>2012-03-13T13:53:42.000Z</time>
      </trkpt>
      <trkpt lat="44.98126" lon="0.36741">
        <ele>154</ele>
        <time>2012-03-13T13:53:43.000Z</time>
      </trkpt>
      <trkpt lat="44.98129" lon="0.36748">
        <ele>153</ele>
        <time>2012-03-13T13:53:44.000Z</time>
      </trkpt>
      <trkpt lat="44.98131" lon="0.36756">
        <ele>153</ele>
        <time>2012-03-13T13:53:46.000Z</time>
      </trkpt>
      <trkpt lat="44.9813" lon="0.36764">
        <ele>153</ele>
        <time>2012-03-13T13:53:48.000Z</time>
      </trkpt>
      <trkpt lat="44.98128" lon="0.3677">
        <ele>155</ele>
        <time>2012-03-13T13:53:50.000Z</time>
      </trkpt>
      <trkpt lat="44.98122" lon="0.36768">
        <ele>155</ele>
        <time>2012-03-13T13:53:52.000Z</time>
      </trkpt>
      <trkpt lat="44.98116" lon="0.36767">
        <ele>156</ele>
        <time>2012-03-13T13:53:54.000Z</time>
      </trkpt>
      <trkpt lat="44.98111" lon="0.36766">
        <ele>159</ele>
        <time>2012-03-13T13:53:56.000Z</time>
      </trkpt>
      <trkpt lat="44.98103" lon="0.36766">
        <ele>162</ele>
        <time>2012-03-13T13:53:58.000Z</time>
      </trkpt>
      <trkpt lat="44.98097" lon="0.36766">
        <ele>165</ele>
        <time>2012-03-13T13:54:00.000Z</time>
      </trkpt>
      <trkpt lat="44.98091" lon="0.36767">
        <ele>167</ele>
        <time>2012-03-13T13:54:02.000Z</time>
      </trkpt>
      <trkpt lat="44.98085" lon="0.36769">
        <ele>169</ele>
        <time>2012-03-13T13:54:04.000Z</time>
      </trkpt>
      <trkpt lat="44.98077" lon="0.36771">
        <ele>171</ele>
        <time>2012-03-13T13:54:06.000Z</time>
      </trkpt>
      <trkpt lat="44.9807" lon="0.36772">
        <ele>172</ele>
        <time>2012-03-13T13:54:08.000Z</time>
      </trkpt>
      <trkpt lat="44.98062" lon="0.36772">
        <ele>172</ele>
        <time>2012-03-13T13:54:10.000Z</time>
      </trkpt>
      <trkpt lat="44.98058" lon="0.36774">
        <ele>172</ele>
        <time>2012-03-13T13:54:11.000Z</time>
      </trkpt>
      <trkpt lat="44.9805" lon="0.36775">
        <ele>172</ele>
        <time>2012-03-13T13:54:13.000Z</time>
      </trkpt>
      <trkpt lat="44.9804" lon="0.36776">
        <ele>173</ele>
        <time>2012-03-13T13:54:15.000Z</time>
      </trkpt>
      <trkpt lat="44.98036" lon="0.36778">
        <ele>173</ele>
        <time>2012-03-13T13:54:16.000Z</time>
      </trkpt>
      <trkpt lat="44.98031" lon="0.36778">
        <ele>173</ele>
        <time>2012-03-13T13:54:17.000Z</time>
      </trkpt>
      <trkpt lat="44.98026" lon="0.36779">
        <ele>173</ele>
        <time>2012-03-13T13:54:18.000Z</time>
      </trkpt>
      <trkpt lat="44.98016" lon="0.36778">
        <ele>174</ele>
        <time>2012-03-13T13:54:20.000Z</time>
      </trkpt>
      <trkpt lat="44.98006" lon="0.36776">
        <ele>173</ele>
        <time>2012-03-13T13:54:22.000Z</time>
      </trkpt>
      <trkpt lat="44.98" lon="0.36776">
        <ele>172</ele>
        <time>2012-03-13T13:54:23.000Z</time>
      </trkpt>
      <trkpt lat="44.97994" lon="0.36776">
        <ele>171</ele>
        <time>2012-03-13T13:54:24.000Z</time>
      </trkpt>
      <trkpt lat="44.97989" lon="0.36777">
        <ele>170</ele>
        <time>2012-03-13T13:54:25.000Z</time>
      </trkpt>
      <trkpt lat="44.97982" lon="0.36778">
        <ele>169</ele>
        <time>2012-03-13T13:54:26.000Z</time>
      </trkpt>
      <trkpt lat="44.97977" lon="0.36782">
        <ele>168</ele>
        <time>2012-03-13T13:54:27.000Z</time>
      </trkpt>
      <trkpt lat="44.97972" lon="0.36784">
        <ele>167</ele>
        <time>2012-03-13T13:54:28.000Z</time>
      </trkpt>
      <trkpt lat="44.97966" lon="0.36786">
        <ele>167</ele>
        <time>2012-03-13T13:54:29.000Z</time>
      </trkpt>
      <trkpt lat="44.97961" lon="0.36789">
        <ele>167</ele>
        <time>2012-03-13T13:54:30.000Z</time>
      </trkpt>
      <trkpt lat="44.97956" lon="0.3679">
        <ele>167</ele>
        <time>2012-03-13T13:54:31.000Z</time>
      </trkpt>
      <trkpt lat="44.97951" lon="0.36792">
        <ele>167</ele>
        <time>2012-03-13T13:54:32.000Z</time>
      </trkpt>
      <trkpt lat="44.97946" lon="0.36795">
        <ele>167</ele>
        <time>2012-03-13T13:54:33.000Z</time>
      </trkpt>
      <trkpt lat="44.9794" lon="0.36798">
        <ele>168</ele>
        <time>2012-03-13T13:54:34.000Z</time>
      </trkpt>
      <trkpt lat="44.97932" lon="0.368">
        <ele>168</ele>
        <time>2012-03-13T13:54:35.000Z</time>
      </trkpt>
      <trkpt lat="44.97926" lon="0.36804">
        <ele>167</ele>
        <time>2012-03-13T13:54:36.000Z</time>
      </trkpt>
      <trkpt lat="44.9792" lon="0.36808">
        <ele>165</ele>
        <time>2012-03-13T13:54:37.000Z</time>
      </trkpt>
      <trkpt lat="44.97913" lon="0.36812">
        <ele>164</ele>
        <time>2012-03-13T13:54:38.000Z</time>
      </trkpt>
      <trkpt lat="44.97908" lon="0.36815">
        <ele>164</ele>
        <time>2012-03-13T13:54:39.000Z</time>
      </trkpt>
      <trkpt lat="44.97901" lon="0.36818">
        <ele>164</ele>
        <time>2012-03-13T13:54:40.000Z</time>
      </trkpt>
      <trkpt lat="44.97895" lon="0.36821">
        <ele>164</ele>
        <time>2012-03-13T13:54:41.000Z</time>
      </trkpt>
      <trkpt lat="44.97887" lon="0.36824">
        <ele>164</ele>
        <time>2012-03-13T13:54:42.000Z</time>
      </trkpt>
      <trkpt lat="44.9788" lon="0.36828">
        <ele>164</ele>
        <time>2012-03-13T13:54:43.000Z</time>
      </trkpt>
      <trkpt lat="44.97875" lon="0.36832">
        <ele>165</ele>
        <time>2012-03-13T13:54:44.000Z</time>
      </trkpt>
      <trkpt lat="44.97868" lon="0.36837">
        <ele>165</ele>
        <time>2012-03-13T13:54:45.000Z</time>
      </trkpt>
      <trkpt lat="44.97862" lon="0.36842">
        <ele>165</ele>
        <time>2012-03-13T13:54:46.000Z</time>
      </trkpt>
      <trkpt lat="44.97857" lon="0.36848">
        <ele>165</ele>
        <time>2012-03-13T13:54:47.000Z</time>
      </trkpt>
      <trkpt lat="44.97853" lon="0.36852">
        <ele>166</ele>
        <time>2012-03-13T13:54:48.000Z</time>
      </trkpt>
      <trkpt lat="44.97848" lon="0.36858">
        <ele>166</ele>
        <time>2012-03-13T13:54:49.000Z</time>
      </trkpt>
      <trkpt lat="44.97844" lon="0.36861">
        <ele>166</ele>
        <time>2012-03-13T13:54:50.000Z</time>
      </trkpt>
      <trkpt lat="44.97839" lon="0.36869">
        <ele>166</ele>
        <time>2012-03-13T13:54:52.000Z</time>
      </trkpt>
      <trkpt lat="44.97834" lon="0.36876">
        <ele>167</ele>
        <time>2012-03-13T13:54:54.000Z</time>
      </trkpt>
      <trkpt lat="44.97826" lon="0.36884">
        <ele>168</ele>
        <time>2012-03-13T13:54:56.000Z</time>
      </trkpt>
      <trkpt lat="44.97822" lon="0.36888">
        <ele>168</ele>
        <time>2012-03-13T13:54:57.000Z</time>
      </trkpt>
      <trkpt lat="44.97817" lon="0.36893">
        <ele>168</ele>
        <time>2012-03-13T13:54:58.000Z</time>
      </trkpt>
      <trkpt lat="44.97811" lon="0.36898">
        <ele>169</ele>
        <time>2012-03-13T13:54:59.000Z</time>
      </trkpt>
      <trkpt lat="44.97807" lon="0.369">
        <ele>169</ele>
        <time>2012-03-13T13:55:00.000Z</time>
      </trkpt>
      <trkpt lat="44.978" lon="0.36905">
        <ele>170</ele>
        <time>2012-03-13T13:55:02.000Z</time>
      </trkpt>
      <trkpt lat="44.97794" lon="0.36906">
        <ele>171</ele>
        <time>2012-03-13T13:55:03.000Z</time>
      </trkpt>
      <trkpt lat="44.97784" lon="0.36905">
        <ele>172</ele>
        <time>2012-03-13T13:55:05.000Z</time>
      </trkpt>
      <trkpt lat="44.97777" lon="0.36906">
        <ele>172</ele>
        <time>2012-03-13T13:55:06.000Z</time>
      </trkpt>
      <trkpt lat="44.97771" lon="0.36906">
        <ele>172</ele>
        <time>2012-03-13T13:55:07.000Z</time>
      </trkpt>
      <trkpt lat="44.97764" lon="0.36907">
        <ele>172</ele>
        <time>2012-03-13T13:55:08.000Z</time>
      </trkpt>
      <trkpt lat="44.97758" lon="0.36909">
        <ele>176</ele>
        <time>2012-03-13T13:55:09.000Z</time>
      </trkpt>
      <trkpt lat="44.97753" lon="0.36913">
        <ele>178</ele>
        <time>2012-03-13T13:55:10.000Z</time>
      </trkpt>
      <trkpt lat="44.97748" lon="0.36915">
        <ele>177</ele>
        <time>2012-03-13T13:55:11.000Z</time>
      </trkpt>
      <trkpt lat="44.97742" lon="0.3692">
        <ele>178</ele>
        <time>2012-03-13T13:55:13.000Z</time>
      </trkpt>
      <trkpt lat="44.97737" lon="0.36922">
        <ele>179</ele>
        <time>2012-03-13T13:55:15.000Z</time>
      </trkpt>
      <trkpt lat="44.97731" lon="0.36924">
        <ele>181</ele>
        <time>2012-03-13T13:55:17.000Z</time>
      </trkpt>
      <trkpt lat="44.97724" lon="0.36928">
        <ele>181</ele>
        <time>2012-03-13T13:55:19.000Z</time>
      </trkpt>
      <trkpt lat="44.97717" lon="0.3693">
        <ele>181</ele>
        <time>2012-03-13T13:55:21.000Z</time>
      </trkpt>
      <trkpt lat="44.97712" lon="0.36933">
        <ele>180</ele>
        <time>2012-03-13T13:55:23.000Z</time>
      </trkpt>
      <trkpt lat="44.97706" lon="0.36935">
        <ele>180</ele>
        <time>2012-03-13T13:55:26.000Z</time>
      </trkpt>
      <trkpt lat="44.97701" lon="0.36934">
        <ele>176</ele>
        <time>2012-03-13T13:55:29.000Z</time>
      </trkpt>
      <trkpt lat="44.97697" lon="0.36937">
        <ele>173</ele>
        <time>2012-03-13T13:55:37.000Z</time>
      </trkpt>
      <trkpt lat="44.9769" lon="0.36938">
        <ele>174</ele>
        <time>2012-03-13T13:55:41.000Z</time>
      </trkpt>
      <trkpt lat="44.97684" lon="0.36938">
        <ele>173</ele>
        <time>2012-03-13T13:55:44.000Z</time>
      </trkpt>
      <trkpt lat="44.97679" lon="0.36945">
        <ele>174</ele>
        <time>2012-03-13T13:55:47.000Z</time>
      </trkpt>
      <trkpt lat="44.97673" lon="0.36947">
        <ele>173</ele>
        <time>2012-03-13T13:55:49.000Z</time>
      </trkpt>
      <trkpt lat="44.97667" lon="0.36953">
        <ele>173</ele>
        <time>2012-03-13T13:55:51.000Z</time>
      </trkpt>
      <trkpt lat="44.9766" lon="0.36959">
        <ele>174</ele>
        <time>2012-03-13T13:55:53.000Z</time>
      </trkpt>
      <trkpt lat="44.97657" lon="0.36962">
        <ele>174</ele>
        <time>2012-03-13T13:55:55.000Z</time>
      </trkpt>
      <trkpt lat="44.97651" lon="0.36967">
        <ele>175</ele>
        <time>2012-03-13T13:55:58.000Z</time>
      </trkpt>
      <trkpt lat="44.97647" lon="0.36971">
        <ele>175</ele>
        <time>2012-03-13T13:56:00.000Z</time>
      </trkpt>
      <trkpt lat="44.97642" lon="0.36974">
        <ele>175</ele>
        <time>2012-03-13T13:56:02.000Z</time>
      </trkpt>
      <trkpt lat="44.97634" lon="0.36976">
        <ele>175</ele>
        <time>2012-03-13T13:56:04.000Z</time>
      </trkpt>
      <trkpt lat="44.97629" lon="0.36979">
        <ele>176</ele>
        <time>2012-03-13T13:56:05.000Z</time>
      </trkpt>
      <trkpt lat="44.97625" lon="0.36984">
        <ele>174</ele>
        <time>2012-03-13T13:56:06.000Z</time>
      </trkpt>
      <trkpt lat="44.97619" lon="0.36988">
        <ele>173</ele>
        <time>2012-03-13T13:56:07.000Z</time>
      </trkpt>
      <trkpt lat="44.97614" lon="0.36992">
        <ele>173</ele>
        <time>2012-03-13T13:56:08.000Z</time>
      </trkpt>
      <trkpt lat="44.97612" lon="0.36998">
        <ele>172</ele>
        <time>2012-03-13T13:56:09.000Z</time>
      </trkpt>
      <trkpt lat="44.97608" lon="0.37003">
        <ele>172</ele>
        <time>2012-03-13T13:56:10.000Z</time>
      </trkpt>
      <trkpt lat="44.97605" lon="0.37008">
        <ele>171</ele>
        <time>2012-03-13T13:56:11.000Z</time>
      </trkpt>
      <trkpt lat="44.976" lon="0.37019">
        <ele>171</ele>
        <time>2012-03-13T13:56:13.000Z</time>
      </trkpt>
      <trkpt lat="44.97596" lon="0.37027">
        <ele>171</ele>
        <time>2012-03-13T13:56:15.000Z</time>
      </trkpt>
      <trkpt lat="44.97591" lon="0.37036">
        <ele>170</ele>
        <time>2012-03-13T13:56:17.000Z</time>
      </trkpt>
      <trkpt lat="44.97588" lon="0.37046">
        <ele>168</ele>
        <time>2012-03-13T13:56:19.000Z</time>
      </trkpt>
      <trkpt lat="44.97583" lon="0.37058">
        <ele>168</ele>
        <time>2012-03-13T13:56:22.000Z</time>
      </trkpt>
      <trkpt lat="44.97582" lon="0.37068">
        <ele>167</ele>
        <time>2012-03-13T13:56:24.000Z</time>
      </trkpt>
      <trkpt lat="44.9758" lon="0.37073">
        <ele>168</ele>
        <time>2012-03-13T13:56:25.000Z</time>
      </trkpt>
      <trkpt lat="44.97578" lon="0.37082">
        <ele>168</ele>
        <time>2012-03-13T13:56:27.000Z</time>
      </trkpt>
      <trkpt lat="44.97575" lon="0.37088">
        <ele>168</ele>
        <time>2012-03-13T13:56:29.000Z</time>
      </trkpt>
      <trkpt lat="44.9757" lon="0.37095">
        <ele>175</ele>
        <time>2012-03-13T13:56:31.000Z</time>
      </trkpt>
      <trkpt lat="44.97568" lon="0.37103">
        <ele>176</ele>
        <time>2012-03-13T13:56:33.000Z</time>
      </trkpt>
      <trkpt lat="44.97566" lon="0.37109">
        <ele>177</ele>
        <time>2012-03-13T13:56:35.000Z</time>
      </trkpt>
      <trkpt lat="44.97564" lon="0.37121">
        <ele>172</ele>
        <time>2012-03-13T13:56:38.000Z</time>
      </trkpt>
      <trkpt lat="44.97563" lon="0.37129">
        <ele>168</ele>
        <time>2012-03-13T13:56:40.000Z</time>
      </trkpt>
      <trkpt lat="44.97562" lon="0.37135">
        <ele>168</ele>
        <time>2012-03-13T13:56:42.000Z</time>
      </trkpt>
      <trkpt lat="44.97561" lon="0.37144">
        <ele>170</ele>
        <time>2012-03-13T13:56:45.000Z</time>
      </trkpt>
      <trkpt lat="44.97562" lon="0.37152">
        <ele>171</ele>
        <time>2012-03-13T13:56:47.000Z</time>
      </trkpt>
      <trkpt lat="44.9756" lon="0.37161">
        <ele>172</ele>
        <time>2012-03-13T13:56:50.000Z</time>
      </trkpt>
      <trkpt lat="44.97561" lon="0.3717">
        <ele>174</ele>
        <time>2012-03-13T13:56:53.000Z</time>
      </trkpt>
      <trkpt lat="44.97566" lon="0.37178">
        <ele>175</ele>
        <time>2012-03-13T13:56:55.000Z</time>
      </trkpt>
      <trkpt lat="44.97569" lon="0.37188">
        <ele>176</ele>
        <time>2012-03-13T13:56:57.000Z</time>
      </trkpt>
      <trkpt lat="44.97571" lon="0.37197">
        <ele>177</ele>
        <time>2012-03-13T13:56:59.000Z</time>
      </trkpt>
      <trkpt lat="44.97573" lon="0.37206">
        <ele>177</ele>
        <time>2012-03-13T13:57:01.000Z</time>
      </trkpt>
      <trkpt lat="44.97573" lon="0.37216">
        <ele>179</ele>
        <time>2012-03-13T13:57:03.000Z</time>
      </trkpt>
      <trkpt lat="44.97575" lon="0.37224">
        <ele>180</ele>
        <time>2012-03-13T13:57:05.000Z</time>
      </trkpt>
      <trkpt lat="44.97577" lon="0.37233">
        <ele>179</ele>
        <time>2012-03-13T13:57:07.000Z</time>
      </trkpt>
      <trkpt lat="44.9758" lon="0.37239">
        <ele>179</ele>
        <time>2012-03-13T13:57:09.000Z</time>
      </trkpt>
      <trkpt lat="44.97584" lon="0.37245">
        <ele>179</ele>
        <time>2012-03-13T13:57:11.000Z</time>
      </trkpt>
      <trkpt lat="44.97589" lon="0.37254">
        <ele>178</ele>
        <time>2012-03-13T13:57:13.000Z</time>
      </trkpt>
      <trkpt lat="44.97592" lon="0.37262">
        <ele>179</ele>
        <time>2012-03-13T13:57:15.000Z</time>
      </trkpt>
      <trkpt lat="44.97594" lon="0.37269">
        <ele>185</ele>
        <time>2012-03-13T13:57:17.000Z</time>
      </trkpt>
      <trkpt lat="44.97597" lon="0.37275">
        <ele>186</ele>
        <time>2012-03-13T13:57:19.000Z</time>
      </trkpt>
      <trkpt lat="44.97602" lon="0.37277">
        <ele>187</ele>
        <time>2012-03-13T13:57:21.000Z</time>
      </trkpt>
      <trkpt lat="44.97607" lon="0.37282">
        <ele>188</ele>
        <time>2012-03-13T13:57:23.000Z</time>
      </trkpt>
      <trkpt lat="44.97611" lon="0.37285">
        <ele>189</ele>
        <time>2012-03-13T13:57:25.000Z</time>
      </trkpt>
      <trkpt lat="44.97614" lon="0.3729">
        <ele>189</ele>
        <time>2012-03-13T13:57:26.000Z</time>
      </trkpt>
      <trkpt lat="44.97618" lon="0.37298">
        <ele>188</ele>
        <time>2012-03-13T13:57:28.000Z</time>
      </trkpt>
      <trkpt lat="44.97622" lon="0.37307">
        <ele>188</ele>
        <time>2012-03-13T13:57:30.000Z</time>
      </trkpt>
      <trkpt lat="44.97624" lon="0.37317">
        <ele>187</ele>
        <time>2012-03-13T13:57:31.000Z</time>
      </trkpt>
      <trkpt lat="44.97626" lon="0.37324">
        <ele>187</ele>
        <time>2012-03-13T13:57:32.000Z</time>
      </trkpt>
      <trkpt lat="44.97628" lon="0.37333">
        <ele>187</ele>
        <time>2012-03-13T13:57:33.000Z</time>
      </trkpt>
      <trkpt lat="44.9763" lon="0.37341">
        <ele>186</ele>
        <time>2012-03-13T13:57:34.000Z</time>
      </trkpt>
      <trkpt lat="44.97634" lon="0.37348">
        <ele>186</ele>
        <time>2012-03-13T13:57:35.000Z</time>
      </trkpt>
      <trkpt lat="44.97638" lon="0.37357">
        <ele>185</ele>
        <time>2012-03-13T13:57:36.000Z</time>
      </trkpt>
      <trkpt lat="44.97642" lon="0.37367">
        <ele>184</ele>
        <time>2012-03-13T13:57:37.000Z</time>
      </trkpt>
      <trkpt lat="44.97646" lon="0.37376">
        <ele>185</ele>
        <time>2012-03-13T13:57:38.000Z</time>
      </trkpt>
      <trkpt lat="44.97649" lon="0.37385">
        <ele>185</ele>
        <time>2012-03-13T13:57:39.000Z</time>
      </trkpt>
      <trkpt lat="44.97652" lon="0.37394">
        <ele>183</ele>
        <time>2012-03-13T13:57:40.000Z</time>
      </trkpt>
      <trkpt lat="44.97656" lon="0.37403">
        <ele>183</ele>
        <time>2012-03-13T13:57:41.000Z</time>
      </trkpt>
      <trkpt lat="44.97658" lon="0.37412">
        <ele>183</ele>
        <time>2012-03-13T13:57:42.000Z</time>
      </trkpt>
      <trkpt lat="44.97663" lon="0.37418">
        <ele>182</ele>
        <time>2012-03-13T13:57:43.000Z</time>
      </trkpt>
      <trkpt lat="44.97667" lon="0.37425">
        <ele>182</ele>
        <time>2012-03-13T13:57:44.000Z</time>
      </trkpt>
      <trkpt lat="44.9767" lon="0.37431">
        <ele>181</ele>
        <time>2012-03-13T13:57:45.000Z</time>
      </trkpt>
      <trkpt lat="44.97674" lon="0.37436">
        <ele>181</ele>
        <time>2012-03-13T13:57:46.000Z</time>
      </trkpt>
      <trkpt lat="44.97677" lon="0.37442">
        <ele>181</ele>
        <time>2012-03-13T13:57:47.000Z</time>
      </trkpt>
      <trkpt lat="44.97681" lon="0.37449">
        <ele>182</ele>
        <time>2012-03-13T13:57:48.000Z</time>
      </trkpt>
      <trkpt lat="44.97685" lon="0.37454">
        <ele>182</ele>
        <time>2012-03-13T13:57:49.000Z</time>
      </trkpt>
      <trkpt lat="44.9769" lon="0.3746">
        <ele>182</ele>
        <time>2012-03-13T13:57:50.000Z</time>
      </trkpt>
      <trkpt lat="44.97695" lon="0.37466">
        <ele>181</ele>
        <time>2012-03-13T13:57:51.000Z</time>
      </trkpt>
      <trkpt lat="44.97699" lon="0.37472">
        <ele>181</ele>
        <time>2012-03-13T13:57:52.000Z</time>
      </trkpt>
      <trkpt lat="44.97704" lon="0.3748">
        <ele>179</ele>
        <time>2012-03-13T13:57:53.000Z</time>
      </trkpt>
      <trkpt lat="44.97709" lon="0.37486">
        <ele>179</ele>
        <time>2012-03-13T13:57:54.000Z</time>
      </trkpt>
      <trkpt lat="44.97714" lon="0.37494">
        <ele>179</ele>
        <time>2012-03-13T13:57:55.000Z</time>
      </trkpt>
      <trkpt lat="44.97718" lon="0.37499">
        <ele>178</ele>
        <time>2012-03-13T13:57:56.000Z</time>
      </trkpt>
      <trkpt lat="44.97722" lon="0.37505">
        <ele>178</ele>
        <time>2012-03-13T13:57:57.000Z</time>
      </trkpt>
      <trkpt lat="44.97726" lon="0.37507">
        <ele>178</ele>
        <time>2012-03-13T13:57:58.000Z</time>
      </trkpt>
      <trkpt lat="44.97731" lon="0.37514">
        <ele>179</ele>
        <time>2012-03-13T13:58:01.000Z</time>
      </trkpt>
      <trkpt lat="44.97737" lon="0.37521">
        <ele>178</ele>
        <time>2012-03-13T13:58:03.000Z</time>
      </trkpt>
      <trkpt lat="44.97743" lon="0.37526">
        <ele>179</ele>
        <time>2012-03-13T13:58:05.000Z</time>
      </trkpt>
      <trkpt lat="44.97748" lon="0.37535">
        <ele>179</ele>
        <time>2012-03-13T13:58:07.000Z</time>
      </trkpt>
      <trkpt lat="44.97751" lon="0.37541">
        <ele>179</ele>
        <time>2012-03-13T13:58:08.000Z</time>
      </trkpt>
      <trkpt lat="44.97754" lon="0.37546">
        <ele>179</ele>
        <time>2012-03-13T13:58:09.000Z</time>
      </trkpt>
      <trkpt lat="44.97758" lon="0.37552">
        <ele>179</ele>
        <time>2012-03-13T13:58:10.000Z</time>
      </trkpt>
      <trkpt lat="44.97763" lon="0.37561">
        <ele>179</ele>
        <time>2012-03-13T13:58:11.000Z</time>
      </trkpt>
      <trkpt lat="44.97767" lon="0.37569">
        <ele>179</ele>
        <time>2012-03-13T13:58:12.000Z</time>
      </trkpt>
      <trkpt lat="44.97772" lon="0.37577">
        <ele>179</ele>
        <time>2012-03-13T13:58:13.000Z</time>
      </trkpt>
      <trkpt lat="44.97776" lon="0.37584">
        <ele>178</ele>
        <time>2012-03-13T13:58:14.000Z</time>
      </trkpt>
      <trkpt lat="44.9778" lon="0.37594">
        <ele>176</ele>
        <time>2012-03-13T13:58:15.000Z</time>
      </trkpt>
      <trkpt lat="44.97782" lon="0.37601">
        <ele>175</ele>
        <time>2012-03-13T13:58:16.000Z</time>
      </trkpt>
      <trkpt lat="44.97784" lon="0.37609">
        <ele>173</ele>
        <time>2012-03-13T13:58:17.000Z</time>
      </trkpt>
      <trkpt lat="44.97787" lon="0.37617">
        <ele>173</ele>
        <time>2012-03-13T13:58:19.000Z</time>
      </trkpt>
      <trkpt lat="44.97791" lon="0.37621">
        <ele>172</ele>
        <time>2012-03-13T13:58:21.000Z</time>
      </trkpt>
      <trkpt lat="44.97792" lon="0.37629">
        <ele>171</ele>
        <time>2012-03-13T13:58:23.000Z</time>
      </trkpt>
      <trkpt lat="44.97788" lon="0.37638">
        <ele>173</ele>
        <time>2012-03-13T13:58:26.000Z</time>
      </trkpt>
      <trkpt lat="44.9777" lon="0.37646">
        <ele>173</ele>
        <time>2012-03-13T13:58:28.000Z</time>
      </trkpt>
      <trkpt lat="44.97765" lon="0.3765">
        <ele>174</ele>
        <time>2012-03-13T13:58:29.000Z</time>
      </trkpt>
      <trkpt lat="44.97761" lon="0.37655">
        <ele>173</ele>
        <time>2012-03-13T13:58:30.000Z</time>
      </trkpt>
      <trkpt lat="44.97757" lon="0.3766">
        <ele>173</ele>
        <time>2012-03-13T13:58:31.000Z</time>
      </trkpt>
      <trkpt lat="44.97756" lon="0.37667">
        <ele>172</ele>
        <time>2012-03-13T13:58:32.000Z</time>
      </trkpt>
      <trkpt lat="44.97756" lon="0.37676">
        <ele>172</ele>
        <time>2012-03-13T13:58:34.000Z</time>
      </trkpt>
      <trkpt lat="44.97752" lon="0.37681">
        <ele>172</ele>
        <time>2012-03-13T13:58:36.000Z</time>
      </trkpt>
      <trkpt lat="44.97749" lon="0.37686">
        <ele>172</ele>
        <time>2012-03-13T13:58:39.000Z</time>
      </trkpt>
      <trkpt lat="44.97744" lon="0.37691">
        <ele>172</ele>
        <time>2012-03-13T13:58:41.000Z</time>
      </trkpt>
      <trkpt lat="44.97741" lon="0.37696">
        <ele>174</ele>
        <time>2012-03-13T13:58:43.000Z</time>
      </trkpt>
      <trkpt lat="44.97735" lon="0.37699">
        <ele>175</ele>
        <time>2012-03-13T13:58:46.000Z</time>
      </trkpt>
      <trkpt lat="44.97729" lon="0.37703">
        <ele>176</ele>
        <time>2012-03-13T13:58:49.000Z</time>
      </trkpt>
      <trkpt lat="44.97726" lon="0.37709">
        <ele>175</ele>
        <time>2012-03-13T13:58:51.000Z</time>
      </trkpt>
      <trkpt lat="44.97728" lon="0.37718">
        <ele>175</ele>
        <time>2012-03-13T13:58:54.000Z</time>
      </trkpt>
      <trkpt lat="44.97732" lon="0.37722">
        <ele>175</ele>
        <time>2012-03-13T13:58:56.000Z</time>
      </trkpt>
      <trkpt lat="44.97739" lon="0.37727">
        <ele>175</ele>
        <time>2012-03-13T13:58:58.000Z</time>
      </trkpt>
      <trkpt lat="44.97744" lon="0.3773">
        <ele>174</ele>
        <time>2012-03-13T13:58:59.000Z</time>
      </trkpt>
      <trkpt lat="44.97753" lon="0.3773">
        <ele>173</ele>
        <time>2012-03-13T13:59:00.000Z</time>
      </trkpt>
      <trkpt lat="44.97759" lon="0.37731">
        <ele>173</ele>
        <time>2012-03-13T13:59:01.000Z</time>
      </trkpt>
      <trkpt lat="44.97765" lon="0.37732">
        <ele>172</ele>
        <time>2012-03-13T13:59:02.000Z</time>
      </trkpt>
      <trkpt lat="44.97771" lon="0.37734">
        <ele>171</ele>
        <time>2012-03-13T13:59:03.000Z</time>
      </trkpt>
      <trkpt lat="44.97776" lon="0.37738">
        <ele>170</ele>
        <time>2012-03-13T13:59:04.000Z</time>
      </trkpt>
      <trkpt lat="44.97782" lon="0.37741">
        <ele>170</ele>
        <time>2012-03-13T13:59:05.000Z</time>
      </trkpt>
      <trkpt lat="44.97786" lon="0.37744">
        <ele>170</ele>
        <time>2012-03-13T13:59:06.000Z</time>
      </trkpt>
      <trkpt lat="44.97791" lon="0.37747">
        <ele>170</ele>
        <time>2012-03-13T13:59:07.000Z</time>
      </trkpt>
      <trkpt lat="44.97797" lon="0.3775">
        <ele>170</ele>
        <time>2012-03-13T13:59:08.000Z</time>
      </trkpt>
      <trkpt lat="44.97802" lon="0.37755">
        <ele>170</ele>
        <time>2012-03-13T13:59:09.000Z</time>
      </trkpt>
      <trkpt lat="44.97805" lon="0.3776">
        <ele>170</ele>
        <time>2012-03-13T13:59:10.000Z</time>
      </trkpt>
      <trkpt lat="44.9781" lon="0.37763">
        <ele>170</ele>
        <time>2012-03-13T13:59:11.000Z</time>
      </trkpt>
      <trkpt lat="44.97814" lon="0.37766">
        <ele>170</ele>
        <time>2012-03-13T13:59:12.000Z</time>
      </trkpt>
      <trkpt lat="44.9782" lon="0.37771">
        <ele>169</ele>
        <time>2012-03-13T13:59:13.000Z</time>
      </trkpt>
      <trkpt lat="44.97825" lon="0.37777">
        <ele>169</ele>
        <time>2012-03-13T13:59:14.000Z</time>
      </trkpt>
      <trkpt lat="44.97831" lon="0.37783">
        <ele>169</ele>
        <time>2012-03-13T13:59:15.000Z</time>
      </trkpt>
      <trkpt lat="44.97835" lon="0.37788">
        <ele>167</ele>
        <time>2012-03-13T13:59:16.000Z</time>
      </trkpt>
      <trkpt lat="44.97841" lon="0.37793">
        <ele>166</ele>
        <time>2012-03-13T13:59:17.000Z</time>
      </trkpt>
      <trkpt lat="44.97849" lon="0.37797">
        <ele>165</ele>
        <time>2012-03-13T13:59:18.000Z</time>
      </trkpt>
      <trkpt lat="44.97854" lon="0.37802">
        <ele>165</ele>
        <time>2012-03-13T13:59:19.000Z</time>
      </trkpt>
      <trkpt lat="44.9786" lon="0.37808">
        <ele>165</ele>
        <time>2012-03-13T13:59:20.000Z</time>
      </trkpt>
      <trkpt lat="44.97865" lon="0.37813">
        <ele>164</ele>
        <time>2012-03-13T13:59:21.000Z</time>
      </trkpt>
      <trkpt lat="44.9787" lon="0.37818">
        <ele>163</ele>
        <time>2012-03-13T13:59:22.000Z</time>
      </trkpt>
      <trkpt lat="44.97876" lon="0.37823">
        <ele>164</ele>
        <time>2012-03-13T13:59:24.000Z</time>
      </trkpt>
      <trkpt lat="44.9788" lon="0.37827">
        <ele>164</ele>
        <time>2012-03-13T13:59:25.000Z</time>
      </trkpt>
      <trkpt lat="44.97884" lon="0.37831">
        <ele>164</ele>
        <time>2012-03-13T13:59:26.000Z</time>
      </trkpt>
      <trkpt lat="44.97887" lon="0.37838">
        <ele>164</ele>
        <time>2012-03-13T13:59:27.000Z</time>
      </trkpt>
      <trkpt lat="44.97888" lon="0.37848">
        <ele>161</ele>
        <time>2012-03-13T13:59:28.000Z</time>
      </trkpt>
      <trkpt lat="44.97892" lon="0.37856">
        <ele>160</ele>
        <time>2012-03-13T13:59:29.000Z</time>
      </trkpt>
      <trkpt lat="44.97896" lon="0.37864">
        <ele>159</ele>
        <time>2012-03-13T13:59:30.000Z</time>
      </trkpt>
      <trkpt lat="44.979" lon="0.37872">
        <ele>159</ele>
        <time>2012-03-13T13:59:31.000Z</time>
      </trkpt>
      <trkpt lat="44.97904" lon="0.37879">
        <ele>159</ele>
        <time>2012-03-13T13:59:32.000Z</time>
      </trkpt>
      <trkpt lat="44.97907" lon="0.37885">
        <ele>159</ele>
        <time>2012-03-13T13:59:33.000Z</time>
      </trkpt>
      <trkpt lat="44.97909" lon="0.37894">
        <ele>159</ele>
        <time>2012-03-13T13:59:34.000Z</time>
      </trkpt>
      <trkpt lat="44.97909" lon="0.37901">
        <ele>160</ele>
        <time>2012-03-13T13:59:35.000Z</time>
      </trkpt>
      <trkpt lat="44.97906" lon="0.37912">
        <ele>161</ele>
        <time>2012-03-13T13:59:37.000Z</time>
      </trkpt>
      <trkpt lat="44.97903" lon="0.37918">
        <ele>161</ele>
        <time>2012-03-13T13:59:38.000Z</time>
      </trkpt>
      <trkpt lat="44.97899" lon="0.37925">
        <ele>162</ele>
        <time>2012-03-13T13:59:40.000Z</time>
      </trkpt>
      <trkpt lat="44.97894" lon="0.37928">
        <ele>162</ele>
        <time>2012-03-13T13:59:42.000Z</time>
      </trkpt>
      <trkpt lat="44.97888" lon="0.37934">
        <ele>163</ele>
        <time>2012-03-13T13:59:44.000Z</time>
      </trkpt>
      <trkpt lat="44.97884" lon="0.37937">
        <ele>164</ele>
        <time>2012-03-13T13:59:45.000Z</time>
      </trkpt>
      <trkpt lat="44.97875" lon="0.3794">
        <ele>166</ele>
        <time>2012-03-13T13:59:47.000Z</time>
      </trkpt>
      <trkpt lat="44.97871" lon="0.37942">
        <ele>167</ele>
        <time>2012-03-13T13:59:48.000Z</time>
      </trkpt>
      <trkpt lat="44.97865" lon="0.37943">
        <ele>168</ele>
        <time>2012-03-13T13:59:49.000Z</time>
      </trkpt>
      <trkpt lat="44.97855" lon="0.37948">
        <ele>170</ele>
        <time>2012-03-13T13:59:51.000Z</time>
      </trkpt>
      <trkpt lat="44.9785" lon="0.3795">
        <ele>172</ele>
        <time>2012-03-13T13:59:52.000Z</time>
      </trkpt>
      <trkpt lat="44.97846" lon="0.37953">
        <ele>172</ele>
        <time>2012-03-13T13:59:53.000Z</time>
      </trkpt>
      <trkpt lat="44.97842" lon="0.37956">
        <ele>173</ele>
        <time>2012-03-13T13:59:54.000Z</time>
      </trkpt>
      <trkpt lat="44.97835" lon="0.3796">
        <ele>174</ele>
        <time>2012-03-13T13:59:56.000Z</time>
      </trkpt>
      <trkpt lat="44.97827" lon="0.37964">
        <ele>177</ele>
        <time>2012-03-13T13:59:59.000Z</time>
      </trkpt>
      <trkpt lat="44.97822" lon="0.37967">
        <ele>177</ele>
        <time>2012-03-13T14:00:01.000Z</time>
      </trkpt>
      <trkpt lat="44.97817" lon="0.37969">
        <ele>178</ele>
        <time>2012-03-13T14:00:02.000Z</time>
      </trkpt>
      <trkpt lat="44.97812" lon="0.37976">
        <ele>175</ele>
        <time>2012-03-13T14:00:05.000Z</time>
      </trkpt>
      <trkpt lat="44.97806" lon="0.37979">
        <ele>175</ele>
        <time>2012-03-13T14:00:07.000Z</time>
      </trkpt>
      <trkpt lat="44.97808" lon="0.37988">
        <ele>173</ele>
        <time>2012-03-13T14:00:12.000Z</time>
      </trkpt>
      <trkpt lat="44.97807" lon="0.37994">
        <ele>172</ele>
        <time>2012-03-13T14:00:15.000Z</time>
      </trkpt>
      <trkpt lat="44.97809" lon="0.38002">
        <ele>170</ele>
        <time>2012-03-13T14:00:18.000Z</time>
      </trkpt>
      <trkpt lat="44.97813" lon="0.38007">
        <ele>170</ele>
        <time>2012-03-13T14:00:20.000Z</time>
      </trkpt>
      <trkpt lat="44.97817" lon="0.38012">
        <ele>171</ele>
        <time>2012-03-13T14:00:22.000Z</time>
      </trkpt>
      <trkpt lat="44.97821" lon="0.3802">
        <ele>172</ele>
        <time>2012-03-13T14:00:25.000Z</time>
      </trkpt>
      <trkpt lat="44.97824" lon="0.38029">
        <ele>173</ele>
        <time>2012-03-13T14:00:27.000Z</time>
      </trkpt>
      <trkpt lat="44.97826" lon="0.38035">
        <ele>174</ele>
        <time>2012-03-13T14:00:29.000Z</time>
      </trkpt>
      <trkpt lat="44.97822" lon="0.38042">
        <ele>177</ele>
        <time>2012-03-13T14:00:33.000Z</time>
      </trkpt>
      <trkpt lat="44.97819" lon="0.38047">
        <ele>179</ele>
        <time>2012-03-13T14:00:35.000Z</time>
      </trkpt>
      <trkpt lat="44.97815" lon="0.38057">
        <ele>181</ele>
        <time>2012-03-13T14:00:37.000Z</time>
      </trkpt>
      <trkpt lat="44.97813" lon="0.38064">
        <ele>183</ele>
        <time>2012-03-13T14:00:38.000Z</time>
      </trkpt>
      <trkpt lat="44.9781" lon="0.3807">
        <ele>183</ele>
        <time>2012-03-13T14:00:39.000Z</time>
      </trkpt>
      <trkpt lat="44.97804" lon="0.38076">
        <ele>182</ele>
        <time>2012-03-13T14:00:41.000Z</time>
      </trkpt>
      <trkpt lat="44.978" lon="0.38077">
        <ele>181</ele>
        <time>2012-03-13T14:00:42.000Z</time>
      </trkpt>
      <trkpt lat="44.97793" lon="0.38079">
        <ele>181</ele>
        <time>2012-03-13T14:00:43.000Z</time>
      </trkpt>
      <trkpt lat="44.97788" lon="0.3808">
        <ele>181</ele>
        <time>2012-03-13T14:00:44.000Z</time>
      </trkpt>
      <trkpt lat="44.9778" lon="0.38085">
        <ele>183</ele>
        <time>2012-03-13T14:00:46.000Z</time>
      </trkpt>
      <trkpt lat="44.97776" lon="0.38088">
        <ele>183</ele>
        <time>2012-03-13T14:00:47.000Z</time>
      </trkpt>
      <trkpt lat="44.97769" lon="0.38098">
        <ele>182</ele>
        <time>2012-03-13T14:00:49.000Z</time>
      </trkpt>
      <trkpt lat="44.97766" lon="0.38106">
        <ele>181</ele>
        <time>2012-03-13T14:00:50.000Z</time>
      </trkpt>
      <trkpt lat="44.97763" lon="0.38112">
        <ele>179</ele>
        <time>2012-03-13T14:00:51.000Z</time>
      </trkpt>
      <trkpt lat="44.97759" lon="0.38117">
        <ele>180</ele>
        <time>2012-03-13T14:00:52.000Z</time>
      </trkpt>
      <trkpt lat="44.97752" lon="0.38122">
        <ele>182</ele>
        <time>2012-03-13T14:00:54.000Z</time>
      </trkpt>
      <trkpt lat="44.97745" lon="0.38116">
        <ele>182</ele>
        <time>2012-03-13T14:00:56.000Z</time>
      </trkpt>
      <trkpt lat="44.9774" lon="0.38113">
        <ele>181</ele>
        <time>2012-03-13T14:00:57.000Z</time>
      </trkpt>
      <trkpt lat="44.97735" lon="0.38107">
        <ele>180</ele>
        <time>2012-03-13T14:00:58.000Z</time>
      </trkpt>
      <trkpt lat="44.97728" lon="0.38103">
        <ele>180</ele>
        <time>2012-03-13T14:00:59.000Z</time>
      </trkpt>
      <trkpt lat="44.97723" lon="0.38102">
        <ele>179</ele>
        <time>2012-03-13T14:01:00.000Z</time>
      </trkpt>
      <trkpt lat="44.97718" lon="0.38105">
        <ele>179</ele>
        <time>2012-03-13T14:01:02.000Z</time>
      </trkpt>
      <trkpt lat="44.9772" lon="0.38114">
        <ele>177</ele>
        <time>2012-03-13T14:01:03.000Z</time>
      </trkpt>
      <trkpt lat="44.97715" lon="0.38123">
        <ele>175</ele>
        <time>2012-03-13T14:01:05.000Z</time>
      </trkpt>
      <trkpt lat="44.97712" lon="0.38132">
        <ele>177</ele>
        <time>2012-03-13T14:01:07.000Z</time>
      </trkpt>
      <trkpt lat="44.97708" lon="0.38144">
        <ele>176</ele>
        <time>2012-03-13T14:01:09.000Z</time>
      </trkpt>
      <trkpt lat="44.97703" lon="0.38155">
        <ele>177</ele>
        <time>2012-03-13T14:01:11.000Z</time>
      </trkpt>
      <trkpt lat="44.977" lon="0.38166">
        <ele>177</ele>
        <time>2012-03-13T14:01:13.000Z</time>
      </trkpt>
      <trkpt lat="44.977" lon="0.38174">
        <ele>179</ele>
        <time>2012-03-13T14:01:15.000Z</time>
      </trkpt>
      <trkpt lat="44.97696" lon="0.3818">
        <ele>180</ele>
        <time>2012-03-13T14:01:17.000Z</time>
      </trkpt>
      <trkpt lat="44.97691" lon="0.3819">
        <ele>183</ele>
        <time>2012-03-13T14:01:19.000Z</time>
      </trkpt>
      <trkpt lat="44.97688" lon="0.38195">
        <ele>183</ele>
        <time>2012-03-13T14:01:20.000Z</time>
      </trkpt>
      <trkpt lat="44.97682" lon="0.38204">
        <ele>184</ele>
        <time>2012-03-13T14:01:22.000Z</time>
      </trkpt>
      <trkpt lat="44.97678" lon="0.38213">
        <ele>185</ele>
        <time>2012-03-13T14:01:24.000Z</time>
      </trkpt>
      <trkpt lat="44.97674" lon="0.38219">
        <ele>187</ele>
        <time>2012-03-13T14:01:26.000Z</time>
      </trkpt>
      <trkpt lat="44.97671" lon="0.38225">
        <ele>189</ele>
        <time>2012-03-13T14:01:28.000Z</time>
      </trkpt>
      <trkpt lat="44.97669" lon="0.38233">
        <ele>190</ele>
        <time>2012-03-13T14:01:30.000Z</time>
      </trkpt>
      <trkpt lat="44.97664" lon="0.38246">
        <ele>188</ele>
        <time>2012-03-13T14:01:32.000Z</time>
      </trkpt>
      <trkpt lat="44.97662" lon="0.38252">
        <ele>187</ele>
        <time>2012-03-13T14:01:33.000Z</time>
      </trkpt>
      <trkpt lat="44.97655" lon="0.38262">
        <ele>191</ele>
        <time>2012-03-13T14:01:35.000Z</time>
      </trkpt>
      <trkpt lat="44.97652" lon="0.38267">
        <ele>193</ele>
        <time>2012-03-13T14:01:36.000Z</time>
      </trkpt>
      <trkpt lat="44.97646" lon="0.38277">
        <ele>196</ele>
        <time>2012-03-13T14:01:38.000Z</time>
      </trkpt>
      <trkpt lat="44.97642" lon="0.38285">
        <ele>199</ele>
        <time>2012-03-13T14:01:40.000Z</time>
      </trkpt>
      <trkpt lat="44.9764" lon="0.38293">
        <ele>199</ele>
        <time>2012-03-13T14:01:42.000Z</time>
      </trkpt>
      <trkpt lat="44.97633" lon="0.38302">
        <ele>201</ele>
        <time>2012-03-13T14:01:44.000Z</time>
      </trkpt>
      <trkpt lat="44.9763" lon="0.38312">
        <ele>201</ele>
        <time>2012-03-13T14:01:46.000Z</time>
      </trkpt>
      <trkpt lat="44.97626" lon="0.38321">
        <ele>201</ele>
        <time>2012-03-13T14:01:48.000Z</time>
      </trkpt>
      <trkpt lat="44.97622" lon="0.38333">
        <ele>201</ele>
        <time>2012-03-13T14:01:50.000Z</time>
      </trkpt>
      <trkpt lat="44.97621" lon="0.3834">
        <ele>200</ele>
        <time>2012-03-13T14:01:51.000Z</time>
      </trkpt>
      <trkpt lat="44.97619" lon="0.3835">
        <ele>198</ele>
        <time>2012-03-13T14:01:52.000Z</time>
      </trkpt>
      <trkpt lat="44.97616" lon="0.38356">
        <ele>198</ele>
        <time>2012-03-13T14:01:53.000Z</time>
      </trkpt>
      <trkpt lat="44.97616" lon="0.38362">
        <ele>196</ele>
        <time>2012-03-13T14:01:54.000Z</time>
      </trkpt>
      <trkpt lat="44.97614" lon="0.3837">
        <ele>195</ele>
        <time>2012-03-13T14:01:55.000Z</time>
      </trkpt>
      <trkpt lat="44.9761" lon="0.3838">
        <ele>193</ele>
        <time>2012-03-13T14:01:57.000Z</time>
      </trkpt>
      <trkpt lat="44.97607" lon="0.38386">
        <ele>192</ele>
        <time>2012-03-13T14:01:58.000Z</time>
      </trkpt>
      <trkpt lat="44.97604" lon="0.38392">
        <ele>191</ele>
        <time>2012-03-13T14:01:59.000Z</time>
      </trkpt>
      <trkpt lat="44.97602" lon="0.38397">
        <ele>190</ele>
        <time>2012-03-13T14:02:00.000Z</time>
      </trkpt>
      <trkpt lat="44.97599" lon="0.38407">
        <ele>186</ele>
        <time>2012-03-13T14:02:03.000Z</time>
      </trkpt>
      <trkpt lat="44.97605" lon="0.38411">
        <ele>185</ele>
        <time>2012-03-13T14:02:05.000Z</time>
      </trkpt>
      <trkpt lat="44.97609" lon="0.38412">
        <ele>184</ele>
        <time>2012-03-13T14:02:06.000Z</time>
      </trkpt>
      <trkpt lat="44.97617" lon="0.38417">
        <ele>183</ele>
        <time>2012-03-13T14:02:08.000Z</time>
      </trkpt>
      <trkpt lat="44.97621" lon="0.38419">
        <ele>183</ele>
        <time>2012-03-13T14:02:09.000Z</time>
      </trkpt>
      <trkpt lat="44.97626" lon="0.38421">
        <ele>183</ele>
        <time>2012-03-13T14:02:10.000Z</time>
      </trkpt>
      <trkpt lat="44.97635" lon="0.38424">
        <ele>183</ele>
        <time>2012-03-13T14:02:12.000Z</time>
      </trkpt>
      <trkpt lat="44.97644" lon="0.38426">
        <ele>182</ele>
        <time>2012-03-13T14:02:14.000Z</time>
      </trkpt>
      <trkpt lat="44.97653" lon="0.38427">
        <ele>181</ele>
        <time>2012-03-13T14:02:16.000Z</time>
      </trkpt>
      <trkpt lat="44.9766" lon="0.38432">
        <ele>180</ele>
        <time>2012-03-13T14:02:18.000Z</time>
      </trkpt>
      <trkpt lat="44.97662" lon="0.38442">
        <ele>181</ele>
        <time>2012-03-13T14:02:20.000Z</time>
      </trkpt>
      <trkpt lat="44.97658" lon="0.38452">
        <ele>181</ele>
        <time>2012-03-13T14:02:22.000Z</time>
      </trkpt>
      <trkpt lat="44.97656" lon="0.38458">
        <ele>182</ele>
        <time>2012-03-13T14:02:23.000Z</time>
      </trkpt>
      <trkpt lat="44.97652" lon="0.38463">
        <ele>182</ele>
        <time>2012-03-13T14:02:24.000Z</time>
      </trkpt>
      <trkpt lat="44.97649" lon="0.38471">
        <ele>183</ele>
        <time>2012-03-13T14:02:26.000Z</time>
      </trkpt>
      <trkpt lat="44.97643" lon="0.38483">
        <ele>182</ele>
        <time>2012-03-13T14:02:28.000Z</time>
      </trkpt>
      <trkpt lat="44.9764" lon="0.38489">
        <ele>182</ele>
        <time>2012-03-13T14:02:29.000Z</time>
      </trkpt>
      <trkpt lat="44.97638" lon="0.38495">
        <ele>182</ele>
        <time>2012-03-13T14:02:30.000Z</time>
      </trkpt>
      <trkpt lat="44.97634" lon="0.38501">
        <ele>182</ele>
        <time>2012-03-13T14:02:31.000Z</time>
      </trkpt>
      <trkpt lat="44.97632" lon="0.38507">
        <ele>182</ele>
        <time>2012-03-13T14:02:32.000Z</time>
      </trkpt>
      <trkpt lat="44.97631" lon="0.38515">
        <ele>182</ele>
        <time>2012-03-13T14:02:33.000Z</time>
      </trkpt>
      <trkpt lat="44.97633" lon="0.38522">
        <ele>181</ele>
        <time>2012-03-13T14:02:34.000Z</time>
      </trkpt>
      <trkpt lat="44.97635" lon="0.38528">
        <ele>181</ele>
        <time>2012-03-13T14:02:35.000Z</time>
      </trkpt>
      <trkpt lat="44.9764" lon="0.38533">
        <ele>181</ele>
        <time>2012-03-13T14:02:36.000Z</time>
      </trkpt>
      <trkpt lat="44.97644" lon="0.38538">
        <ele>180</ele>
        <time>2012-03-13T14:02:37.000Z</time>
      </trkpt>
      <trkpt lat="44.97649" lon="0.38542">
        <ele>180</ele>
        <time>2012-03-13T14:02:38.000Z</time>
      </trkpt>
      <trkpt lat="44.97654" lon="0.38547">
        <ele>180</ele>
        <time>2012-03-13T14:02:39.000Z</time>
      </trkpt>
      <trkpt lat="44.97658" lon="0.38552">
        <ele>179</ele>
        <time>2012-03-13T14:02:40.000Z</time>
      </trkpt>
      <trkpt lat="44.97663" lon="0.38557">
        <ele>179</ele>
        <time>2012-03-13T14:02:41.000Z</time>
      </trkpt>
      <trkpt lat="44.97668" lon="0.38563">
        <ele>178</ele>
        <time>2012-03-13T14:02:42.000Z</time>
      </trkpt>
      <trkpt lat="44.97673" lon="0.3857">
        <ele>176</ele>
        <time>2012-03-13T14:02:43.000Z</time>
      </trkpt>
      <trkpt lat="44.97679" lon="0.38577">
        <ele>175</ele>
        <time>2012-03-13T14:02:44.000Z</time>
      </trkpt>
      <trkpt lat="44.97686" lon="0.38585">
        <ele>175</ele>
        <time>2012-03-13T14:02:45.000Z</time>
      </trkpt>
      <trkpt lat="44.97692" lon="0.38593">
        <ele>174</ele>
        <time>2012-03-13T14:02:46.000Z</time>
      </trkpt>
      <trkpt lat="44.97699" lon="0.38599">
        <ele>173</ele>
        <time>2012-03-13T14:02:47.000Z</time>
      </trkpt>
      <trkpt lat="44.97706" lon="0.38606">
        <ele>172</ele>
        <time>2012-03-13T14:02:48.000Z</time>
      </trkpt>
      <trkpt lat="44.97712" lon="0.38612">
        <ele>172</ele>
        <time>2012-03-13T14:02:49.000Z</time>
      </trkpt>
      <trkpt lat="44.97718" lon="0.3862">
        <ele>171</ele>
        <time>2012-03-13T14:02:50.000Z</time>
      </trkpt>
      <trkpt lat="44.97723" lon="0.38626">
        <ele>171</ele>
        <time>2012-03-13T14:02:51.000Z</time>
      </trkpt>
      <trkpt lat="44.97728" lon="0.38631">
        <ele>169</ele>
        <time>2012-03-13T14:02:52.000Z</time>
      </trkpt>
      <trkpt lat="44.97731" lon="0.38639">
        <ele>168</ele>
        <time>2012-03-13T14:02:53.000Z</time>
      </trkpt>
      <trkpt lat="44.97734" lon="0.38648">
        <ele>167</ele>
        <time>2012-03-13T14:02:54.000Z</time>
      </trkpt>
      <trkpt lat="44.97735" lon="0.38656">
        <ele>166</ele>
        <time>2012-03-13T14:02:55.000Z</time>
      </trkpt>
      <trkpt lat="44.97736" lon="0.38663">
        <ele>166</ele>
        <time>2012-03-13T14:02:56.000Z</time>
      </trkpt>
      <trkpt lat="44.97734" lon="0.38675">
        <ele>165</ele>
        <time>2012-03-13T14:02:58.000Z</time>
      </trkpt>
      <trkpt lat="44.97733" lon="0.38688">
        <ele>166</ele>
        <time>2012-03-13T14:03:00.000Z</time>
      </trkpt>
      <trkpt lat="44.97731" lon="0.38697">
        <ele>166</ele>
        <time>2012-03-13T14:03:01.000Z</time>
      </trkpt>
      <trkpt lat="44.9773" lon="0.38708">
        <ele>166</ele>
        <time>2012-03-13T14:03:02.000Z</time>
      </trkpt>
      <trkpt lat="44.97728" lon="0.3872">
        <ele>166</ele>
        <time>2012-03-13T14:03:03.000Z</time>
      </trkpt>
      <trkpt lat="44.97726" lon="0.38734">
        <ele>166</ele>
        <time>2012-03-13T14:03:04.000Z</time>
      </trkpt>
      <trkpt lat="44.97725" lon="0.38748">
        <ele>165</ele>
        <time>2012-03-13T14:03:05.000Z</time>
      </trkpt>
      <trkpt lat="44.97726" lon="0.3876">
        <ele>165</ele>
        <time>2012-03-13T14:03:06.000Z</time>
      </trkpt>
      <trkpt lat="44.97728" lon="0.38774">
        <ele>164</ele>
        <time>2012-03-13T14:03:07.000Z</time>
      </trkpt>
      <trkpt lat="44.9773" lon="0.38788">
        <ele>164</ele>
        <time>2012-03-13T14:03:08.000Z</time>
      </trkpt>
      <trkpt lat="44.97731" lon="0.38802">
        <ele>163</ele>
        <time>2012-03-13T14:03:09.000Z</time>
      </trkpt>
      <trkpt lat="44.97732" lon="0.38816">
        <ele>163</ele>
        <time>2012-03-13T14:03:10.000Z</time>
      </trkpt>
      <trkpt lat="44.97733" lon="0.3883">
        <ele>162</ele>
        <time>2012-03-13T14:03:11.000Z</time>
      </trkpt>
      <trkpt lat="44.97734" lon="0.38844">
        <ele>161</ele>
        <time>2012-03-13T14:03:12.000Z</time>
      </trkpt>
      <trkpt lat="44.97736" lon="0.38858">
        <ele>160</ele>
        <time>2012-03-13T14:03:13.000Z</time>
      </trkpt>
      <trkpt lat="44.97738" lon="0.38871">
        <ele>159</ele>
        <time>2012-03-13T14:03:14.000Z</time>
      </trkpt>
      <trkpt lat="44.97742" lon="0.38884">
        <ele>158</ele>
        <time>2012-03-13T14:03:15.000Z</time>
      </trkpt>
      <trkpt lat="44.97745" lon="0.38897">
        <ele>157</ele>
        <time>2012-03-13T14:03:16.000Z</time>
      </trkpt>
      <trkpt lat="44.97747" lon="0.38909">
        <ele>156</ele>
        <time>2012-03-13T14:03:17.000Z</time>
      </trkpt>
      <trkpt lat="44.97752" lon="0.38919">
        <ele>155</ele>
        <time>2012-03-13T14:03:18.000Z</time>
      </trkpt>
      <trkpt lat="44.9776" lon="0.38939">
        <ele>153</ele>
        <time>2012-03-13T14:03:21.000Z</time>
      </trkpt>
      <trkpt lat="44.97753" lon="0.38938">
        <ele>154</ele>
        <time>2012-03-13T14:03:23.000Z</time>
      </trkpt>
      <trkpt lat="44.97745" lon="0.38935">
        <ele>155</ele>
        <time>2012-03-13T14:03:25.000Z</time>
      </trkpt>
      <trkpt lat="44.97736" lon="0.38932">
        <ele>154</ele>
        <time>2012-03-13T14:03:27.000Z</time>
      </trkpt>
      <trkpt lat="44.97731" lon="0.3893">
        <ele>155</ele>
        <time>2012-03-13T14:03:28.000Z</time>
      </trkpt>
      <trkpt lat="44.97726" lon="0.38927">
        <ele>154</ele>
        <time>2012-03-13T14:03:29.000Z</time>
      </trkpt>
      <trkpt lat="44.97717" lon="0.38923">
        <ele>153</ele>
        <time>2012-03-13T14:03:31.000Z</time>
      </trkpt>
      <trkpt lat="44.97713" lon="0.38919">
        <ele>153</ele>
        <time>2012-03-13T14:03:32.000Z</time>
      </trkpt>
      <trkpt lat="44.97708" lon="0.38917">
        <ele>153</ele>
        <time>2012-03-13T14:03:33.000Z</time>
      </trkpt>
      <trkpt lat="44.97703" lon="0.38913">
        <ele>153</ele>
        <time>2012-03-13T14:03:34.000Z</time>
      </trkpt>
      <trkpt lat="44.97699" lon="0.38909">
        <ele>153</ele>
        <time>2012-03-13T14:03:35.000Z</time>
      </trkpt>
      <trkpt lat="44.97694" lon="0.38906">
        <ele>153</ele>
        <time>2012-03-13T14:03:36.000Z</time>
      </trkpt>
      <trkpt lat="44.97688" lon="0.38903">
        <ele>153</ele>
        <time>2012-03-13T14:03:37.000Z</time>
      </trkpt>
      <trkpt lat="44.97681" lon="0.38896">
        <ele>152</ele>
        <time>2012-03-13T14:03:39.000Z</time>
      </trkpt>
      <trkpt lat="44.97674" lon="0.3889">
        <ele>152</ele>
        <time>2012-03-13T14:03:41.000Z</time>
      </trkpt>
      <trkpt lat="44.97669" lon="0.38884">
        <ele>151</ele>
        <time>2012-03-13T14:03:43.000Z</time>
      </trkpt>
      <trkpt lat="44.97663" lon="0.38877">
        <ele>151</ele>
        <time>2012-03-13T14:03:45.000Z</time>
      </trkpt>
      <trkpt lat="44.97658" lon="0.38873">
        <ele>152</ele>
        <time>2012-03-13T14:03:46.000Z</time>
      </trkpt>
      <trkpt lat="44.97652" lon="0.38866">
        <ele>149</ele>
        <time>2012-03-13T14:03:48.000Z</time>
      </trkpt>
      <trkpt lat="44.97646" lon="0.38859">
        <ele>148</ele>
        <time>2012-03-13T14:03:50.000Z</time>
      </trkpt>
      <trkpt lat="44.97641" lon="0.38856">
        <ele>149</ele>
        <time>2012-03-13T14:03:51.000Z</time>
      </trkpt>
      <trkpt lat="44.97637" lon="0.38852">
        <ele>149</ele>
        <time>2012-03-13T14:03:52.000Z</time>
      </trkpt>
      <trkpt lat="44.97631" lon="0.38848">
        <ele>149</ele>
        <time>2012-03-13T14:03:54.000Z</time>
      </trkpt>
      <trkpt lat="44.97624" lon="0.38842">
        <ele>150</ele>
        <time>2012-03-13T14:03:56.000Z</time>
      </trkpt>
      <trkpt lat="44.97619" lon="0.38839">
        <ele>150</ele>
        <time>2012-03-13T14:03:57.000Z</time>
      </trkpt>
      <trkpt lat="44.97615" lon="0.38836">
        <ele>150</ele>
        <time>2012-03-13T14:03:58.000Z</time>
      </trkpt>
      <trkpt lat="44.97609" lon="0.38829">
        <ele>150</ele>
        <time>2012-03-13T14:04:00.000Z</time>
      </trkpt>
      <trkpt lat="44.97606" lon="0.38823">
        <ele>151</ele>
        <time>2012-03-13T14:04:01.000Z</time>
      </trkpt>
      <trkpt lat="44.976" lon="0.38818">
        <ele>151</ele>
        <time>2012-03-13T14:04:03.000Z</time>
      </trkpt>
      <trkpt lat="44.97593" lon="0.38811">
        <ele>151</ele>
        <time>2012-03-13T14:04:05.000Z</time>
      </trkpt>
      <trkpt lat="44.97586" lon="0.38801">
        <ele>152</ele>
        <time>2012-03-13T14:04:07.000Z</time>
      </trkpt>
      <trkpt lat="44.97583" lon="0.38797">
        <ele>152</ele>
        <time>2012-03-13T14:04:08.000Z</time>
      </trkpt>
      <trkpt lat="44.97577" lon="0.3879">
        <ele>153</ele>
        <time>2012-03-13T14:04:10.000Z</time>
      </trkpt>
      <trkpt lat="44.9757" lon="0.38783">
        <ele>152</ele>
        <time>2012-03-13T14:04:12.000Z</time>
      </trkpt>
      <trkpt lat="44.97564" lon="0.38777">
        <ele>150</ele>
        <time>2012-03-13T14:04:14.000Z</time>
      </trkpt>
      <trkpt lat="44.97558" lon="0.38769">
        <ele>150</ele>
        <time>2012-03-13T14:04:16.000Z</time>
      </trkpt>
      <trkpt lat="44.97553" lon="0.38763">
        <ele>151</ele>
        <time>2012-03-13T14:04:18.000Z</time>
      </trkpt>
      <trkpt lat="44.97548" lon="0.38757">
        <ele>152</ele>
        <time>2012-03-13T14:04:20.000Z</time>
      </trkpt>
      <trkpt lat="44.97542" lon="0.38751">
        <ele>151</ele>
        <time>2012-03-13T14:04:22.000Z</time>
      </trkpt>
      <trkpt lat="44.97534" lon="0.38747">
        <ele>151</ele>
        <time>2012-03-13T14:04:24.000Z</time>
      </trkpt>
      <trkpt lat="44.97528" lon="0.38741">
        <ele>151</ele>
        <time>2012-03-13T14:04:26.000Z</time>
      </trkpt>
      <trkpt lat="44.97522" lon="0.38734">
        <ele>152</ele>
        <time>2012-03-13T14:04:28.000Z</time>
      </trkpt>
      <trkpt lat="44.97518" lon="0.38728">
        <ele>153</ele>
        <time>2012-03-13T14:04:30.000Z</time>
      </trkpt>
      <trkpt lat="44.97514" lon="0.38719">
        <ele>154</ele>
        <time>2012-03-13T14:04:32.000Z</time>
      </trkpt>
      <trkpt lat="44.97507" lon="0.38712">
        <ele>154</ele>
        <time>2012-03-13T14:04:34.000Z</time>
      </trkpt>
      <trkpt lat="44.975" lon="0.38708">
        <ele>155</ele>
        <time>2012-03-13T14:04:36.000Z</time>
      </trkpt>
      <trkpt lat="44.97495" lon="0.38706">
        <ele>155</ele>
        <time>2012-03-13T14:04:37.000Z</time>
      </trkpt>
      <trkpt lat="44.97487" lon="0.38703">
        <ele>154</ele>
        <time>2012-03-13T14:04:39.000Z</time>
      </trkpt>
      <trkpt lat="44.9748" lon="0.38702">
        <ele>157</ele>
        <time>2012-03-13T14:04:41.000Z</time>
      </trkpt>
      <trkpt lat="44.97471" lon="0.387">
        <ele>158</ele>
        <time>2012-03-13T14:04:43.000Z</time>
      </trkpt>
      <trkpt lat="44.97464" lon="0.38699">
        <ele>159</ele>
        <time>2012-03-13T14:04:45.000Z</time>
      </trkpt>
      <trkpt lat="44.97458" lon="0.38697">
        <ele>159</ele>
        <time>2012-03-13T14:04:47.000Z</time>
      </trkpt>
      <trkpt lat="44.97452" lon="0.38696">
        <ele>161</ele>
        <time>2012-03-13T14:04:49.000Z</time>
      </trkpt>
      <trkpt lat="44.97445" lon="0.38695">
        <ele>163</ele>
        <time>2012-03-13T14:04:51.000Z</time>
      </trkpt>
      <trkpt lat="44.97435" lon="0.38696">
        <ele>165</ele>
        <time>2012-03-13T14:04:53.000Z</time>
      </trkpt>
      <trkpt lat="44.9743" lon="0.38696">
        <ele>166</ele>
        <time>2012-03-13T14:04:54.000Z</time>
      </trkpt>
      <trkpt lat="44.97422" lon="0.38696">
        <ele>167</ele>
        <time>2012-03-13T14:04:56.000Z</time>
      </trkpt>
      <trkpt lat="44.97414" lon="0.38695">
        <ele>170</ele>
        <time>2012-03-13T14:04:58.000Z</time>
      </trkpt>
      <trkpt lat="44.97406" lon="0.38694">
        <ele>172</ele>
        <time>2012-03-13T14:05:00.000Z</time>
      </trkpt>
      <trkpt lat="44.974" lon="0.38694">
        <ele>172</ele>
        <time>2012-03-13T14:05:02.000Z</time>
      </trkpt>
      <trkpt lat="44.97395" lon="0.38694">
        <ele>173</ele>
        <time>2012-03-13T14:05:03.000Z</time>
      </trkpt>
      <trkpt lat="44.9739" lon="0.38693">
        <ele>173</ele>
        <time>2012-03-13T14:05:04.000Z</time>
      </trkpt>
      <trkpt lat="44.97382" lon="0.38692">
        <ele>173</ele>
        <time>2012-03-13T14:05:06.000Z</time>
      </trkpt>
      <trkpt lat="44.97377" lon="0.38691">
        <ele>175</ele>
        <time>2012-03-13T14:05:07.000Z</time>
      </trkpt>
      <trkpt lat="44.97372" lon="0.3869">
        <ele>175</ele>
        <time>2012-03-13T14:05:08.000Z</time>
      </trkpt>
      <trkpt lat="44.97368" lon="0.3869">
        <ele>176</ele>
        <time>2012-03-13T14:05:09.000Z</time>
      </trkpt>
      <trkpt lat="44.97363" lon="0.3869">
        <ele>177</ele>
        <time>2012-03-13T14:05:10.000Z</time>
      </trkpt>
      <trkpt lat="44.97354" lon="0.38689">
        <ele>177</ele>
        <time>2012-03-13T14:05:12.000Z</time>
      </trkpt>
      <trkpt lat="44.97346" lon="0.38688">
        <ele>177</ele>
        <time>2012-03-13T14:05:14.000Z</time>
      </trkpt>
      <trkpt lat="44.97337" lon="0.38686">
        <ele>177</ele>
        <time>2012-03-13T14:05:16.000Z</time>
      </trkpt>
      <trkpt lat="44.97329" lon="0.38686">
        <ele>176</ele>
        <time>2012-03-13T14:05:18.000Z</time>
      </trkpt>
      <trkpt lat="44.9732" lon="0.38685">
        <ele>176</ele>
        <time>2012-03-13T14:05:20.000Z</time>
      </trkpt>
      <trkpt lat="44.97312" lon="0.38683">
        <ele>176</ele>
        <time>2012-03-13T14:05:22.000Z</time>
      </trkpt>
      <trkpt lat="44.97307" lon="0.38684">
        <ele>176</ele>
        <time>2012-03-13T14:05:23.000Z</time>
      </trkpt>
      <trkpt lat="44.97302" lon="0.38684">
        <ele>175</ele>
        <time>2012-03-13T14:05:24.000Z</time>
      </trkpt>
      <trkpt lat="44.97297" lon="0.38684">
        <ele>175</ele>
        <time>2012-03-13T14:05:25.000Z</time>
      </trkpt>
      <trkpt lat="44.97292" lon="0.38684">
        <ele>174</ele>
        <time>2012-03-13T14:05:26.000Z</time>
      </trkpt>
      <trkpt lat="44.97286" lon="0.38683">
        <ele>174</ele>
        <time>2012-03-13T14:05:27.000Z</time>
      </trkpt>
      <trkpt lat="44.9728" lon="0.38683">
        <ele>173</ele>
        <time>2012-03-13T14:05:28.000Z</time>
      </trkpt>
      <trkpt lat="44.97274" lon="0.38682">
        <ele>173</ele>
        <time>2012-03-13T14:05:29.000Z</time>
      </trkpt>
      <trkpt lat="44.97268" lon="0.38681">
        <ele>172</ele>
        <time>2012-03-13T14:05:30.000Z</time>
      </trkpt>
      <trkpt lat="44.97261" lon="0.38678">
        <ele>172</ele>
        <time>2012-03-13T14:05:31.000Z</time>
      </trkpt>
      <trkpt lat="44.97254" lon="0.38676">
        <ele>171</ele>
        <time>2012-03-13T14:05:32.000Z</time>
      </trkpt>
      <trkpt lat="44.97248" lon="0.38673">
        <ele>171</ele>
        <time>2012-03-13T14:05:33.000Z</time>
      </trkpt>
      <trkpt lat="44.97242" lon="0.38669">
        <ele>171</ele>
        <time>2012-03-13T14:05:34.000Z</time>
      </trkpt>
      <trkpt lat="44.97236" lon="0.38664">
        <ele>169</ele>
        <time>2012-03-13T14:05:35.000Z</time>
      </trkpt>
      <trkpt lat="44.9723" lon="0.38659">
        <ele>169</ele>
        <time>2012-03-13T14:05:36.000Z</time>
      </trkpt>
      <trkpt lat="44.97224" lon="0.38653">
        <ele>169</ele>
        <time>2012-03-13T14:05:37.000Z</time>
      </trkpt>
      <trkpt lat="44.97218" lon="0.38647">
        <ele>169</ele>
        <time>2012-03-13T14:05:38.000Z</time>
      </trkpt>
      <trkpt lat="44.97213" lon="0.38642">
        <ele>168</ele>
        <time>2012-03-13T14:05:39.000Z</time>
      </trkpt>
      <trkpt lat="44.97207" lon="0.38637">
        <ele>167</ele>
        <time>2012-03-13T14:05:40.000Z</time>
      </trkpt>
      <trkpt lat="44.972" lon="0.38632">
        <ele>167</ele>
        <time>2012-03-13T14:05:41.000Z</time>
      </trkpt>
      <trkpt lat="44.97193" lon="0.38629">
        <ele>165</ele>
        <time>2012-03-13T14:05:42.000Z</time>
      </trkpt>
      <trkpt lat="44.97185" lon="0.38628">
        <ele>165</ele>
        <time>2012-03-13T14:05:43.000Z</time>
      </trkpt>
      <trkpt lat="44.97152" lon="0.38633">
        <ele>162</ele>
        <time>2012-03-13T14:05:47.000Z</time>
      </trkpt>
      <trkpt lat="44.97145" lon="0.38635">
        <ele>162</ele>
        <time>2012-03-13T14:05:48.000Z</time>
      </trkpt>
      <trkpt lat="44.97139" lon="0.38637">
        <ele>162</ele>
        <time>2012-03-13T14:05:49.000Z</time>
      </trkpt>
      <trkpt lat="44.97134" lon="0.3864">
        <ele>161</ele>
        <time>2012-03-13T14:05:50.000Z</time>
      </trkpt>
      <trkpt lat="44.97128" lon="0.38641">
        <ele>162</ele>
        <time>2012-03-13T14:05:51.000Z</time>
      </trkpt>
      <trkpt lat="44.9712" lon="0.38646">
        <ele>162</ele>
        <time>2012-03-13T14:05:53.000Z</time>
      </trkpt>
      <trkpt lat="44.97124" lon="0.3865">
        <ele>162</ele>
        <time>2012-03-13T14:05:54.000Z</time>
      </trkpt>
      <trkpt lat="44.97128" lon="0.38659">
        <ele>161</ele>
        <time>2012-03-13T14:05:56.000Z</time>
      </trkpt>
      <trkpt lat="44.97132" lon="0.38664">
        <ele>161</ele>
        <time>2012-03-13T14:05:57.000Z</time>
      </trkpt>
      <trkpt lat="44.97136" lon="0.38668">
        <ele>161</ele>
        <time>2012-03-13T14:05:58.000Z</time>
      </trkpt>
      <trkpt lat="44.9714" lon="0.38672">
        <ele>162</ele>
        <time>2012-03-13T14:05:59.000Z</time>
      </trkpt>
      <trkpt lat="44.97147" lon="0.3868">
        <ele>162</ele>
        <time>2012-03-13T14:06:01.000Z</time>
      </trkpt>
      <trkpt lat="44.9715" lon="0.38685">
        <ele>162</ele>
        <time>2012-03-13T14:06:02.000Z</time>
      </trkpt>
      <trkpt lat="44.97154" lon="0.38691">
        <ele>162</ele>
        <time>2012-03-13T14:06:03.000Z</time>
      </trkpt>
      <trkpt lat="44.97158" lon="0.38696">
        <ele>162</ele>
        <time>2012-03-13T14:06:04.000Z</time>
      </trkpt>
      <trkpt lat="44.97161" lon="0.38704">
        <ele>162</ele>
        <time>2012-03-13T14:06:05.000Z</time>
      </trkpt>
      <trkpt lat="44.97168" lon="0.38718">
        <ele>161</ele>
        <time>2012-03-13T14:06:07.000Z</time>
      </trkpt>
      <trkpt lat="44.97174" lon="0.3873">
        <ele>161</ele>
        <time>2012-03-13T14:06:09.000Z</time>
      </trkpt>
      <trkpt lat="44.97178" lon="0.38734">
        <ele>161</ele>
        <time>2012-03-13T14:06:10.000Z</time>
      </trkpt>
      <trkpt lat="44.97181" lon="0.3874">
        <ele>161</ele>
        <time>2012-03-13T14:06:11.000Z</time>
      </trkpt>
      <trkpt lat="44.97187" lon="0.38754">
        <ele>159</ele>
        <time>2012-03-13T14:06:13.000Z</time>
      </trkpt>
      <trkpt lat="44.97191" lon="0.38761">
        <ele>160</ele>
        <time>2012-03-13T14:06:14.000Z</time>
      </trkpt>
      <trkpt lat="44.97193" lon="0.38769">
        <ele>159</ele>
        <time>2012-03-13T14:06:15.000Z</time>
      </trkpt>
      <trkpt lat="44.97196" lon="0.38775">
        <ele>159</ele>
        <time>2012-03-13T14:06:16.000Z</time>
      </trkpt>
      <trkpt lat="44.97199" lon="0.38782">
        <ele>159</ele>
        <time>2012-03-13T14:06:17.000Z</time>
      </trkpt>
      <trkpt lat="44.97202" lon="0.3879">
        <ele>158</ele>
        <time>2012-03-13T14:06:18.000Z</time>
      </trkpt>
      <trkpt lat="44.97205" lon="0.38797">
        <ele>158</ele>
        <time>2012-03-13T14:06:19.000Z</time>
      </trkpt>
      <trkpt lat="44.97208" lon="0.38804">
        <ele>158</ele>
        <time>2012-03-13T14:06:20.000Z</time>
      </trkpt>
      <trkpt lat="44.9721" lon="0.38811">
        <ele>158</ele>
        <time>2012-03-13T14:06:21.000Z</time>
      </trkpt>
      <trkpt lat="44.9721" lon="0.38819">
        <ele>158</ele>
        <time>2012-03-13T14:06:22.000Z</time>
      </trkpt>
      <trkpt lat="44.9721" lon="0.38827">
        <ele>158</ele>
        <time>2012-03-13T14:06:23.000Z</time>
      </trkpt>
      <trkpt lat="44.9721" lon="0.38834">
        <ele>158</ele>
        <time>2012-03-13T14:06:24.000Z</time>
      </trkpt>
      <trkpt lat="44.97212" lon="0.3884">
        <ele>158</ele>
        <time>2012-03-13T14:06:26.000Z</time>
      </trkpt>
      <trkpt lat="44.97213" lon="0.38853">
        <ele>158</ele>
        <time>2012-03-13T14:06:28.000Z</time>
      </trkpt>
      <trkpt lat="44.97213" lon="0.3886">
        <ele>157</ele>
        <time>2012-03-13T14:06:29.000Z</time>
      </trkpt>
      <trkpt lat="44.97212" lon="0.38869">
        <ele>157</ele>
        <time>2012-03-13T14:06:30.000Z</time>
      </trkpt>
      <trkpt lat="44.97209" lon="0.38882">
        <ele>157</ele>
        <time>2012-03-13T14:06:31.000Z</time>
      </trkpt>
      <trkpt lat="44.97211" lon="0.38894">
        <ele>157</ele>
        <time>2012-03-13T14:06:32.000Z</time>
      </trkpt>
      <trkpt lat="44.97212" lon="0.38905">
        <ele>157</ele>
        <time>2012-03-13T14:06:33.000Z</time>
      </trkpt>
      <trkpt lat="44.97215" lon="0.38912">
        <ele>158</ele>
        <time>2012-03-13T14:06:34.000Z</time>
      </trkpt>
      <trkpt lat="44.97216" lon="0.38919">
        <ele>157</ele>
        <time>2012-03-13T14:06:35.000Z</time>
      </trkpt>
      <trkpt lat="44.97218" lon="0.38929">
        <ele>157</ele>
        <time>2012-03-13T14:06:36.000Z</time>
      </trkpt>
      <trkpt lat="44.97218" lon="0.38936">
        <ele>157</ele>
        <time>2012-03-13T14:06:37.000Z</time>
      </trkpt>
      <trkpt lat="44.9722" lon="0.38945">
        <ele>156</ele>
        <time>2012-03-13T14:06:38.000Z</time>
      </trkpt>
      <trkpt lat="44.97221" lon="0.38953">
        <ele>156</ele>
        <time>2012-03-13T14:06:39.000Z</time>
      </trkpt>
      <trkpt lat="44.97222" lon="0.3896">
        <ele>156</ele>
        <time>2012-03-13T14:06:40.000Z</time>
      </trkpt>
      <trkpt lat="44.97226" lon="0.38967">
        <ele>155</ele>
        <time>2012-03-13T14:06:41.000Z</time>
      </trkpt>
      <trkpt lat="44.97228" lon="0.38975">
        <ele>155</ele>
        <time>2012-03-13T14:06:42.000Z</time>
      </trkpt>
      <trkpt lat="44.97232" lon="0.38985">
        <ele>155</ele>
        <time>2012-03-13T14:06:44.000Z</time>
      </trkpt>
      <trkpt lat="44.97234" lon="0.38996">
        <ele>155</ele>
        <time>2012-03-13T14:06:46.000Z</time>
      </trkpt>
      <trkpt lat="44.97239" lon="0.39005">
        <ele>155</ele>
        <time>2012-03-13T14:06:48.000Z</time>
      </trkpt>
      <trkpt lat="44.97235" lon="0.39007">
        <ele>154</ele>
        <time>2012-03-13T14:06:49.000Z</time>
      </trkpt>
      <trkpt lat="44.9723" lon="0.3901">
        <ele>155</ele>
        <time>2012-03-13T14:06:51.000Z</time>
      </trkpt>
      <trkpt lat="44.97224" lon="0.39013">
        <ele>156</ele>
        <time>2012-03-13T14:06:56.000Z</time>
      </trkpt>
      <trkpt lat="44.97221" lon="0.39009">
        <ele>157</ele>
        <time>2012-03-13T14:06:58.000Z</time>
      </trkpt>
      <trkpt lat="44.97216" lon="0.39005">
        <ele>157</ele>
        <time>2012-03-13T14:07:00.000Z</time>
      </trkpt>
      <trkpt lat="44.97213" lon="0.39">
        <ele>156</ele>
        <time>2012-03-13T14:07:02.000Z</time>
      </trkpt>
      <trkpt lat="44.97208" lon="0.38995">
        <ele>156</ele>
        <time>2012-03-13T14:07:04.000Z</time>
      </trkpt>
      <trkpt lat="44.97205" lon="0.3899">
        <ele>158</ele>
        <time>2012-03-13T14:07:06.000Z</time>
      </trkpt>
      <trkpt lat="44.97199" lon="0.3899">
        <ele>156</ele>
        <time>2012-03-13T14:07:07.000Z</time>
      </trkpt>
      <trkpt lat="44.97193" lon="0.38988">
        <ele>160</ele>
        <time>2012-03-13T14:07:09.000Z</time>
      </trkpt>
      <trkpt lat="44.97186" lon="0.38987">
        <ele>161</ele>
        <time>2012-03-13T14:07:11.000Z</time>
      </trkpt>
      <trkpt lat="44.97179" lon="0.38982">
        <ele>160</ele>
        <time>2012-03-13T14:07:13.000Z</time>
      </trkpt>
      <trkpt lat="44.97173" lon="0.38975">
        <ele>159</ele>
        <time>2012-03-13T14:07:15.000Z</time>
      </trkpt>
      <trkpt lat="44.97167" lon="0.38969">
        <ele>158</ele>
        <time>2012-03-13T14:07:17.000Z</time>
      </trkpt>
      <trkpt lat="44.97161" lon="0.38963">
        <ele>158</ele>
        <time>2012-03-13T14:07:19.000Z</time>
      </trkpt>
      <trkpt lat="44.97155" lon="0.3896">
        <ele>158</ele>
        <time>2012-03-13T14:07:21.000Z</time>
      </trkpt>
      <trkpt lat="44.97146" lon="0.38957">
        <ele>160</ele>
        <time>2012-03-13T14:07:23.000Z</time>
      </trkpt>
      <trkpt lat="44.9714" lon="0.38955">
        <ele>161</ele>
        <time>2012-03-13T14:07:25.000Z</time>
      </trkpt>
      <trkpt lat="44.97133" lon="0.3895">
        <ele>161</ele>
        <time>2012-03-13T14:07:27.000Z</time>
      </trkpt>
      <trkpt lat="44.97128" lon="0.38947">
        <ele>162</ele>
        <time>2012-03-13T14:07:29.000Z</time>
      </trkpt>
      <trkpt lat="44.97123" lon="0.38941">
        <ele>164</ele>
        <time>2012-03-13T14:07:32.000Z</time>
      </trkpt>
      <trkpt lat="44.97118" lon="0.38937">
        <ele>165</ele>
        <time>2012-03-13T14:07:34.000Z</time>
      </trkpt>
      <trkpt lat="44.97112" lon="0.38933">
        <ele>167</ele>
        <time>2012-03-13T14:07:36.000Z</time>
      </trkpt>
      <trkpt lat="44.97104" lon="0.38934">
        <ele>167</ele>
        <time>2012-03-13T14:07:38.000Z</time>
      </trkpt>
      <trkpt lat="44.97099" lon="0.38933">
        <ele>167</ele>
        <time>2012-03-13T14:07:39.000Z</time>
      </trkpt>
      <trkpt lat="44.97089" lon="0.38927">
        <ele>167</ele>
        <time>2012-03-13T14:07:42.000Z</time>
      </trkpt>
      <trkpt lat="44.97083" lon="0.38927">
        <ele>167</ele>
        <time>2012-03-13T14:07:43.000Z</time>
      </trkpt>
      <trkpt lat="44.97074" lon="0.38926">
        <ele>168</ele>
        <time>2012-03-13T14:07:45.000Z</time>
      </trkpt>
      <trkpt lat="44.97068" lon="0.38922">
        <ele>169</ele>
        <time>2012-03-13T14:07:47.000Z</time>
      </trkpt>
      <trkpt lat="44.97062" lon="0.38917">
        <ele>169</ele>
        <time>2012-03-13T14:07:49.000Z</time>
      </trkpt>
      <trkpt lat="44.97055" lon="0.38913">
        <ele>170</ele>
        <time>2012-03-13T14:07:51.000Z</time>
      </trkpt>
      <trkpt lat="44.97049" lon="0.38914">
        <ele>170</ele>
        <time>2012-03-13T14:07:53.000Z</time>
      </trkpt>
      <trkpt lat="44.97042" lon="0.38914">
        <ele>171</ele>
        <time>2012-03-13T14:07:55.000Z</time>
      </trkpt>
      <trkpt lat="44.97034" lon="0.38916">
        <ele>172</ele>
        <time>2012-03-13T14:07:56.000Z</time>
      </trkpt>
      <trkpt lat="44.97032" lon="0.3891">
        <ele>172</ele>
        <time>2012-03-13T14:07:57.000Z</time>
      </trkpt>
      <trkpt lat="44.97027" lon="0.38907">
        <ele>173</ele>
        <time>2012-03-13T14:07:58.000Z</time>
      </trkpt>
      <trkpt lat="44.97023" lon="0.38904">
        <ele>172</ele>
        <time>2012-03-13T14:07:59.000Z</time>
      </trkpt>
      <trkpt lat="44.97018" lon="0.38902">
        <ele>173</ele>
        <time>2012-03-13T14:08:00.000Z</time>
      </trkpt>
      <trkpt lat="44.97012" lon="0.38901">
        <ele>174</ele>
        <time>2012-03-13T14:08:01.000Z</time>
      </trkpt>
      <trkpt lat="44.97003" lon="0.38895">
        <ele>174</ele>
        <time>2012-03-13T14:08:03.000Z</time>
      </trkpt>
      <trkpt lat="44.96999" lon="0.38894">
        <ele>173</ele>
        <time>2012-03-13T14:08:04.000Z</time>
      </trkpt>
      <trkpt lat="44.96995" lon="0.3889">
        <ele>172</ele>
        <time>2012-03-13T14:08:05.000Z</time>
      </trkpt>
      <trkpt lat="44.96987" lon="0.38883">
        <ele>172</ele>
        <time>2012-03-13T14:08:07.000Z</time>
      </trkpt>
      <trkpt lat="44.96982" lon="0.38882">
        <ele>172</ele>
        <time>2012-03-13T14:08:08.000Z</time>
      </trkpt>
      <trkpt lat="44.96976" lon="0.38884">
        <ele>173</ele>
        <time>2012-03-13T14:08:10.000Z</time>
      </trkpt>
      <trkpt lat="44.96971" lon="0.38883">
        <ele>172</ele>
        <time>2012-03-13T14:08:11.000Z</time>
      </trkpt>
      <trkpt lat="44.96965" lon="0.38882">
        <ele>175</ele>
        <time>2012-03-13T14:08:13.000Z</time>
      </trkpt>
      <trkpt lat="44.96959" lon="0.38881">
        <ele>174</ele>
        <time>2012-03-13T14:08:15.000Z</time>
      </trkpt>
      <trkpt lat="44.96952" lon="0.38883">
        <ele>175</ele>
        <time>2012-03-13T14:08:17.000Z</time>
      </trkpt>
      <trkpt lat="44.96946" lon="0.38882">
        <ele>173</ele>
        <time>2012-03-13T14:08:21.000Z</time>
      </trkpt>
      <trkpt lat="44.96946" lon="0.3889">
        <ele>169</ele>
        <time>2012-03-13T14:09:27.000Z</time>
      </trkpt>
      <trkpt lat="44.96947" lon="0.38897">
        <ele>167</ele>
        <time>2012-03-13T14:09:31.000Z</time>
      </trkpt>
      <trkpt lat="44.96947" lon="0.38904">
        <ele>165</ele>
        <time>2012-03-13T14:09:34.000Z</time>
      </trkpt>
      <trkpt lat="44.96945" lon="0.38912">
        <ele>166</ele>
        <time>2012-03-13T14:09:37.000Z</time>
      </trkpt>
      <trkpt lat="44.96943" lon="0.38919">
        <ele>168</ele>
        <time>2012-03-13T14:09:39.000Z</time>
      </trkpt>
      <trkpt lat="44.96941" lon="0.38926">
        <ele>169</ele>
        <time>2012-03-13T14:09:41.000Z</time>
      </trkpt>
      <trkpt lat="44.96936" lon="0.38932">
        <ele>170</ele>
        <time>2012-03-13T14:09:43.000Z</time>
      </trkpt>
      <trkpt lat="44.96933" lon="0.38937">
        <ele>171</ele>
        <time>2012-03-13T14:09:45.000Z</time>
      </trkpt>
      <trkpt lat="44.96929" lon="0.38944">
        <ele>170</ele>
        <time>2012-03-13T14:09:48.000Z</time>
      </trkpt>
      <trkpt lat="44.96927" lon="0.38949">
        <ele>170</ele>
        <time>2012-03-13T14:09:52.000Z</time>
      </trkpt>
      <trkpt lat="44.96922" lon="0.38957">
        <ele>169</ele>
        <time>2012-03-13T14:09:54.000Z</time>
      </trkpt>
      <trkpt lat="44.96921" lon="0.38964">
        <ele>170</ele>
        <time>2012-03-13T14:09:57.000Z</time>
      </trkpt>
      <trkpt lat="44.96916" lon="0.38969">
        <ele>170</ele>
        <time>2012-03-13T14:10:00.000Z</time>
      </trkpt>
      <trkpt lat="44.96913" lon="0.38977">
        <ele>170</ele>
        <time>2012-03-13T14:10:03.000Z</time>
      </trkpt>
      <trkpt lat="44.96911" lon="0.38984">
        <ele>168</ele>
        <time>2012-03-13T14:10:06.000Z</time>
      </trkpt>
      <trkpt lat="44.9691" lon="0.38992">
        <ele>170</ele>
        <time>2012-03-13T14:10:11.000Z</time>
      </trkpt>
      <trkpt lat="44.96908" lon="0.38999">
        <ele>171</ele>
        <time>2012-03-13T14:10:15.000Z</time>
      </trkpt>
      <trkpt lat="44.96906" lon="0.39005">
        <ele>171</ele>
        <time>2012-03-13T14:10:18.000Z</time>
      </trkpt>
      <trkpt lat="44.96905" lon="0.38998">
        <ele>171</ele>
        <time>2012-03-13T14:10:38.000Z</time>
      </trkpt>
      <trkpt lat="44.96907" lon="0.3899">
        <ele>170</ele>
        <time>2012-03-13T14:10:41.000Z</time>
      </trkpt>
      <trkpt lat="44.96909" lon="0.38981">
        <ele>168</ele>
        <time>2012-03-13T14:10:44.000Z</time>
      </trkpt>
      <trkpt lat="44.96914" lon="0.38974">
        <ele>169</ele>
        <time>2012-03-13T14:10:46.000Z</time>
      </trkpt>
      <trkpt lat="44.96918" lon="0.38966">
        <ele>169</ele>
        <time>2012-03-13T14:10:48.000Z</time>
      </trkpt>
      <trkpt lat="44.9692" lon="0.38957">
        <ele>168</ele>
        <time>2012-03-13T14:10:50.000Z</time>
      </trkpt>
      <trkpt lat="44.96923" lon="0.38952">
        <ele>167</ele>
        <time>2012-03-13T14:10:53.000Z</time>
      </trkpt>
      <trkpt lat="44.96928" lon="0.38945">
        <ele>168</ele>
        <time>2012-03-13T14:11:02.000Z</time>
      </trkpt>
      <trkpt lat="44.96932" lon="0.3894">
        <ele>168</ele>
        <time>2012-03-13T14:11:04.000Z</time>
      </trkpt>
      <trkpt lat="44.96935" lon="0.38933">
        <ele>167</ele>
        <time>2012-03-13T14:11:06.000Z</time>
      </trkpt>
      <trkpt lat="44.96938" lon="0.38923">
        <ele>167</ele>
        <time>2012-03-13T14:11:08.000Z</time>
      </trkpt>
      <trkpt lat="44.9694" lon="0.38915">
        <ele>166</ele>
        <time>2012-03-13T14:11:10.000Z</time>
      </trkpt>
      <trkpt lat="44.96942" lon="0.38906">
        <ele>165</ele>
        <time>2012-03-13T14:11:12.000Z</time>
      </trkpt>
      <trkpt lat="44.96943" lon="0.38898">
        <ele>169</ele>
        <time>2012-03-13T14:11:15.000Z</time>
      </trkpt>
      <trkpt lat="44.96941" lon="0.38893">
        <ele>170</ele>
        <time>2012-03-13T14:11:20.000Z</time>
      </trkpt>
      <trkpt lat="44.96936" lon="0.38891">
        <ele>171</ele>
        <time>2012-03-13T14:11:23.000Z</time>
      </trkpt>
      <trkpt lat="44.96931" lon="0.38888">
        <ele>174</ele>
        <time>2012-03-13T14:11:27.000Z</time>
      </trkpt>
      <trkpt lat="44.96926" lon="0.38886">
        <ele>175</ele>
        <time>2012-03-13T14:11:29.000Z</time>
      </trkpt>
      <trkpt lat="44.96919" lon="0.38887">
        <ele>177</ele>
        <time>2012-03-13T14:11:31.000Z</time>
      </trkpt>
      <trkpt lat="44.96913" lon="0.38887">
        <ele>180</ele>
        <time>2012-03-13T14:11:34.000Z</time>
      </trkpt>
      <trkpt lat="44.96907" lon="0.38886">
        <ele>182</ele>
        <time>2012-03-13T14:11:39.000Z</time>
      </trkpt>
      <trkpt lat="44.96902" lon="0.38887">
        <ele>182</ele>
        <time>2012-03-13T14:11:42.000Z</time>
      </trkpt>
      <trkpt lat="44.96897" lon="0.38888">
        <ele>183</ele>
        <time>2012-03-13T14:11:44.000Z</time>
      </trkpt>
      <trkpt lat="44.96891" lon="0.38889">
        <ele>184</ele>
        <time>2012-03-13T14:11:46.000Z</time>
      </trkpt>
      <trkpt lat="44.96887" lon="0.38891">
        <ele>186</ele>
        <time>2012-03-13T14:11:49.000Z</time>
      </trkpt>
      <trkpt lat="44.96883" lon="0.38886">
        <ele>180</ele>
        <time>2012-03-13T14:12:00.000Z</time>
      </trkpt>
      <trkpt lat="44.96889" lon="0.38888">
        <ele>177</ele>
        <time>2012-03-13T14:12:05.000Z</time>
      </trkpt>
      <trkpt lat="44.96893" lon="0.38887">
        <ele>177</ele>
        <time>2012-03-13T14:12:08.000Z</time>
      </trkpt>
      <trkpt lat="44.96898" lon="0.38884">
        <ele>181</ele>
        <time>2012-03-13T14:12:11.000Z</time>
      </trkpt>
      <trkpt lat="44.96904" lon="0.38885">
        <ele>179</ele>
        <time>2012-03-13T14:12:15.000Z</time>
      </trkpt>
      <trkpt lat="44.96909" lon="0.38883">
        <ele>179</ele>
        <time>2012-03-13T14:12:18.000Z</time>
      </trkpt>
      <trkpt lat="44.96915" lon="0.38883">
        <ele>179</ele>
        <time>2012-03-13T14:12:21.000Z</time>
      </trkpt>
      <trkpt lat="44.9692" lon="0.38883">
        <ele>179</ele>
        <time>2012-03-13T14:12:23.000Z</time>
      </trkpt>
      <trkpt lat="44.96924" lon="0.38886">
        <ele>178</ele>
        <time>2012-03-13T14:12:26.000Z</time>
      </trkpt>
      <trkpt lat="44.96929" lon="0.38888">
        <ele>175</ele>
        <time>2012-03-13T14:12:33.000Z</time>
      </trkpt>
      <trkpt lat="44.96935" lon="0.38891">
        <ele>164</ele>
        <time>2012-03-13T14:12:47.000Z</time>
      </trkpt>
      <trkpt lat="44.9694" lon="0.38895">
        <ele>164</ele>
        <time>2012-03-13T14:12:50.000Z</time>
      </trkpt>
      <trkpt lat="44.96941" lon="0.38901">
        <ele>162</ele>
        <time>2012-03-13T14:12:55.000Z</time>
      </trkpt>
      <trkpt lat="44.96943" lon="0.38907">
        <ele>162</ele>
        <time>2012-03-13T14:12:58.000Z</time>
      </trkpt>
      <trkpt lat="44.96943" lon="0.38914">
        <ele>164</ele>
        <time>2012-03-13T14:13:01.000Z</time>
      </trkpt>
      <trkpt lat="44.96941" lon="0.38921">
        <ele>167</ele>
        <time>2012-03-13T14:13:04.000Z</time>
      </trkpt>
      <trkpt lat="44.96938" lon="0.38927">
        <ele>166</ele>
        <time>2012-03-13T14:13:06.000Z</time>
      </trkpt>
      <trkpt lat="44.96934" lon="0.38933">
        <ele>168</ele>
        <time>2012-03-13T14:13:09.000Z</time>
      </trkpt>
      <trkpt lat="44.96932" lon="0.3894">
        <ele>170</ele>
        <time>2012-03-13T14:13:12.000Z</time>
      </trkpt>
      <trkpt lat="44.96928" lon="0.38945">
        <ele>169</ele>
        <time>2012-03-13T14:13:15.000Z</time>
      </trkpt>
      <trkpt lat="44.96924" lon="0.38952">
        <ele>167</ele>
        <time>2012-03-13T14:13:20.000Z</time>
      </trkpt>
      <trkpt lat="44.96921" lon="0.38958">
        <ele>168</ele>
        <time>2012-03-13T14:13:23.000Z</time>
      </trkpt>
      <trkpt lat="44.96919" lon="0.38966">
        <ele>168</ele>
        <time>2012-03-13T14:13:27.000Z</time>
      </trkpt>
      <trkpt lat="44.96914" lon="0.38974">
        <ele>169</ele>
        <time>2012-03-13T14:13:30.000Z</time>
      </trkpt>
      <trkpt lat="44.9691" lon="0.38978">
        <ele>169</ele>
        <time>2012-03-13T14:13:32.000Z</time>
      </trkpt>
      <trkpt lat="44.96909" lon="0.38985">
        <ele>171</ele>
        <time>2012-03-13T14:13:35.000Z</time>
      </trkpt>
      <trkpt lat="44.96908" lon="0.38992">
        <ele>173</ele>
        <time>2012-03-13T14:13:38.000Z</time>
      </trkpt>
      <trkpt lat="44.96905" lon="0.38997">
        <ele>175</ele>
        <time>2012-03-13T14:13:41.000Z</time>
      </trkpt>
      <trkpt lat="44.96903" lon="0.39004">
        <ele>175</ele>
        <time>2012-03-13T14:13:43.000Z</time>
      </trkpt>
      <trkpt lat="44.969" lon="0.3901">
        <ele>174</ele>
        <time>2012-03-13T14:13:46.000Z</time>
      </trkpt>
      <trkpt lat="44.96895" lon="0.39014">
        <ele>175</ele>
        <time>2012-03-13T14:13:49.000Z</time>
      </trkpt>
      <trkpt lat="44.96891" lon="0.39019">
        <ele>174</ele>
        <time>2012-03-13T14:13:52.000Z</time>
      </trkpt>
      <trkpt lat="44.96889" lon="0.39026">
        <ele>176</ele>
        <time>2012-03-13T14:13:58.000Z</time>
      </trkpt>
      <trkpt lat="44.96887" lon="0.39032">
        <ele>177</ele>
        <time>2012-03-13T14:14:03.000Z</time>
      </trkpt>
      <trkpt lat="44.96884" lon="0.3904">
        <ele>176</ele>
        <time>2012-03-13T14:14:16.000Z</time>
      </trkpt>
      <trkpt lat="44.96881" lon="0.39047">
        <ele>175</ele>
        <time>2012-03-13T14:14:19.000Z</time>
      </trkpt>
      <trkpt lat="44.96878" lon="0.39055">
        <ele>177</ele>
        <time>2012-03-13T14:14:22.000Z</time>
      </trkpt>
      <trkpt lat="44.96876" lon="0.39061">
        <ele>176</ele>
        <time>2012-03-13T14:14:24.000Z</time>
      </trkpt>
      <trkpt lat="44.96874" lon="0.39067">
        <ele>175</ele>
        <time>2012-03-13T14:14:26.000Z</time>
      </trkpt>
      <trkpt lat="44.96873" lon="0.39074">
        <ele>175</ele>
        <time>2012-03-13T14:14:28.000Z</time>
      </trkpt>
      <trkpt lat="44.96871" lon="0.39081">
        <ele>176</ele>
        <time>2012-03-13T14:14:31.000Z</time>
      </trkpt>
      <trkpt lat="44.96868" lon="0.39086">
        <ele>177</ele>
        <time>2012-03-13T14:14:33.000Z</time>
      </trkpt>
      <trkpt lat="44.96866" lon="0.39092">
        <ele>178</ele>
        <time>2012-03-13T14:14:36.000Z</time>
      </trkpt>
      <trkpt lat="44.96862" lon="0.39097">
        <ele>179</ele>
        <time>2012-03-13T14:14:39.000Z</time>
      </trkpt>
      <trkpt lat="44.96858" lon="0.39103">
        <ele>181</ele>
        <time>2012-03-13T14:14:42.000Z</time>
      </trkpt>
      <trkpt lat="44.96854" lon="0.39111">
        <ele>179</ele>
        <time>2012-03-13T14:14:44.000Z</time>
      </trkpt>
      <trkpt lat="44.9685" lon="0.39117">
        <ele>179</ele>
        <time>2012-03-13T14:14:46.000Z</time>
      </trkpt>
      <trkpt lat="44.96846" lon="0.39124">
        <ele>180</ele>
        <time>2012-03-13T14:14:48.000Z</time>
      </trkpt>
      <trkpt lat="44.96842" lon="0.3913">
        <ele>180</ele>
        <time>2012-03-13T14:14:50.000Z</time>
      </trkpt>
      <trkpt lat="44.96837" lon="0.39137">
        <ele>181</ele>
        <time>2012-03-13T14:14:53.000Z</time>
      </trkpt>
      <trkpt lat="44.96836" lon="0.39146">
        <ele>181</ele>
        <time>2012-03-13T14:14:55.000Z</time>
      </trkpt>
      <trkpt lat="44.96832" lon="0.39152">
        <ele>181</ele>
        <time>2012-03-13T14:14:57.000Z</time>
      </trkpt>
      <trkpt lat="44.9683" lon="0.39158">
        <ele>181</ele>
        <time>2012-03-13T14:14:59.000Z</time>
      </trkpt>
      <trkpt lat="44.96827" lon="0.39164">
        <ele>181</ele>
        <time>2012-03-13T14:15:01.000Z</time>
      </trkpt>
      <trkpt lat="44.96823" lon="0.39172">
        <ele>179</ele>
        <time>2012-03-13T14:15:04.000Z</time>
      </trkpt>
      <trkpt lat="44.96819" lon="0.39176">
        <ele>180</ele>
        <time>2012-03-13T14:15:18.000Z</time>
      </trkpt>
      <trkpt lat="44.96815" lon="0.3918">
        <ele>181</ele>
        <time>2012-03-13T14:15:24.000Z</time>
      </trkpt>
      <trkpt lat="44.96815" lon="0.39188">
        <ele>182</ele>
        <time>2012-03-13T14:15:34.000Z</time>
      </trkpt>
      <trkpt lat="44.96812" lon="0.39194">
        <ele>182</ele>
        <time>2012-03-13T14:15:37.000Z</time>
      </trkpt>
      <trkpt lat="44.9681" lon="0.39201">
        <ele>184</ele>
        <time>2012-03-13T14:15:40.000Z</time>
      </trkpt>
      <trkpt lat="44.9681" lon="0.39201">
        <ele>184</ele>
        <time>2012-03-13T14:15:40.000Z</time>
      </trkpt>
      <trkpt lat="44.9681" lon="0.39201">
        <ele>184</ele>
        <time>2012-03-13T14:15:41.000Z</time>
      </trkpt>
      <trkpt lat="44.96807" lon="0.39208">
        <ele>186</ele>
        <time>2012-03-13T14:15:46.000Z</time>
      </trkpt>
      <trkpt lat="44.96801" lon="0.39209">
        <ele>184</ele>
        <time>2012-03-13T14:16:30.000Z</time>
      </trkpt>
      <trkpt lat="44.96799" lon="0.39203">
        <ele>183</ele>
        <time>2012-03-13T14:16:33.000Z</time>
      </trkpt>
      <trkpt lat="44.96794" lon="0.39198">
        <ele>183</ele>
        <time>2012-03-13T14:16:36.000Z</time>
      </trkpt>
      <trkpt lat="44.96792" lon="0.39191">
        <ele>182</ele>
        <time>2012-03-13T14:16:38.000Z</time>
      </trkpt>
      <trkpt lat="44.96789" lon="0.39183">
        <ele>181</ele>
        <time>2012-03-13T14:16:42.000Z</time>
      </trkpt>
      <trkpt lat="44.96785" lon="0.39174">
        <ele>184</ele>
        <time>2012-03-13T14:16:44.000Z</time>
      </trkpt>
      <trkpt lat="44.96783" lon="0.39167">
        <ele>184</ele>
        <time>2012-03-13T14:16:46.000Z</time>
      </trkpt>
      <trkpt lat="44.9678" lon="0.39162">
        <ele>184</ele>
        <time>2012-03-13T14:16:48.000Z</time>
      </trkpt>
      <trkpt lat="44.96777" lon="0.39154">
        <ele>183</ele>
        <time>2012-03-13T14:16:51.000Z</time>
      </trkpt>
      <trkpt lat="44.96778" lon="0.39146">
        <ele>183</ele>
        <time>2012-03-13T14:16:54.000Z</time>
      </trkpt>
      <trkpt lat="44.96778" lon="0.39139">
        <ele>183</ele>
        <time>2012-03-13T14:16:56.000Z</time>
      </trkpt>
      <trkpt lat="44.96773" lon="0.39136">
        <ele>185</ele>
        <time>2012-03-13T14:16:59.000Z</time>
      </trkpt>
      <trkpt lat="44.9677" lon="0.39131">
        <ele>186</ele>
        <time>2012-03-13T14:17:02.000Z</time>
      </trkpt>
      <trkpt lat="44.96768" lon="0.39121">
        <ele>183</ele>
        <time>2012-03-13T14:17:05.000Z</time>
      </trkpt>
      <trkpt lat="44.96769" lon="0.39112">
        <ele>182</ele>
        <time>2012-03-13T14:17:07.000Z</time>
      </trkpt>
      <trkpt lat="44.9677" lon="0.39105">
        <ele>181</ele>
        <time>2012-03-13T14:17:09.000Z</time>
      </trkpt>
      <trkpt lat="44.9677" lon="0.39097">
        <ele>180</ele>
        <time>2012-03-13T14:17:11.000Z</time>
      </trkpt>
      <trkpt lat="44.96768" lon="0.3909">
        <ele>180</ele>
        <time>2012-03-13T14:17:13.000Z</time>
      </trkpt>
      <trkpt lat="44.96764" lon="0.39085">
        <ele>180</ele>
        <time>2012-03-13T14:17:15.000Z</time>
      </trkpt>
      <trkpt lat="44.96758" lon="0.39079">
        <ele>179</ele>
        <time>2012-03-13T14:17:17.000Z</time>
      </trkpt>
      <trkpt lat="44.96756" lon="0.39073">
        <ele>181</ele>
        <time>2012-03-13T14:17:19.000Z</time>
      </trkpt>
      <trkpt lat="44.96754" lon="0.39067">
        <ele>182</ele>
        <time>2012-03-13T14:17:21.000Z</time>
      </trkpt>
      <trkpt lat="44.96751" lon="0.39062">
        <ele>183</ele>
        <time>2012-03-13T14:17:23.000Z</time>
      </trkpt>
      <trkpt lat="44.96748" lon="0.39057">
        <ele>183</ele>
        <time>2012-03-13T14:17:24.000Z</time>
      </trkpt>
      <trkpt lat="44.96743" lon="0.3905">
        <ele>182</ele>
        <time>2012-03-13T14:17:26.000Z</time>
      </trkpt>
      <trkpt lat="44.9674" lon="0.39044">
        <ele>181</ele>
        <time>2012-03-13T14:17:28.000Z</time>
      </trkpt>
      <trkpt lat="44.96736" lon="0.39037">
        <ele>180</ele>
        <time>2012-03-13T14:17:31.000Z</time>
      </trkpt>
      <trkpt lat="44.96733" lon="0.3903">
        <ele>180</ele>
        <time>2012-03-13T14:17:34.000Z</time>
      </trkpt>
      <trkpt lat="44.96731" lon="0.39024">
        <ele>180</ele>
        <time>2012-03-13T14:17:37.000Z</time>
      </trkpt>
      <trkpt lat="44.96728" lon="0.39016">
        <ele>180</ele>
        <time>2012-03-13T14:17:40.000Z</time>
      </trkpt>
      <trkpt lat="44.96723" lon="0.39009">
        <ele>179</ele>
        <time>2012-03-13T14:17:42.000Z</time>
      </trkpt>
      <trkpt lat="44.96718" lon="0.39001">
        <ele>178</ele>
        <time>2012-03-13T14:17:44.000Z</time>
      </trkpt>
      <trkpt lat="44.96713" lon="0.38995">
        <ele>178</ele>
        <time>2012-03-13T14:17:46.000Z</time>
      </trkpt>
      <trkpt lat="44.96709" lon="0.3899">
        <ele>178</ele>
        <time>2012-03-13T14:17:48.000Z</time>
      </trkpt>
      <trkpt lat="44.96704" lon="0.38985">
        <ele>179</ele>
        <time>2012-03-13T14:17:50.000Z</time>
      </trkpt>
      <trkpt lat="44.96696" lon="0.38984">
        <ele>180</ele>
        <time>2012-03-13T14:17:52.000Z</time>
      </trkpt>
      <trkpt lat="44.96691" lon="0.38984">
        <ele>183</ele>
        <time>2012-03-13T14:17:54.000Z</time>
      </trkpt>
      <trkpt lat="44.96685" lon="0.38985">
        <ele>184</ele>
        <time>2012-03-13T14:17:56.000Z</time>
      </trkpt>
      <trkpt lat="44.96679" lon="0.38984">
        <ele>184</ele>
        <time>2012-03-13T14:17:58.000Z</time>
      </trkpt>
      <trkpt lat="44.96674" lon="0.3898">
        <ele>183</ele>
        <time>2012-03-13T14:18:00.000Z</time>
      </trkpt>
      <trkpt lat="44.96671" lon="0.38976">
        <ele>182</ele>
        <time>2012-03-13T14:18:02.000Z</time>
      </trkpt>
      <trkpt lat="44.96666" lon="0.38972">
        <ele>181</ele>
        <time>2012-03-13T14:18:04.000Z</time>
      </trkpt>
      <trkpt lat="44.9666" lon="0.38969">
        <ele>181</ele>
        <time>2012-03-13T14:18:06.000Z</time>
      </trkpt>
      <trkpt lat="44.96654" lon="0.38967">
        <ele>181</ele>
        <time>2012-03-13T14:18:08.000Z</time>
      </trkpt>
      <trkpt lat="44.96647" lon="0.38965">
        <ele>180</ele>
        <time>2012-03-13T14:18:10.000Z</time>
      </trkpt>
      <trkpt lat="44.96642" lon="0.38957">
        <ele>179</ele>
        <time>2012-03-13T14:18:12.000Z</time>
      </trkpt>
      <trkpt lat="44.96637" lon="0.38948">
        <ele>178</ele>
        <time>2012-03-13T14:18:14.000Z</time>
      </trkpt>
      <trkpt lat="44.96632" lon="0.38938">
        <ele>178</ele>
        <time>2012-03-13T14:18:16.000Z</time>
      </trkpt>
      <trkpt lat="44.96627" lon="0.38934">
        <ele>179</ele>
        <time>2012-03-13T14:18:18.000Z</time>
      </trkpt>
      <trkpt lat="44.96622" lon="0.38933">
        <ele>178</ele>
        <time>2012-03-13T14:18:20.000Z</time>
      </trkpt>
      <trkpt lat="44.96617" lon="0.38931">
        <ele>178</ele>
        <time>2012-03-13T14:18:22.000Z</time>
      </trkpt>
      <trkpt lat="44.96611" lon="0.38928">
        <ele>177</ele>
        <time>2012-03-13T14:18:24.000Z</time>
      </trkpt>
      <trkpt lat="44.96604" lon="0.38924">
        <ele>177</ele>
        <time>2012-03-13T14:18:26.000Z</time>
      </trkpt>
      <trkpt lat="44.96598" lon="0.3892">
        <ele>176</ele>
        <time>2012-03-13T14:18:28.000Z</time>
      </trkpt>
      <trkpt lat="44.96592" lon="0.38914">
        <ele>175</ele>
        <time>2012-03-13T14:18:30.000Z</time>
      </trkpt>
      <trkpt lat="44.96588" lon="0.3891">
        <ele>175</ele>
        <time>2012-03-13T14:18:32.000Z</time>
      </trkpt>
      <trkpt lat="44.96583" lon="0.38904">
        <ele>174</ele>
        <time>2012-03-13T14:18:35.000Z</time>
      </trkpt>
      <trkpt lat="44.96578" lon="0.389">
        <ele>177</ele>
        <time>2012-03-13T14:18:41.000Z</time>
      </trkpt>
      <trkpt lat="44.96575" lon="0.38895">
        <ele>178</ele>
        <time>2012-03-13T14:18:45.000Z</time>
      </trkpt>
      <trkpt lat="44.96573" lon="0.38888">
        <ele>180</ele>
        <time>2012-03-13T14:18:49.000Z</time>
      </trkpt>
      <trkpt lat="44.9657" lon="0.38881">
        <ele>180</ele>
        <time>2012-03-13T14:18:52.000Z</time>
      </trkpt>
      <trkpt lat="44.96567" lon="0.38872">
        <ele>182</ele>
        <time>2012-03-13T14:18:55.000Z</time>
      </trkpt>
      <trkpt lat="44.96564" lon="0.38863">
        <ele>183</ele>
        <time>2012-03-13T14:18:58.000Z</time>
      </trkpt>
      <trkpt lat="44.96561" lon="0.38856">
        <ele>182</ele>
        <time>2012-03-13T14:19:00.000Z</time>
      </trkpt>
      <trkpt lat="44.96558" lon="0.3885">
        <ele>181</ele>
        <time>2012-03-13T14:19:02.000Z</time>
      </trkpt>
      <trkpt lat="44.96554" lon="0.38845">
        <ele>181</ele>
        <time>2012-03-13T14:19:04.000Z</time>
      </trkpt>
      <trkpt lat="44.9655" lon="0.38838">
        <ele>181</ele>
        <time>2012-03-13T14:19:07.000Z</time>
      </trkpt>
      <trkpt lat="44.96546" lon="0.38832">
        <ele>180</ele>
        <time>2012-03-13T14:19:09.000Z</time>
      </trkpt>
      <trkpt lat="44.96542" lon="0.38827">
        <ele>181</ele>
        <time>2012-03-13T14:19:11.000Z</time>
      </trkpt>
      <trkpt lat="44.96538" lon="0.38824">
        <ele>180</ele>
        <time>2012-03-13T14:19:12.000Z</time>
      </trkpt>
      <trkpt lat="44.96533" lon="0.3882">
        <ele>180</ele>
        <time>2012-03-13T14:19:14.000Z</time>
      </trkpt>
      <trkpt lat="44.96529" lon="0.38815">
        <ele>180</ele>
        <time>2012-03-13T14:19:16.000Z</time>
      </trkpt>
      <trkpt lat="44.96524" lon="0.38813">
        <ele>181</ele>
        <time>2012-03-13T14:19:17.000Z</time>
      </trkpt>
      <trkpt lat="44.96516" lon="0.38808">
        <ele>182</ele>
        <time>2012-03-13T14:19:19.000Z</time>
      </trkpt>
      <trkpt lat="44.9651" lon="0.38803">
        <ele>182</ele>
        <time>2012-03-13T14:19:21.000Z</time>
      </trkpt>
      <trkpt lat="44.96507" lon="0.38797">
        <ele>183</ele>
        <time>2012-03-13T14:19:23.000Z</time>
      </trkpt>
      <trkpt lat="44.96503" lon="0.38792">
        <ele>186</ele>
        <time>2012-03-13T14:19:25.000Z</time>
      </trkpt>
      <trkpt lat="44.96499" lon="0.38787">
        <ele>186</ele>
        <time>2012-03-13T14:19:27.000Z</time>
      </trkpt>
      <trkpt lat="44.96494" lon="0.38783">
        <ele>186</ele>
        <time>2012-03-13T14:19:29.000Z</time>
      </trkpt>
      <trkpt lat="44.9649" lon="0.38779">
        <ele>186</ele>
        <time>2012-03-13T14:19:31.000Z</time>
      </trkpt>
      <trkpt lat="44.96485" lon="0.38775">
        <ele>186</ele>
        <time>2012-03-13T14:19:34.000Z</time>
      </trkpt>
      <trkpt lat="44.9648" lon="0.38782">
        <ele>186</ele>
        <time>2012-03-13T14:19:41.000Z</time>
      </trkpt>
      <trkpt lat="44.96476" lon="0.38791">
        <ele>187</ele>
        <time>2012-03-13T14:19:42.000Z</time>
      </trkpt>
      <trkpt lat="44.96471" lon="0.38796">
        <ele>187</ele>
        <time>2012-03-13T14:19:43.000Z</time>
      </trkpt>
      <trkpt lat="44.96468" lon="0.38804">
        <ele>188</ele>
        <time>2012-03-13T14:19:44.000Z</time>
      </trkpt>
      <trkpt lat="44.96464" lon="0.38815">
        <ele>188</ele>
        <time>2012-03-13T14:19:46.000Z</time>
      </trkpt>
      <trkpt lat="44.9646" lon="0.38826">
        <ele>188</ele>
        <time>2012-03-13T14:19:48.000Z</time>
      </trkpt>
      <trkpt lat="44.96457" lon="0.38838">
        <ele>188</ele>
        <time>2012-03-13T14:19:50.000Z</time>
      </trkpt>
      <trkpt lat="44.96455" lon="0.38844">
        <ele>188</ele>
        <time>2012-03-13T14:19:51.000Z</time>
      </trkpt>
      <trkpt lat="44.96454" lon="0.3885">
        <ele>188</ele>
        <time>2012-03-13T14:19:52.000Z</time>
      </trkpt>
      <trkpt lat="44.96451" lon="0.38862">
        <ele>188</ele>
        <time>2012-03-13T14:19:54.000Z</time>
      </trkpt>
      <trkpt lat="44.96449" lon="0.38874">
        <ele>188</ele>
        <time>2012-03-13T14:19:56.000Z</time>
      </trkpt>
      <trkpt lat="44.96447" lon="0.38886">
        <ele>188</ele>
        <time>2012-03-13T14:19:58.000Z</time>
      </trkpt>
      <trkpt lat="44.96445" lon="0.38896">
        <ele>189</ele>
        <time>2012-03-13T14:20:00.000Z</time>
      </trkpt>
      <trkpt lat="44.96443" lon="0.38908">
        <ele>189</ele>
        <time>2012-03-13T14:20:03.000Z</time>
      </trkpt>
      <trkpt lat="44.96444" lon="0.38916">
        <ele>190</ele>
        <time>2012-03-13T14:20:05.000Z</time>
      </trkpt>
      <trkpt lat="44.96445" lon="0.38923">
        <ele>191</ele>
        <time>2012-03-13T14:20:07.000Z</time>
      </trkpt>
      <trkpt lat="44.96442" lon="0.38934">
        <ele>193</ele>
        <time>2012-03-13T14:20:09.000Z</time>
      </trkpt>
      <trkpt lat="44.96441" lon="0.38945">
        <ele>194</ele>
        <time>2012-03-13T14:20:11.000Z</time>
      </trkpt>
      <trkpt lat="44.9644" lon="0.38954">
        <ele>195</ele>
        <time>2012-03-13T14:20:13.000Z</time>
      </trkpt>
      <trkpt lat="44.9644" lon="0.38964">
        <ele>196</ele>
        <time>2012-03-13T14:20:15.000Z</time>
      </trkpt>
      <trkpt lat="44.96439" lon="0.38973">
        <ele>196</ele>
        <time>2012-03-13T14:20:16.000Z</time>
      </trkpt>
      <trkpt lat="44.96438" lon="0.3898">
        <ele>197</ele>
        <time>2012-03-13T14:20:17.000Z</time>
      </trkpt>
      <trkpt lat="44.96437" lon="0.38991">
        <ele>198</ele>
        <time>2012-03-13T14:20:19.000Z</time>
      </trkpt>
      <trkpt lat="44.96436" lon="0.39001">
        <ele>199</ele>
        <time>2012-03-13T14:20:21.000Z</time>
      </trkpt>
      <trkpt lat="44.96436" lon="0.39012">
        <ele>201</ele>
        <time>2012-03-13T14:20:23.000Z</time>
      </trkpt>
      <trkpt lat="44.96435" lon="0.39023">
        <ele>202</ele>
        <time>2012-03-13T14:20:25.000Z</time>
      </trkpt>
      <trkpt lat="44.96434" lon="0.39032">
        <ele>202</ele>
        <time>2012-03-13T14:20:27.000Z</time>
      </trkpt>
      <trkpt lat="44.96433" lon="0.39045">
        <ele>204</ele>
        <time>2012-03-13T14:20:29.000Z</time>
      </trkpt>
      <trkpt lat="44.96434" lon="0.39052">
        <ele>204</ele>
        <time>2012-03-13T14:20:30.000Z</time>
      </trkpt>
      <trkpt lat="44.96434" lon="0.39059">
        <ele>205</ele>
        <time>2012-03-13T14:20:31.000Z</time>
      </trkpt>
      <trkpt lat="44.96434" lon="0.3907">
        <ele>206</ele>
        <time>2012-03-13T14:20:33.000Z</time>
      </trkpt>
      <trkpt lat="44.96434" lon="0.39078">
        <ele>206</ele>
        <time>2012-03-13T14:20:34.000Z</time>
      </trkpt>
      <trkpt lat="44.96435" lon="0.39085">
        <ele>206</ele>
        <time>2012-03-13T14:20:35.000Z</time>
      </trkpt>
      <trkpt lat="44.96433" lon="0.39093">
        <ele>206</ele>
        <time>2012-03-13T14:20:36.000Z</time>
      </trkpt>
      <trkpt lat="44.9643" lon="0.39098">
        <ele>206</ele>
        <time>2012-03-13T14:20:37.000Z</time>
      </trkpt>
      <trkpt lat="44.96432" lon="0.39109">
        <ele>204</ele>
        <time>2012-03-13T14:20:38.000Z</time>
      </trkpt>
      <trkpt lat="44.96431" lon="0.39117">
        <ele>203</ele>
        <time>2012-03-13T14:20:39.000Z</time>
      </trkpt>
      <trkpt lat="44.9643" lon="0.39125">
        <ele>200</ele>
        <time>2012-03-13T14:20:40.000Z</time>
      </trkpt>
      <trkpt lat="44.96428" lon="0.39131">
        <ele>199</ele>
        <time>2012-03-13T14:20:41.000Z</time>
      </trkpt>
      <trkpt lat="44.96426" lon="0.39137">
        <ele>198</ele>
        <time>2012-03-13T14:20:42.000Z</time>
      </trkpt>
      <trkpt lat="44.96422" lon="0.39147">
        <ele>197</ele>
        <time>2012-03-13T14:20:44.000Z</time>
      </trkpt>
      <trkpt lat="44.96419" lon="0.39155">
        <ele>195</ele>
        <time>2012-03-13T14:20:46.000Z</time>
      </trkpt>
      <trkpt lat="44.96414" lon="0.39164">
        <ele>194</ele>
        <time>2012-03-13T14:20:48.000Z</time>
      </trkpt>
      <trkpt lat="44.96407" lon="0.39174">
        <ele>194</ele>
        <time>2012-03-13T14:20:50.000Z</time>
      </trkpt>
      <trkpt lat="44.96404" lon="0.39178">
        <ele>194</ele>
        <time>2012-03-13T14:20:51.000Z</time>
      </trkpt>
      <trkpt lat="44.96401" lon="0.39184">
        <ele>194</ele>
        <time>2012-03-13T14:20:52.000Z</time>
      </trkpt>
      <trkpt lat="44.96397" lon="0.39188">
        <ele>194</ele>
        <time>2012-03-13T14:20:53.000Z</time>
      </trkpt>
      <trkpt lat="44.96394" lon="0.39194">
        <ele>195</ele>
        <time>2012-03-13T14:20:54.000Z</time>
      </trkpt>
      <trkpt lat="44.9639" lon="0.39199">
        <ele>195</ele>
        <time>2012-03-13T14:20:55.000Z</time>
      </trkpt>
      <trkpt lat="44.96386" lon="0.39204">
        <ele>195</ele>
        <time>2012-03-13T14:20:56.000Z</time>
      </trkpt>
      <trkpt lat="44.9638" lon="0.39214">
        <ele>195</ele>
        <time>2012-03-13T14:20:58.000Z</time>
      </trkpt>
      <trkpt lat="44.96372" lon="0.39224">
        <ele>196</ele>
        <time>2012-03-13T14:21:00.000Z</time>
      </trkpt>
      <trkpt lat="44.96368" lon="0.3923">
        <ele>197</ele>
        <time>2012-03-13T14:21:01.000Z</time>
      </trkpt>
      <trkpt lat="44.96365" lon="0.39235">
        <ele>197</ele>
        <time>2012-03-13T14:21:02.000Z</time>
      </trkpt>
      <trkpt lat="44.96361" lon="0.39239">
        <ele>197</ele>
        <time>2012-03-13T14:21:03.000Z</time>
      </trkpt>
      <trkpt lat="44.96358" lon="0.39244">
        <ele>196</ele>
        <time>2012-03-13T14:21:04.000Z</time>
      </trkpt>
      <trkpt lat="44.96351" lon="0.39252">
        <ele>196</ele>
        <time>2012-03-13T14:21:06.000Z</time>
      </trkpt>
      <trkpt lat="44.96345" lon="0.3926">
        <ele>196</ele>
        <time>2012-03-13T14:21:08.000Z</time>
      </trkpt>
      <trkpt lat="44.96338" lon="0.39268">
        <ele>195</ele>
        <time>2012-03-13T14:21:10.000Z</time>
      </trkpt>
      <trkpt lat="44.96332" lon="0.39276">
        <ele>195</ele>
        <time>2012-03-13T14:21:12.000Z</time>
      </trkpt>
      <trkpt lat="44.96327" lon="0.39284">
        <ele>196</ele>
        <time>2012-03-13T14:21:14.000Z</time>
      </trkpt>
      <trkpt lat="44.96319" lon="0.39293">
        <ele>194</ele>
        <time>2012-03-13T14:21:16.000Z</time>
      </trkpt>
      <trkpt lat="44.96315" lon="0.39298">
        <ele>194</ele>
        <time>2012-03-13T14:21:17.000Z</time>
      </trkpt>
      <trkpt lat="44.96311" lon="0.39303">
        <ele>194</ele>
        <time>2012-03-13T14:21:18.000Z</time>
      </trkpt>
      <trkpt lat="44.96307" lon="0.39309">
        <ele>193</ele>
        <time>2012-03-13T14:21:19.000Z</time>
      </trkpt>
      <trkpt lat="44.96303" lon="0.39315">
        <ele>192</ele>
        <time>2012-03-13T14:21:20.000Z</time>
      </trkpt>
      <trkpt lat="44.963" lon="0.3932">
        <ele>192</ele>
        <time>2012-03-13T14:21:21.000Z</time>
      </trkpt>
      <trkpt lat="44.96296" lon="0.39325">
        <ele>192</ele>
        <time>2012-03-13T14:21:22.000Z</time>
      </trkpt>
      <trkpt lat="44.96292" lon="0.39331">
        <ele>192</ele>
        <time>2012-03-13T14:21:23.000Z</time>
      </trkpt>
      <trkpt lat="44.96288" lon="0.39338">
        <ele>192</ele>
        <time>2012-03-13T14:21:24.000Z</time>
      </trkpt>
      <trkpt lat="44.96284" lon="0.39345">
        <ele>192</ele>
        <time>2012-03-13T14:21:25.000Z</time>
      </trkpt>
      <trkpt lat="44.9628" lon="0.39353">
        <ele>192</ele>
        <time>2012-03-13T14:21:26.000Z</time>
      </trkpt>
      <trkpt lat="44.96275" lon="0.3936">
        <ele>192</ele>
        <time>2012-03-13T14:21:27.000Z</time>
      </trkpt>
      <trkpt lat="44.96271" lon="0.39367">
        <ele>192</ele>
        <time>2012-03-13T14:21:28.000Z</time>
      </trkpt>
      <trkpt lat="44.96263" lon="0.39376">
        <ele>192</ele>
        <time>2012-03-13T14:21:29.000Z</time>
      </trkpt>
      <trkpt lat="44.96254" lon="0.39383">
        <ele>191</ele>
        <time>2012-03-13T14:21:30.000Z</time>
      </trkpt>
      <trkpt lat="44.96248" lon="0.39391">
        <ele>191</ele>
        <time>2012-03-13T14:21:31.000Z</time>
      </trkpt>
      <trkpt lat="44.96242" lon="0.39398">
        <ele>191</ele>
        <time>2012-03-13T14:21:32.000Z</time>
      </trkpt>
      <trkpt lat="44.96236" lon="0.39402">
        <ele>191</ele>
        <time>2012-03-13T14:21:33.000Z</time>
      </trkpt>
      <trkpt lat="44.96229" lon="0.39403">
        <ele>190</ele>
        <time>2012-03-13T14:21:34.000Z</time>
      </trkpt>
      <trkpt lat="44.96223" lon="0.394">
        <ele>189</ele>
        <time>2012-03-13T14:21:35.000Z</time>
      </trkpt>
      <trkpt lat="44.96215" lon="0.39399">
        <ele>189</ele>
        <time>2012-03-13T14:21:36.000Z</time>
      </trkpt>
      <trkpt lat="44.96208" lon="0.39396">
        <ele>189</ele>
        <time>2012-03-13T14:21:37.000Z</time>
      </trkpt>
      <trkpt lat="44.96201" lon="0.39392">
        <ele>188</ele>
        <time>2012-03-13T14:21:38.000Z</time>
      </trkpt>
      <trkpt lat="44.96194" lon="0.39389">
        <ele>187</ele>
        <time>2012-03-13T14:21:39.000Z</time>
      </trkpt>
      <trkpt lat="44.96186" lon="0.39384">
        <ele>185</ele>
        <time>2012-03-13T14:21:40.000Z</time>
      </trkpt>
      <trkpt lat="44.96179" lon="0.39381">
        <ele>185</ele>
        <time>2012-03-13T14:21:41.000Z</time>
      </trkpt>
      <trkpt lat="44.96173" lon="0.39376">
        <ele>185</ele>
        <time>2012-03-13T14:21:42.000Z</time>
      </trkpt>
      <trkpt lat="44.96164" lon="0.39372">
        <ele>185</ele>
        <time>2012-03-13T14:21:43.000Z</time>
      </trkpt>
      <trkpt lat="44.96157" lon="0.39367">
        <ele>184</ele>
        <time>2012-03-13T14:21:44.000Z</time>
      </trkpt>
      <trkpt lat="44.96149" lon="0.39362">
        <ele>184</ele>
        <time>2012-03-13T14:21:45.000Z</time>
      </trkpt>
      <trkpt lat="44.96142" lon="0.39356">
        <ele>185</ele>
        <time>2012-03-13T14:21:46.000Z</time>
      </trkpt>
      <trkpt lat="44.96136" lon="0.39347">
        <ele>184</ele>
        <time>2012-03-13T14:21:47.000Z</time>
      </trkpt>
      <trkpt lat="44.96134" lon="0.39337">
        <ele>184</ele>
        <time>2012-03-13T14:21:48.000Z</time>
      </trkpt>
      <trkpt lat="44.96134" lon="0.39327">
        <ele>184</ele>
        <time>2012-03-13T14:21:49.000Z</time>
      </trkpt>
      <trkpt lat="44.96137" lon="0.39316">
        <ele>183</ele>
        <time>2012-03-13T14:21:50.000Z</time>
      </trkpt>
      <trkpt lat="44.96139" lon="0.39307">
        <ele>183</ele>
        <time>2012-03-13T14:21:51.000Z</time>
      </trkpt>
      <trkpt lat="44.96141" lon="0.39297">
        <ele>183</ele>
        <time>2012-03-13T14:21:52.000Z</time>
      </trkpt>
      <trkpt lat="44.96144" lon="0.39288">
        <ele>183</ele>
        <time>2012-03-13T14:21:53.000Z</time>
      </trkpt>
      <trkpt lat="44.96146" lon="0.39277">
        <ele>183</ele>
        <time>2012-03-13T14:21:54.000Z</time>
      </trkpt>
      <trkpt lat="44.96148" lon="0.39268">
        <ele>182</ele>
        <time>2012-03-13T14:21:55.000Z</time>
      </trkpt>
      <trkpt lat="44.9615" lon="0.39257">
        <ele>182</ele>
        <time>2012-03-13T14:21:56.000Z</time>
      </trkpt>
      <trkpt lat="44.9615" lon="0.39247">
        <ele>181</ele>
        <time>2012-03-13T14:21:57.000Z</time>
      </trkpt>
      <trkpt lat="44.96148" lon="0.39237">
        <ele>181</ele>
        <time>2012-03-13T14:21:58.000Z</time>
      </trkpt>
      <trkpt lat="44.9614" lon="0.3923">
        <ele>180</ele>
        <time>2012-03-13T14:21:59.000Z</time>
      </trkpt>
      <trkpt lat="44.96133" lon="0.39223">
        <ele>179</ele>
        <time>2012-03-13T14:22:00.000Z</time>
      </trkpt>
      <trkpt lat="44.96125" lon="0.39219">
        <ele>179</ele>
        <time>2012-03-13T14:22:01.000Z</time>
      </trkpt>
      <trkpt lat="44.96117" lon="0.39216">
        <ele>179</ele>
        <time>2012-03-13T14:22:02.000Z</time>
      </trkpt>
      <trkpt lat="44.96108" lon="0.39213">
        <ele>179</ele>
        <time>2012-03-13T14:22:03.000Z</time>
      </trkpt>
      <trkpt lat="44.961" lon="0.39208">
        <ele>178</ele>
        <time>2012-03-13T14:22:04.000Z</time>
      </trkpt>
      <trkpt lat="44.96091" lon="0.39204">
        <ele>177</ele>
        <time>2012-03-13T14:22:05.000Z</time>
      </trkpt>
      <trkpt lat="44.96082" lon="0.39201">
        <ele>177</ele>
        <time>2012-03-13T14:22:06.000Z</time>
      </trkpt>
      <trkpt lat="44.96073" lon="0.39198">
        <ele>176</ele>
        <time>2012-03-13T14:22:07.000Z</time>
      </trkpt>
      <trkpt lat="44.96065" lon="0.39194">
        <ele>175</ele>
        <time>2012-03-13T14:22:08.000Z</time>
      </trkpt>
      <trkpt lat="44.96055" lon="0.3919">
        <ele>174</ele>
        <time>2012-03-13T14:22:09.000Z</time>
      </trkpt>
      <trkpt lat="44.96045" lon="0.39185">
        <ele>174</ele>
        <time>2012-03-13T14:22:10.000Z</time>
      </trkpt>
      <trkpt lat="44.96035" lon="0.39181">
        <ele>173</ele>
        <time>2012-03-13T14:22:11.000Z</time>
      </trkpt>
      <trkpt lat="44.96025" lon="0.39176">
        <ele>171</ele>
        <time>2012-03-13T14:22:12.000Z</time>
      </trkpt>
      <trkpt lat="44.96017" lon="0.39172">
        <ele>170</ele>
        <time>2012-03-13T14:22:13.000Z</time>
      </trkpt>
      <trkpt lat="44.96012" lon="0.39167">
        <ele>170</ele>
        <time>2012-03-13T14:22:14.000Z</time>
      </trkpt>
      <trkpt lat="44.96007" lon="0.39162">
        <ele>170</ele>
        <time>2012-03-13T14:22:15.000Z</time>
      </trkpt>
      <trkpt lat="44.96002" lon="0.39153">
        <ele>170</ele>
        <time>2012-03-13T14:22:17.000Z</time>
      </trkpt>
      <trkpt lat="44.96001" lon="0.39143">
        <ele>169</ele>
        <time>2012-03-13T14:22:19.000Z</time>
      </trkpt>
      <trkpt lat="44.96" lon="0.39133">
        <ele>168</ele>
        <time>2012-03-13T14:22:21.000Z</time>
      </trkpt>
      <trkpt lat="44.96002" lon="0.39118">
        <ele>168</ele>
        <time>2012-03-13T14:22:24.000Z</time>
      </trkpt>
      <trkpt lat="44.96003" lon="0.39109">
        <ele>168</ele>
        <time>2012-03-13T14:22:26.000Z</time>
      </trkpt>
      <trkpt lat="44.96004" lon="0.39099">
        <ele>169</ele>
        <time>2012-03-13T14:22:28.000Z</time>
      </trkpt>
      <trkpt lat="44.96001" lon="0.39089">
        <ele>169</ele>
        <time>2012-03-13T14:22:30.000Z</time>
      </trkpt>
      <trkpt lat="44.95999" lon="0.39079">
        <ele>169</ele>
        <time>2012-03-13T14:22:32.000Z</time>
      </trkpt>
      <trkpt lat="44.95998" lon="0.39068">
        <ele>169</ele>
        <time>2012-03-13T14:22:34.000Z</time>
      </trkpt>
      <trkpt lat="44.95998" lon="0.39062">
        <ele>168</ele>
        <time>2012-03-13T14:22:35.000Z</time>
      </trkpt>
      <trkpt lat="44.95998" lon="0.39056">
        <ele>168</ele>
        <time>2012-03-13T14:22:36.000Z</time>
      </trkpt>
      <trkpt lat="44.95999" lon="0.39049">
        <ele>169</ele>
        <time>2012-03-13T14:22:37.000Z</time>
      </trkpt>
      <trkpt lat="44.95999" lon="0.39043">
        <ele>168</ele>
        <time>2012-03-13T14:22:38.000Z</time>
      </trkpt>
      <trkpt lat="44.96" lon="0.39032">
        <ele>168</ele>
        <time>2012-03-13T14:22:40.000Z</time>
      </trkpt>
      <trkpt lat="44.96001" lon="0.39021">
        <ele>168</ele>
        <time>2012-03-13T14:22:42.000Z</time>
      </trkpt>
      <trkpt lat="44.96002" lon="0.39011">
        <ele>168</ele>
        <time>2012-03-13T14:22:44.000Z</time>
      </trkpt>
      <trkpt lat="44.96003" lon="0.39005">
        <ele>168</ele>
        <time>2012-03-13T14:22:45.000Z</time>
      </trkpt>
      <trkpt lat="44.96004" lon="0.38993">
        <ele>169</ele>
        <time>2012-03-13T14:22:47.000Z</time>
      </trkpt>
      <trkpt lat="44.96002" lon="0.38984">
        <ele>169</ele>
        <time>2012-03-13T14:22:49.000Z</time>
      </trkpt>
      <trkpt lat="44.95996" lon="0.38977">
        <ele>169</ele>
        <time>2012-03-13T14:22:51.000Z</time>
      </trkpt>
      <trkpt lat="44.95992" lon="0.3897">
        <ele>169</ele>
        <time>2012-03-13T14:22:53.000Z</time>
      </trkpt>
      <trkpt lat="44.95993" lon="0.38962">
        <ele>169</ele>
        <time>2012-03-13T14:22:55.000Z</time>
      </trkpt>
      <trkpt lat="44.95995" lon="0.38955">
        <ele>169</ele>
        <time>2012-03-13T14:22:57.000Z</time>
      </trkpt>
      <trkpt lat="44.95998" lon="0.38947">
        <ele>169</ele>
        <time>2012-03-13T14:22:59.000Z</time>
      </trkpt>
      <trkpt lat="44.96" lon="0.3894">
        <ele>170</ele>
        <time>2012-03-13T14:23:01.000Z</time>
      </trkpt>
      <trkpt lat="44.96002" lon="0.38933">
        <ele>170</ele>
        <time>2012-03-13T14:23:03.000Z</time>
      </trkpt>
      <trkpt lat="44.96004" lon="0.38926">
        <ele>170</ele>
        <time>2012-03-13T14:23:05.000Z</time>
      </trkpt>
      <trkpt lat="44.96006" lon="0.38919">
        <ele>170</ele>
        <time>2012-03-13T14:23:07.000Z</time>
      </trkpt>
      <trkpt lat="44.96008" lon="0.38913">
        <ele>171</ele>
        <time>2012-03-13T14:23:09.000Z</time>
      </trkpt>
      <trkpt lat="44.9601" lon="0.38906">
        <ele>172</ele>
        <time>2012-03-13T14:23:11.000Z</time>
      </trkpt>
      <trkpt lat="44.96012" lon="0.38898">
        <ele>172</ele>
        <time>2012-03-13T14:23:13.000Z</time>
      </trkpt>
      <trkpt lat="44.96014" lon="0.38891">
        <ele>172</ele>
        <time>2012-03-13T14:23:15.000Z</time>
      </trkpt>
      <trkpt lat="44.96016" lon="0.38884">
        <ele>172</ele>
        <time>2012-03-13T14:23:17.000Z</time>
      </trkpt>
      <trkpt lat="44.9602" lon="0.38876">
        <ele>171</ele>
        <time>2012-03-13T14:23:19.000Z</time>
      </trkpt>
      <trkpt lat="44.96022" lon="0.38867">
        <ele>171</ele>
        <time>2012-03-13T14:23:21.000Z</time>
      </trkpt>
      <trkpt lat="44.96024" lon="0.38858">
        <ele>171</ele>
        <time>2012-03-13T14:23:23.000Z</time>
      </trkpt>
      <trkpt lat="44.96026" lon="0.3885">
        <ele>172</ele>
        <time>2012-03-13T14:23:25.000Z</time>
      </trkpt>
      <trkpt lat="44.9603" lon="0.38848">
        <ele>174</ele>
        <time>2012-03-13T14:23:28.000Z</time>
      </trkpt>
      <trkpt lat="44.96036" lon="0.38851">
        <ele>173</ele>
        <time>2012-03-13T14:23:29.000Z</time>
      </trkpt>
      <trkpt lat="44.96042" lon="0.38853">
        <ele>174</ele>
        <time>2012-03-13T14:23:31.000Z</time>
      </trkpt>
      <trkpt lat="44.96048" lon="0.38854">
        <ele>176</ele>
        <time>2012-03-13T14:23:33.000Z</time>
      </trkpt>
      <trkpt lat="44.96053" lon="0.38856">
        <ele>177</ele>
        <time>2012-03-13T14:23:35.000Z</time>
      </trkpt>
      <trkpt lat="44.96059" lon="0.38856">
        <ele>178</ele>
        <time>2012-03-13T14:23:37.000Z</time>
      </trkpt>
      <trkpt lat="44.96065" lon="0.38853">
        <ele>180</ele>
        <time>2012-03-13T14:23:39.000Z</time>
      </trkpt>
      <trkpt lat="44.96067" lon="0.38845">
        <ele>180</ele>
        <time>2012-03-13T14:23:41.000Z</time>
      </trkpt>
      <trkpt lat="44.96068" lon="0.38835">
        <ele>179</ele>
        <time>2012-03-13T14:23:43.000Z</time>
      </trkpt>
      <trkpt lat="44.96069" lon="0.38828">
        <ele>179</ele>
        <time>2012-03-13T14:23:44.000Z</time>
      </trkpt>
      <trkpt lat="44.96069" lon="0.38822">
        <ele>179</ele>
        <time>2012-03-13T14:23:45.000Z</time>
      </trkpt>
      <trkpt lat="44.96069" lon="0.38814">
        <ele>178</ele>
        <time>2012-03-13T14:23:46.000Z</time>
      </trkpt>
      <trkpt lat="44.96069" lon="0.38807">
        <ele>178</ele>
        <time>2012-03-13T14:23:47.000Z</time>
      </trkpt>
      <trkpt lat="44.96069" lon="0.388">
        <ele>178</ele>
        <time>2012-03-13T14:23:48.000Z</time>
      </trkpt>
      <trkpt lat="44.96069" lon="0.38792">
        <ele>178</ele>
        <time>2012-03-13T14:23:49.000Z</time>
      </trkpt>
      <trkpt lat="44.96066" lon="0.38788">
        <ele>177</ele>
        <time>2012-03-13T14:23:50.000Z</time>
      </trkpt>
      <trkpt lat="44.96058" lon="0.38784">
        <ele>177</ele>
        <time>2012-03-13T14:23:52.000Z</time>
      </trkpt>
      <trkpt lat="44.96053" lon="0.38782">
        <ele>178</ele>
        <time>2012-03-13T14:23:53.000Z</time>
      </trkpt>
      <trkpt lat="44.96048" lon="0.38782">
        <ele>178</ele>
        <time>2012-03-13T14:23:54.000Z</time>
      </trkpt>
      <trkpt lat="44.9604" lon="0.3878">
        <ele>177</ele>
        <time>2012-03-13T14:23:56.000Z</time>
      </trkpt>
      <trkpt lat="44.96034" lon="0.38779">
        <ele>177</ele>
        <time>2012-03-13T14:23:57.000Z</time>
      </trkpt>
      <trkpt lat="44.96029" lon="0.38779">
        <ele>176</ele>
        <time>2012-03-13T14:23:58.000Z</time>
      </trkpt>
      <trkpt lat="44.96013" lon="0.38762">
        <ele>176</ele>
        <time>2012-03-13T14:24:02.000Z</time>
      </trkpt>
      <trkpt lat="44.96009" lon="0.38758">
        <ele>176</ele>
        <time>2012-03-13T14:24:03.000Z</time>
      </trkpt>
      <trkpt lat="44.96004" lon="0.38756">
        <ele>176</ele>
        <time>2012-03-13T14:24:04.000Z</time>
      </trkpt>
      <trkpt lat="44.95998" lon="0.38756">
        <ele>176</ele>
        <time>2012-03-13T14:24:05.000Z</time>
      </trkpt>
      <trkpt lat="44.95989" lon="0.38755">
        <ele>177</ele>
        <time>2012-03-13T14:24:07.000Z</time>
      </trkpt>
      <trkpt lat="44.95982" lon="0.38754">
        <ele>178</ele>
        <time>2012-03-13T14:24:09.000Z</time>
      </trkpt>
      <trkpt lat="44.95975" lon="0.38754">
        <ele>177</ele>
        <time>2012-03-13T14:24:11.000Z</time>
      </trkpt>
      <trkpt lat="44.95968" lon="0.38754">
        <ele>176</ele>
        <time>2012-03-13T14:24:13.000Z</time>
      </trkpt>
      <trkpt lat="44.9596" lon="0.38753">
        <ele>175</ele>
        <time>2012-03-13T14:24:15.000Z</time>
      </trkpt>
      <trkpt lat="44.95952" lon="0.38743">
        <ele>175</ele>
        <time>2012-03-13T14:24:17.000Z</time>
      </trkpt>
      <trkpt lat="44.9595" lon="0.38733">
        <ele>174</ele>
        <time>2012-03-13T14:24:19.000Z</time>
      </trkpt>
      <trkpt lat="44.95945" lon="0.38724">
        <ele>175</ele>
        <time>2012-03-13T14:24:21.000Z</time>
      </trkpt>
      <trkpt lat="44.9594" lon="0.38721">
        <ele>175</ele>
        <time>2012-03-13T14:24:23.000Z</time>
      </trkpt>
      <trkpt lat="44.9594" lon="0.38721">
        <ele>175</ele>
        <time>2012-03-13T14:24:23.000Z</time>
      </trkpt>
      <trkpt lat="44.9594" lon="0.38721">
        <ele>175</ele>
        <time>2012-03-13T14:24:24.000Z</time>
      </trkpt>
      <trkpt lat="44.95934" lon="0.38724">
        <ele>174</ele>
        <time>2012-03-13T14:24:34.000Z</time>
      </trkpt>
      <trkpt lat="44.95929" lon="0.38722">
        <ele>173</ele>
        <time>2012-03-13T14:24:35.000Z</time>
      </trkpt>
      <trkpt lat="44.95922" lon="0.38722">
        <ele>172</ele>
        <time>2012-03-13T14:24:37.000Z</time>
      </trkpt>
      <trkpt lat="44.95913" lon="0.38722">
        <ele>172</ele>
        <time>2012-03-13T14:24:39.000Z</time>
      </trkpt>
      <trkpt lat="44.95908" lon="0.38724">
        <ele>172</ele>
        <time>2012-03-13T14:24:40.000Z</time>
      </trkpt>
      <trkpt lat="44.95903" lon="0.38726">
        <ele>171</ele>
        <time>2012-03-13T14:24:41.000Z</time>
      </trkpt>
      <trkpt lat="44.95897" lon="0.38727">
        <ele>171</ele>
        <time>2012-03-13T14:24:42.000Z</time>
      </trkpt>
      <trkpt lat="44.95891" lon="0.38729">
        <ele>171</ele>
        <time>2012-03-13T14:24:43.000Z</time>
      </trkpt>
      <trkpt lat="44.95886" lon="0.38729">
        <ele>170</ele>
        <time>2012-03-13T14:24:44.000Z</time>
      </trkpt>
      <trkpt lat="44.95877" lon="0.38726">
        <ele>169</ele>
        <time>2012-03-13T14:24:46.000Z</time>
      </trkpt>
      <trkpt lat="44.95875" lon="0.38716">
        <ele>169</ele>
        <time>2012-03-13T14:24:48.000Z</time>
      </trkpt>
      <trkpt lat="44.95877" lon="0.38704">
        <ele>168</ele>
        <time>2012-03-13T14:24:50.000Z</time>
      </trkpt>
      <trkpt lat="44.95878" lon="0.38693">
        <ele>168</ele>
        <time>2012-03-13T14:24:52.000Z</time>
      </trkpt>
      <trkpt lat="44.95878" lon="0.38684">
        <ele>168</ele>
        <time>2012-03-13T14:24:54.000Z</time>
      </trkpt>
      <trkpt lat="44.95881" lon="0.38674">
        <ele>168</ele>
        <time>2012-03-13T14:24:56.000Z</time>
      </trkpt>
      <trkpt lat="44.95883" lon="0.38665">
        <ele>168</ele>
        <time>2012-03-13T14:24:58.000Z</time>
      </trkpt>
      <trkpt lat="44.95882" lon="0.38656">
        <ele>168</ele>
        <time>2012-03-13T14:25:00.000Z</time>
      </trkpt>
      <trkpt lat="44.95883" lon="0.38646">
        <ele>167</ele>
        <time>2012-03-13T14:25:02.000Z</time>
      </trkpt>
      <trkpt lat="44.95882" lon="0.38635">
        <ele>167</ele>
        <time>2012-03-13T14:25:04.000Z</time>
      </trkpt>
      <trkpt lat="44.95882" lon="0.38623">
        <ele>166</ele>
        <time>2012-03-13T14:25:06.000Z</time>
      </trkpt>
      <trkpt lat="44.95881" lon="0.38616">
        <ele>165</ele>
        <time>2012-03-13T14:25:07.000Z</time>
      </trkpt>
      <trkpt lat="44.9588" lon="0.38607">
        <ele>165</ele>
        <time>2012-03-13T14:25:08.000Z</time>
      </trkpt>
      <trkpt lat="44.95879" lon="0.38596">
        <ele>165</ele>
        <time>2012-03-13T14:25:09.000Z</time>
      </trkpt>
      <trkpt lat="44.95873" lon="0.38584">
        <ele>163</ele>
        <time>2012-03-13T14:25:10.000Z</time>
      </trkpt>
      <trkpt lat="44.95869" lon="0.38572">
        <ele>161</ele>
        <time>2012-03-13T14:25:11.000Z</time>
      </trkpt>
      <trkpt lat="44.95864" lon="0.38562">
        <ele>160</ele>
        <time>2012-03-13T14:25:12.000Z</time>
      </trkpt>
      <trkpt lat="44.9586" lon="0.38555">
        <ele>160</ele>
        <time>2012-03-13T14:25:13.000Z</time>
      </trkpt>
      <trkpt lat="44.95855" lon="0.38551">
        <ele>160</ele>
        <time>2012-03-13T14:25:14.000Z</time>
      </trkpt>
      <trkpt lat="44.9585" lon="0.38549">
        <ele>160</ele>
        <time>2012-03-13T14:25:15.000Z</time>
      </trkpt>
      <trkpt lat="44.95845" lon="0.38549">
        <ele>160</ele>
        <time>2012-03-13T14:25:16.000Z</time>
      </trkpt>
      <trkpt lat="44.9584" lon="0.38548">
        <ele>160</ele>
        <time>2012-03-13T14:25:17.000Z</time>
      </trkpt>
      <trkpt lat="44.95835" lon="0.38548">
        <ele>161</ele>
        <time>2012-03-13T14:25:18.000Z</time>
      </trkpt>
      <trkpt lat="44.95828" lon="0.38547">
        <ele>161</ele>
        <time>2012-03-13T14:25:20.000Z</time>
      </trkpt>
      <trkpt lat="44.9582" lon="0.38545">
        <ele>162</ele>
        <time>2012-03-13T14:25:22.000Z</time>
      </trkpt>
      <trkpt lat="44.95812" lon="0.38543">
        <ele>162</ele>
        <time>2012-03-13T14:25:24.000Z</time>
      </trkpt>
      <trkpt lat="44.95807" lon="0.38538">
        <ele>162</ele>
        <time>2012-03-13T14:25:26.000Z</time>
      </trkpt>
      <trkpt lat="44.95802" lon="0.38537">
        <ele>163</ele>
        <time>2012-03-13T14:25:27.000Z</time>
      </trkpt>
      <trkpt lat="44.95795" lon="0.38532">
        <ele>162</ele>
        <time>2012-03-13T14:25:29.000Z</time>
      </trkpt>
      <trkpt lat="44.95788" lon="0.38529">
        <ele>163</ele>
        <time>2012-03-13T14:25:31.000Z</time>
      </trkpt>
      <trkpt lat="44.95784" lon="0.38529">
        <ele>163</ele>
        <time>2012-03-13T14:25:32.000Z</time>
      </trkpt>
      <trkpt lat="44.95776" lon="0.38527">
        <ele>164</ele>
        <time>2012-03-13T14:25:34.000Z</time>
      </trkpt>
      <trkpt lat="44.9577" lon="0.38525">
        <ele>165</ele>
        <time>2012-03-13T14:25:36.000Z</time>
      </trkpt>
      <trkpt lat="44.95762" lon="0.38521">
        <ele>166</ele>
        <time>2012-03-13T14:25:38.000Z</time>
      </trkpt>
      <trkpt lat="44.95751" lon="0.38513">
        <ele>166</ele>
        <time>2012-03-13T14:25:40.000Z</time>
      </trkpt>
      <trkpt lat="44.95743" lon="0.38507">
        <ele>166</ele>
        <time>2012-03-13T14:25:41.000Z</time>
      </trkpt>
      <trkpt lat="44.95734" lon="0.38502">
        <ele>165</ele>
        <time>2012-03-13T14:25:42.000Z</time>
      </trkpt>
      <trkpt lat="44.95723" lon="0.38496">
        <ele>165</ele>
        <time>2012-03-13T14:25:43.000Z</time>
      </trkpt>
      <trkpt lat="44.95713" lon="0.38489">
        <ele>162</ele>
        <time>2012-03-13T14:25:44.000Z</time>
      </trkpt>
      <trkpt lat="44.95703" lon="0.38484">
        <ele>160</ele>
        <time>2012-03-13T14:25:45.000Z</time>
      </trkpt>
      <trkpt lat="44.95692" lon="0.38478">
        <ele>159</ele>
        <time>2012-03-13T14:25:46.000Z</time>
      </trkpt>
      <trkpt lat="44.9568" lon="0.38468">
        <ele>158</ele>
        <time>2012-03-13T14:25:47.000Z</time>
      </trkpt>
      <trkpt lat="44.9567" lon="0.3846">
        <ele>157</ele>
        <time>2012-03-13T14:25:48.000Z</time>
      </trkpt>
      <trkpt lat="44.9566" lon="0.38453">
        <ele>156</ele>
        <time>2012-03-13T14:25:49.000Z</time>
      </trkpt>
      <trkpt lat="44.9565" lon="0.38448">
        <ele>155</ele>
        <time>2012-03-13T14:25:50.000Z</time>
      </trkpt>
      <trkpt lat="44.95644" lon="0.38446">
        <ele>155</ele>
        <time>2012-03-13T14:25:51.000Z</time>
      </trkpt>
      <trkpt lat="44.95641" lon="0.38455">
        <ele>156</ele>
        <time>2012-03-13T14:25:53.000Z</time>
      </trkpt>
      <trkpt lat="44.95642" lon="0.38464">
        <ele>155</ele>
        <time>2012-03-13T14:25:54.000Z</time>
      </trkpt>
      <trkpt lat="44.95643" lon="0.38471">
        <ele>155</ele>
        <time>2012-03-13T14:25:55.000Z</time>
      </trkpt>
      <trkpt lat="44.95642" lon="0.38478">
        <ele>155</ele>
        <time>2012-03-13T14:25:56.000Z</time>
      </trkpt>
      <trkpt lat="44.95644" lon="0.38485">
        <ele>155</ele>
        <time>2012-03-13T14:25:57.000Z</time>
      </trkpt>
      <trkpt lat="44.95645" lon="0.38494">
        <ele>154</ele>
        <time>2012-03-13T14:25:58.000Z</time>
      </trkpt>
      <trkpt lat="44.95646" lon="0.38505">
        <ele>153</ele>
        <time>2012-03-13T14:25:59.000Z</time>
      </trkpt>
      <trkpt lat="44.95648" lon="0.38515">
        <ele>153</ele>
        <time>2012-03-13T14:26:00.000Z</time>
      </trkpt>
      <trkpt lat="44.95648" lon="0.38525">
        <ele>153</ele>
        <time>2012-03-13T14:26:01.000Z</time>
      </trkpt>
      <trkpt lat="44.95646" lon="0.38536">
        <ele>152</ele>
        <time>2012-03-13T14:26:02.000Z</time>
      </trkpt>
      <trkpt lat="44.95645" lon="0.38544">
        <ele>152</ele>
        <time>2012-03-13T14:26:03.000Z</time>
      </trkpt>
      <trkpt lat="44.95644" lon="0.38554">
        <ele>151</ele>
        <time>2012-03-13T14:26:04.000Z</time>
      </trkpt>
      <trkpt lat="44.95639" lon="0.38562">
        <ele>151</ele>
        <time>2012-03-13T14:26:05.000Z</time>
      </trkpt>
      <trkpt lat="44.95635" lon="0.38568">
        <ele>151</ele>
        <time>2012-03-13T14:26:06.000Z</time>
      </trkpt>
      <trkpt lat="44.95631" lon="0.38576">
        <ele>149</ele>
        <time>2012-03-13T14:26:07.000Z</time>
      </trkpt>
      <trkpt lat="44.95626" lon="0.38581">
        <ele>149</ele>
        <time>2012-03-13T14:26:08.000Z</time>
      </trkpt>
      <trkpt lat="44.95621" lon="0.38586">
        <ele>148</ele>
        <time>2012-03-13T14:26:09.000Z</time>
      </trkpt>
      <trkpt lat="44.9561" lon="0.38595">
        <ele>147</ele>
        <time>2012-03-13T14:26:11.000Z</time>
      </trkpt>
      <trkpt lat="44.95604" lon="0.38598">
        <ele>147</ele>
        <time>2012-03-13T14:26:12.000Z</time>
      </trkpt>
      <trkpt lat="44.95599" lon="0.38602">
        <ele>146</ele>
        <time>2012-03-13T14:26:13.000Z</time>
      </trkpt>
      <trkpt lat="44.95594" lon="0.38606">
        <ele>146</ele>
        <time>2012-03-13T14:26:14.000Z</time>
      </trkpt>
      <trkpt lat="44.95588" lon="0.38609">
        <ele>146</ele>
        <time>2012-03-13T14:26:15.000Z</time>
      </trkpt>
      <trkpt lat="44.95583" lon="0.38613">
        <ele>146</ele>
        <time>2012-03-13T14:26:16.000Z</time>
      </trkpt>
      <trkpt lat="44.95578" lon="0.38617">
        <ele>146</ele>
        <time>2012-03-13T14:26:17.000Z</time>
      </trkpt>
      <trkpt lat="44.95573" lon="0.38619">
        <ele>146</ele>
        <time>2012-03-13T14:26:18.000Z</time>
      </trkpt>
      <trkpt lat="44.95568" lon="0.38622">
        <ele>146</ele>
        <time>2012-03-13T14:26:19.000Z</time>
      </trkpt>
      <trkpt lat="44.95563" lon="0.38626">
        <ele>146</ele>
        <time>2012-03-13T14:26:20.000Z</time>
      </trkpt>
      <trkpt lat="44.95559" lon="0.38631">
        <ele>146</ele>
        <time>2012-03-13T14:26:21.000Z</time>
      </trkpt>
      <trkpt lat="44.95557" lon="0.38637">
        <ele>146</ele>
        <time>2012-03-13T14:26:22.000Z</time>
      </trkpt>
      <trkpt lat="44.95561" lon="0.38647">
        <ele>145</ele>
        <time>2012-03-13T14:26:24.000Z</time>
      </trkpt>
      <trkpt lat="44.95564" lon="0.38654">
        <ele>145</ele>
        <time>2012-03-13T14:26:25.000Z</time>
      </trkpt>
      <trkpt lat="44.95567" lon="0.3866">
        <ele>144</ele>
        <time>2012-03-13T14:26:26.000Z</time>
      </trkpt>
      <trkpt lat="44.9557" lon="0.38666">
        <ele>144</ele>
        <time>2012-03-13T14:26:27.000Z</time>
      </trkpt>
      <trkpt lat="44.95572" lon="0.38673">
        <ele>144</ele>
        <time>2012-03-13T14:26:28.000Z</time>
      </trkpt>
      <trkpt lat="44.95575" lon="0.38678">
        <ele>144</ele>
        <time>2012-03-13T14:26:29.000Z</time>
      </trkpt>
      <trkpt lat="44.95578" lon="0.38684">
        <ele>143</ele>
        <time>2012-03-13T14:26:30.000Z</time>
      </trkpt>
      <trkpt lat="44.95582" lon="0.38691">
        <ele>143</ele>
        <time>2012-03-13T14:26:31.000Z</time>
      </trkpt>
      <trkpt lat="44.95585" lon="0.38697">
        <ele>144</ele>
        <time>2012-03-13T14:26:32.000Z</time>
      </trkpt>
      <trkpt lat="44.95588" lon="0.38703">
        <ele>143</ele>
        <time>2012-03-13T14:26:33.000Z</time>
      </trkpt>
      <trkpt lat="44.95592" lon="0.3871">
        <ele>143</ele>
        <time>2012-03-13T14:26:34.000Z</time>
      </trkpt>
      <trkpt lat="44.95596" lon="0.38716">
        <ele>143</ele>
        <time>2012-03-13T14:26:35.000Z</time>
      </trkpt>
      <trkpt lat="44.95601" lon="0.38719">
        <ele>144</ele>
        <time>2012-03-13T14:26:36.000Z</time>
      </trkpt>
      <trkpt lat="44.95605" lon="0.38722">
        <ele>143</ele>
        <time>2012-03-13T14:26:37.000Z</time>
      </trkpt>
      <trkpt lat="44.95611" lon="0.38722">
        <ele>144</ele>
        <time>2012-03-13T14:26:38.000Z</time>
      </trkpt>
      <trkpt lat="44.95617" lon="0.38725">
        <ele>143</ele>
        <time>2012-03-13T14:26:39.000Z</time>
      </trkpt>
      <trkpt lat="44.95623" lon="0.38726">
        <ele>142</ele>
        <time>2012-03-13T14:26:40.000Z</time>
      </trkpt>
      <trkpt lat="44.95627" lon="0.38728">
        <ele>142</ele>
        <time>2012-03-13T14:26:41.000Z</time>
      </trkpt>
      <trkpt lat="44.95632" lon="0.38732">
        <ele>142</ele>
        <time>2012-03-13T14:26:42.000Z</time>
      </trkpt>
      <trkpt lat="44.95638" lon="0.38735">
        <ele>142</ele>
        <time>2012-03-13T14:26:43.000Z</time>
      </trkpt>
      <trkpt lat="44.95644" lon="0.38739">
        <ele>142</ele>
        <time>2012-03-13T14:26:44.000Z</time>
      </trkpt>
      <trkpt lat="44.95649" lon="0.38744">
        <ele>142</ele>
        <time>2012-03-13T14:26:45.000Z</time>
      </trkpt>
      <trkpt lat="44.95653" lon="0.3875">
        <ele>142</ele>
        <time>2012-03-13T14:26:46.000Z</time>
      </trkpt>
      <trkpt lat="44.95657" lon="0.38755">
        <ele>141</ele>
        <time>2012-03-13T14:26:47.000Z</time>
      </trkpt>
      <trkpt lat="44.95662" lon="0.3876">
        <ele>142</ele>
        <time>2012-03-13T14:26:48.000Z</time>
      </trkpt>
      <trkpt lat="44.95667" lon="0.38765">
        <ele>141</ele>
        <time>2012-03-13T14:26:49.000Z</time>
      </trkpt>
      <trkpt lat="44.95672" lon="0.3877">
        <ele>141</ele>
        <time>2012-03-13T14:26:50.000Z</time>
      </trkpt>
      <trkpt lat="44.95677" lon="0.38775">
        <ele>141</ele>
        <time>2012-03-13T14:26:51.000Z</time>
      </trkpt>
      <trkpt lat="44.95682" lon="0.38782">
        <ele>142</ele>
        <time>2012-03-13T14:26:52.000Z</time>
      </trkpt>
      <trkpt lat="44.95685" lon="0.38786">
        <ele>142</ele>
        <time>2012-03-13T14:26:53.000Z</time>
      </trkpt>
      <trkpt lat="44.9569" lon="0.3879">
        <ele>142</ele>
        <time>2012-03-13T14:26:54.000Z</time>
      </trkpt>
      <trkpt lat="44.95698" lon="0.38795">
        <ele>143</ele>
        <time>2012-03-13T14:26:56.000Z</time>
      </trkpt>
      <trkpt lat="44.95705" lon="0.38802">
        <ele>143</ele>
        <time>2012-03-13T14:26:58.000Z</time>
      </trkpt>
      <trkpt lat="44.95711" lon="0.38809">
        <ele>143</ele>
        <time>2012-03-13T14:27:00.000Z</time>
      </trkpt>
      <trkpt lat="44.95716" lon="0.38816">
        <ele>144</ele>
        <time>2012-03-13T14:27:02.000Z</time>
      </trkpt>
      <trkpt lat="44.95722" lon="0.38823">
        <ele>144</ele>
        <time>2012-03-13T14:27:04.000Z</time>
      </trkpt>
      <trkpt lat="44.95728" lon="0.38829">
        <ele>144</ele>
        <time>2012-03-13T14:27:06.000Z</time>
      </trkpt>
      <trkpt lat="44.95734" lon="0.38835">
        <ele>144</ele>
        <time>2012-03-13T14:27:08.000Z</time>
      </trkpt>
      <trkpt lat="44.95739" lon="0.38842">
        <ele>145</ele>
        <time>2012-03-13T14:27:10.000Z</time>
      </trkpt>
      <trkpt lat="44.95744" lon="0.38848">
        <ele>145</ele>
        <time>2012-03-13T14:27:12.000Z</time>
      </trkpt>
      <trkpt lat="44.9575" lon="0.38857">
        <ele>146</ele>
        <time>2012-03-13T14:27:14.000Z</time>
      </trkpt>
      <trkpt lat="44.95756" lon="0.38864">
        <ele>147</ele>
        <time>2012-03-13T14:27:16.000Z</time>
      </trkpt>
      <trkpt lat="44.95759" lon="0.38868">
        <ele>148</ele>
        <time>2012-03-13T14:27:17.000Z</time>
      </trkpt>
      <trkpt lat="44.95764" lon="0.38875">
        <ele>149</ele>
        <time>2012-03-13T14:27:19.000Z</time>
      </trkpt>
      <trkpt lat="44.9577" lon="0.38884">
        <ele>150</ele>
        <time>2012-03-13T14:27:21.000Z</time>
      </trkpt>
      <trkpt lat="44.95776" lon="0.38891">
        <ele>151</ele>
        <time>2012-03-13T14:27:23.000Z</time>
      </trkpt>
      <trkpt lat="44.95781" lon="0.38899">
        <ele>151</ele>
        <time>2012-03-13T14:27:25.000Z</time>
      </trkpt>
      <trkpt lat="44.95785" lon="0.38908">
        <ele>152</ele>
        <time>2012-03-13T14:27:27.000Z</time>
      </trkpt>
      <trkpt lat="44.95787" lon="0.38916">
        <ele>153</ele>
        <time>2012-03-13T14:27:29.000Z</time>
      </trkpt>
      <trkpt lat="44.95785" lon="0.38922">
        <ele>154</ele>
        <time>2012-03-13T14:27:31.000Z</time>
      </trkpt>
      <trkpt lat="44.95777" lon="0.38929">
        <ele>156</ele>
        <time>2012-03-13T14:27:33.000Z</time>
      </trkpt>
      <trkpt lat="44.95773" lon="0.38933">
        <ele>157</ele>
        <time>2012-03-13T14:27:34.000Z</time>
      </trkpt>
      <trkpt lat="44.95766" lon="0.38938">
        <ele>157</ele>
        <time>2012-03-13T14:27:36.000Z</time>
      </trkpt>
      <trkpt lat="44.9576" lon="0.38944">
        <ele>158</ele>
        <time>2012-03-13T14:27:38.000Z</time>
      </trkpt>
      <trkpt lat="44.95752" lon="0.38949">
        <ele>159</ele>
        <time>2012-03-13T14:27:40.000Z</time>
      </trkpt>
      <trkpt lat="44.95746" lon="0.38955">
        <ele>160</ele>
        <time>2012-03-13T14:27:42.000Z</time>
      </trkpt>
      <trkpt lat="44.95738" lon="0.3896">
        <ele>161</ele>
        <time>2012-03-13T14:27:44.000Z</time>
      </trkpt>
      <trkpt lat="44.95732" lon="0.38965">
        <ele>162</ele>
        <time>2012-03-13T14:27:46.000Z</time>
      </trkpt>
      <trkpt lat="44.95725" lon="0.3897">
        <ele>162</ele>
        <time>2012-03-13T14:27:48.000Z</time>
      </trkpt>
      <trkpt lat="44.95718" lon="0.38975">
        <ele>164</ele>
        <time>2012-03-13T14:27:50.000Z</time>
      </trkpt>
      <trkpt lat="44.95711" lon="0.38979">
        <ele>166</ele>
        <time>2012-03-13T14:27:52.000Z</time>
      </trkpt>
      <trkpt lat="44.95704" lon="0.38984">
        <ele>167</ele>
        <time>2012-03-13T14:27:54.000Z</time>
      </trkpt>
      <trkpt lat="44.95697" lon="0.3899">
        <ele>169</ele>
        <time>2012-03-13T14:27:56.000Z</time>
      </trkpt>
      <trkpt lat="44.9569" lon="0.38996">
        <ele>170</ele>
        <time>2012-03-13T14:27:58.000Z</time>
      </trkpt>
      <trkpt lat="44.95683" lon="0.39001">
        <ele>170</ele>
        <time>2012-03-13T14:28:00.000Z</time>
      </trkpt>
      <trkpt lat="44.95677" lon="0.39006">
        <ele>171</ele>
        <time>2012-03-13T14:28:02.000Z</time>
      </trkpt>
      <trkpt lat="44.95671" lon="0.3901">
        <ele>172</ele>
        <time>2012-03-13T14:28:04.000Z</time>
      </trkpt>
      <trkpt lat="44.95664" lon="0.3901">
        <ele>172</ele>
        <time>2012-03-13T14:28:06.000Z</time>
      </trkpt>
      <trkpt lat="44.95657" lon="0.3901">
        <ele>172</ele>
        <time>2012-03-13T14:28:08.000Z</time>
      </trkpt>
      <trkpt lat="44.95649" lon="0.39013">
        <ele>173</ele>
        <time>2012-03-13T14:28:10.000Z</time>
      </trkpt>
      <trkpt lat="44.95641" lon="0.39016">
        <ele>174</ele>
        <time>2012-03-13T14:28:12.000Z</time>
      </trkpt>
      <trkpt lat="44.95636" lon="0.39019">
        <ele>174</ele>
        <time>2012-03-13T14:28:13.000Z</time>
      </trkpt>
      <trkpt lat="44.95631" lon="0.39021">
        <ele>174</ele>
        <time>2012-03-13T14:28:14.000Z</time>
      </trkpt>
      <trkpt lat="44.95626" lon="0.39023">
        <ele>175</ele>
        <time>2012-03-13T14:28:15.000Z</time>
      </trkpt>
      <trkpt lat="44.95621" lon="0.39025">
        <ele>174</ele>
        <time>2012-03-13T14:28:16.000Z</time>
      </trkpt>
      <trkpt lat="44.95614" lon="0.39031">
        <ele>175</ele>
        <time>2012-03-13T14:28:18.000Z</time>
      </trkpt>
      <trkpt lat="44.95609" lon="0.39034">
        <ele>175</ele>
        <time>2012-03-13T14:28:19.000Z</time>
      </trkpt>
      <trkpt lat="44.95605" lon="0.39036">
        <ele>176</ele>
        <time>2012-03-13T14:28:20.000Z</time>
      </trkpt>
      <trkpt lat="44.95601" lon="0.39041">
        <ele>176</ele>
        <time>2012-03-13T14:28:21.000Z</time>
      </trkpt>
      <trkpt lat="44.95594" lon="0.39044">
        <ele>176</ele>
        <time>2012-03-13T14:28:22.000Z</time>
      </trkpt>
      <trkpt lat="44.95589" lon="0.39046">
        <ele>176</ele>
        <time>2012-03-13T14:28:23.000Z</time>
      </trkpt>
      <trkpt lat="44.95582" lon="0.39049">
        <ele>176</ele>
        <time>2012-03-13T14:28:24.000Z</time>
      </trkpt>
      <trkpt lat="44.95575" lon="0.39053">
        <ele>176</ele>
        <time>2012-03-13T14:28:25.000Z</time>
      </trkpt>
      <trkpt lat="44.9557" lon="0.39057">
        <ele>176</ele>
        <time>2012-03-13T14:28:26.000Z</time>
      </trkpt>
      <trkpt lat="44.95564" lon="0.39059">
        <ele>176</ele>
        <time>2012-03-13T14:28:27.000Z</time>
      </trkpt>
      <trkpt lat="44.95558" lon="0.39062">
        <ele>176</ele>
        <time>2012-03-13T14:28:28.000Z</time>
      </trkpt>
      <trkpt lat="44.95553" lon="0.39066">
        <ele>176</ele>
        <time>2012-03-13T14:28:29.000Z</time>
      </trkpt>
      <trkpt lat="44.95548" lon="0.3907">
        <ele>176</ele>
        <time>2012-03-13T14:28:30.000Z</time>
      </trkpt>
      <trkpt lat="44.95542" lon="0.39073">
        <ele>176</ele>
        <time>2012-03-13T14:28:31.000Z</time>
      </trkpt>
      <trkpt lat="44.95536" lon="0.39076">
        <ele>175</ele>
        <time>2012-03-13T14:28:32.000Z</time>
      </trkpt>
      <trkpt lat="44.95531" lon="0.3908">
        <ele>176</ele>
        <time>2012-03-13T14:28:33.000Z</time>
      </trkpt>
      <trkpt lat="44.95525" lon="0.39085">
        <ele>176</ele>
        <time>2012-03-13T14:28:34.000Z</time>
      </trkpt>
      <trkpt lat="44.95518" lon="0.39089">
        <ele>175</ele>
        <time>2012-03-13T14:28:35.000Z</time>
      </trkpt>
      <trkpt lat="44.95513" lon="0.39093">
        <ele>175</ele>
        <time>2012-03-13T14:28:36.000Z</time>
      </trkpt>
      <trkpt lat="44.95508" lon="0.39096">
        <ele>175</ele>
        <time>2012-03-13T14:28:37.000Z</time>
      </trkpt>
      <trkpt lat="44.95504" lon="0.39101">
        <ele>175</ele>
        <time>2012-03-13T14:28:38.000Z</time>
      </trkpt>
      <trkpt lat="44.95499" lon="0.39106">
        <ele>175</ele>
        <time>2012-03-13T14:28:39.000Z</time>
      </trkpt>
      <trkpt lat="44.95494" lon="0.39109">
        <ele>175</ele>
        <time>2012-03-13T14:28:40.000Z</time>
      </trkpt>
      <trkpt lat="44.95489" lon="0.39112">
        <ele>175</ele>
        <time>2012-03-13T14:28:41.000Z</time>
      </trkpt>
      <trkpt lat="44.95484" lon="0.39114">
        <ele>175</ele>
        <time>2012-03-13T14:28:42.000Z</time>
      </trkpt>
      <trkpt lat="44.95478" lon="0.39116">
        <ele>174</ele>
        <time>2012-03-13T14:28:43.000Z</time>
      </trkpt>
      <trkpt lat="44.95472" lon="0.39118">
        <ele>173</ele>
        <time>2012-03-13T14:28:44.000Z</time>
      </trkpt>
      <trkpt lat="44.95465" lon="0.39118">
        <ele>171</ele>
        <time>2012-03-13T14:28:45.000Z</time>
      </trkpt>
      <trkpt lat="44.95458" lon="0.39119">
        <ele>170</ele>
        <time>2012-03-13T14:28:46.000Z</time>
      </trkpt>
      <trkpt lat="44.95452" lon="0.39122">
        <ele>169</ele>
        <time>2012-03-13T14:28:47.000Z</time>
      </trkpt>
      <trkpt lat="44.95444" lon="0.39124">
        <ele>167</ele>
        <time>2012-03-13T14:28:48.000Z</time>
      </trkpt>
      <trkpt lat="44.95438" lon="0.39127">
        <ele>166</ele>
        <time>2012-03-13T14:28:49.000Z</time>
      </trkpt>
      <trkpt lat="44.95432" lon="0.3913">
        <ele>164</ele>
        <time>2012-03-13T14:28:50.000Z</time>
      </trkpt>
      <trkpt lat="44.95425" lon="0.39133">
        <ele>163</ele>
        <time>2012-03-13T14:28:51.000Z</time>
      </trkpt>
      <trkpt lat="44.95417" lon="0.39137">
        <ele>162</ele>
        <time>2012-03-13T14:28:52.000Z</time>
      </trkpt>
      <trkpt lat="44.9541" lon="0.3914">
        <ele>161</ele>
        <time>2012-03-13T14:28:53.000Z</time>
      </trkpt>
      <trkpt lat="44.95402" lon="0.39144">
        <ele>160</ele>
        <time>2012-03-13T14:28:54.000Z</time>
      </trkpt>
      <trkpt lat="44.95394" lon="0.39148">
        <ele>160</ele>
        <time>2012-03-13T14:28:55.000Z</time>
      </trkpt>
      <trkpt lat="44.95386" lon="0.39152">
        <ele>158</ele>
        <time>2012-03-13T14:28:56.000Z</time>
      </trkpt>
      <trkpt lat="44.95378" lon="0.39155">
        <ele>157</ele>
        <time>2012-03-13T14:28:57.000Z</time>
      </trkpt>
      <trkpt lat="44.9537" lon="0.39159">
        <ele>156</ele>
        <time>2012-03-13T14:28:58.000Z</time>
      </trkpt>
      <trkpt lat="44.95363" lon="0.39162">
        <ele>155</ele>
        <time>2012-03-13T14:28:59.000Z</time>
      </trkpt>
      <trkpt lat="44.95356" lon="0.39166">
        <ele>154</ele>
        <time>2012-03-13T14:29:00.000Z</time>
      </trkpt>
      <trkpt lat="44.95353" lon="0.3917">
        <ele>154</ele>
        <time>2012-03-13T14:29:01.000Z</time>
      </trkpt>
      <trkpt lat="44.95351" lon="0.39177">
        <ele>153</ele>
        <time>2012-03-13T14:29:02.000Z</time>
      </trkpt>
      <trkpt lat="44.95349" lon="0.39185">
        <ele>153</ele>
        <time>2012-03-13T14:29:03.000Z</time>
      </trkpt>
      <trkpt lat="44.95349" lon="0.39194">
        <ele>153</ele>
        <time>2012-03-13T14:29:04.000Z</time>
      </trkpt>
      <trkpt lat="44.95348" lon="0.39202">
        <ele>152</ele>
        <time>2012-03-13T14:29:05.000Z</time>
      </trkpt>
      <trkpt lat="44.95346" lon="0.39209">
        <ele>152</ele>
        <time>2012-03-13T14:29:06.000Z</time>
      </trkpt>
      <trkpt lat="44.95344" lon="0.39216">
        <ele>152</ele>
        <time>2012-03-13T14:29:07.000Z</time>
      </trkpt>
      <trkpt lat="44.95343" lon="0.39226">
        <ele>153</ele>
        <time>2012-03-13T14:29:09.000Z</time>
      </trkpt>
      <trkpt lat="44.9534" lon="0.39234">
        <ele>154</ele>
        <time>2012-03-13T14:29:11.000Z</time>
      </trkpt>
      <trkpt lat="44.95338" lon="0.39241">
        <ele>154</ele>
        <time>2012-03-13T14:29:13.000Z</time>
      </trkpt>
      <trkpt lat="44.95334" lon="0.3925">
        <ele>154</ele>
        <time>2012-03-13T14:29:15.000Z</time>
      </trkpt>
      <trkpt lat="44.95331" lon="0.39257">
        <ele>153</ele>
        <time>2012-03-13T14:29:17.000Z</time>
      </trkpt>
      <trkpt lat="44.95328" lon="0.39266">
        <ele>152</ele>
        <time>2012-03-13T14:29:19.000Z</time>
      </trkpt>
      <trkpt lat="44.95323" lon="0.39277">
        <ele>149</ele>
        <time>2012-03-13T14:29:21.000Z</time>
      </trkpt>
      <trkpt lat="44.9532" lon="0.39284">
        <ele>147</ele>
        <time>2012-03-13T14:29:22.000Z</time>
      </trkpt>
      <trkpt lat="44.95315" lon="0.39289">
        <ele>146</ele>
        <time>2012-03-13T14:29:23.000Z</time>
      </trkpt>
      <trkpt lat="44.95309" lon="0.39291">
        <ele>145</ele>
        <time>2012-03-13T14:29:24.000Z</time>
      </trkpt>
      <trkpt lat="44.95301" lon="0.3929">
        <ele>144</ele>
        <time>2012-03-13T14:29:25.000Z</time>
      </trkpt>
      <trkpt lat="44.95292" lon="0.39287">
        <ele>144</ele>
        <time>2012-03-13T14:29:26.000Z</time>
      </trkpt>
      <trkpt lat="44.95284" lon="0.39283">
        <ele>143</ele>
        <time>2012-03-13T14:29:27.000Z</time>
      </trkpt>
      <trkpt lat="44.95275" lon="0.3928">
        <ele>142</ele>
        <time>2012-03-13T14:29:28.000Z</time>
      </trkpt>
      <trkpt lat="44.95268" lon="0.39278">
        <ele>141</ele>
        <time>2012-03-13T14:29:29.000Z</time>
      </trkpt>
      <trkpt lat="44.95262" lon="0.39276">
        <ele>140</ele>
        <time>2012-03-13T14:29:30.000Z</time>
      </trkpt>
      <trkpt lat="44.95257" lon="0.39275">
        <ele>138</ele>
        <time>2012-03-13T14:29:31.000Z</time>
      </trkpt>
      <trkpt lat="44.9525" lon="0.39279">
        <ele>137</ele>
        <time>2012-03-13T14:29:33.000Z</time>
      </trkpt>
      <trkpt lat="44.95246" lon="0.39276">
        <ele>136</ele>
        <time>2012-03-13T14:29:35.000Z</time>
      </trkpt>
      <trkpt lat="44.95241" lon="0.39272">
        <ele>135</ele>
        <time>2012-03-13T14:29:37.000Z</time>
      </trkpt>
      <trkpt lat="44.95233" lon="0.39274">
        <ele>135</ele>
        <time>2012-03-13T14:29:39.000Z</time>
      </trkpt>
      <trkpt lat="44.95227" lon="0.39273">
        <ele>135</ele>
        <time>2012-03-13T14:29:41.000Z</time>
      </trkpt>
      <trkpt lat="44.95221" lon="0.39273">
        <ele>134</ele>
        <time>2012-03-13T14:29:43.000Z</time>
      </trkpt>
      <trkpt lat="44.95216" lon="0.3927">
        <ele>132</ele>
        <time>2012-03-13T14:29:46.000Z</time>
      </trkpt>
      <trkpt lat="44.95211" lon="0.39276">
        <ele>132</ele>
        <time>2012-03-13T14:29:51.000Z</time>
      </trkpt>
      <trkpt lat="44.95203" lon="0.39282">
        <ele>132</ele>
        <time>2012-03-13T14:29:53.000Z</time>
      </trkpt>
      <trkpt lat="44.95199" lon="0.39287">
        <ele>131</ele>
        <time>2012-03-13T14:29:55.000Z</time>
      </trkpt>
      <trkpt lat="44.95196" lon="0.39292">
        <ele>130</ele>
        <time>2012-03-13T14:29:57.000Z</time>
      </trkpt>
      <trkpt lat="44.95192" lon="0.39299">
        <ele>131</ele>
        <time>2012-03-13T14:29:59.000Z</time>
      </trkpt>
      <trkpt lat="44.95189" lon="0.39304">
        <ele>131</ele>
        <time>2012-03-13T14:30:01.000Z</time>
      </trkpt>
      <trkpt lat="44.95185" lon="0.39309">
        <ele>132</ele>
        <time>2012-03-13T14:30:03.000Z</time>
      </trkpt>
      <trkpt lat="44.9518" lon="0.39315">
        <ele>130</ele>
        <time>2012-03-13T14:30:05.000Z</time>
      </trkpt>
      <trkpt lat="44.95175" lon="0.39321">
        <ele>128</ele>
        <time>2012-03-13T14:30:07.000Z</time>
      </trkpt>
      <trkpt lat="44.95171" lon="0.39324">
        <ele>125</ele>
        <time>2012-03-13T14:30:18.000Z</time>
      </trkpt>
      <trkpt lat="44.95168" lon="0.3933">
        <ele>126</ele>
        <time>2012-03-13T14:30:28.000Z</time>
      </trkpt>
      <trkpt lat="44.95165" lon="0.39336">
        <ele>127</ele>
        <time>2012-03-13T14:30:31.000Z</time>
      </trkpt>
      <trkpt lat="44.95163" lon="0.39343">
        <ele>127</ele>
        <time>2012-03-13T14:30:33.000Z</time>
      </trkpt>
      <trkpt lat="44.95161" lon="0.3935">
        <ele>127</ele>
        <time>2012-03-13T14:30:35.000Z</time>
      </trkpt>
      <trkpt lat="44.9516" lon="0.39356">
        <ele>128</ele>
        <time>2012-03-13T14:30:37.000Z</time>
      </trkpt>
      <trkpt lat="44.95161" lon="0.39364">
        <ele>128</ele>
        <time>2012-03-13T14:30:40.000Z</time>
      </trkpt>
      <trkpt lat="44.95163" lon="0.39373">
        <ele>129</ele>
        <time>2012-03-13T14:30:43.000Z</time>
      </trkpt>
      <trkpt lat="44.95167" lon="0.39381">
        <ele>128</ele>
        <time>2012-03-13T14:30:46.000Z</time>
      </trkpt>
      <trkpt lat="44.95163" lon="0.39389">
        <ele>130</ele>
        <time>2012-03-13T14:30:49.000Z</time>
      </trkpt>
      <trkpt lat="44.95159" lon="0.39392">
        <ele>131</ele>
        <time>2012-03-13T14:30:52.000Z</time>
      </trkpt>
      <trkpt lat="44.95154" lon="0.39391">
        <ele>131</ele>
        <time>2012-03-13T14:30:54.000Z</time>
      </trkpt>
      <trkpt lat="44.95147" lon="0.39388">
        <ele>130</ele>
        <time>2012-03-13T14:30:56.000Z</time>
      </trkpt>
      <trkpt lat="44.95142" lon="0.39387">
        <ele>130</ele>
        <time>2012-03-13T14:30:58.000Z</time>
      </trkpt>
      <trkpt lat="44.95138" lon="0.3939">
        <ele>131</ele>
        <time>2012-03-13T14:31:01.000Z</time>
      </trkpt>
      <trkpt lat="44.95134" lon="0.39396">
        <ele>133</ele>
        <time>2012-03-13T14:31:04.000Z</time>
      </trkpt>
      <trkpt lat="44.95133" lon="0.39404">
        <ele>135</ele>
        <time>2012-03-13T14:31:07.000Z</time>
      </trkpt>
      <trkpt lat="44.95133" lon="0.39411">
        <ele>136</ele>
        <time>2012-03-13T14:31:09.000Z</time>
      </trkpt>
      <trkpt lat="44.95132" lon="0.39417">
        <ele>136</ele>
        <time>2012-03-13T14:31:11.000Z</time>
      </trkpt>
      <trkpt lat="44.9513" lon="0.39424">
        <ele>136</ele>
        <time>2012-03-13T14:31:13.000Z</time>
      </trkpt>
      <trkpt lat="44.95128" lon="0.39431">
        <ele>137</ele>
        <time>2012-03-13T14:31:15.000Z</time>
      </trkpt>
      <trkpt lat="44.95127" lon="0.39437">
        <ele>138</ele>
        <time>2012-03-13T14:31:17.000Z</time>
      </trkpt>
      <trkpt lat="44.95125" lon="0.39443">
        <ele>139</ele>
        <time>2012-03-13T14:31:19.000Z</time>
      </trkpt>
      <trkpt lat="44.95123" lon="0.39452">
        <ele>140</ele>
        <time>2012-03-13T14:31:22.000Z</time>
      </trkpt>
      <trkpt lat="44.95123" lon="0.39458">
        <ele>142</ele>
        <time>2012-03-13T14:31:24.000Z</time>
      </trkpt>
      <trkpt lat="44.95121" lon="0.39467">
        <ele>143</ele>
        <time>2012-03-13T14:31:27.000Z</time>
      </trkpt>
      <trkpt lat="44.95119" lon="0.39476">
        <ele>143</ele>
        <time>2012-03-13T14:31:30.000Z</time>
      </trkpt>
      <trkpt lat="44.95117" lon="0.39484">
        <ele>146</ele>
        <time>2012-03-13T14:31:33.000Z</time>
      </trkpt>
      <trkpt lat="44.95115" lon="0.39493">
        <ele>150</ele>
        <time>2012-03-13T14:31:36.000Z</time>
      </trkpt>
      <trkpt lat="44.95114" lon="0.39501">
        <ele>151</ele>
        <time>2012-03-13T14:31:39.000Z</time>
      </trkpt>
      <trkpt lat="44.95114" lon="0.39509">
        <ele>153</ele>
        <time>2012-03-13T14:31:42.000Z</time>
      </trkpt>
      <trkpt lat="44.95113" lon="0.39518">
        <ele>153</ele>
        <time>2012-03-13T14:31:45.000Z</time>
      </trkpt>
      <trkpt lat="44.95112" lon="0.39526">
        <ele>154</ele>
        <time>2012-03-13T14:31:48.000Z</time>
      </trkpt>
      <trkpt lat="44.95115" lon="0.39533">
        <ele>154</ele>
        <time>2012-03-13T14:31:51.000Z</time>
      </trkpt>
      <trkpt lat="44.95119" lon="0.3954">
        <ele>155</ele>
        <time>2012-03-13T14:31:54.000Z</time>
      </trkpt>
      <trkpt lat="44.95123" lon="0.39545">
        <ele>155</ele>
        <time>2012-03-13T14:31:56.000Z</time>
      </trkpt>
      <trkpt lat="44.95126" lon="0.39551">
        <ele>156</ele>
        <time>2012-03-13T14:31:58.000Z</time>
      </trkpt>
      <trkpt lat="44.95131" lon="0.39556">
        <ele>156</ele>
        <time>2012-03-13T14:32:00.000Z</time>
      </trkpt>
      <trkpt lat="44.95134" lon="0.39562">
        <ele>157</ele>
        <time>2012-03-13T14:32:02.000Z</time>
      </trkpt>
      <trkpt lat="44.95139" lon="0.39566">
        <ele>157</ele>
        <time>2012-03-13T14:32:04.000Z</time>
      </trkpt>
      <trkpt lat="44.95145" lon="0.39572">
        <ele>157</ele>
        <time>2012-03-13T14:32:06.000Z</time>
      </trkpt>
      <trkpt lat="44.95148" lon="0.39578">
        <ele>157</ele>
        <time>2012-03-13T14:32:08.000Z</time>
      </trkpt>
      <trkpt lat="44.95154" lon="0.39583">
        <ele>157</ele>
        <time>2012-03-13T14:32:10.000Z</time>
      </trkpt>
      <trkpt lat="44.95161" lon="0.3959">
        <ele>158</ele>
        <time>2012-03-13T14:32:12.000Z</time>
      </trkpt>
      <trkpt lat="44.95167" lon="0.39596">
        <ele>158</ele>
        <time>2012-03-13T14:32:14.000Z</time>
      </trkpt>
      <trkpt lat="44.95172" lon="0.39602">
        <ele>158</ele>
        <time>2012-03-13T14:32:16.000Z</time>
      </trkpt>
      <trkpt lat="44.9518" lon="0.39609">
        <ele>158</ele>
        <time>2012-03-13T14:32:18.000Z</time>
      </trkpt>
      <trkpt lat="44.95185" lon="0.39616">
        <ele>158</ele>
        <time>2012-03-13T14:32:20.000Z</time>
      </trkpt>
      <trkpt lat="44.9519" lon="0.39624">
        <ele>158</ele>
        <time>2012-03-13T14:32:22.000Z</time>
      </trkpt>
      <trkpt lat="44.95196" lon="0.39631">
        <ele>157</ele>
        <time>2012-03-13T14:32:24.000Z</time>
      </trkpt>
      <trkpt lat="44.95202" lon="0.39639">
        <ele>157</ele>
        <time>2012-03-13T14:32:26.000Z</time>
      </trkpt>
      <trkpt lat="44.95207" lon="0.39648">
        <ele>157</ele>
        <time>2012-03-13T14:32:28.000Z</time>
      </trkpt>
      <trkpt lat="44.9521" lon="0.39652">
        <ele>156</ele>
        <time>2012-03-13T14:32:29.000Z</time>
      </trkpt>
      <trkpt lat="44.95215" lon="0.39661">
        <ele>156</ele>
        <time>2012-03-13T14:32:31.000Z</time>
      </trkpt>
      <trkpt lat="44.95219" lon="0.39666">
        <ele>156</ele>
        <time>2012-03-13T14:32:32.000Z</time>
      </trkpt>
      <trkpt lat="44.95222" lon="0.39671">
        <ele>156</ele>
        <time>2012-03-13T14:32:33.000Z</time>
      </trkpt>
      <trkpt lat="44.95228" lon="0.39681">
        <ele>155</ele>
        <time>2012-03-13T14:32:35.000Z</time>
      </trkpt>
      <trkpt lat="44.95232" lon="0.39686">
        <ele>155</ele>
        <time>2012-03-13T14:32:36.000Z</time>
      </trkpt>
      <trkpt lat="44.95235" lon="0.39691">
        <ele>155</ele>
        <time>2012-03-13T14:32:37.000Z</time>
      </trkpt>
      <trkpt lat="44.95239" lon="0.39697">
        <ele>154</ele>
        <time>2012-03-13T14:32:38.000Z</time>
      </trkpt>
      <trkpt lat="44.95242" lon="0.39702">
        <ele>154</ele>
        <time>2012-03-13T14:32:39.000Z</time>
      </trkpt>
      <trkpt lat="44.95246" lon="0.39709">
        <ele>154</ele>
        <time>2012-03-13T14:32:40.000Z</time>
      </trkpt>
      <trkpt lat="44.9525" lon="0.39715">
        <ele>153</ele>
        <time>2012-03-13T14:32:41.000Z</time>
      </trkpt>
      <trkpt lat="44.95254" lon="0.39722">
        <ele>153</ele>
        <time>2012-03-13T14:32:42.000Z</time>
      </trkpt>
      <trkpt lat="44.95258" lon="0.39729">
        <ele>153</ele>
        <time>2012-03-13T14:32:43.000Z</time>
      </trkpt>
      <trkpt lat="44.95263" lon="0.39735">
        <ele>153</ele>
        <time>2012-03-13T14:32:44.000Z</time>
      </trkpt>
      <trkpt lat="44.95267" lon="0.39742">
        <ele>152</ele>
        <time>2012-03-13T14:32:45.000Z</time>
      </trkpt>
      <trkpt lat="44.95271" lon="0.3975">
        <ele>152</ele>
        <time>2012-03-13T14:32:46.000Z</time>
      </trkpt>
      <trkpt lat="44.95276" lon="0.39758">
        <ele>152</ele>
        <time>2012-03-13T14:32:47.000Z</time>
      </trkpt>
      <trkpt lat="44.95282" lon="0.39766">
        <ele>152</ele>
        <time>2012-03-13T14:32:48.000Z</time>
      </trkpt>
      <trkpt lat="44.95287" lon="0.39775">
        <ele>151</ele>
        <time>2012-03-13T14:32:49.000Z</time>
      </trkpt>
      <trkpt lat="44.95291" lon="0.39783">
        <ele>152</ele>
        <time>2012-03-13T14:32:50.000Z</time>
      </trkpt>
      <trkpt lat="44.95295" lon="0.39791">
        <ele>152</ele>
        <time>2012-03-13T14:32:51.000Z</time>
      </trkpt>
      <trkpt lat="44.95299" lon="0.39799">
        <ele>152</ele>
        <time>2012-03-13T14:32:52.000Z</time>
      </trkpt>
      <trkpt lat="44.95299" lon="0.39807">
        <ele>153</ele>
        <time>2012-03-13T14:32:53.000Z</time>
      </trkpt>
      <trkpt lat="44.95299" lon="0.39815">
        <ele>154</ele>
        <time>2012-03-13T14:32:54.000Z</time>
      </trkpt>
      <trkpt lat="44.95296" lon="0.39821">
        <ele>155</ele>
        <time>2012-03-13T14:32:55.000Z</time>
      </trkpt>
      <trkpt lat="44.95294" lon="0.39826">
        <ele>156</ele>
        <time>2012-03-13T14:32:56.000Z</time>
      </trkpt>
      <trkpt lat="44.9529" lon="0.39832">
        <ele>157</ele>
        <time>2012-03-13T14:32:57.000Z</time>
      </trkpt>
      <trkpt lat="44.95287" lon="0.39837">
        <ele>157</ele>
        <time>2012-03-13T14:32:58.000Z</time>
      </trkpt>
      <trkpt lat="44.95285" lon="0.39843">
        <ele>158</ele>
        <time>2012-03-13T14:32:59.000Z</time>
      </trkpt>
      <trkpt lat="44.95281" lon="0.39849">
        <ele>158</ele>
        <time>2012-03-13T14:33:00.000Z</time>
      </trkpt>
      <trkpt lat="44.95278" lon="0.39855">
        <ele>159</ele>
        <time>2012-03-13T14:33:01.000Z</time>
      </trkpt>
      <trkpt lat="44.95274" lon="0.39862">
        <ele>160</ele>
        <time>2012-03-13T14:33:02.000Z</time>
      </trkpt>
      <trkpt lat="44.95272" lon="0.39868">
        <ele>160</ele>
        <time>2012-03-13T14:33:03.000Z</time>
      </trkpt>
      <trkpt lat="44.95269" lon="0.39874">
        <ele>160</ele>
        <time>2012-03-13T14:33:04.000Z</time>
      </trkpt>
      <trkpt lat="44.95266" lon="0.39879">
        <ele>161</ele>
        <time>2012-03-13T14:33:05.000Z</time>
      </trkpt>
      <trkpt lat="44.95263" lon="0.39886">
        <ele>162</ele>
        <time>2012-03-13T14:33:06.000Z</time>
      </trkpt>
      <trkpt lat="44.95258" lon="0.39895">
        <ele>162</ele>
        <time>2012-03-13T14:33:08.000Z</time>
      </trkpt>
      <trkpt lat="44.95255" lon="0.39901">
        <ele>162</ele>
        <time>2012-03-13T14:33:09.000Z</time>
      </trkpt>
      <trkpt lat="44.95252" lon="0.39906">
        <ele>162</ele>
        <time>2012-03-13T14:33:10.000Z</time>
      </trkpt>
      <trkpt lat="44.95248" lon="0.39918">
        <ele>162</ele>
        <time>2012-03-13T14:33:12.000Z</time>
      </trkpt>
      <trkpt lat="44.95249" lon="0.3993">
        <ele>163</ele>
        <time>2012-03-13T14:33:14.000Z</time>
      </trkpt>
      <trkpt lat="44.95251" lon="0.39936">
        <ele>163</ele>
        <time>2012-03-13T14:33:15.000Z</time>
      </trkpt>
      <trkpt lat="44.95252" lon="0.39942">
        <ele>163</ele>
        <time>2012-03-13T14:33:16.000Z</time>
      </trkpt>
      <trkpt lat="44.95256" lon="0.39956">
        <ele>164</ele>
        <time>2012-03-13T14:33:18.000Z</time>
      </trkpt>
      <trkpt lat="44.95258" lon="0.39963">
        <ele>164</ele>
        <time>2012-03-13T14:33:19.000Z</time>
      </trkpt>
      <trkpt lat="44.95259" lon="0.39969">
        <ele>164</ele>
        <time>2012-03-13T14:33:20.000Z</time>
      </trkpt>
      <trkpt lat="44.95261" lon="0.39976">
        <ele>164</ele>
        <time>2012-03-13T14:33:21.000Z</time>
      </trkpt>
      <trkpt lat="44.95264" lon="0.39988">
        <ele>165</ele>
        <time>2012-03-13T14:33:23.000Z</time>
      </trkpt>
      <trkpt lat="44.95265" lon="0.39994">
        <ele>165</ele>
        <time>2012-03-13T14:33:24.000Z</time>
      </trkpt>
      <trkpt lat="44.95267" lon="0.4">
        <ele>165</ele>
        <time>2012-03-13T14:33:25.000Z</time>
      </trkpt>
      <trkpt lat="44.95269" lon="0.40006">
        <ele>165</ele>
        <time>2012-03-13T14:33:26.000Z</time>
      </trkpt>
      <trkpt lat="44.95271" lon="0.40017">
        <ele>165</ele>
        <time>2012-03-13T14:33:28.000Z</time>
      </trkpt>
      <trkpt lat="44.95274" lon="0.40029">
        <ele>165</ele>
        <time>2012-03-13T14:33:30.000Z</time>
      </trkpt>
      <trkpt lat="44.95277" lon="0.4004">
        <ele>165</ele>
        <time>2012-03-13T14:33:32.000Z</time>
      </trkpt>
      <trkpt lat="44.9528" lon="0.40045">
        <ele>165</ele>
        <time>2012-03-13T14:33:33.000Z</time>
      </trkpt>
      <trkpt lat="44.95283" lon="0.4005">
        <ele>165</ele>
        <time>2012-03-13T14:33:34.000Z</time>
      </trkpt>
      <trkpt lat="44.9529" lon="0.40052">
        <ele>164</ele>
        <time>2012-03-13T14:33:36.000Z</time>
      </trkpt>
      <trkpt lat="44.95293" lon="0.40045">
        <ele>163</ele>
        <time>2012-03-13T14:33:39.000Z</time>
      </trkpt>
      <trkpt lat="44.95292" lon="0.40039">
        <ele>164</ele>
        <time>2012-03-13T14:33:41.000Z</time>
      </trkpt>
      <trkpt lat="44.95291" lon="0.40031">
        <ele>164</ele>
        <time>2012-03-13T14:33:43.000Z</time>
      </trkpt>
      <trkpt lat="44.9529" lon="0.40023">
        <ele>163</ele>
        <time>2012-03-13T14:33:45.000Z</time>
      </trkpt>
      <trkpt lat="44.95291" lon="0.40016">
        <ele>162</ele>
        <time>2012-03-13T14:33:47.000Z</time>
      </trkpt>
      <trkpt lat="44.95295" lon="0.4001">
        <ele>161</ele>
        <time>2012-03-13T14:33:50.000Z</time>
      </trkpt>
      <trkpt lat="44.95297" lon="0.40001">
        <ele>161</ele>
        <time>2012-03-13T14:33:53.000Z</time>
      </trkpt>
      <trkpt lat="44.95296" lon="0.39993">
        <ele>163</ele>
        <time>2012-03-13T14:33:56.000Z</time>
      </trkpt>
      <trkpt lat="44.95298" lon="0.39985">
        <ele>164</ele>
        <time>2012-03-13T14:33:59.000Z</time>
      </trkpt>
      <trkpt lat="44.95302" lon="0.39988">
        <ele>165</ele>
        <time>2012-03-13T14:34:04.000Z</time>
      </trkpt>
      <trkpt lat="44.95308" lon="0.3999">
        <ele>165</ele>
        <time>2012-03-13T14:34:08.000Z</time>
      </trkpt>
      <trkpt lat="44.95308" lon="0.39998">
        <ele>166</ele>
        <time>2012-03-13T14:34:13.000Z</time>
      </trkpt>
      <trkpt lat="44.95302" lon="0.40001">
        <ele>166</ele>
        <time>2012-03-13T14:34:17.000Z</time>
      </trkpt>
      <trkpt lat="44.95303" lon="0.40008">
        <ele>165</ele>
        <time>2012-03-13T14:34:22.000Z</time>
      </trkpt>
      <trkpt lat="44.95309" lon="0.40007">
        <ele>166</ele>
        <time>2012-03-13T14:34:24.000Z</time>
      </trkpt>
      <trkpt lat="44.95315" lon="0.40007">
        <ele>166</ele>
        <time>2012-03-13T14:34:27.000Z</time>
      </trkpt>
      <trkpt lat="44.95321" lon="0.40007">
        <ele>165</ele>
        <time>2012-03-13T14:34:30.000Z</time>
      </trkpt>
      <trkpt lat="44.95326" lon="0.40006">
        <ele>164</ele>
        <time>2012-03-13T14:34:32.000Z</time>
      </trkpt>
      <trkpt lat="44.95332" lon="0.4">
        <ele>162</ele>
        <time>2012-03-13T14:34:35.000Z</time>
      </trkpt>
      <trkpt lat="44.95337" lon="0.39994">
        <ele>162</ele>
        <time>2012-03-13T14:34:37.000Z</time>
      </trkpt>
      <trkpt lat="44.9534" lon="0.39987">
        <ele>162</ele>
        <time>2012-03-13T14:34:39.000Z</time>
      </trkpt>
      <trkpt lat="44.95339" lon="0.3998">
        <ele>164</ele>
        <time>2012-03-13T14:34:52.000Z</time>
      </trkpt>
      <trkpt lat="44.95336" lon="0.39976">
        <ele>164</ele>
        <time>2012-03-13T14:34:56.000Z</time>
      </trkpt>
      <trkpt lat="44.95336" lon="0.39966">
        <ele>165</ele>
        <time>2012-03-13T14:34:59.000Z</time>
      </trkpt>
      <trkpt lat="44.95337" lon="0.39958">
        <ele>167</ele>
        <time>2012-03-13T14:35:01.000Z</time>
      </trkpt>
      <trkpt lat="44.95336" lon="0.39952">
        <ele>168</ele>
        <time>2012-03-13T14:35:03.000Z</time>
      </trkpt>
      <trkpt lat="44.9534" lon="0.39947">
        <ele>168</ele>
        <time>2012-03-13T14:35:08.000Z</time>
      </trkpt>
      <trkpt lat="44.95343" lon="0.39942">
        <ele>167</ele>
        <time>2012-03-13T14:35:10.000Z</time>
      </trkpt>
      <trkpt lat="44.95348" lon="0.39947">
        <ele>166</ele>
        <time>2012-03-13T14:35:16.000Z</time>
      </trkpt>
      <trkpt lat="44.95352" lon="0.39953">
        <ele>165</ele>
        <time>2012-03-13T14:35:18.000Z</time>
      </trkpt>
      <trkpt lat="44.95357" lon="0.39957">
        <ele>165</ele>
        <time>2012-03-13T14:35:21.000Z</time>
      </trkpt>
      <trkpt lat="44.95361" lon="0.3995">
        <ele>164</ele>
        <time>2012-03-13T14:35:26.000Z</time>
      </trkpt>
      <trkpt lat="44.95365" lon="0.39944">
        <ele>164</ele>
        <time>2012-03-13T14:35:28.000Z</time>
      </trkpt>
      <trkpt lat="44.95364" lon="0.39936">
        <ele>163</ele>
        <time>2012-03-13T14:35:39.000Z</time>
      </trkpt>
      <trkpt lat="44.95362" lon="0.39928">
        <ele>161</ele>
        <time>2012-03-13T14:35:44.000Z</time>
      </trkpt>
      <trkpt lat="44.95362" lon="0.3992">
        <ele>159</ele>
        <time>2012-03-13T14:35:49.000Z</time>
      </trkpt>
      <trkpt lat="44.95358" lon="0.39918">
        <ele>158</ele>
        <time>2012-03-13T14:36:20.000Z</time>
      </trkpt>
      <trkpt lat="44.95355" lon="0.39912">
        <ele>159</ele>
        <time>2012-03-13T14:36:25.000Z</time>
      </trkpt>
      <trkpt lat="44.95354" lon="0.39904">
        <ele>160</ele>
        <time>2012-03-13T14:36:30.000Z</time>
      </trkpt>
      <trkpt lat="44.95356" lon="0.39896">
        <ele>158</ele>
        <time>2012-03-13T14:36:38.000Z</time>
      </trkpt>
      <trkpt lat="44.95356" lon="0.39889">
        <ele>158</ele>
        <time>2012-03-13T14:36:42.000Z</time>
      </trkpt>
      <trkpt lat="44.95359" lon="0.39884">
        <ele>158</ele>
        <time>2012-03-13T14:36:46.000Z</time>
      </trkpt>
      <trkpt lat="44.95362" lon="0.39875">
        <ele>155</ele>
        <time>2012-03-13T14:36:50.000Z</time>
      </trkpt>
      <trkpt lat="44.95364" lon="0.39869">
        <ele>154</ele>
        <time>2012-03-13T14:36:58.000Z</time>
      </trkpt>
      <trkpt lat="44.95364" lon="0.39869">
        <ele>154</ele>
        <time>2012-03-13T14:36:58.000Z</time>
      </trkpt>
      <trkpt lat="44.95364" lon="0.39869">
        <ele>154</ele>
        <time>2012-03-13T14:36:59.000Z</time>
      </trkpt>
      <trkpt lat="44.95369" lon="0.39873">
        <ele>157</ele>
        <time>2012-03-13T14:37:21.000Z</time>
      </trkpt>
      <trkpt lat="44.95369" lon="0.39873">
        <ele>157</ele>
        <time>2012-03-13T14:37:21.000Z</time>
      </trkpt>
      <trkpt lat="44.95369" lon="0.39873">
        <ele>157</ele>
        <time>2012-03-13T14:37:22.000Z</time>
      </trkpt>
      <trkpt lat="44.95375" lon="0.39867">
        <ele>161</ele>
        <time>2012-03-13T14:37:26.000Z</time>
      </trkpt>
      <trkpt lat="44.95379" lon="0.39864">
        <ele>162</ele>
        <time>2012-03-13T14:37:29.000Z</time>
      </trkpt>
      <trkpt lat="44.95384" lon="0.39864">
        <ele>161</ele>
        <time>2012-03-13T14:37:31.000Z</time>
      </trkpt>
      <trkpt lat="44.95389" lon="0.39859">
        <ele>158</ele>
        <time>2012-03-13T14:37:33.000Z</time>
      </trkpt>
      <trkpt lat="44.95393" lon="0.39855">
        <ele>157</ele>
        <time>2012-03-13T14:37:35.000Z</time>
      </trkpt>
      <trkpt lat="44.95397" lon="0.3985">
        <ele>157</ele>
        <time>2012-03-13T14:38:01.000Z</time>
      </trkpt>
      <trkpt lat="44.95402" lon="0.39847">
        <ele>158</ele>
        <time>2012-03-13T14:38:13.000Z</time>
      </trkpt>
      <trkpt lat="44.95407" lon="0.39851">
        <ele>153</ele>
        <time>2012-03-13T14:38:20.000Z</time>
      </trkpt>
      <trkpt lat="44.95412" lon="0.39852">
        <ele>157</ele>
        <time>2012-03-13T14:38:28.000Z</time>
      </trkpt>
      <trkpt lat="44.95412" lon="0.39852">
        <ele>157</ele>
        <time>2012-03-13T14:38:28.000Z</time>
      </trkpt>
      <trkpt lat="44.95412" lon="0.39852">
        <ele>157</ele>
        <time>2012-03-13T14:38:35.000Z</time>
      </trkpt>
      <trkpt lat="44.95416" lon="0.39858">
        <ele>157</ele>
        <time>2012-03-13T14:38:39.000Z</time>
      </trkpt>
      <trkpt lat="44.95416" lon="0.39867">
        <ele>157</ele>
        <time>2012-03-13T14:38:44.000Z</time>
      </trkpt>
      <trkpt lat="44.9542" lon="0.39873">
        <ele>157</ele>
        <time>2012-03-13T14:38:47.000Z</time>
      </trkpt>
      <trkpt lat="44.95425" lon="0.39877">
        <ele>158</ele>
        <time>2012-03-13T14:38:51.000Z</time>
      </trkpt>
      <trkpt lat="44.95428" lon="0.39882">
        <ele>158</ele>
        <time>2012-03-13T14:38:55.000Z</time>
      </trkpt>
      <trkpt lat="44.95431" lon="0.39888">
        <ele>158</ele>
        <time>2012-03-13T14:38:59.000Z</time>
      </trkpt>
      <trkpt lat="44.95435" lon="0.39892">
        <ele>159</ele>
        <time>2012-03-13T14:39:04.000Z</time>
      </trkpt>
      <trkpt lat="44.95435" lon="0.39898">
        <ele>162</ele>
        <time>2012-03-13T14:39:07.000Z</time>
      </trkpt>
      <trkpt lat="44.95438" lon="0.39905">
        <ele>163</ele>
        <time>2012-03-13T14:39:10.000Z</time>
      </trkpt>
      <trkpt lat="44.95442" lon="0.39911">
        <ele>161</ele>
        <time>2012-03-13T14:39:18.000Z</time>
      </trkpt>
      <trkpt lat="44.95443" lon="0.39917">
        <ele>165</ele>
        <time>2012-03-13T14:39:28.000Z</time>
      </trkpt>
      <trkpt lat="44.95448" lon="0.3992">
        <ele>162</ele>
        <time>2012-03-13T14:39:36.000Z</time>
      </trkpt>
      <trkpt lat="44.95453" lon="0.39921">
        <ele>163</ele>
        <time>2012-03-13T14:39:44.000Z</time>
      </trkpt>
      <trkpt lat="44.95458" lon="0.39922">
        <ele>167</ele>
        <time>2012-03-13T14:39:52.000Z</time>
      </trkpt>
      <trkpt lat="44.95463" lon="0.39923">
        <ele>171</ele>
        <time>2012-03-13T14:40:00.000Z</time>
      </trkpt>
      <trkpt lat="44.95467" lon="0.39926">
        <ele>169</ele>
        <time>2012-03-13T14:40:04.000Z</time>
      </trkpt>
      <trkpt lat="44.9547" lon="0.39933">
        <ele>173</ele>
        <time>2012-03-13T14:40:12.000Z</time>
      </trkpt>
      <trkpt lat="44.95472" lon="0.39939">
        <ele>174</ele>
        <time>2012-03-13T14:40:18.000Z</time>
      </trkpt>
      <trkpt lat="44.95477" lon="0.39943">
        <ele>173</ele>
        <time>2012-03-13T14:40:22.000Z</time>
      </trkpt>
      <trkpt lat="44.95481" lon="0.39946">
        <ele>173</ele>
        <time>2012-03-13T14:40:26.000Z</time>
      </trkpt>
      <trkpt lat="44.95485" lon="0.39952">
        <ele>171</ele>
        <time>2012-03-13T14:40:32.000Z</time>
      </trkpt>
      <trkpt lat="44.9549" lon="0.39955">
        <ele>170</ele>
        <time>2012-03-13T14:40:38.000Z</time>
      </trkpt>
      <trkpt lat="44.95494" lon="0.39958">
        <ele>171</ele>
        <time>2012-03-13T14:40:43.000Z</time>
      </trkpt>
      <trkpt lat="44.95498" lon="0.39956">
        <ele>170</ele>
        <time>2012-03-13T14:40:48.000Z</time>
      </trkpt>
      <trkpt lat="44.95504" lon="0.39955">
        <ele>168</ele>
        <time>2012-03-13T14:40:54.000Z</time>
      </trkpt>
      <trkpt lat="44.95509" lon="0.39955">
        <ele>169</ele>
        <time>2012-03-13T14:41:01.000Z</time>
      </trkpt>
      <trkpt lat="44.95515" lon="0.39955">
        <ele>167</ele>
        <time>2012-03-13T14:41:05.000Z</time>
      </trkpt>
      <trkpt lat="44.95518" lon="0.3995">
        <ele>166</ele>
        <time>2012-03-13T14:41:10.000Z</time>
      </trkpt>
      <trkpt lat="44.95521" lon="0.39946">
        <ele>164</ele>
        <time>2012-03-13T14:41:14.000Z</time>
      </trkpt>
      <trkpt lat="44.95526" lon="0.39943">
        <ele>168</ele>
        <time>2012-03-13T14:41:21.000Z</time>
      </trkpt>
      <trkpt lat="44.95533" lon="0.39947">
        <ele>168</ele>
        <time>2012-03-13T14:41:24.000Z</time>
      </trkpt>
      <trkpt lat="44.95538" lon="0.39944">
        <ele>168</ele>
        <time>2012-03-13T14:41:28.000Z</time>
      </trkpt>
      <trkpt lat="44.95539" lon="0.39938">
        <ele>169</ele>
        <time>2012-03-13T14:41:32.000Z</time>
      </trkpt>
      <trkpt lat="44.95541" lon="0.39932">
        <ele>170</ele>
        <time>2012-03-13T14:41:36.000Z</time>
      </trkpt>
      <trkpt lat="44.95541" lon="0.39932">
        <ele>170</ele>
        <time>2012-03-13T14:41:36.000Z</time>
      </trkpt>
      <trkpt lat="44.95541" lon="0.39932">
        <ele>170</ele>
        <time>2012-03-13T14:41:37.000Z</time>
      </trkpt>
      <trkpt lat="44.95543" lon="0.39925">
        <ele>173</ele>
        <time>2012-03-13T14:41:43.000Z</time>
      </trkpt>
      <trkpt lat="44.95545" lon="0.39917">
        <ele>175</ele>
        <time>2012-03-13T14:41:48.000Z</time>
      </trkpt>
      <trkpt lat="44.95549" lon="0.39911">
        <ele>178</ele>
        <time>2012-03-13T14:41:56.000Z</time>
      </trkpt>
      <trkpt lat="44.95555" lon="0.3991">
        <ele>175</ele>
        <time>2012-03-13T14:42:00.000Z</time>
      </trkpt>
      <trkpt lat="44.95559" lon="0.39906">
        <ele>178</ele>
        <time>2012-03-13T14:42:05.000Z</time>
      </trkpt>
      <trkpt lat="44.95563" lon="0.39903">
        <ele>179</ele>
        <time>2012-03-13T14:42:09.000Z</time>
      </trkpt>
      <trkpt lat="44.95567" lon="0.39898">
        <ele>179</ele>
        <time>2012-03-13T14:42:15.000Z</time>
      </trkpt>
      <trkpt lat="44.95573" lon="0.39899">
        <ele>176</ele>
        <time>2012-03-13T14:42:20.000Z</time>
      </trkpt>
      <trkpt lat="44.95577" lon="0.39896">
        <ele>177</ele>
        <time>2012-03-13T14:42:25.000Z</time>
      </trkpt>
      <trkpt lat="44.95582" lon="0.39894">
        <ele>174</ele>
        <time>2012-03-13T14:42:29.000Z</time>
      </trkpt>
      <trkpt lat="44.95587" lon="0.39893">
        <ele>177</ele>
        <time>2012-03-13T14:42:37.000Z</time>
      </trkpt>
      <trkpt lat="44.95592" lon="0.39889">
        <ele>178</ele>
        <time>2012-03-13T14:42:42.000Z</time>
      </trkpt>
      <trkpt lat="44.95596" lon="0.39886">
        <ele>180</ele>
        <time>2012-03-13T14:42:44.000Z</time>
      </trkpt>
      <trkpt lat="44.95601" lon="0.39882">
        <ele>180</ele>
        <time>2012-03-13T14:42:46.000Z</time>
      </trkpt>
      <trkpt lat="44.95606" lon="0.39878">
        <ele>179</ele>
        <time>2012-03-13T14:42:49.000Z</time>
      </trkpt>
      <trkpt lat="44.95609" lon="0.39873">
        <ele>178</ele>
        <time>2012-03-13T14:42:51.000Z</time>
      </trkpt>
      <trkpt lat="44.95614" lon="0.3987">
        <ele>177</ele>
        <time>2012-03-13T14:42:53.000Z</time>
      </trkpt>
      <trkpt lat="44.95618" lon="0.39869">
        <ele>176</ele>
        <time>2012-03-13T14:42:55.000Z</time>
      </trkpt>
      <trkpt lat="44.95623" lon="0.39864">
        <ele>177</ele>
        <time>2012-03-13T14:42:58.000Z</time>
      </trkpt>
      <trkpt lat="44.95627" lon="0.3986">
        <ele>176</ele>
        <time>2012-03-13T14:43:00.000Z</time>
      </trkpt>
      <trkpt lat="44.95632" lon="0.39855">
        <ele>176</ele>
        <time>2012-03-13T14:43:03.000Z</time>
      </trkpt>
      <trkpt lat="44.95639" lon="0.39854">
        <ele>174</ele>
        <time>2012-03-13T14:43:06.000Z</time>
      </trkpt>
      <trkpt lat="44.95644" lon="0.39854">
        <ele>174</ele>
        <time>2012-03-13T14:43:09.000Z</time>
      </trkpt>
      <trkpt lat="44.95649" lon="0.39858">
        <ele>174</ele>
        <time>2012-03-13T14:43:12.000Z</time>
      </trkpt>
      <trkpt lat="44.95654" lon="0.39862">
        <ele>174</ele>
        <time>2012-03-13T14:43:14.000Z</time>
      </trkpt>
      <trkpt lat="44.9566" lon="0.39867">
        <ele>173</ele>
        <time>2012-03-13T14:43:16.000Z</time>
      </trkpt>
      <trkpt lat="44.95664" lon="0.39871">
        <ele>173</ele>
        <time>2012-03-13T14:43:18.000Z</time>
      </trkpt>
      <trkpt lat="44.95669" lon="0.39875">
        <ele>173</ele>
        <time>2012-03-13T14:43:20.000Z</time>
      </trkpt>
      <trkpt lat="44.95675" lon="0.39879">
        <ele>174</ele>
        <time>2012-03-13T14:43:22.000Z</time>
      </trkpt>
      <trkpt lat="44.9568" lon="0.39883">
        <ele>174</ele>
        <time>2012-03-13T14:43:24.000Z</time>
      </trkpt>
      <trkpt lat="44.95687" lon="0.39886">
        <ele>174</ele>
        <time>2012-03-13T14:43:26.000Z</time>
      </trkpt>
      <trkpt lat="44.95692" lon="0.39886">
        <ele>175</ele>
        <time>2012-03-13T14:43:29.000Z</time>
      </trkpt>
      <trkpt lat="44.95698" lon="0.39882">
        <ele>175</ele>
        <time>2012-03-13T14:43:32.000Z</time>
      </trkpt>
      <trkpt lat="44.95706" lon="0.39881">
        <ele>175</ele>
        <time>2012-03-13T14:43:34.000Z</time>
      </trkpt>
      <trkpt lat="44.95713" lon="0.39882">
        <ele>178</ele>
        <time>2012-03-13T14:43:37.000Z</time>
      </trkpt>
      <trkpt lat="44.95718" lon="0.39881">
        <ele>179</ele>
        <time>2012-03-13T14:43:39.000Z</time>
      </trkpt>
      <trkpt lat="44.95723" lon="0.39881">
        <ele>179</ele>
        <time>2012-03-13T14:43:42.000Z</time>
      </trkpt>
      <trkpt lat="44.95729" lon="0.39882">
        <ele>180</ele>
        <time>2012-03-13T14:43:46.000Z</time>
      </trkpt>
      <trkpt lat="44.95736" lon="0.39885">
        <ele>184</ele>
        <time>2012-03-13T14:43:49.000Z</time>
      </trkpt>
      <trkpt lat="44.95743" lon="0.39893">
        <ele>183</ele>
        <time>2012-03-13T14:43:51.000Z</time>
      </trkpt>
      <trkpt lat="44.95748" lon="0.399">
        <ele>182</ele>
        <time>2012-03-13T14:43:53.000Z</time>
      </trkpt>
      <trkpt lat="44.95752" lon="0.39903">
        <ele>182</ele>
        <time>2012-03-13T14:43:55.000Z</time>
      </trkpt>
      <trkpt lat="44.95757" lon="0.39905">
        <ele>182</ele>
        <time>2012-03-13T14:43:57.000Z</time>
      </trkpt>
      <trkpt lat="44.95764" lon="0.39908">
        <ele>185</ele>
        <time>2012-03-13T14:44:00.000Z</time>
      </trkpt>
      <trkpt lat="44.9577" lon="0.39912">
        <ele>185</ele>
        <time>2012-03-13T14:44:02.000Z</time>
      </trkpt>
      <trkpt lat="44.95774" lon="0.39917">
        <ele>185</ele>
        <time>2012-03-13T14:44:03.000Z</time>
      </trkpt>
      <trkpt lat="44.9578" lon="0.39922">
        <ele>185</ele>
        <time>2012-03-13T14:44:05.000Z</time>
      </trkpt>
      <trkpt lat="44.95786" lon="0.39928">
        <ele>184</ele>
        <time>2012-03-13T14:44:07.000Z</time>
      </trkpt>
      <trkpt lat="44.95791" lon="0.39935">
        <ele>184</ele>
        <time>2012-03-13T14:44:09.000Z</time>
      </trkpt>
      <trkpt lat="44.95797" lon="0.39942">
        <ele>183</ele>
        <time>2012-03-13T14:44:11.000Z</time>
      </trkpt>
      <trkpt lat="44.95802" lon="0.39949">
        <ele>183</ele>
        <time>2012-03-13T14:44:13.000Z</time>
      </trkpt>
      <trkpt lat="44.95806" lon="0.39952">
        <ele>183</ele>
        <time>2012-03-13T14:44:14.000Z</time>
      </trkpt>
      <trkpt lat="44.9581" lon="0.39958">
        <ele>183</ele>
        <time>2012-03-13T14:44:16.000Z</time>
      </trkpt>
      <trkpt lat="44.95814" lon="0.39965">
        <ele>184</ele>
        <time>2012-03-13T14:44:18.000Z</time>
      </trkpt>
      <trkpt lat="44.95819" lon="0.39973">
        <ele>184</ele>
        <time>2012-03-13T14:44:20.000Z</time>
      </trkpt>
      <trkpt lat="44.95823" lon="0.39979">
        <ele>185</ele>
        <time>2012-03-13T14:44:22.000Z</time>
      </trkpt>
      <trkpt lat="44.95828" lon="0.39986">
        <ele>185</ele>
        <time>2012-03-13T14:44:24.000Z</time>
      </trkpt>
      <trkpt lat="44.95834" lon="0.39996">
        <ele>186</ele>
        <time>2012-03-13T14:44:27.000Z</time>
      </trkpt>
      <trkpt lat="44.95836" lon="0.40004">
        <ele>187</ele>
        <time>2012-03-13T14:44:29.000Z</time>
      </trkpt>
      <trkpt lat="44.9584" lon="0.40011">
        <ele>188</ele>
        <time>2012-03-13T14:44:31.000Z</time>
      </trkpt>
      <trkpt lat="44.95844" lon="0.40019">
        <ele>188</ele>
        <time>2012-03-13T14:44:33.000Z</time>
      </trkpt>
      <trkpt lat="44.95847" lon="0.40024">
        <ele>188</ele>
        <time>2012-03-13T14:44:34.000Z</time>
      </trkpt>
      <trkpt lat="44.9585" lon="0.4003">
        <ele>187</ele>
        <time>2012-03-13T14:44:35.000Z</time>
      </trkpt>
      <trkpt lat="44.95854" lon="0.40038">
        <ele>188</ele>
        <time>2012-03-13T14:44:37.000Z</time>
      </trkpt>
      <trkpt lat="44.95858" lon="0.40046">
        <ele>189</ele>
        <time>2012-03-13T14:44:39.000Z</time>
      </trkpt>
      <trkpt lat="44.95863" lon="0.40055">
        <ele>188</ele>
        <time>2012-03-13T14:44:41.000Z</time>
      </trkpt>
      <trkpt lat="44.95866" lon="0.40064">
        <ele>188</ele>
        <time>2012-03-13T14:44:43.000Z</time>
      </trkpt>
      <trkpt lat="44.9587" lon="0.40072">
        <ele>187</ele>
        <time>2012-03-13T14:44:45.000Z</time>
      </trkpt>
      <trkpt lat="44.95874" lon="0.40079">
        <ele>187</ele>
        <time>2012-03-13T14:44:47.000Z</time>
      </trkpt>
      <trkpt lat="44.95881" lon="0.40079">
        <ele>185</ele>
        <time>2012-03-13T14:44:49.000Z</time>
      </trkpt>
      <trkpt lat="44.95888" lon="0.40073">
        <ele>184</ele>
        <time>2012-03-13T14:44:51.000Z</time>
      </trkpt>
      <trkpt lat="44.95892" lon="0.40064">
        <ele>184</ele>
        <time>2012-03-13T14:44:53.000Z</time>
      </trkpt>
      <trkpt lat="44.95897" lon="0.40054">
        <ele>185</ele>
        <time>2012-03-13T14:44:55.000Z</time>
      </trkpt>
      <trkpt lat="44.95902" lon="0.40045">
        <ele>185</ele>
        <time>2012-03-13T14:44:57.000Z</time>
      </trkpt>
      <trkpt lat="44.95907" lon="0.40037">
        <ele>184</ele>
        <time>2012-03-13T14:44:59.000Z</time>
      </trkpt>
      <trkpt lat="44.95915" lon="0.40034">
        <ele>183</ele>
        <time>2012-03-13T14:45:01.000Z</time>
      </trkpt>
      <trkpt lat="44.95924" lon="0.40035">
        <ele>183</ele>
        <time>2012-03-13T14:45:03.000Z</time>
      </trkpt>
      <trkpt lat="44.95932" lon="0.40039">
        <ele>184</ele>
        <time>2012-03-13T14:45:05.000Z</time>
      </trkpt>
      <trkpt lat="44.9594" lon="0.40042">
        <ele>184</ele>
        <time>2012-03-13T14:45:07.000Z</time>
      </trkpt>
      <trkpt lat="44.95948" lon="0.40044">
        <ele>185</ele>
        <time>2012-03-13T14:45:09.000Z</time>
      </trkpt>
      <trkpt lat="44.95955" lon="0.40046">
        <ele>185</ele>
        <time>2012-03-13T14:45:11.000Z</time>
      </trkpt>
      <trkpt lat="44.95959" lon="0.40051">
        <ele>184</ele>
        <time>2012-03-13T14:45:13.000Z</time>
      </trkpt>
      <trkpt lat="44.9596" lon="0.40059">
        <ele>184</ele>
        <time>2012-03-13T14:45:15.000Z</time>
      </trkpt>
      <trkpt lat="44.95958" lon="0.4007">
        <ele>184</ele>
        <time>2012-03-13T14:45:17.000Z</time>
      </trkpt>
      <trkpt lat="44.95959" lon="0.40081">
        <ele>183</ele>
        <time>2012-03-13T14:45:19.000Z</time>
      </trkpt>
      <trkpt lat="44.9596" lon="0.40087">
        <ele>183</ele>
        <time>2012-03-13T14:45:20.000Z</time>
      </trkpt>
      <trkpt lat="44.95963" lon="0.40098">
        <ele>183</ele>
        <time>2012-03-13T14:45:22.000Z</time>
      </trkpt>
      <trkpt lat="44.95967" lon="0.40107">
        <ele>182</ele>
        <time>2012-03-13T14:45:24.000Z</time>
      </trkpt>
      <trkpt lat="44.95973" lon="0.40115">
        <ele>181</ele>
        <time>2012-03-13T14:45:26.000Z</time>
      </trkpt>
      <trkpt lat="44.95979" lon="0.40121">
        <ele>182</ele>
        <time>2012-03-13T14:45:28.000Z</time>
      </trkpt>
      <trkpt lat="44.95986" lon="0.40127">
        <ele>182</ele>
        <time>2012-03-13T14:45:30.000Z</time>
      </trkpt>
      <trkpt lat="44.95992" lon="0.40136">
        <ele>182</ele>
        <time>2012-03-13T14:45:32.000Z</time>
      </trkpt>
      <trkpt lat="44.95998" lon="0.40145">
        <ele>181</ele>
        <time>2012-03-13T14:45:34.000Z</time>
      </trkpt>
      <trkpt lat="44.96" lon="0.40157">
        <ele>180</ele>
        <time>2012-03-13T14:45:36.000Z</time>
      </trkpt>
      <trkpt lat="44.96001" lon="0.40168">
        <ele>180</ele>
        <time>2012-03-13T14:45:38.000Z</time>
      </trkpt>
      <trkpt lat="44.96008" lon="0.40173">
        <ele>180</ele>
        <time>2012-03-13T14:45:40.000Z</time>
      </trkpt>
      <trkpt lat="44.96015" lon="0.40175">
        <ele>179</ele>
        <time>2012-03-13T14:45:42.000Z</time>
      </trkpt>
      <trkpt lat="44.96024" lon="0.40178">
        <ele>179</ele>
        <time>2012-03-13T14:45:44.000Z</time>
      </trkpt>
      <trkpt lat="44.96031" lon="0.40181">
        <ele>179</ele>
        <time>2012-03-13T14:45:46.000Z</time>
      </trkpt>
      <trkpt lat="44.96047" lon="0.40184">
        <ele>179</ele>
        <time>2012-03-13T14:45:50.000Z</time>
      </trkpt>
      <trkpt lat="44.96052" lon="0.4018">
        <ele>178</ele>
        <time>2012-03-13T14:45:54.000Z</time>
      </trkpt>
      <trkpt lat="44.96058" lon="0.40178">
        <ele>176</ele>
        <time>2012-03-13T14:45:59.000Z</time>
      </trkpt>
      <trkpt lat="44.96058" lon="0.40178">
        <ele>176</ele>
        <time>2012-03-13T14:45:59.000Z</time>
      </trkpt>
      <trkpt lat="44.96058" lon="0.40178">
        <ele>176</ele>
        <time>2012-03-13T14:46:08.000Z</time>
      </trkpt>
      <trkpt lat="44.96062" lon="0.4018">
        <ele>175</ele>
        <time>2012-03-13T14:46:34.000Z</time>
      </trkpt>
      <trkpt lat="44.9607" lon="0.40182">
        <ele>177</ele>
        <time>2012-03-13T14:46:38.000Z</time>
      </trkpt>
      <trkpt lat="44.96078" lon="0.4018">
        <ele>177</ele>
        <time>2012-03-13T14:46:40.000Z</time>
      </trkpt>
      <trkpt lat="44.96083" lon="0.40183">
        <ele>177</ele>
        <time>2012-03-13T14:46:42.000Z</time>
      </trkpt>
      <trkpt lat="44.9609" lon="0.40183">
        <ele>178</ele>
        <time>2012-03-13T14:46:44.000Z</time>
      </trkpt>
      <trkpt lat="44.96097" lon="0.40183">
        <ele>178</ele>
        <time>2012-03-13T14:46:46.000Z</time>
      </trkpt>
      <trkpt lat="44.96104" lon="0.40185">
        <ele>178</ele>
        <time>2012-03-13T14:46:48.000Z</time>
      </trkpt>
      <trkpt lat="44.96111" lon="0.40189">
        <ele>178</ele>
        <time>2012-03-13T14:46:50.000Z</time>
      </trkpt>
      <trkpt lat="44.96119" lon="0.40194">
        <ele>178</ele>
        <time>2012-03-13T14:46:52.000Z</time>
      </trkpt>
      <trkpt lat="44.96125" lon="0.402">
        <ele>179</ele>
        <time>2012-03-13T14:46:54.000Z</time>
      </trkpt>
      <trkpt lat="44.96132" lon="0.40204">
        <ele>178</ele>
        <time>2012-03-13T14:46:56.000Z</time>
      </trkpt>
      <trkpt lat="44.9614" lon="0.40208">
        <ele>175</ele>
        <time>2012-03-13T14:46:58.000Z</time>
      </trkpt>
      <trkpt lat="44.96146" lon="0.40213">
        <ele>175</ele>
        <time>2012-03-13T14:47:00.000Z</time>
      </trkpt>
      <trkpt lat="44.96153" lon="0.4022">
        <ele>173</ele>
        <time>2012-03-13T14:47:02.000Z</time>
      </trkpt>
      <trkpt lat="44.9616" lon="0.40225">
        <ele>172</ele>
        <time>2012-03-13T14:47:04.000Z</time>
      </trkpt>
      <trkpt lat="44.96164" lon="0.40229">
        <ele>174</ele>
        <time>2012-03-13T14:47:05.000Z</time>
      </trkpt>
      <trkpt lat="44.96171" lon="0.40233">
        <ele>173</ele>
        <time>2012-03-13T14:47:07.000Z</time>
      </trkpt>
      <trkpt lat="44.96179" lon="0.40235">
        <ele>171</ele>
        <time>2012-03-13T14:47:09.000Z</time>
      </trkpt>
      <trkpt lat="44.96188" lon="0.40235">
        <ele>170</ele>
        <time>2012-03-13T14:47:11.000Z</time>
      </trkpt>
      <trkpt lat="44.96197" lon="0.40234">
        <ele>169</ele>
        <time>2012-03-13T14:47:13.000Z</time>
      </trkpt>
      <trkpt lat="44.96205" lon="0.40234">
        <ele>169</ele>
        <time>2012-03-13T14:47:15.000Z</time>
      </trkpt>
      <trkpt lat="44.9621" lon="0.40235">
        <ele>169</ele>
        <time>2012-03-13T14:47:16.000Z</time>
      </trkpt>
      <trkpt lat="44.96219" lon="0.40238">
        <ele>169</ele>
        <time>2012-03-13T14:47:18.000Z</time>
      </trkpt>
      <trkpt lat="44.96223" lon="0.40239">
        <ele>169</ele>
        <time>2012-03-13T14:47:19.000Z</time>
      </trkpt>
      <trkpt lat="44.96232" lon="0.40236">
        <ele>168</ele>
        <time>2012-03-13T14:47:21.000Z</time>
      </trkpt>
      <trkpt lat="44.96242" lon="0.40234">
        <ele>167</ele>
        <time>2012-03-13T14:47:23.000Z</time>
      </trkpt>
      <trkpt lat="44.96246" lon="0.40232">
        <ele>166</ele>
        <time>2012-03-13T14:47:24.000Z</time>
      </trkpt>
      <trkpt lat="44.96252" lon="0.40232">
        <ele>166</ele>
        <time>2012-03-13T14:47:25.000Z</time>
      </trkpt>
      <trkpt lat="44.96257" lon="0.40232">
        <ele>166</ele>
        <time>2012-03-13T14:47:26.000Z</time>
      </trkpt>
      <trkpt lat="44.96267" lon="0.40229">
        <ele>165</ele>
        <time>2012-03-13T14:47:28.000Z</time>
      </trkpt>
      <trkpt lat="44.96273" lon="0.40228">
        <ele>164</ele>
        <time>2012-03-13T14:47:29.000Z</time>
      </trkpt>
      <trkpt lat="44.9628" lon="0.40228">
        <ele>164</ele>
        <time>2012-03-13T14:47:30.000Z</time>
      </trkpt>
      <trkpt lat="44.96285" lon="0.40227">
        <ele>164</ele>
        <time>2012-03-13T14:47:31.000Z</time>
      </trkpt>
      <trkpt lat="44.96292" lon="0.40228">
        <ele>163</ele>
        <time>2012-03-13T14:47:32.000Z</time>
      </trkpt>
      <trkpt lat="44.96298" lon="0.40229">
        <ele>164</ele>
        <time>2012-03-13T14:47:33.000Z</time>
      </trkpt>
      <trkpt lat="44.96304" lon="0.4023">
        <ele>164</ele>
        <time>2012-03-13T14:47:34.000Z</time>
      </trkpt>
      <trkpt lat="44.96309" lon="0.4023">
        <ele>164</ele>
        <time>2012-03-13T14:47:35.000Z</time>
      </trkpt>
      <trkpt lat="44.96315" lon="0.4023">
        <ele>164</ele>
        <time>2012-03-13T14:47:36.000Z</time>
      </trkpt>
      <trkpt lat="44.9632" lon="0.4023">
        <ele>164</ele>
        <time>2012-03-13T14:47:37.000Z</time>
      </trkpt>
      <trkpt lat="44.96326" lon="0.40229">
        <ele>164</ele>
        <time>2012-03-13T14:47:38.000Z</time>
      </trkpt>
      <trkpt lat="44.96332" lon="0.40227">
        <ele>164</ele>
        <time>2012-03-13T14:47:39.000Z</time>
      </trkpt>
      <trkpt lat="44.9634" lon="0.4022">
        <ele>164</ele>
        <time>2012-03-13T14:47:40.000Z</time>
      </trkpt>
      <trkpt lat="44.96345" lon="0.40211">
        <ele>163</ele>
        <time>2012-03-13T14:47:41.000Z</time>
      </trkpt>
      <trkpt lat="44.96352" lon="0.40206">
        <ele>163</ele>
        <time>2012-03-13T14:47:42.000Z</time>
      </trkpt>
      <trkpt lat="44.96347" lon="0.40211">
        <ele>162</ele>
        <time>2012-03-13T14:47:43.000Z</time>
      </trkpt>
      <trkpt lat="44.9635" lon="0.4022">
        <ele>161</ele>
        <time>2012-03-13T14:47:45.000Z</time>
      </trkpt>
      <trkpt lat="44.96354" lon="0.40228">
        <ele>161</ele>
        <time>2012-03-13T14:47:47.000Z</time>
      </trkpt>
      <trkpt lat="44.96359" lon="0.40232">
        <ele>161</ele>
        <time>2012-03-13T14:47:49.000Z</time>
      </trkpt>
      <trkpt lat="44.96366" lon="0.40237">
        <ele>161</ele>
        <time>2012-03-13T14:47:51.000Z</time>
      </trkpt>
      <trkpt lat="44.96372" lon="0.40242">
        <ele>161</ele>
        <time>2012-03-13T14:47:53.000Z</time>
      </trkpt>
      <trkpt lat="44.96377" lon="0.4025">
        <ele>164</ele>
        <time>2012-03-13T14:47:55.000Z</time>
      </trkpt>
      <trkpt lat="44.96383" lon="0.40257">
        <ele>164</ele>
        <time>2012-03-13T14:47:57.000Z</time>
      </trkpt>
      <trkpt lat="44.96388" lon="0.40267">
        <ele>164</ele>
        <time>2012-03-13T14:47:59.000Z</time>
      </trkpt>
      <trkpt lat="44.96392" lon="0.40277">
        <ele>163</ele>
        <time>2012-03-13T14:48:01.000Z</time>
      </trkpt>
      <trkpt lat="44.96394" lon="0.40286">
        <ele>163</ele>
        <time>2012-03-13T14:48:03.000Z</time>
      </trkpt>
      <trkpt lat="44.96394" lon="0.40292">
        <ele>162</ele>
        <time>2012-03-13T14:48:19.000Z</time>
      </trkpt>
      <trkpt lat="44.96391" lon="0.40298">
        <ele>162</ele>
        <time>2012-03-13T14:48:21.000Z</time>
      </trkpt>
      <trkpt lat="44.96388" lon="0.40304">
        <ele>162</ele>
        <time>2012-03-13T14:48:23.000Z</time>
      </trkpt>
      <trkpt lat="44.96388" lon="0.40304">
        <ele>162</ele>
        <time>2012-03-13T14:48:23.000Z</time>
      </trkpt>
      <trkpt lat="44.96388" lon="0.40304">
        <ele>161</ele>
        <time>2012-03-13T14:48:26.000Z</time>
      </trkpt>
      <trkpt lat="44.96385" lon="0.4031">
        <ele>160</ele>
        <time>2012-03-13T14:48:32.000Z</time>
      </trkpt>
      <trkpt lat="44.96383" lon="0.40317">
        <ele>161</ele>
        <time>2012-03-13T14:48:36.000Z</time>
      </trkpt>
      <trkpt lat="44.96386" lon="0.40325">
        <ele>159</ele>
        <time>2012-03-13T14:48:39.000Z</time>
      </trkpt>
      <trkpt lat="44.96389" lon="0.40334">
        <ele>158</ele>
        <time>2012-03-13T14:48:41.000Z</time>
      </trkpt>
      <trkpt lat="44.96394" lon="0.40341">
        <ele>160</ele>
        <time>2012-03-13T14:48:43.000Z</time>
      </trkpt>
      <trkpt lat="44.96397" lon="0.40349">
        <ele>161</ele>
        <time>2012-03-13T14:48:45.000Z</time>
      </trkpt>
      <trkpt lat="44.96401" lon="0.40358">
        <ele>162</ele>
        <time>2012-03-13T14:48:47.000Z</time>
      </trkpt>
      <trkpt lat="44.96405" lon="0.40362">
        <ele>163</ele>
        <time>2012-03-13T14:48:48.000Z</time>
      </trkpt>
      <trkpt lat="44.96408" lon="0.40367">
        <ele>163</ele>
        <time>2012-03-13T14:48:49.000Z</time>
      </trkpt>
      <trkpt lat="44.96413" lon="0.40374">
        <ele>163</ele>
        <time>2012-03-13T14:48:51.000Z</time>
      </trkpt>
      <trkpt lat="44.96418" lon="0.40381">
        <ele>163</ele>
        <time>2012-03-13T14:48:53.000Z</time>
      </trkpt>
      <trkpt lat="44.96423" lon="0.40388">
        <ele>163</ele>
        <time>2012-03-13T14:48:55.000Z</time>
      </trkpt>
      <trkpt lat="44.96428" lon="0.40395">
        <ele>162</ele>
        <time>2012-03-13T14:48:57.000Z</time>
      </trkpt>
      <trkpt lat="44.96433" lon="0.40403">
        <ele>163</ele>
        <time>2012-03-13T14:48:59.000Z</time>
      </trkpt>
      <trkpt lat="44.96437" lon="0.40411">
        <ele>163</ele>
        <time>2012-03-13T14:49:01.000Z</time>
      </trkpt>
      <trkpt lat="44.96441" lon="0.4042">
        <ele>163</ele>
        <time>2012-03-13T14:49:03.000Z</time>
      </trkpt>
      <trkpt lat="44.96444" lon="0.40428">
        <ele>163</ele>
        <time>2012-03-13T14:49:05.000Z</time>
      </trkpt>
      <trkpt lat="44.96448" lon="0.40436">
        <ele>163</ele>
        <time>2012-03-13T14:49:07.000Z</time>
      </trkpt>
      <trkpt lat="44.96451" lon="0.40446">
        <ele>163</ele>
        <time>2012-03-13T14:49:09.000Z</time>
      </trkpt>
      <trkpt lat="44.96455" lon="0.40454">
        <ele>164</ele>
        <time>2012-03-13T14:49:11.000Z</time>
      </trkpt>
      <trkpt lat="44.96458" lon="0.40458">
        <ele>164</ele>
        <time>2012-03-13T14:49:13.000Z</time>
      </trkpt>
      <trkpt lat="44.96463" lon="0.40458">
        <ele>163</ele>
        <time>2012-03-13T14:49:15.000Z</time>
      </trkpt>
      <trkpt lat="44.96469" lon="0.40451">
        <ele>164</ele>
        <time>2012-03-13T14:49:17.000Z</time>
      </trkpt>
      <trkpt lat="44.96474" lon="0.40445">
        <ele>164</ele>
        <time>2012-03-13T14:49:18.000Z</time>
      </trkpt>
      <trkpt lat="44.96478" lon="0.4044">
        <ele>163</ele>
        <time>2012-03-13T14:49:19.000Z</time>
      </trkpt>
      <trkpt lat="44.96483" lon="0.40436">
        <ele>162</ele>
        <time>2012-03-13T14:49:20.000Z</time>
      </trkpt>
      <trkpt lat="44.96489" lon="0.40432">
        <ele>161</ele>
        <time>2012-03-13T14:49:21.000Z</time>
      </trkpt>
      <trkpt lat="44.96495" lon="0.40428">
        <ele>161</ele>
        <time>2012-03-13T14:49:22.000Z</time>
      </trkpt>
      <trkpt lat="44.96503" lon="0.40423">
        <ele>160</ele>
        <time>2012-03-13T14:49:23.000Z</time>
      </trkpt>
      <trkpt lat="44.96512" lon="0.40418">
        <ele>159</ele>
        <time>2012-03-13T14:49:24.000Z</time>
      </trkpt>
      <trkpt lat="44.9652" lon="0.40414">
        <ele>159</ele>
        <time>2012-03-13T14:49:25.000Z</time>
      </trkpt>
      <trkpt lat="44.96528" lon="0.4041">
        <ele>159</ele>
        <time>2012-03-13T14:49:26.000Z</time>
      </trkpt>
      <trkpt lat="44.96536" lon="0.40405">
        <ele>159</ele>
        <time>2012-03-13T14:49:27.000Z</time>
      </trkpt>
      <trkpt lat="44.96543" lon="0.404">
        <ele>159</ele>
        <time>2012-03-13T14:49:28.000Z</time>
      </trkpt>
      <trkpt lat="44.96551" lon="0.40395">
        <ele>159</ele>
        <time>2012-03-13T14:49:29.000Z</time>
      </trkpt>
      <trkpt lat="44.96558" lon="0.4039">
        <ele>158</ele>
        <time>2012-03-13T14:49:30.000Z</time>
      </trkpt>
      <trkpt lat="44.96572" lon="0.40381">
        <ele>158</ele>
        <time>2012-03-13T14:49:32.000Z</time>
      </trkpt>
      <trkpt lat="44.96583" lon="0.40374">
        <ele>159</ele>
        <time>2012-03-13T14:49:34.000Z</time>
      </trkpt>
      <trkpt lat="44.96588" lon="0.40372">
        <ele>158</ele>
        <time>2012-03-13T14:49:36.000Z</time>
      </trkpt>
      <trkpt lat="44.96583" lon="0.40361">
        <ele>159</ele>
        <time>2012-03-13T14:49:40.000Z</time>
      </trkpt>
      <trkpt lat="44.96578" lon="0.40355">
        <ele>160</ele>
        <time>2012-03-13T14:49:42.000Z</time>
      </trkpt>
      <trkpt lat="44.96575" lon="0.40347">
        <ele>157</ele>
        <time>2012-03-13T14:49:44.000Z</time>
      </trkpt>
      <trkpt lat="44.96572" lon="0.40341">
        <ele>156</ele>
        <time>2012-03-13T14:49:46.000Z</time>
      </trkpt>
      <trkpt lat="44.96566" lon="0.40336">
        <ele>156</ele>
        <time>2012-03-13T14:49:48.000Z</time>
      </trkpt>
      <trkpt lat="44.96561" lon="0.4033">
        <ele>154</ele>
        <time>2012-03-13T14:49:50.000Z</time>
      </trkpt>
      <trkpt lat="44.96554" lon="0.40327">
        <ele>154</ele>
        <time>2012-03-13T14:49:52.000Z</time>
      </trkpt>
      <trkpt lat="44.96548" lon="0.40324">
        <ele>156</ele>
        <time>2012-03-13T14:49:54.000Z</time>
      </trkpt>
      <trkpt lat="44.96542" lon="0.40323">
        <ele>156</ele>
        <time>2012-03-13T14:49:56.000Z</time>
      </trkpt>
      <trkpt lat="44.96536" lon="0.40322">
        <ele>157</ele>
        <time>2012-03-13T14:49:58.000Z</time>
      </trkpt>
      <trkpt lat="44.9653" lon="0.40322">
        <ele>158</ele>
        <time>2012-03-13T14:50:00.000Z</time>
      </trkpt>
      <trkpt lat="44.96523" lon="0.40323">
        <ele>160</ele>
        <time>2012-03-13T14:50:02.000Z</time>
      </trkpt>
      <trkpt lat="44.96517" lon="0.40321">
        <ele>161</ele>
        <time>2012-03-13T14:50:04.000Z</time>
      </trkpt>
      <trkpt lat="44.96511" lon="0.4032">
        <ele>162</ele>
        <time>2012-03-13T14:50:06.000Z</time>
      </trkpt>
      <trkpt lat="44.96507" lon="0.40316">
        <ele>163</ele>
        <time>2012-03-13T14:50:08.000Z</time>
      </trkpt>
      <trkpt lat="44.96502" lon="0.40308">
        <ele>163</ele>
        <time>2012-03-13T14:50:10.000Z</time>
      </trkpt>
      <trkpt lat="44.965" lon="0.40295">
        <ele>164</ele>
        <time>2012-03-13T14:50:12.000Z</time>
      </trkpt>
      <trkpt lat="44.96496" lon="0.40288">
        <ele>166</ele>
        <time>2012-03-13T14:50:14.000Z</time>
      </trkpt>
      <trkpt lat="44.96492" lon="0.4028">
        <ele>166</ele>
        <time>2012-03-13T14:50:16.000Z</time>
      </trkpt>
      <trkpt lat="44.96488" lon="0.40274">
        <ele>167</ele>
        <time>2012-03-13T14:50:18.000Z</time>
      </trkpt>
      <trkpt lat="44.96484" lon="0.40271">
        <ele>167</ele>
        <time>2012-03-13T14:50:20.000Z</time>
      </trkpt>
      <trkpt lat="44.96479" lon="0.40265">
        <ele>167</ele>
        <time>2012-03-13T14:50:22.000Z</time>
      </trkpt>
      <trkpt lat="44.96473" lon="0.40259">
        <ele>167</ele>
        <time>2012-03-13T14:50:24.000Z</time>
      </trkpt>
      <trkpt lat="44.9647" lon="0.40254">
        <ele>168</ele>
        <time>2012-03-13T14:50:26.000Z</time>
      </trkpt>
      <trkpt lat="44.9647" lon="0.40244">
        <ele>169</ele>
        <time>2012-03-13T14:50:28.000Z</time>
      </trkpt>
      <trkpt lat="44.96469" lon="0.40234">
        <ele>169</ele>
        <time>2012-03-13T14:50:30.000Z</time>
      </trkpt>
      <trkpt lat="44.9647" lon="0.40226">
        <ele>169</ele>
        <time>2012-03-13T14:50:32.000Z</time>
      </trkpt>
      <trkpt lat="44.96472" lon="0.40219">
        <ele>168</ele>
        <time>2012-03-13T14:50:34.000Z</time>
      </trkpt>
      <trkpt lat="44.96477" lon="0.40212">
        <ele>168</ele>
        <time>2012-03-13T14:50:36.000Z</time>
      </trkpt>
      <trkpt lat="44.96482" lon="0.40206">
        <ele>168</ele>
        <time>2012-03-13T14:50:38.000Z</time>
      </trkpt>
      <trkpt lat="44.96486" lon="0.402">
        <ele>169</ele>
        <time>2012-03-13T14:50:40.000Z</time>
      </trkpt>
      <trkpt lat="44.9649" lon="0.40193">
        <ele>170</ele>
        <time>2012-03-13T14:50:42.000Z</time>
      </trkpt>
      <trkpt lat="44.96493" lon="0.40188">
        <ele>170</ele>
        <time>2012-03-13T14:50:44.000Z</time>
      </trkpt>
      <trkpt lat="44.96496" lon="0.40178">
        <ele>170</ele>
        <time>2012-03-13T14:50:46.000Z</time>
      </trkpt>
      <trkpt lat="44.965" lon="0.40169">
        <ele>170</ele>
        <time>2012-03-13T14:50:48.000Z</time>
      </trkpt>
      <trkpt lat="44.96503" lon="0.40161">
        <ele>171</ele>
        <time>2012-03-13T14:50:50.000Z</time>
      </trkpt>
      <trkpt lat="44.96506" lon="0.40153">
        <ele>171</ele>
        <time>2012-03-13T14:50:52.000Z</time>
      </trkpt>
      <trkpt lat="44.96509" lon="0.40146">
        <ele>173</ele>
        <time>2012-03-13T14:50:54.000Z</time>
      </trkpt>
      <trkpt lat="44.96512" lon="0.40136">
        <ele>174</ele>
        <time>2012-03-13T14:50:56.000Z</time>
      </trkpt>
      <trkpt lat="44.96513" lon="0.40127">
        <ele>174</ele>
        <time>2012-03-13T14:50:58.000Z</time>
      </trkpt>
      <trkpt lat="44.96513" lon="0.4012">
        <ele>176</ele>
        <time>2012-03-13T14:51:00.000Z</time>
      </trkpt>
      <trkpt lat="44.96513" lon="0.40113">
        <ele>177</ele>
        <time>2012-03-13T14:51:02.000Z</time>
      </trkpt>
      <trkpt lat="44.96514" lon="0.40106">
        <ele>178</ele>
        <time>2012-03-13T14:51:04.000Z</time>
      </trkpt>
      <trkpt lat="44.96515" lon="0.401">
        <ele>179</ele>
        <time>2012-03-13T14:51:06.000Z</time>
      </trkpt>
      <trkpt lat="44.96521" lon="0.40084">
        <ele>181</ele>
        <time>2012-03-13T14:51:11.000Z</time>
      </trkpt>
      <trkpt lat="44.96525" lon="0.40078">
        <ele>182</ele>
        <time>2012-03-13T14:51:14.000Z</time>
      </trkpt>
      <trkpt lat="44.96528" lon="0.4007">
        <ele>182</ele>
        <time>2012-03-13T14:51:16.000Z</time>
      </trkpt>
      <trkpt lat="44.96531" lon="0.4006">
        <ele>181</ele>
        <time>2012-03-13T14:51:18.000Z</time>
      </trkpt>
      <trkpt lat="44.96534" lon="0.40052">
        <ele>180</ele>
        <time>2012-03-13T14:51:20.000Z</time>
      </trkpt>
      <trkpt lat="44.96537" lon="0.40047">
        <ele>182</ele>
        <time>2012-03-13T14:51:22.000Z</time>
      </trkpt>
      <trkpt lat="44.96541" lon="0.40039">
        <ele>183</ele>
        <time>2012-03-13T14:51:25.000Z</time>
      </trkpt>
      <trkpt lat="44.96544" lon="0.40034">
        <ele>184</ele>
        <time>2012-03-13T14:51:27.000Z</time>
      </trkpt>
      <trkpt lat="44.96547" lon="0.40029">
        <ele>185</ele>
        <time>2012-03-13T14:51:29.000Z</time>
      </trkpt>
      <trkpt lat="44.96548" lon="0.40022">
        <ele>185</ele>
        <time>2012-03-13T14:51:31.000Z</time>
      </trkpt>
      <trkpt lat="44.96547" lon="0.40015">
        <ele>185</ele>
        <time>2012-03-13T14:51:33.000Z</time>
      </trkpt>
      <trkpt lat="44.96546" lon="0.40009">
        <ele>185</ele>
        <time>2012-03-13T14:51:35.000Z</time>
      </trkpt>
      <trkpt lat="44.96541" lon="0.40006">
        <ele>187</ele>
        <time>2012-03-13T14:51:37.000Z</time>
      </trkpt>
      <trkpt lat="44.96539" lon="0.39999">
        <ele>188</ele>
        <time>2012-03-13T14:51:39.000Z</time>
      </trkpt>
      <trkpt lat="44.96548" lon="0.39993">
        <ele>185</ele>
        <time>2012-03-13T14:51:41.000Z</time>
      </trkpt>
      <trkpt lat="44.96553" lon="0.3999">
        <ele>185</ele>
        <time>2012-03-13T14:51:42.000Z</time>
      </trkpt>
      <trkpt lat="44.96557" lon="0.39988">
        <ele>184</ele>
        <time>2012-03-13T14:51:43.000Z</time>
      </trkpt>
      <trkpt lat="44.96565" lon="0.39985">
        <ele>185</ele>
        <time>2012-03-13T14:51:45.000Z</time>
      </trkpt>
      <trkpt lat="44.96569" lon="0.39979">
        <ele>185</ele>
        <time>2012-03-13T14:51:46.000Z</time>
      </trkpt>
      <trkpt lat="44.96572" lon="0.39973">
        <ele>185</ele>
        <time>2012-03-13T14:51:47.000Z</time>
      </trkpt>
      <trkpt lat="44.96575" lon="0.39965">
        <ele>185</ele>
        <time>2012-03-13T14:51:48.000Z</time>
      </trkpt>
      <trkpt lat="44.96579" lon="0.3996">
        <ele>185</ele>
        <time>2012-03-13T14:51:49.000Z</time>
      </trkpt>
      <trkpt lat="44.96583" lon="0.39952">
        <ele>186</ele>
        <time>2012-03-13T14:51:50.000Z</time>
      </trkpt>
      <trkpt lat="44.96586" lon="0.39944">
        <ele>186</ele>
        <time>2012-03-13T14:51:51.000Z</time>
      </trkpt>
      <trkpt lat="44.96589" lon="0.39938">
        <ele>186</ele>
        <time>2012-03-13T14:51:52.000Z</time>
      </trkpt>
      <trkpt lat="44.9659" lon="0.39931">
        <ele>186</ele>
        <time>2012-03-13T14:51:53.000Z</time>
      </trkpt>
      <trkpt lat="44.96593" lon="0.39922">
        <ele>186</ele>
        <time>2012-03-13T14:51:54.000Z</time>
      </trkpt>
      <trkpt lat="44.96595" lon="0.39911">
        <ele>185</ele>
        <time>2012-03-13T14:51:55.000Z</time>
      </trkpt>
      <trkpt lat="44.96598" lon="0.39898">
        <ele>184</ele>
        <time>2012-03-13T14:51:56.000Z</time>
      </trkpt>
      <trkpt lat="44.96604" lon="0.3989">
        <ele>183</ele>
        <time>2012-03-13T14:51:57.000Z</time>
      </trkpt>
      <trkpt lat="44.96609" lon="0.39883">
        <ele>183</ele>
        <time>2012-03-13T14:51:58.000Z</time>
      </trkpt>
      <trkpt lat="44.96614" lon="0.3988">
        <ele>183</ele>
        <time>2012-03-13T14:51:59.000Z</time>
      </trkpt>
      <trkpt lat="44.96619" lon="0.39878">
        <ele>182</ele>
        <time>2012-03-13T14:52:00.000Z</time>
      </trkpt>
      <trkpt lat="44.96626" lon="0.39876">
        <ele>183</ele>
        <time>2012-03-13T14:52:02.000Z</time>
      </trkpt>
      <trkpt lat="44.96633" lon="0.39874">
        <ele>183</ele>
        <time>2012-03-13T14:52:04.000Z</time>
      </trkpt>
      <trkpt lat="44.96636" lon="0.39868">
        <ele>183</ele>
        <time>2012-03-13T14:52:06.000Z</time>
      </trkpt>
      <trkpt lat="44.9664" lon="0.3986">
        <ele>185</ele>
        <time>2012-03-13T14:52:08.000Z</time>
      </trkpt>
      <trkpt lat="44.96643" lon="0.39852">
        <ele>184</ele>
        <time>2012-03-13T14:52:09.000Z</time>
      </trkpt>
      <trkpt lat="44.96661" lon="0.39836">
        <ele>184</ele>
        <time>2012-03-13T14:52:12.000Z</time>
      </trkpt>
      <trkpt lat="44.96668" lon="0.39826">
        <ele>182</ele>
        <time>2012-03-13T14:52:13.000Z</time>
      </trkpt>
      <trkpt lat="44.96674" lon="0.39818">
        <ele>182</ele>
        <time>2012-03-13T14:52:14.000Z</time>
      </trkpt>
      <trkpt lat="44.96679" lon="0.3981">
        <ele>183</ele>
        <time>2012-03-13T14:52:15.000Z</time>
      </trkpt>
      <trkpt lat="44.96686" lon="0.39803">
        <ele>182</ele>
        <time>2012-03-13T14:52:16.000Z</time>
      </trkpt>
      <trkpt lat="44.96692" lon="0.39795">
        <ele>182</ele>
        <time>2012-03-13T14:52:17.000Z</time>
      </trkpt>
      <trkpt lat="44.96698" lon="0.39787">
        <ele>181</ele>
        <time>2012-03-13T14:52:18.000Z</time>
      </trkpt>
      <trkpt lat="44.96702" lon="0.39782">
        <ele>180</ele>
        <time>2012-03-13T14:52:19.000Z</time>
      </trkpt>
      <trkpt lat="44.96706" lon="0.39799">
        <ele>180</ele>
        <time>2012-03-13T14:52:20.000Z</time>
      </trkpt>
      <trkpt lat="44.96711" lon="0.39803">
        <ele>178</ele>
        <time>2012-03-13T14:52:21.000Z</time>
      </trkpt>
      <trkpt lat="44.96716" lon="0.39807">
        <ele>178</ele>
        <time>2012-03-13T14:52:22.000Z</time>
      </trkpt>
      <trkpt lat="44.9672" lon="0.3981">
        <ele>177</ele>
        <time>2012-03-13T14:52:23.000Z</time>
      </trkpt>
      <trkpt lat="44.96725" lon="0.39815">
        <ele>176</ele>
        <time>2012-03-13T14:52:24.000Z</time>
      </trkpt>
      <trkpt lat="44.9673" lon="0.39817">
        <ele>176</ele>
        <time>2012-03-13T14:52:25.000Z</time>
      </trkpt>
      <trkpt lat="44.96735" lon="0.39818">
        <ele>175</ele>
        <time>2012-03-13T14:52:27.000Z</time>
      </trkpt>
      <trkpt lat="44.96738" lon="0.39813">
        <ele>175</ele>
        <time>2012-03-13T14:52:30.000Z</time>
      </trkpt>
      <trkpt lat="44.96742" lon="0.39808">
        <ele>173</ele>
        <time>2012-03-13T14:52:33.000Z</time>
      </trkpt>
      <trkpt lat="44.96744" lon="0.39801">
        <ele>168</ele>
        <time>2012-03-13T14:52:47.000Z</time>
      </trkpt>
      <trkpt lat="44.96748" lon="0.39794">
        <ele>170</ele>
        <time>2012-03-13T14:52:50.000Z</time>
      </trkpt>
      <trkpt lat="44.96754" lon="0.39787">
        <ele>174</ele>
        <time>2012-03-13T14:52:53.000Z</time>
      </trkpt>
      <trkpt lat="44.96759" lon="0.39784">
        <ele>173</ele>
        <time>2012-03-13T14:52:54.000Z</time>
      </trkpt>
      <trkpt lat="44.96764" lon="0.39776">
        <ele>172</ele>
        <time>2012-03-13T14:52:56.000Z</time>
      </trkpt>
      <trkpt lat="44.96766" lon="0.39768">
        <ele>172</ele>
        <time>2012-03-13T14:52:58.000Z</time>
      </trkpt>
      <trkpt lat="44.96769" lon="0.39758">
        <ele>170</ele>
        <time>2012-03-13T14:53:00.000Z</time>
      </trkpt>
      <trkpt lat="44.96772" lon="0.3975">
        <ele>170</ele>
        <time>2012-03-13T14:53:02.000Z</time>
      </trkpt>
      <trkpt lat="44.96774" lon="0.39744">
        <ele>170</ele>
        <time>2012-03-13T14:53:04.000Z</time>
      </trkpt>
      <trkpt lat="44.96779" lon="0.39738">
        <ele>170</ele>
        <time>2012-03-13T14:53:06.000Z</time>
      </trkpt>
      <trkpt lat="44.96785" lon="0.3973">
        <ele>170</ele>
        <time>2012-03-13T14:53:08.000Z</time>
      </trkpt>
      <trkpt lat="44.96795" lon="0.39728">
        <ele>168</ele>
        <time>2012-03-13T14:53:10.000Z</time>
      </trkpt>
      <trkpt lat="44.968" lon="0.39726">
        <ele>168</ele>
        <time>2012-03-13T14:53:11.000Z</time>
      </trkpt>
      <trkpt lat="44.96808" lon="0.39726">
        <ele>167</ele>
        <time>2012-03-13T14:53:13.000Z</time>
      </trkpt>
      <trkpt lat="44.96814" lon="0.3973">
        <ele>167</ele>
        <time>2012-03-13T14:53:15.000Z</time>
      </trkpt>
      <trkpt lat="44.96819" lon="0.3973">
        <ele>166</ele>
        <time>2012-03-13T14:53:17.000Z</time>
      </trkpt>
      <trkpt lat="44.96827" lon="0.39726">
        <ele>165</ele>
        <time>2012-03-13T14:53:19.000Z</time>
      </trkpt>
      <trkpt lat="44.96831" lon="0.3972">
        <ele>164</ele>
        <time>2012-03-13T14:53:20.000Z</time>
      </trkpt>
      <trkpt lat="44.96835" lon="0.39713">
        <ele>164</ele>
        <time>2012-03-13T14:53:21.000Z</time>
      </trkpt>
      <trkpt lat="44.96839" lon="0.39707">
        <ele>163</ele>
        <time>2012-03-13T14:53:22.000Z</time>
      </trkpt>
      <trkpt lat="44.96844" lon="0.39699">
        <ele>164</ele>
        <time>2012-03-13T14:53:23.000Z</time>
      </trkpt>
      <trkpt lat="44.96854" lon="0.39672">
        <ele>165</ele>
        <time>2012-03-13T14:53:26.000Z</time>
      </trkpt>
      <trkpt lat="44.96858" lon="0.39665">
        <ele>165</ele>
        <time>2012-03-13T14:53:27.000Z</time>
      </trkpt>
      <trkpt lat="44.96863" lon="0.39658">
        <ele>166</ele>
        <time>2012-03-13T14:53:28.000Z</time>
      </trkpt>
      <trkpt lat="44.96867" lon="0.3965">
        <ele>165</ele>
        <time>2012-03-13T14:53:29.000Z</time>
      </trkpt>
      <trkpt lat="44.9687" lon="0.3964">
        <ele>166</ele>
        <time>2012-03-13T14:53:30.000Z</time>
      </trkpt>
      <trkpt lat="44.96871" lon="0.39632">
        <ele>166</ele>
        <time>2012-03-13T14:53:31.000Z</time>
      </trkpt>
      <trkpt lat="44.96875" lon="0.39622">
        <ele>165</ele>
        <time>2012-03-13T14:53:33.000Z</time>
      </trkpt>
      <trkpt lat="44.9688" lon="0.39612">
        <ele>166</ele>
        <time>2012-03-13T14:53:35.000Z</time>
      </trkpt>
      <trkpt lat="44.96882" lon="0.39604">
        <ele>166</ele>
        <time>2012-03-13T14:53:37.000Z</time>
      </trkpt>
      <trkpt lat="44.96884" lon="0.39596">
        <ele>166</ele>
        <time>2012-03-13T14:53:39.000Z</time>
      </trkpt>
      <trkpt lat="44.9689" lon="0.3959">
        <ele>165</ele>
        <time>2012-03-13T14:53:41.000Z</time>
      </trkpt>
      <trkpt lat="44.96894" lon="0.39587">
        <ele>165</ele>
        <time>2012-03-13T14:53:42.000Z</time>
      </trkpt>
      <trkpt lat="44.96898" lon="0.39582">
        <ele>165</ele>
        <time>2012-03-13T14:53:43.000Z</time>
      </trkpt>
      <trkpt lat="44.96901" lon="0.39577">
        <ele>164</ele>
        <time>2012-03-13T14:53:44.000Z</time>
      </trkpt>
      <trkpt lat="44.96905" lon="0.39573">
        <ele>165</ele>
        <time>2012-03-13T14:53:45.000Z</time>
      </trkpt>
      <trkpt lat="44.96913" lon="0.39567">
        <ele>165</ele>
        <time>2012-03-13T14:53:47.000Z</time>
      </trkpt>
      <trkpt lat="44.96918" lon="0.39562">
        <ele>164</ele>
        <time>2012-03-13T14:53:48.000Z</time>
      </trkpt>
      <trkpt lat="44.96922" lon="0.39559">
        <ele>164</ele>
        <time>2012-03-13T14:53:49.000Z</time>
      </trkpt>
      <trkpt lat="44.9693" lon="0.39553">
        <ele>166</ele>
        <time>2012-03-13T14:53:51.000Z</time>
      </trkpt>
      <trkpt lat="44.9694" lon="0.39549">
        <ele>165</ele>
        <time>2012-03-13T14:53:53.000Z</time>
      </trkpt>
      <trkpt lat="44.96944" lon="0.39547">
        <ele>165</ele>
        <time>2012-03-13T14:53:54.000Z</time>
      </trkpt>
      <trkpt lat="44.96949" lon="0.39544">
        <ele>164</ele>
        <time>2012-03-13T14:53:55.000Z</time>
      </trkpt>
      <trkpt lat="44.96956" lon="0.39539">
        <ele>164</ele>
        <time>2012-03-13T14:53:56.000Z</time>
      </trkpt>
      <trkpt lat="44.96963" lon="0.39534">
        <ele>164</ele>
        <time>2012-03-13T14:53:57.000Z</time>
      </trkpt>
      <trkpt lat="44.96971" lon="0.3953">
        <ele>162</ele>
        <time>2012-03-13T14:53:58.000Z</time>
      </trkpt>
      <trkpt lat="44.96979" lon="0.39526">
        <ele>161</ele>
        <time>2012-03-13T14:53:59.000Z</time>
      </trkpt>
      <trkpt lat="44.96986" lon="0.39524">
        <ele>159</ele>
        <time>2012-03-13T14:54:00.000Z</time>
      </trkpt>
      <trkpt lat="44.96993" lon="0.39523">
        <ele>159</ele>
        <time>2012-03-13T14:54:01.000Z</time>
      </trkpt>
      <trkpt lat="44.96999" lon="0.39523">
        <ele>159</ele>
        <time>2012-03-13T14:54:02.000Z</time>
      </trkpt>
      <trkpt lat="44.97006" lon="0.39526">
        <ele>159</ele>
        <time>2012-03-13T14:54:03.000Z</time>
      </trkpt>
      <trkpt lat="44.97011" lon="0.39526">
        <ele>159</ele>
        <time>2012-03-13T14:54:04.000Z</time>
      </trkpt>
      <trkpt lat="44.97017" lon="0.39528">
        <ele>159</ele>
        <time>2012-03-13T14:54:05.000Z</time>
      </trkpt>
      <trkpt lat="44.97024" lon="0.3953">
        <ele>159</ele>
        <time>2012-03-13T14:54:06.000Z</time>
      </trkpt>
      <trkpt lat="44.9703" lon="0.3953">
        <ele>159</ele>
        <time>2012-03-13T14:54:07.000Z</time>
      </trkpt>
      <trkpt lat="44.97037" lon="0.39532">
        <ele>158</ele>
        <time>2012-03-13T14:54:08.000Z</time>
      </trkpt>
      <trkpt lat="44.97044" lon="0.39535">
        <ele>158</ele>
        <time>2012-03-13T14:54:09.000Z</time>
      </trkpt>
      <trkpt lat="44.97052" lon="0.39537">
        <ele>158</ele>
        <time>2012-03-13T14:54:10.000Z</time>
      </trkpt>
      <trkpt lat="44.9706" lon="0.3954">
        <ele>159</ele>
        <time>2012-03-13T14:54:11.000Z</time>
      </trkpt>
      <trkpt lat="44.97068" lon="0.39543">
        <ele>159</ele>
        <time>2012-03-13T14:54:12.000Z</time>
      </trkpt>
      <trkpt lat="44.97074" lon="0.39543">
        <ele>159</ele>
        <time>2012-03-13T14:54:13.000Z</time>
      </trkpt>
      <trkpt lat="44.9708" lon="0.39543">
        <ele>159</ele>
        <time>2012-03-13T14:54:14.000Z</time>
      </trkpt>
      <trkpt lat="44.97086" lon="0.39543">
        <ele>160</ele>
        <time>2012-03-13T14:54:15.000Z</time>
      </trkpt>
      <trkpt lat="44.97093" lon="0.39544">
        <ele>160</ele>
        <time>2012-03-13T14:54:16.000Z</time>
      </trkpt>
      <trkpt lat="44.971" lon="0.39542">
        <ele>158</ele>
        <time>2012-03-13T14:54:17.000Z</time>
      </trkpt>
      <trkpt lat="44.97106" lon="0.39542">
        <ele>159</ele>
        <time>2012-03-13T14:54:18.000Z</time>
      </trkpt>
      <trkpt lat="44.97112" lon="0.39543">
        <ele>158</ele>
        <time>2012-03-13T14:54:19.000Z</time>
      </trkpt>
      <trkpt lat="44.97119" lon="0.39544">
        <ele>159</ele>
        <time>2012-03-13T14:54:20.000Z</time>
      </trkpt>
      <trkpt lat="44.97124" lon="0.39545">
        <ele>160</ele>
        <time>2012-03-13T14:54:21.000Z</time>
      </trkpt>
      <trkpt lat="44.97128" lon="0.39545">
        <ele>160</ele>
        <time>2012-03-13T14:54:22.000Z</time>
      </trkpt>
      <trkpt lat="44.97133" lon="0.39546">
        <ele>161</ele>
        <time>2012-03-13T14:54:23.000Z</time>
      </trkpt>
      <trkpt lat="44.97147" lon="0.3954">
        <ele>161</ele>
        <time>2012-03-13T14:54:26.000Z</time>
      </trkpt>
      <trkpt lat="44.97152" lon="0.39537">
        <ele>161</ele>
        <time>2012-03-13T14:54:27.000Z</time>
      </trkpt>
      <trkpt lat="44.97158" lon="0.39537">
        <ele>161</ele>
        <time>2012-03-13T14:54:28.000Z</time>
      </trkpt>
      <trkpt lat="44.97164" lon="0.39534">
        <ele>161</ele>
        <time>2012-03-13T14:54:29.000Z</time>
      </trkpt>
      <trkpt lat="44.97172" lon="0.39528">
        <ele>159</ele>
        <time>2012-03-13T14:54:30.000Z</time>
      </trkpt>
      <trkpt lat="44.97179" lon="0.39521">
        <ele>158</ele>
        <time>2012-03-13T14:54:31.000Z</time>
      </trkpt>
      <trkpt lat="44.97185" lon="0.39515">
        <ele>158</ele>
        <time>2012-03-13T14:54:32.000Z</time>
      </trkpt>
      <trkpt lat="44.97192" lon="0.3951">
        <ele>157</ele>
        <time>2012-03-13T14:54:33.000Z</time>
      </trkpt>
      <trkpt lat="44.97198" lon="0.39506">
        <ele>157</ele>
        <time>2012-03-13T14:54:34.000Z</time>
      </trkpt>
      <trkpt lat="44.97205" lon="0.39501">
        <ele>156</ele>
        <time>2012-03-13T14:54:35.000Z</time>
      </trkpt>
      <trkpt lat="44.9721" lon="0.39496">
        <ele>155</ele>
        <time>2012-03-13T14:54:36.000Z</time>
      </trkpt>
      <trkpt lat="44.97215" lon="0.3949">
        <ele>155</ele>
        <time>2012-03-13T14:54:37.000Z</time>
      </trkpt>
      <trkpt lat="44.97221" lon="0.39486">
        <ele>154</ele>
        <time>2012-03-13T14:54:38.000Z</time>
      </trkpt>
      <trkpt lat="44.97226" lon="0.39481">
        <ele>153</ele>
        <time>2012-03-13T14:54:39.000Z</time>
      </trkpt>
      <trkpt lat="44.97233" lon="0.39475">
        <ele>151</ele>
        <time>2012-03-13T14:54:40.000Z</time>
      </trkpt>
      <trkpt lat="44.97239" lon="0.3947">
        <ele>150</ele>
        <time>2012-03-13T14:54:41.000Z</time>
      </trkpt>
      <trkpt lat="44.97244" lon="0.39467">
        <ele>150</ele>
        <time>2012-03-13T14:54:42.000Z</time>
      </trkpt>
      <trkpt lat="44.97251" lon="0.39463">
        <ele>149</ele>
        <time>2012-03-13T14:54:43.000Z</time>
      </trkpt>
      <trkpt lat="44.97256" lon="0.39458">
        <ele>148</ele>
        <time>2012-03-13T14:54:44.000Z</time>
      </trkpt>
      <trkpt lat="44.9726" lon="0.39453">
        <ele>147</ele>
        <time>2012-03-13T14:54:45.000Z</time>
      </trkpt>
      <trkpt lat="44.97267" lon="0.3945">
        <ele>146</ele>
        <time>2012-03-13T14:54:46.000Z</time>
      </trkpt>
      <trkpt lat="44.97273" lon="0.39446">
        <ele>146</ele>
        <time>2012-03-13T14:54:47.000Z</time>
      </trkpt>
      <trkpt lat="44.97279" lon="0.39441">
        <ele>145</ele>
        <time>2012-03-13T14:54:48.000Z</time>
      </trkpt>
      <trkpt lat="44.97285" lon="0.39436">
        <ele>145</ele>
        <time>2012-03-13T14:54:49.000Z</time>
      </trkpt>
      <trkpt lat="44.97291" lon="0.39431">
        <ele>145</ele>
        <time>2012-03-13T14:54:50.000Z</time>
      </trkpt>
      <trkpt lat="44.97297" lon="0.39425">
        <ele>145</ele>
        <time>2012-03-13T14:54:51.000Z</time>
      </trkpt>
      <trkpt lat="44.97303" lon="0.3942">
        <ele>145</ele>
        <time>2012-03-13T14:54:52.000Z</time>
      </trkpt>
      <trkpt lat="44.97309" lon="0.39416">
        <ele>145</ele>
        <time>2012-03-13T14:54:53.000Z</time>
      </trkpt>
      <trkpt lat="44.97316" lon="0.3941">
        <ele>145</ele>
        <time>2012-03-13T14:54:54.000Z</time>
      </trkpt>
      <trkpt lat="44.97322" lon="0.39406">
        <ele>145</ele>
        <time>2012-03-13T14:54:55.000Z</time>
      </trkpt>
      <trkpt lat="44.97328" lon="0.39402">
        <ele>145</ele>
        <time>2012-03-13T14:54:56.000Z</time>
      </trkpt>
      <trkpt lat="44.97333" lon="0.39398">
        <ele>145</ele>
        <time>2012-03-13T14:54:57.000Z</time>
      </trkpt>
      <trkpt lat="44.97339" lon="0.39395">
        <ele>144</ele>
        <time>2012-03-13T14:54:58.000Z</time>
      </trkpt>
      <trkpt lat="44.97345" lon="0.39391">
        <ele>144</ele>
        <time>2012-03-13T14:54:59.000Z</time>
      </trkpt>
      <trkpt lat="44.9735" lon="0.39386">
        <ele>143</ele>
        <time>2012-03-13T14:55:00.000Z</time>
      </trkpt>
      <trkpt lat="44.97356" lon="0.39382">
        <ele>142</ele>
        <time>2012-03-13T14:55:01.000Z</time>
      </trkpt>
      <trkpt lat="44.97363" lon="0.39378">
        <ele>142</ele>
        <time>2012-03-13T14:55:02.000Z</time>
      </trkpt>
      <trkpt lat="44.9737" lon="0.39373">
        <ele>141</ele>
        <time>2012-03-13T14:55:03.000Z</time>
      </trkpt>
      <trkpt lat="44.97376" lon="0.39368">
        <ele>142</ele>
        <time>2012-03-13T14:55:04.000Z</time>
      </trkpt>
      <trkpt lat="44.97382" lon="0.39363">
        <ele>142</ele>
        <time>2012-03-13T14:55:05.000Z</time>
      </trkpt>
      <trkpt lat="44.97389" lon="0.39359">
        <ele>142</ele>
        <time>2012-03-13T14:55:06.000Z</time>
      </trkpt>
      <trkpt lat="44.97395" lon="0.39354">
        <ele>141</ele>
        <time>2012-03-13T14:55:07.000Z</time>
      </trkpt>
      <trkpt lat="44.974" lon="0.39349">
        <ele>142</ele>
        <time>2012-03-13T14:55:08.000Z</time>
      </trkpt>
      <trkpt lat="44.97406" lon="0.39345">
        <ele>142</ele>
        <time>2012-03-13T14:55:09.000Z</time>
      </trkpt>
      <trkpt lat="44.97412" lon="0.3934">
        <ele>142</ele>
        <time>2012-03-13T14:55:10.000Z</time>
      </trkpt>
      <trkpt lat="44.97417" lon="0.39336">
        <ele>143</ele>
        <time>2012-03-13T14:55:11.000Z</time>
      </trkpt>
      <trkpt lat="44.97419" lon="0.3933">
        <ele>144</ele>
        <time>2012-03-13T14:55:12.000Z</time>
      </trkpt>
      <trkpt lat="44.97419" lon="0.39323">
        <ele>144</ele>
        <time>2012-03-13T14:55:13.000Z</time>
      </trkpt>
      <trkpt lat="44.97418" lon="0.39317">
        <ele>144</ele>
        <time>2012-03-13T14:55:14.000Z</time>
      </trkpt>
      <trkpt lat="44.97415" lon="0.3931">
        <ele>144</ele>
        <time>2012-03-13T14:55:15.000Z</time>
      </trkpt>
      <trkpt lat="44.97415" lon="0.39301">
        <ele>145</ele>
        <time>2012-03-13T14:55:17.000Z</time>
      </trkpt>
      <trkpt lat="44.9742" lon="0.39298">
        <ele>145</ele>
        <time>2012-03-13T14:55:19.000Z</time>
      </trkpt>
      <trkpt lat="44.97425" lon="0.393">
        <ele>146</ele>
        <time>2012-03-13T14:55:21.000Z</time>
      </trkpt>
      <trkpt lat="44.97431" lon="0.39302">
        <ele>146</ele>
        <time>2012-03-13T14:55:23.000Z</time>
      </trkpt>
      <trkpt lat="44.9744" lon="0.39299">
        <ele>146</ele>
        <time>2012-03-13T14:55:26.000Z</time>
      </trkpt>
      <trkpt lat="44.97446" lon="0.39294">
        <ele>146</ele>
        <time>2012-03-13T14:55:28.000Z</time>
      </trkpt>
      <trkpt lat="44.97454" lon="0.3929">
        <ele>147</ele>
        <time>2012-03-13T14:55:30.000Z</time>
      </trkpt>
      <trkpt lat="44.97462" lon="0.39286">
        <ele>147</ele>
        <time>2012-03-13T14:55:32.000Z</time>
      </trkpt>
      <trkpt lat="44.97468" lon="0.3928">
        <ele>147</ele>
        <time>2012-03-13T14:55:34.000Z</time>
      </trkpt>
      <trkpt lat="44.97475" lon="0.39274">
        <ele>148</ele>
        <time>2012-03-13T14:55:36.000Z</time>
      </trkpt>
      <trkpt lat="44.97482" lon="0.39269">
        <ele>147</ele>
        <time>2012-03-13T14:55:38.000Z</time>
      </trkpt>
      <trkpt lat="44.97486" lon="0.39266">
        <ele>148</ele>
        <time>2012-03-13T14:55:39.000Z</time>
      </trkpt>
      <trkpt lat="44.97491" lon="0.39265">
        <ele>147</ele>
        <time>2012-03-13T14:55:40.000Z</time>
      </trkpt>
      <trkpt lat="44.97498" lon="0.3926">
        <ele>147</ele>
        <time>2012-03-13T14:55:42.000Z</time>
      </trkpt>
      <trkpt lat="44.97506" lon="0.39257">
        <ele>148</ele>
        <time>2012-03-13T14:55:44.000Z</time>
      </trkpt>
      <trkpt lat="44.9751" lon="0.39255">
        <ele>148</ele>
        <time>2012-03-13T14:55:45.000Z</time>
      </trkpt>
      <trkpt lat="44.97519" lon="0.39249">
        <ele>148</ele>
        <time>2012-03-13T14:55:47.000Z</time>
      </trkpt>
      <trkpt lat="44.97525" lon="0.39242">
        <ele>149</ele>
        <time>2012-03-13T14:55:49.000Z</time>
      </trkpt>
      <trkpt lat="44.97531" lon="0.3924">
        <ele>148</ele>
        <time>2012-03-13T14:55:50.000Z</time>
      </trkpt>
      <trkpt lat="44.97538" lon="0.39234">
        <ele>149</ele>
        <time>2012-03-13T14:55:52.000Z</time>
      </trkpt>
      <trkpt lat="44.97546" lon="0.39228">
        <ele>150</ele>
        <time>2012-03-13T14:55:54.000Z</time>
      </trkpt>
      <trkpt lat="44.97558" lon="0.3922">
        <ele>150</ele>
        <time>2012-03-13T14:55:57.000Z</time>
      </trkpt>
      <trkpt lat="44.97565" lon="0.39219">
        <ele>153</ele>
        <time>2012-03-13T14:55:59.000Z</time>
      </trkpt>
      <trkpt lat="44.97573" lon="0.39216">
        <ele>154</ele>
        <time>2012-03-13T14:56:01.000Z</time>
      </trkpt>
      <trkpt lat="44.97578" lon="0.39215">
        <ele>155</ele>
        <time>2012-03-13T14:56:02.000Z</time>
      </trkpt>
      <trkpt lat="44.97585" lon="0.39212">
        <ele>156</ele>
        <time>2012-03-13T14:56:04.000Z</time>
      </trkpt>
      <trkpt lat="44.97594" lon="0.39211">
        <ele>157</ele>
        <time>2012-03-13T14:56:06.000Z</time>
      </trkpt>
      <trkpt lat="44.97603" lon="0.3921">
        <ele>158</ele>
        <time>2012-03-13T14:56:08.000Z</time>
      </trkpt>
      <trkpt lat="44.9761" lon="0.39209">
        <ele>159</ele>
        <time>2012-03-13T14:56:10.000Z</time>
      </trkpt>
      <trkpt lat="44.97618" lon="0.39207">
        <ele>160</ele>
        <time>2012-03-13T14:56:12.000Z</time>
      </trkpt>
      <trkpt lat="44.97625" lon="0.39206">
        <ele>160</ele>
        <time>2012-03-13T14:56:14.000Z</time>
      </trkpt>
      <trkpt lat="44.97633" lon="0.39208">
        <ele>158</ele>
        <time>2012-03-13T14:56:16.000Z</time>
      </trkpt>
      <trkpt lat="44.9764" lon="0.39207">
        <ele>158</ele>
        <time>2012-03-13T14:56:18.000Z</time>
      </trkpt>
      <trkpt lat="44.97648" lon="0.39206">
        <ele>159</ele>
        <time>2012-03-13T14:56:20.000Z</time>
      </trkpt>
      <trkpt lat="44.97655" lon="0.39205">
        <ele>160</ele>
        <time>2012-03-13T14:56:22.000Z</time>
      </trkpt>
      <trkpt lat="44.97664" lon="0.39204">
        <ele>161</ele>
        <time>2012-03-13T14:56:24.000Z</time>
      </trkpt>
      <trkpt lat="44.97672" lon="0.39204">
        <ele>161</ele>
        <time>2012-03-13T14:56:26.000Z</time>
      </trkpt>
      <trkpt lat="44.97681" lon="0.39203">
        <ele>161</ele>
        <time>2012-03-13T14:56:28.000Z</time>
      </trkpt>
      <trkpt lat="44.97686" lon="0.39202">
        <ele>161</ele>
        <time>2012-03-13T14:56:29.000Z</time>
      </trkpt>
      <trkpt lat="44.97691" lon="0.39201">
        <ele>161</ele>
        <time>2012-03-13T14:56:30.000Z</time>
      </trkpt>
      <trkpt lat="44.97696" lon="0.39201">
        <ele>161</ele>
        <time>2012-03-13T14:56:31.000Z</time>
      </trkpt>
      <trkpt lat="44.97701" lon="0.392">
        <ele>161</ele>
        <time>2012-03-13T14:56:32.000Z</time>
      </trkpt>
      <trkpt lat="44.97706" lon="0.39199">
        <ele>161</ele>
        <time>2012-03-13T14:56:33.000Z</time>
      </trkpt>
      <trkpt lat="44.97712" lon="0.39199">
        <ele>160</ele>
        <time>2012-03-13T14:56:34.000Z</time>
      </trkpt>
      <trkpt lat="44.97717" lon="0.39198">
        <ele>160</ele>
        <time>2012-03-13T14:56:35.000Z</time>
      </trkpt>
      <trkpt lat="44.97722" lon="0.39197">
        <ele>160</ele>
        <time>2012-03-13T14:56:36.000Z</time>
      </trkpt>
      <trkpt lat="44.97726" lon="0.39197">
        <ele>160</ele>
        <time>2012-03-13T14:56:37.000Z</time>
      </trkpt>
      <trkpt lat="44.97732" lon="0.39196">
        <ele>160</ele>
        <time>2012-03-13T14:56:38.000Z</time>
      </trkpt>
      <trkpt lat="44.97738" lon="0.39196">
        <ele>161</ele>
        <time>2012-03-13T14:56:39.000Z</time>
      </trkpt>
      <trkpt lat="44.97744" lon="0.39194">
        <ele>161</ele>
        <time>2012-03-13T14:56:40.000Z</time>
      </trkpt>
      <trkpt lat="44.97749" lon="0.39194">
        <ele>161</ele>
        <time>2012-03-13T14:56:41.000Z</time>
      </trkpt>
      <trkpt lat="44.97757" lon="0.39194">
        <ele>160</ele>
        <time>2012-03-13T14:56:42.000Z</time>
      </trkpt>
      <trkpt lat="44.97763" lon="0.39192">
        <ele>160</ele>
        <time>2012-03-13T14:56:43.000Z</time>
      </trkpt>
      <trkpt lat="44.97769" lon="0.39191">
        <ele>160</ele>
        <time>2012-03-13T14:56:44.000Z</time>
      </trkpt>
      <trkpt lat="44.97775" lon="0.3919">
        <ele>160</ele>
        <time>2012-03-13T14:56:45.000Z</time>
      </trkpt>
      <trkpt lat="44.97782" lon="0.3919">
        <ele>160</ele>
        <time>2012-03-13T14:56:46.000Z</time>
      </trkpt>
      <trkpt lat="44.97789" lon="0.39188">
        <ele>160</ele>
        <time>2012-03-13T14:56:47.000Z</time>
      </trkpt>
      <trkpt lat="44.97797" lon="0.39186">
        <ele>159</ele>
        <time>2012-03-13T14:56:48.000Z</time>
      </trkpt>
      <trkpt lat="44.97804" lon="0.39186">
        <ele>159</ele>
        <time>2012-03-13T14:56:49.000Z</time>
      </trkpt>
      <trkpt lat="44.97811" lon="0.39185">
        <ele>159</ele>
        <time>2012-03-13T14:56:50.000Z</time>
      </trkpt>
      <trkpt lat="44.97818" lon="0.39184">
        <ele>159</ele>
        <time>2012-03-13T14:56:51.000Z</time>
      </trkpt>
      <trkpt lat="44.97825" lon="0.39183">
        <ele>158</ele>
        <time>2012-03-13T14:56:52.000Z</time>
      </trkpt>
      <trkpt lat="44.97832" lon="0.39181">
        <ele>158</ele>
        <time>2012-03-13T14:56:53.000Z</time>
      </trkpt>
      <trkpt lat="44.97838" lon="0.39179">
        <ele>158</ele>
        <time>2012-03-13T14:56:54.000Z</time>
      </trkpt>
      <trkpt lat="44.97844" lon="0.39178">
        <ele>157</ele>
        <time>2012-03-13T14:56:55.000Z</time>
      </trkpt>
      <trkpt lat="44.9785" lon="0.39177">
        <ele>157</ele>
        <time>2012-03-13T14:56:56.000Z</time>
      </trkpt>
      <trkpt lat="44.97857" lon="0.39176">
        <ele>157</ele>
        <time>2012-03-13T14:56:57.000Z</time>
      </trkpt>
      <trkpt lat="44.97865" lon="0.39175">
        <ele>157</ele>
        <time>2012-03-13T14:56:58.000Z</time>
      </trkpt>
      <trkpt lat="44.97872" lon="0.39175">
        <ele>157</ele>
        <time>2012-03-13T14:56:59.000Z</time>
      </trkpt>
      <trkpt lat="44.9788" lon="0.39174">
        <ele>156</ele>
        <time>2012-03-13T14:57:00.000Z</time>
      </trkpt>
      <trkpt lat="44.97887" lon="0.39173">
        <ele>156</ele>
        <time>2012-03-13T14:57:01.000Z</time>
      </trkpt>
      <trkpt lat="44.97895" lon="0.39172">
        <ele>156</ele>
        <time>2012-03-13T14:57:02.000Z</time>
      </trkpt>
      <trkpt lat="44.97903" lon="0.3917">
        <ele>155</ele>
        <time>2012-03-13T14:57:03.000Z</time>
      </trkpt>
      <trkpt lat="44.97912" lon="0.39169">
        <ele>155</ele>
        <time>2012-03-13T14:57:04.000Z</time>
      </trkpt>
      <trkpt lat="44.97919" lon="0.39167">
        <ele>155</ele>
        <time>2012-03-13T14:57:05.000Z</time>
      </trkpt>
      <trkpt lat="44.97927" lon="0.39165">
        <ele>155</ele>
        <time>2012-03-13T14:57:06.000Z</time>
      </trkpt>
      <trkpt lat="44.97934" lon="0.39163">
        <ele>155</ele>
        <time>2012-03-13T14:57:07.000Z</time>
      </trkpt>
      <trkpt lat="44.97942" lon="0.39159">
        <ele>155</ele>
        <time>2012-03-13T14:57:08.000Z</time>
      </trkpt>
      <trkpt lat="44.97948" lon="0.39156">
        <ele>155</ele>
        <time>2012-03-13T14:57:09.000Z</time>
      </trkpt>
      <trkpt lat="44.97954" lon="0.39155">
        <ele>155</ele>
        <time>2012-03-13T14:57:10.000Z</time>
      </trkpt>
      <trkpt lat="44.97962" lon="0.39154">
        <ele>154</ele>
        <time>2012-03-13T14:57:11.000Z</time>
      </trkpt>
      <trkpt lat="44.97968" lon="0.39152">
        <ele>154</ele>
        <time>2012-03-13T14:57:12.000Z</time>
      </trkpt>
      <trkpt lat="44.97973" lon="0.3915">
        <ele>155</ele>
        <time>2012-03-13T14:57:13.000Z</time>
      </trkpt>
      <trkpt lat="44.97979" lon="0.39148">
        <ele>155</ele>
        <time>2012-03-13T14:57:14.000Z</time>
      </trkpt>
      <trkpt lat="44.97986" lon="0.39145">
        <ele>156</ele>
        <time>2012-03-13T14:57:15.000Z</time>
      </trkpt>
      <trkpt lat="44.97993" lon="0.39142">
        <ele>155</ele>
        <time>2012-03-13T14:57:16.000Z</time>
      </trkpt>
      <trkpt lat="44.98001" lon="0.39139">
        <ele>153</ele>
        <time>2012-03-13T14:57:17.000Z</time>
      </trkpt>
      <trkpt lat="44.98008" lon="0.39136">
        <ele>153</ele>
        <time>2012-03-13T14:57:18.000Z</time>
      </trkpt>
      <trkpt lat="44.98016" lon="0.39132">
        <ele>152</ele>
        <time>2012-03-13T14:57:19.000Z</time>
      </trkpt>
      <trkpt lat="44.98024" lon="0.39128">
        <ele>151</ele>
        <time>2012-03-13T14:57:20.000Z</time>
      </trkpt>
      <trkpt lat="44.98033" lon="0.39123">
        <ele>150</ele>
        <time>2012-03-13T14:57:21.000Z</time>
      </trkpt>
      <trkpt lat="44.9804" lon="0.39119">
        <ele>150</ele>
        <time>2012-03-13T14:57:22.000Z</time>
      </trkpt>
      <trkpt lat="44.98046" lon="0.39115">
        <ele>150</ele>
        <time>2012-03-13T14:57:23.000Z</time>
      </trkpt>
      <trkpt lat="44.98065" lon="0.39108">
        <ele>149</ele>
        <time>2012-03-13T14:57:26.000Z</time>
      </trkpt>
      <trkpt lat="44.98072" lon="0.39106">
        <ele>149</ele>
        <time>2012-03-13T14:57:27.000Z</time>
      </trkpt>
      <trkpt lat="44.98078" lon="0.39103">
        <ele>149</ele>
        <time>2012-03-13T14:57:28.000Z</time>
      </trkpt>
      <trkpt lat="44.98086" lon="0.391">
        <ele>149</ele>
        <time>2012-03-13T14:57:29.000Z</time>
      </trkpt>
      <trkpt lat="44.98093" lon="0.39096">
        <ele>149</ele>
        <time>2012-03-13T14:57:30.000Z</time>
      </trkpt>
      <trkpt lat="44.98099" lon="0.39095">
        <ele>149</ele>
        <time>2012-03-13T14:57:31.000Z</time>
      </trkpt>
      <trkpt lat="44.98105" lon="0.39088">
        <ele>149</ele>
        <time>2012-03-13T14:57:33.000Z</time>
      </trkpt>
      <trkpt lat="44.98112" lon="0.39083">
        <ele>149</ele>
        <time>2012-03-13T14:57:35.000Z</time>
      </trkpt>
      <trkpt lat="44.9812" lon="0.39081">
        <ele>148</ele>
        <time>2012-03-13T14:57:37.000Z</time>
      </trkpt>
      <trkpt lat="44.98128" lon="0.39076">
        <ele>147</ele>
        <time>2012-03-13T14:57:39.000Z</time>
      </trkpt>
      <trkpt lat="44.98132" lon="0.3907">
        <ele>147</ele>
        <time>2012-03-13T14:57:40.000Z</time>
      </trkpt>
      <trkpt lat="44.98137" lon="0.39064">
        <ele>147</ele>
        <time>2012-03-13T14:57:41.000Z</time>
      </trkpt>
      <trkpt lat="44.9814" lon="0.39058">
        <ele>147</ele>
        <time>2012-03-13T14:57:42.000Z</time>
      </trkpt>
      <trkpt lat="44.98144" lon="0.39053">
        <ele>146</ele>
        <time>2012-03-13T14:57:43.000Z</time>
      </trkpt>
      <trkpt lat="44.98154" lon="0.39049">
        <ele>146</ele>
        <time>2012-03-13T14:57:45.000Z</time>
      </trkpt>
      <trkpt lat="44.98158" lon="0.39045">
        <ele>150</ele>
        <time>2012-03-13T14:57:47.000Z</time>
      </trkpt>
      <trkpt lat="44.98163" lon="0.39044">
        <ele>154</ele>
        <time>2012-03-13T14:57:49.000Z</time>
      </trkpt>
      <trkpt lat="44.98168" lon="0.39042">
        <ele>155</ele>
        <time>2012-03-13T14:57:50.000Z</time>
      </trkpt>
      <trkpt lat="44.98172" lon="0.39039">
        <ele>154</ele>
        <time>2012-03-13T14:57:51.000Z</time>
      </trkpt>
      <trkpt lat="44.98177" lon="0.39036">
        <ele>154</ele>
        <time>2012-03-13T14:57:52.000Z</time>
      </trkpt>
      <trkpt lat="44.98182" lon="0.39034">
        <ele>154</ele>
        <time>2012-03-13T14:57:53.000Z</time>
      </trkpt>
      <trkpt lat="44.98187" lon="0.39031">
        <ele>154</ele>
        <time>2012-03-13T14:57:54.000Z</time>
      </trkpt>
      <trkpt lat="44.98192" lon="0.39029">
        <ele>153</ele>
        <time>2012-03-13T14:57:55.000Z</time>
      </trkpt>
      <trkpt lat="44.98198" lon="0.39028">
        <ele>153</ele>
        <time>2012-03-13T14:57:56.000Z</time>
      </trkpt>
      <trkpt lat="44.98203" lon="0.39027">
        <ele>152</ele>
        <time>2012-03-13T14:57:57.000Z</time>
      </trkpt>
      <trkpt lat="44.98208" lon="0.39025">
        <ele>152</ele>
        <time>2012-03-13T14:57:58.000Z</time>
      </trkpt>
      <trkpt lat="44.98214" lon="0.39022">
        <ele>151</ele>
        <time>2012-03-13T14:57:59.000Z</time>
      </trkpt>
      <trkpt lat="44.98221" lon="0.39015">
        <ele>151</ele>
        <time>2012-03-13T14:58:01.000Z</time>
      </trkpt>
      <trkpt lat="44.98225" lon="0.3901">
        <ele>150</ele>
        <time>2012-03-13T14:58:02.000Z</time>
      </trkpt>
      <trkpt lat="44.9823" lon="0.39004">
        <ele>150</ele>
        <time>2012-03-13T14:58:03.000Z</time>
      </trkpt>
      <trkpt lat="44.98234" lon="0.38999">
        <ele>150</ele>
        <time>2012-03-13T14:58:04.000Z</time>
      </trkpt>
      <trkpt lat="44.98239" lon="0.38994">
        <ele>150</ele>
        <time>2012-03-13T14:58:05.000Z</time>
      </trkpt>
      <trkpt lat="44.98244" lon="0.38988">
        <ele>150</ele>
        <time>2012-03-13T14:58:06.000Z</time>
      </trkpt>
      <trkpt lat="44.98249" lon="0.38983">
        <ele>150</ele>
        <time>2012-03-13T14:58:07.000Z</time>
      </trkpt>
      <trkpt lat="44.98254" lon="0.38977">
        <ele>149</ele>
        <time>2012-03-13T14:58:08.000Z</time>
      </trkpt>
      <trkpt lat="44.98259" lon="0.3897">
        <ele>148</ele>
        <time>2012-03-13T14:58:09.000Z</time>
      </trkpt>
      <trkpt lat="44.98265" lon="0.38961">
        <ele>148</ele>
        <time>2012-03-13T14:58:10.000Z</time>
      </trkpt>
      <trkpt lat="44.9827" lon="0.38954">
        <ele>147</ele>
        <time>2012-03-13T14:58:11.000Z</time>
      </trkpt>
      <trkpt lat="44.98275" lon="0.38945">
        <ele>147</ele>
        <time>2012-03-13T14:58:12.000Z</time>
      </trkpt>
      <trkpt lat="44.98281" lon="0.38936">
        <ele>146</ele>
        <time>2012-03-13T14:58:13.000Z</time>
      </trkpt>
      <trkpt lat="44.98287" lon="0.38928">
        <ele>145</ele>
        <time>2012-03-13T14:58:14.000Z</time>
      </trkpt>
      <trkpt lat="44.98292" lon="0.3892">
        <ele>144</ele>
        <time>2012-03-13T14:58:15.000Z</time>
      </trkpt>
      <trkpt lat="44.98299" lon="0.38913">
        <ele>143</ele>
        <time>2012-03-13T14:58:16.000Z</time>
      </trkpt>
      <trkpt lat="44.98304" lon="0.38905">
        <ele>142</ele>
        <time>2012-03-13T14:58:17.000Z</time>
      </trkpt>
      <trkpt lat="44.9831" lon="0.38898">
        <ele>142</ele>
        <time>2012-03-13T14:58:18.000Z</time>
      </trkpt>
      <trkpt lat="44.98316" lon="0.38892">
        <ele>141</ele>
        <time>2012-03-13T14:58:19.000Z</time>
      </trkpt>
      <trkpt lat="44.98321" lon="0.38882">
        <ele>141</ele>
        <time>2012-03-13T14:58:20.000Z</time>
      </trkpt>
      <trkpt lat="44.98327" lon="0.38872">
        <ele>140</ele>
        <time>2012-03-13T14:58:21.000Z</time>
      </trkpt>
      <trkpt lat="44.98332" lon="0.38861">
        <ele>138</ele>
        <time>2012-03-13T14:58:22.000Z</time>
      </trkpt>
      <trkpt lat="44.98338" lon="0.38852">
        <ele>137</ele>
        <time>2012-03-13T14:58:23.000Z</time>
      </trkpt>
      <trkpt lat="44.98348" lon="0.38815">
        <ele>131</ele>
        <time>2012-03-13T14:58:26.000Z</time>
      </trkpt>
      <trkpt lat="44.98352" lon="0.38804">
        <ele>132</ele>
        <time>2012-03-13T14:58:27.000Z</time>
      </trkpt>
      <trkpt lat="44.98355" lon="0.38793">
        <ele>132</ele>
        <time>2012-03-13T14:58:28.000Z</time>
      </trkpt>
      <trkpt lat="44.98359" lon="0.38783">
        <ele>131</ele>
        <time>2012-03-13T14:58:29.000Z</time>
      </trkpt>
      <trkpt lat="44.98361" lon="0.38773">
        <ele>131</ele>
        <time>2012-03-13T14:58:30.000Z</time>
      </trkpt>
      <trkpt lat="44.98364" lon="0.38762">
        <ele>130</ele>
        <time>2012-03-13T14:58:31.000Z</time>
      </trkpt>
      <trkpt lat="44.98365" lon="0.38752">
        <ele>131</ele>
        <time>2012-03-13T14:58:32.000Z</time>
      </trkpt>
      <trkpt lat="44.98368" lon="0.38743">
        <ele>131</ele>
        <time>2012-03-13T14:58:33.000Z</time>
      </trkpt>
      <trkpt lat="44.9837" lon="0.38733">
        <ele>131</ele>
        <time>2012-03-13T14:58:34.000Z</time>
      </trkpt>
      <trkpt lat="44.98373" lon="0.38724">
        <ele>130</ele>
        <time>2012-03-13T14:58:35.000Z</time>
      </trkpt>
      <trkpt lat="44.98374" lon="0.38714">
        <ele>130</ele>
        <time>2012-03-13T14:58:36.000Z</time>
      </trkpt>
      <trkpt lat="44.98377" lon="0.38705">
        <ele>129</ele>
        <time>2012-03-13T14:58:37.000Z</time>
      </trkpt>
      <trkpt lat="44.98379" lon="0.38697">
        <ele>129</ele>
        <time>2012-03-13T14:58:38.000Z</time>
      </trkpt>
      <trkpt lat="44.98382" lon="0.38689">
        <ele>129</ele>
        <time>2012-03-13T14:58:39.000Z</time>
      </trkpt>
      <trkpt lat="44.98383" lon="0.38682">
        <ele>129</ele>
        <time>2012-03-13T14:58:40.000Z</time>
      </trkpt>
      <trkpt lat="44.98385" lon="0.38675">
        <ele>129</ele>
        <time>2012-03-13T14:58:41.000Z</time>
      </trkpt>
      <trkpt lat="44.98388" lon="0.3867">
        <ele>130</ele>
        <time>2012-03-13T14:58:42.000Z</time>
      </trkpt>
      <trkpt lat="44.98393" lon="0.38668">
        <ele>129</ele>
        <time>2012-03-13T14:58:43.000Z</time>
      </trkpt>
      <trkpt lat="44.98402" lon="0.38668">
        <ele>128</ele>
        <time>2012-03-13T14:58:45.000Z</time>
      </trkpt>
      <trkpt lat="44.98408" lon="0.38671">
        <ele>127</ele>
        <time>2012-03-13T14:58:46.000Z</time>
      </trkpt>
      <trkpt lat="44.98413" lon="0.38675">
        <ele>127</ele>
        <time>2012-03-13T14:58:47.000Z</time>
      </trkpt>
      <trkpt lat="44.98419" lon="0.38678">
        <ele>127</ele>
        <time>2012-03-13T14:58:48.000Z</time>
      </trkpt>
      <trkpt lat="44.98425" lon="0.38681">
        <ele>127</ele>
        <time>2012-03-13T14:58:49.000Z</time>
      </trkpt>
      <trkpt lat="44.98431" lon="0.38685">
        <ele>127</ele>
        <time>2012-03-13T14:58:50.000Z</time>
      </trkpt>
      <trkpt lat="44.98437" lon="0.3869">
        <ele>126</ele>
        <time>2012-03-13T14:58:51.000Z</time>
      </trkpt>
      <trkpt lat="44.98443" lon="0.38695">
        <ele>126</ele>
        <time>2012-03-13T14:58:52.000Z</time>
      </trkpt>
      <trkpt lat="44.98448" lon="0.387">
        <ele>126</ele>
        <time>2012-03-13T14:58:53.000Z</time>
      </trkpt>
      <trkpt lat="44.98452" lon="0.38706">
        <ele>126</ele>
        <time>2012-03-13T14:58:54.000Z</time>
      </trkpt>
      <trkpt lat="44.98457" lon="0.38712">
        <ele>125</ele>
        <time>2012-03-13T14:58:55.000Z</time>
      </trkpt>
      <trkpt lat="44.98461" lon="0.3872">
        <ele>124</ele>
        <time>2012-03-13T14:58:56.000Z</time>
      </trkpt>
      <trkpt lat="44.98466" lon="0.38727">
        <ele>124</ele>
        <time>2012-03-13T14:58:57.000Z</time>
      </trkpt>
      <trkpt lat="44.9847" lon="0.38736">
        <ele>123</ele>
        <time>2012-03-13T14:58:58.000Z</time>
      </trkpt>
      <trkpt lat="44.98474" lon="0.38744">
        <ele>123</ele>
        <time>2012-03-13T14:58:59.000Z</time>
      </trkpt>
      <trkpt lat="44.98478" lon="0.38752">
        <ele>124</ele>
        <time>2012-03-13T14:59:00.000Z</time>
      </trkpt>
      <trkpt lat="44.98482" lon="0.38759">
        <ele>124</ele>
        <time>2012-03-13T14:59:01.000Z</time>
      </trkpt>
      <trkpt lat="44.98487" lon="0.38765">
        <ele>124</ele>
        <time>2012-03-13T14:59:02.000Z</time>
      </trkpt>
      <trkpt lat="44.98491" lon="0.38771">
        <ele>123</ele>
        <time>2012-03-13T14:59:03.000Z</time>
      </trkpt>
      <trkpt lat="44.98495" lon="0.38777">
        <ele>124</ele>
        <time>2012-03-13T14:59:04.000Z</time>
      </trkpt>
      <trkpt lat="44.98499" lon="0.38784">
        <ele>124</ele>
        <time>2012-03-13T14:59:05.000Z</time>
      </trkpt>
      <trkpt lat="44.98503" lon="0.3879">
        <ele>124</ele>
        <time>2012-03-13T14:59:06.000Z</time>
      </trkpt>
      <trkpt lat="44.98507" lon="0.38796">
        <ele>124</ele>
        <time>2012-03-13T14:59:07.000Z</time>
      </trkpt>
      <trkpt lat="44.98511" lon="0.38801">
        <ele>123</ele>
        <time>2012-03-13T14:59:08.000Z</time>
      </trkpt>
      <trkpt lat="44.98516" lon="0.38813">
        <ele>123</ele>
        <time>2012-03-13T14:59:10.000Z</time>
      </trkpt>
      <trkpt lat="44.98518" lon="0.38818">
        <ele>124</ele>
        <time>2012-03-13T14:59:11.000Z</time>
      </trkpt>
      <trkpt lat="44.98523" lon="0.38828">
        <ele>124</ele>
        <time>2012-03-13T14:59:13.000Z</time>
      </trkpt>
      <trkpt lat="44.98527" lon="0.38835">
        <ele>124</ele>
        <time>2012-03-13T14:59:15.000Z</time>
      </trkpt>
      <trkpt lat="44.98528" lon="0.3884">
        <ele>124</ele>
        <time>2012-03-13T14:59:19.000Z</time>
      </trkpt>
      <trkpt lat="44.98528" lon="0.3884">
        <ele>124</ele>
        <time>2012-03-13T14:59:19.000Z</time>
      </trkpt>
    </trkseg>
  </trk>
</gpx>